<?xml version="1.0" encoding="UTF-8" standalone="no" ?>
<gpx xmlns="http://www.topografix.com/GPX/1/1" xmlns:xsi="http://www.w3.org/2001/XMLSchema-instance" xsi:schemaLocation="http://www.topografix.com/GPX/1/1 http://www.topografix.com/GPX/1/1/gpx.xsd" version="1.1" creator="VisuGPX - https://www.visugpx.com">
  <metadata>
    <name>AubussaneLoisir sortie vtt - 13 nov 2011</name>
    <desc><![CDATA[AubussaneLoisir sortie vtt - 13 nov 2011]]></desc>
  </metadata>
  <trk>
    <name><![CDATA[2011-11-13 09:05]]></name>
    <desc><![CDATA[]]></desc>
    <trkseg>
      <trkpt lat="44.00599" lon="4.31763">
        <ele>194.3</ele>
        <time>2011-11-13T08:06:02Z</time>
      </trkpt>
      <trkpt lat="44.00604" lon="4.31758">
        <ele>180.8</ele>
        <time>2011-11-13T08:06:50Z</time>
      </trkpt>
      <trkpt lat="44.006" lon="4.31752">
        <ele>179.6</ele>
        <time>2011-11-13T08:06:56Z</time>
      </trkpt>
      <trkpt lat="44.00595" lon="4.31754">
        <ele>179.4</ele>
        <time>2011-11-13T08:07:01Z</time>
      </trkpt>
      <trkpt lat="44.0059" lon="4.31751">
        <ele>178.6</ele>
        <time>2011-11-13T08:07:06Z</time>
      </trkpt>
      <trkpt lat="44.00588" lon="4.31745">
        <ele>178.6</ele>
        <time>2011-11-13T08:07:11Z</time>
      </trkpt>
      <trkpt lat="44.00587" lon="4.31737">
        <ele>179.3</ele>
        <time>2011-11-13T08:07:18Z</time>
      </trkpt>
      <trkpt lat="44.00584" lon="4.31731">
        <ele>179.5</ele>
        <time>2011-11-13T08:07:23Z</time>
      </trkpt>
      <trkpt lat="44.00588" lon="4.31727">
        <ele>179.6</ele>
        <time>2011-11-13T08:07:37Z</time>
      </trkpt>
      <trkpt lat="44.00593" lon="4.31723">
        <ele>179.9</ele>
        <time>2011-11-13T08:07:42Z</time>
      </trkpt>
      <trkpt lat="44.00597" lon="4.3172">
        <ele>180</ele>
        <time>2011-11-13T08:07:46Z</time>
      </trkpt>
      <trkpt lat="44.00602" lon="4.31718">
        <ele>180.4</ele>
        <time>2011-11-13T08:07:50Z</time>
      </trkpt>
      <trkpt lat="44.00599" lon="4.31723">
        <ele>181.1</ele>
        <time>2011-11-13T08:08:03Z</time>
      </trkpt>
      <trkpt lat="44.00595" lon="4.31727">
        <ele>181</ele>
        <time>2011-11-13T08:08:25Z</time>
      </trkpt>
      <trkpt lat="44.0059" lon="4.31725">
        <ele>179.1</ele>
        <time>2011-11-13T08:08:33Z</time>
      </trkpt>
      <trkpt lat="44.00587" lon="4.3173">
        <ele>176.2</ele>
        <time>2011-11-13T08:09:35Z</time>
      </trkpt>
      <trkpt lat="44.00584" lon="4.31735">
        <ele>176.6</ele>
        <time>2011-11-13T08:09:40Z</time>
      </trkpt>
      <trkpt lat="44.0058" lon="4.3173">
        <ele>177.3</ele>
        <time>2011-11-13T08:10:27Z</time>
      </trkpt>
      <trkpt lat="44.00576" lon="4.31724">
        <ele>177.7</ele>
        <time>2011-11-13T08:10:30Z</time>
      </trkpt>
      <trkpt lat="44.00573" lon="4.31716">
        <ele>177.5</ele>
        <time>2011-11-13T08:10:33Z</time>
      </trkpt>
      <trkpt lat="44.00572" lon="4.31709">
        <ele>177.5</ele>
        <time>2011-11-13T08:10:35Z</time>
      </trkpt>
      <trkpt lat="44.00572" lon="4.317">
        <ele>177.6</ele>
        <time>2011-11-13T08:10:38Z</time>
      </trkpt>
      <trkpt lat="44.00571" lon="4.31692">
        <ele>177.8</ele>
        <time>2011-11-13T08:10:41Z</time>
      </trkpt>
      <trkpt lat="44.00568" lon="4.31685">
        <ele>178.1</ele>
        <time>2011-11-13T08:10:44Z</time>
      </trkpt>
      <trkpt lat="44.00567" lon="4.31677">
        <ele>178.6</ele>
        <time>2011-11-13T08:10:47Z</time>
      </trkpt>
      <trkpt lat="44.00567" lon="4.31669">
        <ele>178.9</ele>
        <time>2011-11-13T08:10:50Z</time>
      </trkpt>
      <trkpt lat="44.00567" lon="4.31662">
        <ele>178.8</ele>
        <time>2011-11-13T08:10:52Z</time>
      </trkpt>
      <trkpt lat="44.00564" lon="4.31655">
        <ele>178.8</ele>
        <time>2011-11-13T08:10:54Z</time>
      </trkpt>
      <trkpt lat="44.00561" lon="4.31648">
        <ele>178.7</ele>
        <time>2011-11-13T08:10:56Z</time>
      </trkpt>
      <trkpt lat="44.00559" lon="4.3164">
        <ele>178.4</ele>
        <time>2011-11-13T08:10:58Z</time>
      </trkpt>
      <trkpt lat="44.00558" lon="4.31634">
        <ele>178.2</ele>
        <time>2011-11-13T08:11:00Z</time>
      </trkpt>
      <trkpt lat="44.00559" lon="4.31626">
        <ele>178.4</ele>
        <time>2011-11-13T08:11:03Z</time>
      </trkpt>
      <trkpt lat="44.00561" lon="4.3162">
        <ele>178.7</ele>
        <time>2011-11-13T08:11:05Z</time>
      </trkpt>
      <trkpt lat="44.00564" lon="4.31612">
        <ele>179</ele>
        <time>2011-11-13T08:11:08Z</time>
      </trkpt>
      <trkpt lat="44.00567" lon="4.31605">
        <ele>179.2</ele>
        <time>2011-11-13T08:11:11Z</time>
      </trkpt>
      <trkpt lat="44.0057" lon="4.31598">
        <ele>179.4</ele>
        <time>2011-11-13T08:11:14Z</time>
      </trkpt>
      <trkpt lat="44.00573" lon="4.31591">
        <ele>179.6</ele>
        <time>2011-11-13T08:11:17Z</time>
      </trkpt>
      <trkpt lat="44.00576" lon="4.31586">
        <ele>179.8</ele>
        <time>2011-11-13T08:11:20Z</time>
      </trkpt>
      <trkpt lat="44.0058" lon="4.31579">
        <ele>180</ele>
        <time>2011-11-13T08:11:23Z</time>
      </trkpt>
      <trkpt lat="44.00583" lon="4.31574">
        <ele>180</ele>
        <time>2011-11-13T08:11:25Z</time>
      </trkpt>
      <trkpt lat="44.00586" lon="4.31569">
        <ele>180.3</ele>
        <time>2011-11-13T08:11:27Z</time>
      </trkpt>
      <trkpt lat="44.00589" lon="4.31564">
        <ele>180.5</ele>
        <time>2011-11-13T08:11:29Z</time>
      </trkpt>
      <trkpt lat="44.00594" lon="4.31557">
        <ele>180.8</ele>
        <time>2011-11-13T08:11:32Z</time>
      </trkpt>
      <trkpt lat="44.00597" lon="4.31549">
        <ele>181.1</ele>
        <time>2011-11-13T08:11:35Z</time>
      </trkpt>
      <trkpt lat="44.00598" lon="4.31543">
        <ele>181.3</ele>
        <time>2011-11-13T08:11:37Z</time>
      </trkpt>
      <trkpt lat="44.006" lon="4.31537">
        <ele>181.5</ele>
        <time>2011-11-13T08:11:39Z</time>
      </trkpt>
      <trkpt lat="44.00601" lon="4.3153">
        <ele>181.6</ele>
        <time>2011-11-13T08:11:41Z</time>
      </trkpt>
      <trkpt lat="44.00603" lon="4.31524">
        <ele>181.8</ele>
        <time>2011-11-13T08:11:43Z</time>
      </trkpt>
      <trkpt lat="44.00605" lon="4.31517">
        <ele>182</ele>
        <time>2011-11-13T08:11:45Z</time>
      </trkpt>
      <trkpt lat="44.00606" lon="4.31511">
        <ele>182.1</ele>
        <time>2011-11-13T08:11:47Z</time>
      </trkpt>
      <trkpt lat="44.00608" lon="4.31503">
        <ele>182.4</ele>
        <time>2011-11-13T08:11:50Z</time>
      </trkpt>
      <trkpt lat="44.00612" lon="4.31496">
        <ele>182.7</ele>
        <time>2011-11-13T08:11:53Z</time>
      </trkpt>
      <trkpt lat="44.00616" lon="4.31489">
        <ele>183.2</ele>
        <time>2011-11-13T08:11:56Z</time>
      </trkpt>
      <trkpt lat="44.00618" lon="4.31481">
        <ele>183.5</ele>
        <time>2011-11-13T08:11:59Z</time>
      </trkpt>
      <trkpt lat="44.00618" lon="4.31474">
        <ele>183.6</ele>
        <time>2011-11-13T08:12:01Z</time>
      </trkpt>
      <trkpt lat="44.00619" lon="4.31468">
        <ele>183.6</ele>
        <time>2011-11-13T08:12:03Z</time>
      </trkpt>
      <trkpt lat="44.00619" lon="4.31461">
        <ele>183.7</ele>
        <time>2011-11-13T08:12:05Z</time>
      </trkpt>
      <trkpt lat="44.00619" lon="4.31455">
        <ele>184</ele>
        <time>2011-11-13T08:12:07Z</time>
      </trkpt>
      <trkpt lat="44.00618" lon="4.31448">
        <ele>183.9</ele>
        <time>2011-11-13T08:12:09Z</time>
      </trkpt>
      <trkpt lat="44.00618" lon="4.31288">
        <ele>197.1</ele>
        <time>2011-11-13T08:13:14Z</time>
      </trkpt>
      <trkpt lat="44.00616" lon="4.31276">
        <ele>192</ele>
        <time>2011-11-13T08:13:17Z</time>
      </trkpt>
      <trkpt lat="44.00617" lon="4.31265">
        <ele>189.3</ele>
        <time>2011-11-13T08:13:19Z</time>
      </trkpt>
      <trkpt lat="44.00618" lon="4.31258">
        <ele>190.6</ele>
        <time>2011-11-13T08:13:21Z</time>
      </trkpt>
      <trkpt lat="44.00618" lon="4.3125">
        <ele>190.7</ele>
        <time>2011-11-13T08:13:23Z</time>
      </trkpt>
      <trkpt lat="44.0062" lon="4.31243">
        <ele>190.1</ele>
        <time>2011-11-13T08:13:25Z</time>
      </trkpt>
      <trkpt lat="44.00621" lon="4.31236">
        <ele>189.6</ele>
        <time>2011-11-13T08:13:27Z</time>
      </trkpt>
      <trkpt lat="44.00624" lon="4.31229">
        <ele>189.8</ele>
        <time>2011-11-13T08:13:30Z</time>
      </trkpt>
      <trkpt lat="44.00624" lon="4.31223">
        <ele>190.2</ele>
        <time>2011-11-13T08:13:32Z</time>
      </trkpt>
      <trkpt lat="44.00627" lon="4.31216">
        <ele>190.3</ele>
        <time>2011-11-13T08:13:34Z</time>
      </trkpt>
      <trkpt lat="44.0063" lon="4.31209">
        <ele>189.9</ele>
        <time>2011-11-13T08:13:36Z</time>
      </trkpt>
      <trkpt lat="44.00632" lon="4.31202">
        <ele>190</ele>
        <time>2011-11-13T08:13:38Z</time>
      </trkpt>
      <trkpt lat="44.00634" lon="4.31194">
        <ele>189.8</ele>
        <time>2011-11-13T08:13:40Z</time>
      </trkpt>
      <trkpt lat="44.00636" lon="4.31188">
        <ele>190.2</ele>
        <time>2011-11-13T08:13:42Z</time>
      </trkpt>
      <trkpt lat="44.00637" lon="4.31181">
        <ele>190.7</ele>
        <time>2011-11-13T08:13:44Z</time>
      </trkpt>
      <trkpt lat="44.00639" lon="4.31175">
        <ele>191.3</ele>
        <time>2011-11-13T08:13:46Z</time>
      </trkpt>
      <trkpt lat="44.00641" lon="4.31169">
        <ele>191.7</ele>
        <time>2011-11-13T08:13:48Z</time>
      </trkpt>
      <trkpt lat="44.00643" lon="4.31164">
        <ele>191.9</ele>
        <time>2011-11-13T08:13:50Z</time>
      </trkpt>
      <trkpt lat="44.00645" lon="4.31158">
        <ele>192.2</ele>
        <time>2011-11-13T08:13:52Z</time>
      </trkpt>
      <trkpt lat="44.00646" lon="4.31152">
        <ele>192.2</ele>
        <time>2011-11-13T08:13:54Z</time>
      </trkpt>
      <trkpt lat="44.00648" lon="4.31146">
        <ele>192.5</ele>
        <time>2011-11-13T08:13:56Z</time>
      </trkpt>
      <trkpt lat="44.0065" lon="4.3114">
        <ele>192.7</ele>
        <time>2011-11-13T08:13:58Z</time>
      </trkpt>
      <trkpt lat="44.00651" lon="4.31133">
        <ele>193.1</ele>
        <time>2011-11-13T08:14:00Z</time>
      </trkpt>
      <trkpt lat="44.00651" lon="4.31126">
        <ele>193.3</ele>
        <time>2011-11-13T08:14:02Z</time>
      </trkpt>
      <trkpt lat="44.00651" lon="4.31119">
        <ele>193.6</ele>
        <time>2011-11-13T08:14:04Z</time>
      </trkpt>
      <trkpt lat="44.00651" lon="4.31112">
        <ele>193.7</ele>
        <time>2011-11-13T08:14:06Z</time>
      </trkpt>
      <trkpt lat="44.00651" lon="4.31105">
        <ele>193.6</ele>
        <time>2011-11-13T08:14:08Z</time>
      </trkpt>
      <trkpt lat="44.00651" lon="4.31098">
        <ele>193.8</ele>
        <time>2011-11-13T08:14:10Z</time>
      </trkpt>
      <trkpt lat="44.00651" lon="4.31091">
        <ele>194.1</ele>
        <time>2011-11-13T08:14:12Z</time>
      </trkpt>
      <trkpt lat="44.00652" lon="4.31085">
        <ele>194.1</ele>
        <time>2011-11-13T08:14:14Z</time>
      </trkpt>
      <trkpt lat="44.00652" lon="4.31076">
        <ele>194.2</ele>
        <time>2011-11-13T08:14:17Z</time>
      </trkpt>
      <trkpt lat="44.00655" lon="4.31068">
        <ele>194.4</ele>
        <time>2011-11-13T08:14:20Z</time>
      </trkpt>
      <trkpt lat="44.00657" lon="4.3106">
        <ele>194.5</ele>
        <time>2011-11-13T08:14:23Z</time>
      </trkpt>
      <trkpt lat="44.00658" lon="4.31053">
        <ele>194.3</ele>
        <time>2011-11-13T08:14:25Z</time>
      </trkpt>
      <trkpt lat="44.00658" lon="4.31045">
        <ele>194.4</ele>
        <time>2011-11-13T08:14:28Z</time>
      </trkpt>
      <trkpt lat="44.0066" lon="4.31039">
        <ele>194.3</ele>
        <time>2011-11-13T08:14:31Z</time>
      </trkpt>
      <trkpt lat="44.00663" lon="4.31032">
        <ele>194.6</ele>
        <time>2011-11-13T08:14:35Z</time>
      </trkpt>
      <trkpt lat="44.00663" lon="4.31025">
        <ele>194.7</ele>
        <time>2011-11-13T08:14:39Z</time>
      </trkpt>
      <trkpt lat="44.00662" lon="4.31018">
        <ele>194.7</ele>
        <time>2011-11-13T08:14:44Z</time>
      </trkpt>
      <trkpt lat="44.00662" lon="4.31018">
        <ele>194.7</ele>
        <time>2011-11-13T08:14:44Z</time>
      </trkpt>
      <trkpt lat="44.00662" lon="4.31018">
        <ele>194.7</ele>
        <time>2011-11-13T08:14:46Z</time>
      </trkpt>
      <trkpt lat="44.00661" lon="4.31011">
        <ele>194.8</ele>
        <time>2011-11-13T08:14:48Z</time>
      </trkpt>
      <trkpt lat="44.0066" lon="4.31004">
        <ele>195</ele>
        <time>2011-11-13T08:14:51Z</time>
      </trkpt>
      <trkpt lat="44.00659" lon="4.30994">
        <ele>195.1</ele>
        <time>2011-11-13T08:14:54Z</time>
      </trkpt>
      <trkpt lat="44.00658" lon="4.30987">
        <ele>195.3</ele>
        <time>2011-11-13T08:14:56Z</time>
      </trkpt>
      <trkpt lat="44.00657" lon="4.30979">
        <ele>195.1</ele>
        <time>2011-11-13T08:14:58Z</time>
      </trkpt>
      <trkpt lat="44.00656" lon="4.30971">
        <ele>194.9</ele>
        <time>2011-11-13T08:15:00Z</time>
      </trkpt>
      <trkpt lat="44.00654" lon="4.30963">
        <ele>194.7</ele>
        <time>2011-11-13T08:15:03Z</time>
      </trkpt>
      <trkpt lat="44.00654" lon="4.30954">
        <ele>194.5</ele>
        <time>2011-11-13T08:15:06Z</time>
      </trkpt>
      <trkpt lat="44.00652" lon="4.30945">
        <ele>194.4</ele>
        <time>2011-11-13T08:15:09Z</time>
      </trkpt>
      <trkpt lat="44.00651" lon="4.30937">
        <ele>194.2</ele>
        <time>2011-11-13T08:15:12Z</time>
      </trkpt>
      <trkpt lat="44.00649" lon="4.30929">
        <ele>194.2</ele>
        <time>2011-11-13T08:15:15Z</time>
      </trkpt>
      <trkpt lat="44.00648" lon="4.3092">
        <ele>194</ele>
        <time>2011-11-13T08:15:18Z</time>
      </trkpt>
      <trkpt lat="44.00646" lon="4.30912">
        <ele>193.8</ele>
        <time>2011-11-13T08:15:21Z</time>
      </trkpt>
      <trkpt lat="44.00644" lon="4.30905">
        <ele>193.6</ele>
        <time>2011-11-13T08:15:24Z</time>
      </trkpt>
      <trkpt lat="44.00642" lon="4.30897">
        <ele>193.6</ele>
        <time>2011-11-13T08:15:27Z</time>
      </trkpt>
      <trkpt lat="44.0064" lon="4.3089">
        <ele>193.4</ele>
        <time>2011-11-13T08:15:29Z</time>
      </trkpt>
      <trkpt lat="44.00638" lon="4.30882">
        <ele>193.3</ele>
        <time>2011-11-13T08:15:32Z</time>
      </trkpt>
      <trkpt lat="44.00637" lon="4.30876">
        <ele>193.3</ele>
        <time>2011-11-13T08:15:34Z</time>
      </trkpt>
      <trkpt lat="44.00636" lon="4.30869">
        <ele>193.2</ele>
        <time>2011-11-13T08:15:36Z</time>
      </trkpt>
      <trkpt lat="44.00636" lon="4.30863">
        <ele>193.2</ele>
        <time>2011-11-13T08:15:38Z</time>
      </trkpt>
      <trkpt lat="44.00636" lon="4.30854">
        <ele>193.1</ele>
        <time>2011-11-13T08:15:41Z</time>
      </trkpt>
      <trkpt lat="44.00636" lon="4.30848">
        <ele>192.9</ele>
        <time>2011-11-13T08:15:43Z</time>
      </trkpt>
      <trkpt lat="44.00637" lon="4.30838">
        <ele>193.2</ele>
        <time>2011-11-13T08:15:45Z</time>
      </trkpt>
      <trkpt lat="44.00638" lon="4.30832">
        <ele>193</ele>
        <time>2011-11-13T08:15:46Z</time>
      </trkpt>
      <trkpt lat="44.00638" lon="4.30824">
        <ele>192.9</ele>
        <time>2011-11-13T08:15:47Z</time>
      </trkpt>
      <trkpt lat="44.00638" lon="4.30816">
        <ele>192.8</ele>
        <time>2011-11-13T08:15:48Z</time>
      </trkpt>
      <trkpt lat="44.00637" lon="4.30809">
        <ele>192.8</ele>
        <time>2011-11-13T08:15:49Z</time>
      </trkpt>
      <trkpt lat="44.00636" lon="4.30802">
        <ele>192.7</ele>
        <time>2011-11-13T08:15:50Z</time>
      </trkpt>
      <trkpt lat="44.00633" lon="4.30791">
        <ele>192.3</ele>
        <time>2011-11-13T08:15:52Z</time>
      </trkpt>
      <trkpt lat="44.00628" lon="4.30784">
        <ele>192.2</ele>
        <time>2011-11-13T08:15:54Z</time>
      </trkpt>
      <trkpt lat="44.00625" lon="4.30778">
        <ele>192.1</ele>
        <time>2011-11-13T08:15:56Z</time>
      </trkpt>
      <trkpt lat="44.00621" lon="4.30773">
        <ele>192.8</ele>
        <time>2011-11-13T08:15:58Z</time>
      </trkpt>
      <trkpt lat="44.00617" lon="4.30768">
        <ele>193</ele>
        <time>2011-11-13T08:16:00Z</time>
      </trkpt>
      <trkpt lat="44.00614" lon="4.30763">
        <ele>193.1</ele>
        <time>2011-11-13T08:16:02Z</time>
      </trkpt>
      <trkpt lat="44.0061" lon="4.30757">
        <ele>193.3</ele>
        <time>2011-11-13T08:16:05Z</time>
      </trkpt>
      <trkpt lat="44.00605" lon="4.30752">
        <ele>193.6</ele>
        <time>2011-11-13T08:16:08Z</time>
      </trkpt>
      <trkpt lat="44.00602" lon="4.30748">
        <ele>193.7</ele>
        <time>2011-11-13T08:16:13Z</time>
      </trkpt>
      <trkpt lat="44.00603" lon="4.30741">
        <ele>194.7</ele>
        <time>2011-11-13T08:16:18Z</time>
      </trkpt>
      <trkpt lat="44.00607" lon="4.30736">
        <ele>195.5</ele>
        <time>2011-11-13T08:16:23Z</time>
      </trkpt>
      <trkpt lat="44.00671" lon="4.30713">
        <ele>214.3</ele>
        <time>2011-11-13T08:17:20Z</time>
      </trkpt>
      <trkpt lat="44.00676" lon="4.30712">
        <ele>213.8</ele>
        <time>2011-11-13T08:17:23Z</time>
      </trkpt>
      <trkpt lat="44.00681" lon="4.3071">
        <ele>213.1</ele>
        <time>2011-11-13T08:17:25Z</time>
      </trkpt>
      <trkpt lat="44.00686" lon="4.3071">
        <ele>213.4</ele>
        <time>2011-11-13T08:17:27Z</time>
      </trkpt>
      <trkpt lat="44.00692" lon="4.30711">
        <ele>214.7</ele>
        <time>2011-11-13T08:17:30Z</time>
      </trkpt>
      <trkpt lat="44.00698" lon="4.30711">
        <ele>215.1</ele>
        <time>2011-11-13T08:17:33Z</time>
      </trkpt>
      <trkpt lat="44.00703" lon="4.30711">
        <ele>213.8</ele>
        <time>2011-11-13T08:17:36Z</time>
      </trkpt>
      <trkpt lat="44.00708" lon="4.30712">
        <ele>213.2</ele>
        <time>2011-11-13T08:17:39Z</time>
      </trkpt>
      <trkpt lat="44.00714" lon="4.30711">
        <ele>211.4</ele>
        <time>2011-11-13T08:17:42Z</time>
      </trkpt>
      <trkpt lat="44.0072" lon="4.30711">
        <ele>211.2</ele>
        <time>2011-11-13T08:17:45Z</time>
      </trkpt>
      <trkpt lat="44.00725" lon="4.30711">
        <ele>211.6</ele>
        <time>2011-11-13T08:17:48Z</time>
      </trkpt>
      <trkpt lat="44.00731" lon="4.30711">
        <ele>211.2</ele>
        <time>2011-11-13T08:17:51Z</time>
      </trkpt>
      <trkpt lat="44.00736" lon="4.30711">
        <ele>211.7</ele>
        <time>2011-11-13T08:17:54Z</time>
      </trkpt>
      <trkpt lat="44.00741" lon="4.30711">
        <ele>212.1</ele>
        <time>2011-11-13T08:17:57Z</time>
      </trkpt>
      <trkpt lat="44.00746" lon="4.30711">
        <ele>212.3</ele>
        <time>2011-11-13T08:18:00Z</time>
      </trkpt>
      <trkpt lat="44.00751" lon="4.3071">
        <ele>212.6</ele>
        <time>2011-11-13T08:18:03Z</time>
      </trkpt>
      <trkpt lat="44.00756" lon="4.3071">
        <ele>213.4</ele>
        <time>2011-11-13T08:18:06Z</time>
      </trkpt>
      <trkpt lat="44.00761" lon="4.30712">
        <ele>213.9</ele>
        <time>2011-11-13T08:18:09Z</time>
      </trkpt>
      <trkpt lat="44.00766" lon="4.30715">
        <ele>214.4</ele>
        <time>2011-11-13T08:18:12Z</time>
      </trkpt>
      <trkpt lat="44.00771" lon="4.30718">
        <ele>214.9</ele>
        <time>2011-11-13T08:18:15Z</time>
      </trkpt>
      <trkpt lat="44.00775" lon="4.3072">
        <ele>215.3</ele>
        <time>2011-11-13T08:18:17Z</time>
      </trkpt>
      <trkpt lat="44.0078" lon="4.30721">
        <ele>215.5</ele>
        <time>2011-11-13T08:18:20Z</time>
      </trkpt>
      <trkpt lat="44.00785" lon="4.30722">
        <ele>215.9</ele>
        <time>2011-11-13T08:18:24Z</time>
      </trkpt>
      <trkpt lat="44.0079" lon="4.30722">
        <ele>216.2</ele>
        <time>2011-11-13T08:18:27Z</time>
      </trkpt>
      <trkpt lat="44.00795" lon="4.30724">
        <ele>216.9</ele>
        <time>2011-11-13T08:18:30Z</time>
      </trkpt>
      <trkpt lat="44.00801" lon="4.30726">
        <ele>217.7</ele>
        <time>2011-11-13T08:18:33Z</time>
      </trkpt>
      <trkpt lat="44.00806" lon="4.30728">
        <ele>218.5</ele>
        <time>2011-11-13T08:18:37Z</time>
      </trkpt>
      <trkpt lat="44.00811" lon="4.30728">
        <ele>219.1</ele>
        <time>2011-11-13T08:18:54Z</time>
      </trkpt>
      <trkpt lat="44.00817" lon="4.30731">
        <ele>219.7</ele>
        <time>2011-11-13T08:18:57Z</time>
      </trkpt>
      <trkpt lat="44.00823" lon="4.30733">
        <ele>219.9</ele>
        <time>2011-11-13T08:18:59Z</time>
      </trkpt>
      <trkpt lat="44.00828" lon="4.30736">
        <ele>220.4</ele>
        <time>2011-11-13T08:19:01Z</time>
      </trkpt>
      <trkpt lat="44.00835" lon="4.30739">
        <ele>220.8</ele>
        <time>2011-11-13T08:19:03Z</time>
      </trkpt>
      <trkpt lat="44.0084" lon="4.30741">
        <ele>221.2</ele>
        <time>2011-11-13T08:19:05Z</time>
      </trkpt>
      <trkpt lat="44.00846" lon="4.30742">
        <ele>221.6</ele>
        <time>2011-11-13T08:19:07Z</time>
      </trkpt>
      <trkpt lat="44.00851" lon="4.30743">
        <ele>222</ele>
        <time>2011-11-13T08:19:11Z</time>
      </trkpt>
      <trkpt lat="44.00854" lon="4.30748">
        <ele>220.8</ele>
        <time>2011-11-13T08:20:08Z</time>
      </trkpt>
      <trkpt lat="44.00859" lon="4.30752">
        <ele>221.3</ele>
        <time>2011-11-13T08:20:11Z</time>
      </trkpt>
      <trkpt lat="44.00864" lon="4.30754">
        <ele>221.4</ele>
        <time>2011-11-13T08:20:13Z</time>
      </trkpt>
      <trkpt lat="44.0087" lon="4.30755">
        <ele>221.7</ele>
        <time>2011-11-13T08:20:15Z</time>
      </trkpt>
      <trkpt lat="44.00877" lon="4.30755">
        <ele>222</ele>
        <time>2011-11-13T08:20:17Z</time>
      </trkpt>
      <trkpt lat="44.00884" lon="4.30756">
        <ele>222.3</ele>
        <time>2011-11-13T08:20:19Z</time>
      </trkpt>
      <trkpt lat="44.00891" lon="4.30757">
        <ele>222.6</ele>
        <time>2011-11-13T08:20:21Z</time>
      </trkpt>
      <trkpt lat="44.00898" lon="4.30758">
        <ele>222.9</ele>
        <time>2011-11-13T08:20:23Z</time>
      </trkpt>
      <trkpt lat="44.00905" lon="4.30761">
        <ele>223.2</ele>
        <time>2011-11-13T08:20:25Z</time>
      </trkpt>
      <trkpt lat="44.00912" lon="4.30763">
        <ele>223.6</ele>
        <time>2011-11-13T08:20:27Z</time>
      </trkpt>
      <trkpt lat="44.0092" lon="4.30765">
        <ele>224.2</ele>
        <time>2011-11-13T08:20:29Z</time>
      </trkpt>
      <trkpt lat="44.00924" lon="4.30766">
        <ele>224.4</ele>
        <time>2011-11-13T08:20:30Z</time>
      </trkpt>
      <trkpt lat="44.00934" lon="4.30768">
        <ele>224.8</ele>
        <time>2011-11-13T08:20:32Z</time>
      </trkpt>
      <trkpt lat="44.00939" lon="4.30768">
        <ele>225</ele>
        <time>2011-11-13T08:20:33Z</time>
      </trkpt>
      <trkpt lat="44.00944" lon="4.30768">
        <ele>225.2</ele>
        <time>2011-11-13T08:20:34Z</time>
      </trkpt>
      <trkpt lat="44.00949" lon="4.30769">
        <ele>225.5</ele>
        <time>2011-11-13T08:20:35Z</time>
      </trkpt>
      <trkpt lat="44.00954" lon="4.3077">
        <ele>225.7</ele>
        <time>2011-11-13T08:20:36Z</time>
      </trkpt>
      <trkpt lat="44.00958" lon="4.3077">
        <ele>225.9</ele>
        <time>2011-11-13T08:20:37Z</time>
      </trkpt>
      <trkpt lat="44.00963" lon="4.3077">
        <ele>226.2</ele>
        <time>2011-11-13T08:20:38Z</time>
      </trkpt>
      <trkpt lat="44.00968" lon="4.30771">
        <ele>226.3</ele>
        <time>2011-11-13T08:20:39Z</time>
      </trkpt>
      <trkpt lat="44.00976" lon="4.30773">
        <ele>226.7</ele>
        <time>2011-11-13T08:20:41Z</time>
      </trkpt>
      <trkpt lat="44.00983" lon="4.30775">
        <ele>227</ele>
        <time>2011-11-13T08:20:43Z</time>
      </trkpt>
      <trkpt lat="44.0099" lon="4.30777">
        <ele>227.3</ele>
        <time>2011-11-13T08:20:45Z</time>
      </trkpt>
      <trkpt lat="44.00997" lon="4.3078">
        <ele>227.5</ele>
        <time>2011-11-13T08:20:47Z</time>
      </trkpt>
      <trkpt lat="44.01004" lon="4.30783">
        <ele>228</ele>
        <time>2011-11-13T08:20:49Z</time>
      </trkpt>
      <trkpt lat="44.01011" lon="4.30785">
        <ele>228.4</ele>
        <time>2011-11-13T08:20:51Z</time>
      </trkpt>
      <trkpt lat="44.01019" lon="4.30788">
        <ele>228.6</ele>
        <time>2011-11-13T08:20:53Z</time>
      </trkpt>
      <trkpt lat="44.01026" lon="4.30791">
        <ele>228.9</ele>
        <time>2011-11-13T08:20:55Z</time>
      </trkpt>
      <trkpt lat="44.01033" lon="4.30794">
        <ele>229.1</ele>
        <time>2011-11-13T08:20:57Z</time>
      </trkpt>
      <trkpt lat="44.0104" lon="4.30796">
        <ele>229.4</ele>
        <time>2011-11-13T08:20:59Z</time>
      </trkpt>
      <trkpt lat="44.01047" lon="4.30797">
        <ele>229.8</ele>
        <time>2011-11-13T08:21:01Z</time>
      </trkpt>
      <trkpt lat="44.01052" lon="4.30798">
        <ele>230.1</ele>
        <time>2011-11-13T08:21:03Z</time>
      </trkpt>
      <trkpt lat="44.01058" lon="4.30798">
        <ele>230.7</ele>
        <time>2011-11-13T08:21:06Z</time>
      </trkpt>
      <trkpt lat="44.01062" lon="4.30798">
        <ele>231.2</ele>
        <time>2011-11-13T08:21:08Z</time>
      </trkpt>
      <trkpt lat="44.01067" lon="4.30797">
        <ele>231.4</ele>
        <time>2011-11-13T08:21:10Z</time>
      </trkpt>
      <trkpt lat="44.01072" lon="4.30796">
        <ele>231.7</ele>
        <time>2011-11-13T08:21:12Z</time>
      </trkpt>
      <trkpt lat="44.01077" lon="4.30796">
        <ele>232</ele>
        <time>2011-11-13T08:21:14Z</time>
      </trkpt>
      <trkpt lat="44.01083" lon="4.30795">
        <ele>232.8</ele>
        <time>2011-11-13T08:21:17Z</time>
      </trkpt>
      <trkpt lat="44.01088" lon="4.30795">
        <ele>233.2</ele>
        <time>2011-11-13T08:21:19Z</time>
      </trkpt>
      <trkpt lat="44.01093" lon="4.30795">
        <ele>233.6</ele>
        <time>2011-11-13T08:21:22Z</time>
      </trkpt>
      <trkpt lat="44.01099" lon="4.30795">
        <ele>234.4</ele>
        <time>2011-11-13T08:21:25Z</time>
      </trkpt>
      <trkpt lat="44.01104" lon="4.30794">
        <ele>235.2</ele>
        <time>2011-11-13T08:21:28Z</time>
      </trkpt>
      <trkpt lat="44.0111" lon="4.30794">
        <ele>235.7</ele>
        <time>2011-11-13T08:21:31Z</time>
      </trkpt>
      <trkpt lat="44.01117" lon="4.30794">
        <ele>236.2</ele>
        <time>2011-11-13T08:21:34Z</time>
      </trkpt>
      <trkpt lat="44.01122" lon="4.30794">
        <ele>236.5</ele>
        <time>2011-11-13T08:21:36Z</time>
      </trkpt>
      <trkpt lat="44.01128" lon="4.30795">
        <ele>237.1</ele>
        <time>2011-11-13T08:21:39Z</time>
      </trkpt>
      <trkpt lat="44.01134" lon="4.30796">
        <ele>237.5</ele>
        <time>2011-11-13T08:21:42Z</time>
      </trkpt>
      <trkpt lat="44.01139" lon="4.30799">
        <ele>238</ele>
        <time>2011-11-13T08:21:45Z</time>
      </trkpt>
      <trkpt lat="44.01145" lon="4.30803">
        <ele>238.5</ele>
        <time>2011-11-13T08:21:48Z</time>
      </trkpt>
      <trkpt lat="44.01151" lon="4.30807">
        <ele>239</ele>
        <time>2011-11-13T08:21:51Z</time>
      </trkpt>
      <trkpt lat="44.01155" lon="4.3081">
        <ele>239.5</ele>
        <time>2011-11-13T08:21:54Z</time>
      </trkpt>
      <trkpt lat="44.01161" lon="4.30815">
        <ele>239.8</ele>
        <time>2011-11-13T08:21:57Z</time>
      </trkpt>
      <trkpt lat="44.01165" lon="4.3082">
        <ele>240.5</ele>
        <time>2011-11-13T08:21:59Z</time>
      </trkpt>
      <trkpt lat="44.01169" lon="4.30825">
        <ele>240.7</ele>
        <time>2011-11-13T08:22:01Z</time>
      </trkpt>
      <trkpt lat="44.01172" lon="4.30829">
        <ele>240.9</ele>
        <time>2011-11-13T08:22:03Z</time>
      </trkpt>
      <trkpt lat="44.01177" lon="4.30835">
        <ele>241.3</ele>
        <time>2011-11-13T08:22:06Z</time>
      </trkpt>
      <trkpt lat="44.0118" lon="4.3084">
        <ele>241.7</ele>
        <time>2011-11-13T08:22:08Z</time>
      </trkpt>
      <trkpt lat="44.01184" lon="4.30844">
        <ele>242.1</ele>
        <time>2011-11-13T08:22:10Z</time>
      </trkpt>
      <trkpt lat="44.01188" lon="4.30849">
        <ele>242.6</ele>
        <time>2011-11-13T08:22:12Z</time>
      </trkpt>
      <trkpt lat="44.01192" lon="4.30853">
        <ele>243</ele>
        <time>2011-11-13T08:22:14Z</time>
      </trkpt>
      <trkpt lat="44.01196" lon="4.30858">
        <ele>243.4</ele>
        <time>2011-11-13T08:22:16Z</time>
      </trkpt>
      <trkpt lat="44.01201" lon="4.30863">
        <ele>244.2</ele>
        <time>2011-11-13T08:22:19Z</time>
      </trkpt>
      <trkpt lat="44.01206" lon="4.30868">
        <ele>245.3</ele>
        <time>2011-11-13T08:22:22Z</time>
      </trkpt>
      <trkpt lat="44.01211" lon="4.30872">
        <ele>246.1</ele>
        <time>2011-11-13T08:22:25Z</time>
      </trkpt>
      <trkpt lat="44.01215" lon="4.30875">
        <ele>246.3</ele>
        <time>2011-11-13T08:22:27Z</time>
      </trkpt>
      <trkpt lat="44.01219" lon="4.30878">
        <ele>246.4</ele>
        <time>2011-11-13T08:22:29Z</time>
      </trkpt>
      <trkpt lat="44.01223" lon="4.30882">
        <ele>246.6</ele>
        <time>2011-11-13T08:22:31Z</time>
      </trkpt>
      <trkpt lat="44.01227" lon="4.30885">
        <ele>246.8</ele>
        <time>2011-11-13T08:22:33Z</time>
      </trkpt>
      <trkpt lat="44.01233" lon="4.3089">
        <ele>247.4</ele>
        <time>2011-11-13T08:22:36Z</time>
      </trkpt>
      <trkpt lat="44.01238" lon="4.30892">
        <ele>247.7</ele>
        <time>2011-11-13T08:22:38Z</time>
      </trkpt>
      <trkpt lat="44.01242" lon="4.30895">
        <ele>248.1</ele>
        <time>2011-11-13T08:22:40Z</time>
      </trkpt>
      <trkpt lat="44.01247" lon="4.30897">
        <ele>248.3</ele>
        <time>2011-11-13T08:22:42Z</time>
      </trkpt>
      <trkpt lat="44.01251" lon="4.30898">
        <ele>248.6</ele>
        <time>2011-11-13T08:22:44Z</time>
      </trkpt>
      <trkpt lat="44.01258" lon="4.309">
        <ele>249.1</ele>
        <time>2011-11-13T08:22:47Z</time>
      </trkpt>
      <trkpt lat="44.01264" lon="4.30901">
        <ele>249.6</ele>
        <time>2011-11-13T08:22:50Z</time>
      </trkpt>
      <trkpt lat="44.01268" lon="4.30902">
        <ele>250</ele>
        <time>2011-11-13T08:22:52Z</time>
      </trkpt>
      <trkpt lat="44.01273" lon="4.30906">
        <ele>250.5</ele>
        <time>2011-11-13T08:22:54Z</time>
      </trkpt>
      <trkpt lat="44.01278" lon="4.30909">
        <ele>250.9</ele>
        <time>2011-11-13T08:22:56Z</time>
      </trkpt>
      <trkpt lat="44.01282" lon="4.30912">
        <ele>251.4</ele>
        <time>2011-11-13T08:22:58Z</time>
      </trkpt>
      <trkpt lat="44.01287" lon="4.30914">
        <ele>252</ele>
        <time>2011-11-13T08:23:00Z</time>
      </trkpt>
      <trkpt lat="44.01292" lon="4.30919">
        <ele>253.1</ele>
        <time>2011-11-13T08:23:03Z</time>
      </trkpt>
      <trkpt lat="44.01297" lon="4.30923">
        <ele>253.7</ele>
        <time>2011-11-13T08:23:05Z</time>
      </trkpt>
      <trkpt lat="44.01301" lon="4.30927">
        <ele>254</ele>
        <time>2011-11-13T08:23:07Z</time>
      </trkpt>
      <trkpt lat="44.01306" lon="4.30932">
        <ele>254.8</ele>
        <time>2011-11-13T08:23:10Z</time>
      </trkpt>
      <trkpt lat="44.0131" lon="4.30935">
        <ele>255.1</ele>
        <time>2011-11-13T08:23:12Z</time>
      </trkpt>
      <trkpt lat="44.01315" lon="4.3094">
        <ele>255.6</ele>
        <time>2011-11-13T08:23:14Z</time>
      </trkpt>
      <trkpt lat="44.01319" lon="4.30944">
        <ele>256</ele>
        <time>2011-11-13T08:23:16Z</time>
      </trkpt>
      <trkpt lat="44.01323" lon="4.30948">
        <ele>256.5</ele>
        <time>2011-11-13T08:23:18Z</time>
      </trkpt>
      <trkpt lat="44.01327" lon="4.30951">
        <ele>257</ele>
        <time>2011-11-13T08:23:20Z</time>
      </trkpt>
      <trkpt lat="44.01332" lon="4.30955">
        <ele>257.4</ele>
        <time>2011-11-13T08:23:22Z</time>
      </trkpt>
      <trkpt lat="44.01336" lon="4.30958">
        <ele>258.1</ele>
        <time>2011-11-13T08:23:24Z</time>
      </trkpt>
      <trkpt lat="44.01341" lon="4.30962">
        <ele>258.6</ele>
        <time>2011-11-13T08:23:26Z</time>
      </trkpt>
      <trkpt lat="44.01346" lon="4.30966">
        <ele>258.9</ele>
        <time>2011-11-13T08:23:28Z</time>
      </trkpt>
      <trkpt lat="44.0135" lon="4.30969">
        <ele>259.1</ele>
        <time>2011-11-13T08:23:30Z</time>
      </trkpt>
      <trkpt lat="44.01355" lon="4.30972">
        <ele>259.6</ele>
        <time>2011-11-13T08:23:32Z</time>
      </trkpt>
      <trkpt lat="44.01359" lon="4.30974">
        <ele>260</ele>
        <time>2011-11-13T08:23:34Z</time>
      </trkpt>
      <trkpt lat="44.01364" lon="4.30978">
        <ele>260.1</ele>
        <time>2011-11-13T08:23:36Z</time>
      </trkpt>
      <trkpt lat="44.01369" lon="4.30982">
        <ele>260.4</ele>
        <time>2011-11-13T08:23:38Z</time>
      </trkpt>
      <trkpt lat="44.01374" lon="4.30986">
        <ele>260</ele>
        <time>2011-11-13T08:23:40Z</time>
      </trkpt>
      <trkpt lat="44.01379" lon="4.3099">
        <ele>260</ele>
        <time>2011-11-13T08:23:42Z</time>
      </trkpt>
      <trkpt lat="44.01384" lon="4.30994">
        <ele>259.7</ele>
        <time>2011-11-13T08:23:44Z</time>
      </trkpt>
      <trkpt lat="44.0139" lon="4.30998">
        <ele>260</ele>
        <time>2011-11-13T08:23:46Z</time>
      </trkpt>
      <trkpt lat="44.01395" lon="4.31">
        <ele>260.6</ele>
        <time>2011-11-13T08:23:48Z</time>
      </trkpt>
      <trkpt lat="44.014" lon="4.31002">
        <ele>260.8</ele>
        <time>2011-11-13T08:23:50Z</time>
      </trkpt>
      <trkpt lat="44.01406" lon="4.31005">
        <ele>261</ele>
        <time>2011-11-13T08:23:52Z</time>
      </trkpt>
      <trkpt lat="44.01412" lon="4.31008">
        <ele>261.4</ele>
        <time>2011-11-13T08:23:54Z</time>
      </trkpt>
      <trkpt lat="44.01416" lon="4.3101">
        <ele>261.7</ele>
        <time>2011-11-13T08:23:56Z</time>
      </trkpt>
      <trkpt lat="44.01421" lon="4.31014">
        <ele>262.3</ele>
        <time>2011-11-13T08:23:58Z</time>
      </trkpt>
      <trkpt lat="44.01426" lon="4.31017">
        <ele>262.9</ele>
        <time>2011-11-13T08:24:00Z</time>
      </trkpt>
      <trkpt lat="44.0143" lon="4.31021">
        <ele>263.2</ele>
        <time>2011-11-13T08:24:02Z</time>
      </trkpt>
      <trkpt lat="44.01435" lon="4.31025">
        <ele>263.5</ele>
        <time>2011-11-13T08:24:04Z</time>
      </trkpt>
      <trkpt lat="44.01439" lon="4.31029">
        <ele>264</ele>
        <time>2011-11-13T08:24:06Z</time>
      </trkpt>
      <trkpt lat="44.01443" lon="4.31032">
        <ele>264.2</ele>
        <time>2011-11-13T08:24:08Z</time>
      </trkpt>
      <trkpt lat="44.01447" lon="4.31035">
        <ele>264.7</ele>
        <time>2011-11-13T08:24:10Z</time>
      </trkpt>
      <trkpt lat="44.01453" lon="4.31039">
        <ele>265.3</ele>
        <time>2011-11-13T08:24:13Z</time>
      </trkpt>
      <trkpt lat="44.01459" lon="4.3104">
        <ele>265.1</ele>
        <time>2011-11-13T08:24:16Z</time>
      </trkpt>
      <trkpt lat="44.01465" lon="4.31039">
        <ele>265.4</ele>
        <time>2011-11-13T08:24:19Z</time>
      </trkpt>
      <trkpt lat="44.0147" lon="4.31037">
        <ele>265.2</ele>
        <time>2011-11-13T08:24:22Z</time>
      </trkpt>
      <trkpt lat="44.0147" lon="4.31037">
        <ele>265.2</ele>
        <time>2011-11-13T08:24:22Z</time>
      </trkpt>
      <trkpt lat="44.0147" lon="4.31037">
        <ele>265.2</ele>
        <time>2011-11-13T08:24:25Z</time>
      </trkpt>
      <trkpt lat="44.01454" lon="4.31036">
        <ele>260.3</ele>
        <time>2011-11-13T08:25:26Z</time>
      </trkpt>
      <trkpt lat="44.01454" lon="4.31036">
        <ele>260.3</ele>
        <time>2011-11-13T08:25:26Z</time>
      </trkpt>
      <trkpt lat="44.01454" lon="4.31036">
        <ele>260.3</ele>
        <time>2011-11-13T08:26:32Z</time>
      </trkpt>
      <trkpt lat="44.0146" lon="4.3103">
        <ele>268</ele>
        <time>2011-11-13T08:28:31Z</time>
      </trkpt>
      <trkpt lat="44.0146" lon="4.3103">
        <ele>268</ele>
        <time>2011-11-13T08:28:31Z</time>
      </trkpt>
      <trkpt lat="44.0146" lon="4.3103">
        <ele>268</ele>
        <time>2011-11-13T08:28:39Z</time>
      </trkpt>
      <trkpt lat="44.01464" lon="4.31041">
        <ele>268.5</ele>
        <time>2011-11-13T08:28:40Z</time>
      </trkpt>
      <trkpt lat="44.01464" lon="4.31047">
        <ele>268.6</ele>
        <time>2011-11-13T08:28:43Z</time>
      </trkpt>
      <trkpt lat="44.01464" lon="4.31055">
        <ele>269.4</ele>
        <time>2011-11-13T08:28:47Z</time>
      </trkpt>
      <trkpt lat="44.01464" lon="4.31055">
        <ele>269.4</ele>
        <time>2011-11-13T08:28:47Z</time>
      </trkpt>
      <trkpt lat="44.01464" lon="4.31055">
        <ele>269.4</ele>
        <time>2011-11-13T08:28:43Z</time>
      </trkpt>
      <trkpt lat="44.01466" lon="4.31069">
        <ele>269.6</ele>
        <time>2011-11-13T08:28:44Z</time>
      </trkpt>
      <trkpt lat="44.01468" lon="4.31075">
        <ele>269.7</ele>
        <time>2011-11-13T08:28:46Z</time>
      </trkpt>
      <trkpt lat="44.01469" lon="4.31083">
        <ele>269.7</ele>
        <time>2011-11-13T08:28:48Z</time>
      </trkpt>
      <trkpt lat="44.01471" lon="4.31088">
        <ele>269.8</ele>
        <time>2011-11-13T08:28:50Z</time>
      </trkpt>
      <trkpt lat="44.01474" lon="4.31094">
        <ele>270.1</ele>
        <time>2011-11-13T08:28:52Z</time>
      </trkpt>
      <trkpt lat="44.01476" lon="4.31102">
        <ele>270.2</ele>
        <time>2011-11-13T08:28:54Z</time>
      </trkpt>
      <trkpt lat="44.01477" lon="4.31109">
        <ele>270.6</ele>
        <time>2011-11-13T08:28:56Z</time>
      </trkpt>
      <trkpt lat="44.01477" lon="4.31118">
        <ele>271.1</ele>
        <time>2011-11-13T08:28:58Z</time>
      </trkpt>
      <trkpt lat="44.01478" lon="4.31129">
        <ele>271</ele>
        <time>2011-11-13T08:29:00Z</time>
      </trkpt>
      <trkpt lat="44.0148" lon="4.3114">
        <ele>271.4</ele>
        <time>2011-11-13T08:29:02Z</time>
      </trkpt>
      <trkpt lat="44.01481" lon="4.31146">
        <ele>271.5</ele>
        <time>2011-11-13T08:29:03Z</time>
      </trkpt>
      <trkpt lat="44.01482" lon="4.31152">
        <ele>271.9</ele>
        <time>2011-11-13T08:29:04Z</time>
      </trkpt>
      <trkpt lat="44.01483" lon="4.3116">
        <ele>272</ele>
        <time>2011-11-13T08:29:05Z</time>
      </trkpt>
      <trkpt lat="44.01483" lon="4.31167">
        <ele>271.9</ele>
        <time>2011-11-13T08:29:06Z</time>
      </trkpt>
      <trkpt lat="44.01483" lon="4.31175">
        <ele>271.7</ele>
        <time>2011-11-13T08:29:07Z</time>
      </trkpt>
      <trkpt lat="44.01484" lon="4.31186">
        <ele>271.1</ele>
        <time>2011-11-13T08:29:08Z</time>
      </trkpt>
      <trkpt lat="44.01484" lon="4.31195">
        <ele>270.4</ele>
        <time>2011-11-13T08:29:09Z</time>
      </trkpt>
      <trkpt lat="44.01485" lon="4.31203">
        <ele>270</ele>
        <time>2011-11-13T08:29:10Z</time>
      </trkpt>
      <trkpt lat="44.01485" lon="4.3121">
        <ele>269.7</ele>
        <time>2011-11-13T08:29:11Z</time>
      </trkpt>
      <trkpt lat="44.01485" lon="4.31216">
        <ele>269.3</ele>
        <time>2011-11-13T08:29:12Z</time>
      </trkpt>
      <trkpt lat="44.01484" lon="4.31223">
        <ele>269</ele>
        <time>2011-11-13T08:29:13Z</time>
      </trkpt>
      <trkpt lat="44.01482" lon="4.31234">
        <ele>268.8</ele>
        <time>2011-11-13T08:29:15Z</time>
      </trkpt>
      <trkpt lat="44.01477" lon="4.31244">
        <ele>268.2</ele>
        <time>2011-11-13T08:29:17Z</time>
      </trkpt>
      <trkpt lat="44.0147" lon="4.31251">
        <ele>267.8</ele>
        <time>2011-11-13T08:29:19Z</time>
      </trkpt>
      <trkpt lat="44.01466" lon="4.31253">
        <ele>267.6</ele>
        <time>2011-11-13T08:29:20Z</time>
      </trkpt>
      <trkpt lat="44.0146" lon="4.31255">
        <ele>267.3</ele>
        <time>2011-11-13T08:29:21Z</time>
      </trkpt>
      <trkpt lat="44.01451" lon="4.31255">
        <ele>266.8</ele>
        <time>2011-11-13T08:29:22Z</time>
      </trkpt>
      <trkpt lat="44.01445" lon="4.31257">
        <ele>266.3</ele>
        <time>2011-11-13T08:29:23Z</time>
      </trkpt>
      <trkpt lat="44.01439" lon="4.3126">
        <ele>266.2</ele>
        <time>2011-11-13T08:29:24Z</time>
      </trkpt>
      <trkpt lat="44.01434" lon="4.31265">
        <ele>266.3</ele>
        <time>2011-11-13T08:29:25Z</time>
      </trkpt>
      <trkpt lat="44.01429" lon="4.3127">
        <ele>266.3</ele>
        <time>2011-11-13T08:29:26Z</time>
      </trkpt>
      <trkpt lat="44.01424" lon="4.31275">
        <ele>266.3</ele>
        <time>2011-11-13T08:29:27Z</time>
      </trkpt>
      <trkpt lat="44.0142" lon="4.31281">
        <ele>266.4</ele>
        <time>2011-11-13T08:29:28Z</time>
      </trkpt>
      <trkpt lat="44.01418" lon="4.31288">
        <ele>266.5</ele>
        <time>2011-11-13T08:29:29Z</time>
      </trkpt>
      <trkpt lat="44.01416" lon="4.31295">
        <ele>266.5</ele>
        <time>2011-11-13T08:29:30Z</time>
      </trkpt>
      <trkpt lat="44.01415" lon="4.31304">
        <ele>266.4</ele>
        <time>2011-11-13T08:29:31Z</time>
      </trkpt>
      <trkpt lat="44.01417" lon="4.31314">
        <ele>266.4</ele>
        <time>2011-11-13T08:29:32Z</time>
      </trkpt>
      <trkpt lat="44.0142" lon="4.31326">
        <ele>266.5</ele>
        <time>2011-11-13T08:29:33Z</time>
      </trkpt>
      <trkpt lat="44.01421" lon="4.31341">
        <ele>266.6</ele>
        <time>2011-11-13T08:29:34Z</time>
      </trkpt>
      <trkpt lat="44.01421" lon="4.31356">
        <ele>266.4</ele>
        <time>2011-11-13T08:29:35Z</time>
      </trkpt>
      <trkpt lat="44.0142" lon="4.31373">
        <ele>266.1</ele>
        <time>2011-11-13T08:29:36Z</time>
      </trkpt>
      <trkpt lat="44.0142" lon="4.31389">
        <ele>265.7</ele>
        <time>2011-11-13T08:29:37Z</time>
      </trkpt>
      <trkpt lat="44.0142" lon="4.31406">
        <ele>263.9</ele>
        <time>2011-11-13T08:29:38Z</time>
      </trkpt>
      <trkpt lat="44.0142" lon="4.31423">
        <ele>262.1</ele>
        <time>2011-11-13T08:29:39Z</time>
      </trkpt>
      <trkpt lat="44.0142" lon="4.31439">
        <ele>260.7</ele>
        <time>2011-11-13T08:29:40Z</time>
      </trkpt>
      <trkpt lat="44.0142" lon="4.31454">
        <ele>259.6</ele>
        <time>2011-11-13T08:29:41Z</time>
      </trkpt>
      <trkpt lat="44.0142" lon="4.31469">
        <ele>258.8</ele>
        <time>2011-11-13T08:29:42Z</time>
      </trkpt>
      <trkpt lat="44.0142" lon="4.31484">
        <ele>257.7</ele>
        <time>2011-11-13T08:29:43Z</time>
      </trkpt>
      <trkpt lat="44.01419" lon="4.31499">
        <ele>257.1</ele>
        <time>2011-11-13T08:29:44Z</time>
      </trkpt>
      <trkpt lat="44.01419" lon="4.31514">
        <ele>255.9</ele>
        <time>2011-11-13T08:29:45Z</time>
      </trkpt>
      <trkpt lat="44.01419" lon="4.31529">
        <ele>255.5</ele>
        <time>2011-11-13T08:29:46Z</time>
      </trkpt>
      <trkpt lat="44.01418" lon="4.31544">
        <ele>255.2</ele>
        <time>2011-11-13T08:29:47Z</time>
      </trkpt>
      <trkpt lat="44.01418" lon="4.31558">
        <ele>254.6</ele>
        <time>2011-11-13T08:29:48Z</time>
      </trkpt>
      <trkpt lat="44.01417" lon="4.31573">
        <ele>254</ele>
        <time>2011-11-13T08:29:49Z</time>
      </trkpt>
      <trkpt lat="44.01415" lon="4.31588">
        <ele>253.3</ele>
        <time>2011-11-13T08:29:50Z</time>
      </trkpt>
      <trkpt lat="44.01412" lon="4.31602">
        <ele>252.8</ele>
        <time>2011-11-13T08:29:51Z</time>
      </trkpt>
      <trkpt lat="44.01409" lon="4.31617">
        <ele>252.4</ele>
        <time>2011-11-13T08:29:52Z</time>
      </trkpt>
      <trkpt lat="44.01405" lon="4.31631">
        <ele>251.7</ele>
        <time>2011-11-13T08:29:53Z</time>
      </trkpt>
      <trkpt lat="44.01402" lon="4.31646">
        <ele>251.2</ele>
        <time>2011-11-13T08:29:54Z</time>
      </trkpt>
      <trkpt lat="44.014" lon="4.3166">
        <ele>250.5</ele>
        <time>2011-11-13T08:29:55Z</time>
      </trkpt>
      <trkpt lat="44.01399" lon="4.31674">
        <ele>249.7</ele>
        <time>2011-11-13T08:29:56Z</time>
      </trkpt>
      <trkpt lat="44.01399" lon="4.31687">
        <ele>249.6</ele>
        <time>2011-11-13T08:29:57Z</time>
      </trkpt>
      <trkpt lat="44.01399" lon="4.31699">
        <ele>249.2</ele>
        <time>2011-11-13T08:29:58Z</time>
      </trkpt>
      <trkpt lat="44.014" lon="4.31709">
        <ele>248.8</ele>
        <time>2011-11-13T08:29:59Z</time>
      </trkpt>
      <trkpt lat="44.01401" lon="4.31716">
        <ele>248.8</ele>
        <time>2011-11-13T08:30:00Z</time>
      </trkpt>
      <trkpt lat="44.01406" lon="4.31724">
        <ele>249.3</ele>
        <time>2011-11-13T08:30:02Z</time>
      </trkpt>
      <trkpt lat="44.01412" lon="4.31723">
        <ele>249.5</ele>
        <time>2011-11-13T08:30:04Z</time>
      </trkpt>
      <trkpt lat="44.01419" lon="4.3172">
        <ele>249.8</ele>
        <time>2011-11-13T08:30:06Z</time>
      </trkpt>
      <trkpt lat="44.01425" lon="4.31716">
        <ele>249.7</ele>
        <time>2011-11-13T08:30:08Z</time>
      </trkpt>
      <trkpt lat="44.01431" lon="4.31711">
        <ele>249.9</ele>
        <time>2011-11-13T08:30:10Z</time>
      </trkpt>
      <trkpt lat="44.01436" lon="4.31706">
        <ele>249.9</ele>
        <time>2011-11-13T08:30:12Z</time>
      </trkpt>
      <trkpt lat="44.01441" lon="4.31703">
        <ele>250</ele>
        <time>2011-11-13T08:30:14Z</time>
      </trkpt>
      <trkpt lat="44.01447" lon="4.31699">
        <ele>250.6</ele>
        <time>2011-11-13T08:30:16Z</time>
      </trkpt>
      <trkpt lat="44.01454" lon="4.31697">
        <ele>251.3</ele>
        <time>2011-11-13T08:30:19Z</time>
      </trkpt>
      <trkpt lat="44.01458" lon="4.31694">
        <ele>252.3</ele>
        <time>2011-11-13T08:30:21Z</time>
      </trkpt>
      <trkpt lat="44.01463" lon="4.31693">
        <ele>252.8</ele>
        <time>2011-11-13T08:30:23Z</time>
      </trkpt>
      <trkpt lat="44.01468" lon="4.31693">
        <ele>253.3</ele>
        <time>2011-11-13T08:30:25Z</time>
      </trkpt>
      <trkpt lat="44.01474" lon="4.31693">
        <ele>253.3</ele>
        <time>2011-11-13T08:30:27Z</time>
      </trkpt>
      <trkpt lat="44.0148" lon="4.31694">
        <ele>253.8</ele>
        <time>2011-11-13T08:30:29Z</time>
      </trkpt>
      <trkpt lat="44.01486" lon="4.31695">
        <ele>254.1</ele>
        <time>2011-11-13T08:30:31Z</time>
      </trkpt>
      <trkpt lat="44.01491" lon="4.31695">
        <ele>254.6</ele>
        <time>2011-11-13T08:30:33Z</time>
      </trkpt>
      <trkpt lat="44.01497" lon="4.31694">
        <ele>255.2</ele>
        <time>2011-11-13T08:30:36Z</time>
      </trkpt>
      <trkpt lat="44.01503" lon="4.31692">
        <ele>255.6</ele>
        <time>2011-11-13T08:30:39Z</time>
      </trkpt>
      <trkpt lat="44.01508" lon="4.31693">
        <ele>255.8</ele>
        <time>2011-11-13T08:30:41Z</time>
      </trkpt>
      <trkpt lat="44.01512" lon="4.31694">
        <ele>255.9</ele>
        <time>2011-11-13T08:30:43Z</time>
      </trkpt>
      <trkpt lat="44.01517" lon="4.31697">
        <ele>256.7</ele>
        <time>2011-11-13T08:30:45Z</time>
      </trkpt>
      <trkpt lat="44.01523" lon="4.31699">
        <ele>257.5</ele>
        <time>2011-11-13T08:30:48Z</time>
      </trkpt>
      <trkpt lat="44.0153" lon="4.317">
        <ele>258.2</ele>
        <time>2011-11-13T08:30:51Z</time>
      </trkpt>
      <trkpt lat="44.01535" lon="4.31702">
        <ele>259.5</ele>
        <time>2011-11-13T08:30:54Z</time>
      </trkpt>
      <trkpt lat="44.01541" lon="4.31706">
        <ele>261.3</ele>
        <time>2011-11-13T08:30:57Z</time>
      </trkpt>
      <trkpt lat="44.01546" lon="4.31708">
        <ele>262</ele>
        <time>2011-11-13T08:31:00Z</time>
      </trkpt>
      <trkpt lat="44.0155" lon="4.31709">
        <ele>263.7</ele>
        <time>2011-11-13T08:31:03Z</time>
      </trkpt>
      <trkpt lat="44.01562" lon="4.31722">
        <ele>267.4</ele>
        <time>2011-11-13T08:31:17Z</time>
      </trkpt>
      <trkpt lat="44.01565" lon="4.31729">
        <ele>268.2</ele>
        <time>2011-11-13T08:31:20Z</time>
      </trkpt>
      <trkpt lat="44.01565" lon="4.31736">
        <ele>268.5</ele>
        <time>2011-11-13T08:31:23Z</time>
      </trkpt>
      <trkpt lat="44.01562" lon="4.31741">
        <ele>268.4</ele>
        <time>2011-11-13T08:31:29Z</time>
      </trkpt>
      <trkpt lat="44.01558" lon="4.31754">
        <ele>268.6</ele>
        <time>2011-11-13T08:31:40Z</time>
      </trkpt>
      <trkpt lat="44.01558" lon="4.3176">
        <ele>268.7</ele>
        <time>2011-11-13T08:31:41Z</time>
      </trkpt>
      <trkpt lat="44.01557" lon="4.31768">
        <ele>268.7</ele>
        <time>2011-11-13T08:31:42Z</time>
      </trkpt>
      <trkpt lat="44.01557" lon="4.31778">
        <ele>268.6</ele>
        <time>2011-11-13T08:31:44Z</time>
      </trkpt>
      <trkpt lat="44.01557" lon="4.31788">
        <ele>268.4</ele>
        <time>2011-11-13T08:31:46Z</time>
      </trkpt>
      <trkpt lat="44.01556" lon="4.31796">
        <ele>268.3</ele>
        <time>2011-11-13T08:31:48Z</time>
      </trkpt>
      <trkpt lat="44.01556" lon="4.31805">
        <ele>267.7</ele>
        <time>2011-11-13T08:31:54Z</time>
      </trkpt>
      <trkpt lat="44.01555" lon="4.31836">
        <ele>267.2</ele>
        <time>2011-11-13T08:31:56Z</time>
      </trkpt>
      <trkpt lat="44.01555" lon="4.31846">
        <ele>266.9</ele>
        <time>2011-11-13T08:31:58Z</time>
      </trkpt>
      <trkpt lat="44.01555" lon="4.31853">
        <ele>266.8</ele>
        <time>2011-11-13T08:31:59Z</time>
      </trkpt>
      <trkpt lat="44.01555" lon="4.31859">
        <ele>266.6</ele>
        <time>2011-11-13T08:32:00Z</time>
      </trkpt>
      <trkpt lat="44.01554" lon="4.31871">
        <ele>266.6</ele>
        <time>2011-11-13T08:32:02Z</time>
      </trkpt>
      <trkpt lat="44.01555" lon="4.31881">
        <ele>267</ele>
        <time>2011-11-13T08:32:04Z</time>
      </trkpt>
      <trkpt lat="44.01556" lon="4.31892">
        <ele>266.4</ele>
        <time>2011-11-13T08:32:06Z</time>
      </trkpt>
      <trkpt lat="44.01556" lon="4.31899">
        <ele>265.7</ele>
        <time>2011-11-13T08:32:07Z</time>
      </trkpt>
      <trkpt lat="44.01555" lon="4.31905">
        <ele>265.2</ele>
        <time>2011-11-13T08:32:08Z</time>
      </trkpt>
      <trkpt lat="44.01554" lon="4.31912">
        <ele>264.5</ele>
        <time>2011-11-13T08:32:09Z</time>
      </trkpt>
      <trkpt lat="44.01552" lon="4.31917">
        <ele>263</ele>
        <time>2011-11-13T08:32:10Z</time>
      </trkpt>
      <trkpt lat="44.0155" lon="4.31923">
        <ele>260.6</ele>
        <time>2011-11-13T08:32:11Z</time>
      </trkpt>
      <trkpt lat="44.01547" lon="4.31929">
        <ele>258.9</ele>
        <time>2011-11-13T08:32:12Z</time>
      </trkpt>
      <trkpt lat="44.01544" lon="4.31935">
        <ele>257.3</ele>
        <time>2011-11-13T08:32:13Z</time>
      </trkpt>
      <trkpt lat="44.01541" lon="4.31938">
        <ele>256.3</ele>
        <time>2011-11-13T08:32:14Z</time>
      </trkpt>
      <trkpt lat="44.01536" lon="4.31941">
        <ele>255.5</ele>
        <time>2011-11-13T08:32:15Z</time>
      </trkpt>
      <trkpt lat="44.01532" lon="4.31944">
        <ele>255.6</ele>
        <time>2011-11-13T08:32:16Z</time>
      </trkpt>
      <trkpt lat="44.01525" lon="4.3195">
        <ele>255.7</ele>
        <time>2011-11-13T08:32:18Z</time>
      </trkpt>
      <trkpt lat="44.01524" lon="4.31956">
        <ele>255.8</ele>
        <time>2011-11-13T08:32:20Z</time>
      </trkpt>
      <trkpt lat="44.01529" lon="4.31962">
        <ele>255.7</ele>
        <time>2011-11-13T08:32:22Z</time>
      </trkpt>
      <trkpt lat="44.01534" lon="4.31965">
        <ele>255.9</ele>
        <time>2011-11-13T08:32:23Z</time>
      </trkpt>
      <trkpt lat="44.01539" lon="4.31966">
        <ele>255.1</ele>
        <time>2011-11-13T08:32:24Z</time>
      </trkpt>
      <trkpt lat="44.01544" lon="4.31968">
        <ele>254.6</ele>
        <time>2011-11-13T08:32:25Z</time>
      </trkpt>
      <trkpt lat="44.0155" lon="4.3197">
        <ele>254.4</ele>
        <time>2011-11-13T08:32:26Z</time>
      </trkpt>
      <trkpt lat="44.01554" lon="4.31972">
        <ele>254.2</ele>
        <time>2011-11-13T08:32:27Z</time>
      </trkpt>
      <trkpt lat="44.01563" lon="4.31977">
        <ele>254.3</ele>
        <time>2011-11-13T08:32:29Z</time>
      </trkpt>
      <trkpt lat="44.01567" lon="4.31981">
        <ele>254.2</ele>
        <time>2011-11-13T08:32:30Z</time>
      </trkpt>
      <trkpt lat="44.01571" lon="4.31986">
        <ele>254.1</ele>
        <time>2011-11-13T08:32:31Z</time>
      </trkpt>
      <trkpt lat="44.01574" lon="4.31992">
        <ele>254.1</ele>
        <time>2011-11-13T08:32:32Z</time>
      </trkpt>
      <trkpt lat="44.01578" lon="4.31996">
        <ele>253.9</ele>
        <time>2011-11-13T08:32:33Z</time>
      </trkpt>
      <trkpt lat="44.01583" lon="4.31999">
        <ele>253.8</ele>
        <time>2011-11-13T08:32:34Z</time>
      </trkpt>
      <trkpt lat="44.01587" lon="4.32002">
        <ele>253.7</ele>
        <time>2011-11-13T08:32:35Z</time>
      </trkpt>
      <trkpt lat="44.01594" lon="4.32008">
        <ele>253.4</ele>
        <time>2011-11-13T08:32:37Z</time>
      </trkpt>
      <trkpt lat="44.01597" lon="4.32013">
        <ele>253.6</ele>
        <time>2011-11-13T08:32:38Z</time>
      </trkpt>
      <trkpt lat="44.016" lon="4.32018">
        <ele>253.5</ele>
        <time>2011-11-13T08:32:39Z</time>
      </trkpt>
      <trkpt lat="44.01603" lon="4.32024">
        <ele>253.6</ele>
        <time>2011-11-13T08:32:40Z</time>
      </trkpt>
      <trkpt lat="44.01606" lon="4.3203">
        <ele>253.8</ele>
        <time>2011-11-13T08:32:41Z</time>
      </trkpt>
      <trkpt lat="44.01609" lon="4.32036">
        <ele>253.9</ele>
        <time>2011-11-13T08:32:42Z</time>
      </trkpt>
      <trkpt lat="44.01611" lon="4.32043">
        <ele>253.9</ele>
        <time>2011-11-13T08:32:43Z</time>
      </trkpt>
      <trkpt lat="44.01611" lon="4.3205">
        <ele>254.1</ele>
        <time>2011-11-13T08:32:44Z</time>
      </trkpt>
      <trkpt lat="44.01613" lon="4.32056">
        <ele>254.2</ele>
        <time>2011-11-13T08:32:45Z</time>
      </trkpt>
      <trkpt lat="44.01614" lon="4.32062">
        <ele>254.4</ele>
        <time>2011-11-13T08:32:46Z</time>
      </trkpt>
      <trkpt lat="44.01615" lon="4.32068">
        <ele>254.4</ele>
        <time>2011-11-13T08:32:47Z</time>
      </trkpt>
      <trkpt lat="44.01618" lon="4.32073">
        <ele>253.9</ele>
        <time>2011-11-13T08:32:48Z</time>
      </trkpt>
      <trkpt lat="44.01621" lon="4.32078">
        <ele>253.8</ele>
        <time>2011-11-13T08:32:49Z</time>
      </trkpt>
      <trkpt lat="44.01625" lon="4.32084">
        <ele>252.7</ele>
        <time>2011-11-13T08:32:51Z</time>
      </trkpt>
      <trkpt lat="44.01626" lon="4.32091">
        <ele>252.2</ele>
        <time>2011-11-13T08:32:53Z</time>
      </trkpt>
      <trkpt lat="44.01622" lon="4.32098">
        <ele>250.7</ele>
        <time>2011-11-13T08:32:55Z</time>
      </trkpt>
      <trkpt lat="44.01618" lon="4.32103">
        <ele>248.4</ele>
        <time>2011-11-13T08:32:57Z</time>
      </trkpt>
      <trkpt lat="44.01613" lon="4.32109">
        <ele>247.7</ele>
        <time>2011-11-13T08:32:59Z</time>
      </trkpt>
      <trkpt lat="44.01608" lon="4.32116">
        <ele>247.1</ele>
        <time>2011-11-13T08:33:01Z</time>
      </trkpt>
      <trkpt lat="44.01605" lon="4.32121">
        <ele>246.5</ele>
        <time>2011-11-13T08:33:02Z</time>
      </trkpt>
      <trkpt lat="44.016" lon="4.32131">
        <ele>245.2</ele>
        <time>2011-11-13T08:33:04Z</time>
      </trkpt>
      <trkpt lat="44.01596" lon="4.32136">
        <ele>244.5</ele>
        <time>2011-11-13T08:33:05Z</time>
      </trkpt>
      <trkpt lat="44.01593" lon="4.32141">
        <ele>243.7</ele>
        <time>2011-11-13T08:33:06Z</time>
      </trkpt>
      <trkpt lat="44.01589" lon="4.32145">
        <ele>242.9</ele>
        <time>2011-11-13T08:33:07Z</time>
      </trkpt>
      <trkpt lat="44.01586" lon="4.3215">
        <ele>242.1</ele>
        <time>2011-11-13T08:33:08Z</time>
      </trkpt>
      <trkpt lat="44.01583" lon="4.32155">
        <ele>241.5</ele>
        <time>2011-11-13T08:33:09Z</time>
      </trkpt>
      <trkpt lat="44.01579" lon="4.3216">
        <ele>241.2</ele>
        <time>2011-11-13T08:33:10Z</time>
      </trkpt>
      <trkpt lat="44.01576" lon="4.32165">
        <ele>241.1</ele>
        <time>2011-11-13T08:33:11Z</time>
      </trkpt>
      <trkpt lat="44.01573" lon="4.32171">
        <ele>241</ele>
        <time>2011-11-13T08:33:12Z</time>
      </trkpt>
      <trkpt lat="44.0157" lon="4.32176">
        <ele>240.6</ele>
        <time>2011-11-13T08:33:13Z</time>
      </trkpt>
      <trkpt lat="44.01565" lon="4.32182">
        <ele>239.9</ele>
        <time>2011-11-13T08:33:14Z</time>
      </trkpt>
      <trkpt lat="44.01561" lon="4.32187">
        <ele>239.3</ele>
        <time>2011-11-13T08:33:15Z</time>
      </trkpt>
      <trkpt lat="44.01556" lon="4.32193">
        <ele>238.6</ele>
        <time>2011-11-13T08:33:16Z</time>
      </trkpt>
      <trkpt lat="44.01553" lon="4.32198">
        <ele>238</ele>
        <time>2011-11-13T08:33:17Z</time>
      </trkpt>
      <trkpt lat="44.0155" lon="4.32202">
        <ele>237.5</ele>
        <time>2011-11-13T08:33:18Z</time>
      </trkpt>
      <trkpt lat="44.01544" lon="4.3221">
        <ele>236.5</ele>
        <time>2011-11-13T08:33:20Z</time>
      </trkpt>
      <trkpt lat="44.01539" lon="4.3222">
        <ele>235.4</ele>
        <time>2011-11-13T08:33:22Z</time>
      </trkpt>
      <trkpt lat="44.01534" lon="4.3223">
        <ele>234.5</ele>
        <time>2011-11-13T08:33:24Z</time>
      </trkpt>
      <trkpt lat="44.0153" lon="4.32234">
        <ele>234</ele>
        <time>2011-11-13T08:33:25Z</time>
      </trkpt>
      <trkpt lat="44.01527" lon="4.32239">
        <ele>233.6</ele>
        <time>2011-11-13T08:33:26Z</time>
      </trkpt>
      <trkpt lat="44.01523" lon="4.32244">
        <ele>233.1</ele>
        <time>2011-11-13T08:33:27Z</time>
      </trkpt>
      <trkpt lat="44.0152" lon="4.32248">
        <ele>232.6</ele>
        <time>2011-11-13T08:33:28Z</time>
      </trkpt>
      <trkpt lat="44.01516" lon="4.32253">
        <ele>232.1</ele>
        <time>2011-11-13T08:33:29Z</time>
      </trkpt>
      <trkpt lat="44.01511" lon="4.32257">
        <ele>231.6</ele>
        <time>2011-11-13T08:33:30Z</time>
      </trkpt>
      <trkpt lat="44.01507" lon="4.32261">
        <ele>231.1</ele>
        <time>2011-11-13T08:33:31Z</time>
      </trkpt>
      <trkpt lat="44.01501" lon="4.32263">
        <ele>230.8</ele>
        <time>2011-11-13T08:33:32Z</time>
      </trkpt>
      <trkpt lat="44.01496" lon="4.32264">
        <ele>230.3</ele>
        <time>2011-11-13T08:33:33Z</time>
      </trkpt>
      <trkpt lat="44.0149" lon="4.32265">
        <ele>229.9</ele>
        <time>2011-11-13T08:33:34Z</time>
      </trkpt>
      <trkpt lat="44.01485" lon="4.32266">
        <ele>229.4</ele>
        <time>2011-11-13T08:33:35Z</time>
      </trkpt>
      <trkpt lat="44.01479" lon="4.32267">
        <ele>229</ele>
        <time>2011-11-13T08:33:36Z</time>
      </trkpt>
      <trkpt lat="44.01473" lon="4.32269">
        <ele>228.4</ele>
        <time>2011-11-13T08:33:37Z</time>
      </trkpt>
      <trkpt lat="44.01468" lon="4.32272">
        <ele>227.9</ele>
        <time>2011-11-13T08:33:38Z</time>
      </trkpt>
      <trkpt lat="44.01464" lon="4.32275">
        <ele>227.4</ele>
        <time>2011-11-13T08:33:39Z</time>
      </trkpt>
      <trkpt lat="44.01459" lon="4.32283">
        <ele>226.7</ele>
        <time>2011-11-13T08:33:41Z</time>
      </trkpt>
      <trkpt lat="44.01458" lon="4.32294">
        <ele>226.5</ele>
        <time>2011-11-13T08:33:43Z</time>
      </trkpt>
      <trkpt lat="44.01458" lon="4.32301">
        <ele>226.5</ele>
        <time>2011-11-13T08:33:45Z</time>
      </trkpt>
      <trkpt lat="44.01453" lon="4.32307">
        <ele>226.3</ele>
        <time>2011-11-13T08:33:48Z</time>
      </trkpt>
      <trkpt lat="44.01444" lon="4.32311">
        <ele>226</ele>
        <time>2011-11-13T08:33:50Z</time>
      </trkpt>
      <trkpt lat="44.0144" lon="4.32315">
        <ele>225.7</ele>
        <time>2011-11-13T08:33:51Z</time>
      </trkpt>
      <trkpt lat="44.01435" lon="4.32319">
        <ele>225.4</ele>
        <time>2011-11-13T08:33:52Z</time>
      </trkpt>
      <trkpt lat="44.01431" lon="4.32323">
        <ele>224.9</ele>
        <time>2011-11-13T08:33:53Z</time>
      </trkpt>
      <trkpt lat="44.01427" lon="4.32326">
        <ele>224.7</ele>
        <time>2011-11-13T08:33:54Z</time>
      </trkpt>
      <trkpt lat="44.01421" lon="4.32332">
        <ele>224.7</ele>
        <time>2011-11-13T08:33:56Z</time>
      </trkpt>
      <trkpt lat="44.01417" lon="4.32337">
        <ele>224.6</ele>
        <time>2011-11-13T08:33:58Z</time>
      </trkpt>
      <trkpt lat="44.01418" lon="4.32344">
        <ele>224.3</ele>
        <time>2011-11-13T08:34:01Z</time>
      </trkpt>
      <trkpt lat="44.0142" lon="4.32351">
        <ele>224.4</ele>
        <time>2011-11-13T08:34:03Z</time>
      </trkpt>
      <trkpt lat="44.01421" lon="4.32359">
        <ele>224.6</ele>
        <time>2011-11-13T08:34:05Z</time>
      </trkpt>
      <trkpt lat="44.01422" lon="4.32368">
        <ele>224.7</ele>
        <time>2011-11-13T08:34:08Z</time>
      </trkpt>
      <trkpt lat="44.01424" lon="4.32374">
        <ele>225.1</ele>
        <time>2011-11-13T08:34:10Z</time>
      </trkpt>
      <trkpt lat="44.01425" lon="4.32383">
        <ele>224.8</ele>
        <time>2011-11-13T08:34:13Z</time>
      </trkpt>
      <trkpt lat="44.01426" lon="4.32391">
        <ele>224.5</ele>
        <time>2011-11-13T08:34:16Z</time>
      </trkpt>
      <trkpt lat="44.01428" lon="4.32398">
        <ele>223.9</ele>
        <time>2011-11-13T08:34:19Z</time>
      </trkpt>
      <trkpt lat="44.01431" lon="4.32405">
        <ele>223.5</ele>
        <time>2011-11-13T08:34:22Z</time>
      </trkpt>
      <trkpt lat="44.01434" lon="4.32412">
        <ele>223.4</ele>
        <time>2011-11-13T08:34:25Z</time>
      </trkpt>
      <trkpt lat="44.01434" lon="4.32418">
        <ele>223.3</ele>
        <time>2011-11-13T08:34:27Z</time>
      </trkpt>
      <trkpt lat="44.01434" lon="4.32425">
        <ele>223.3</ele>
        <time>2011-11-13T08:34:29Z</time>
      </trkpt>
      <trkpt lat="44.01436" lon="4.32434">
        <ele>222.9</ele>
        <time>2011-11-13T08:34:32Z</time>
      </trkpt>
      <trkpt lat="44.01438" lon="4.32439">
        <ele>222.3</ele>
        <time>2011-11-13T08:34:34Z</time>
      </trkpt>
      <trkpt lat="44.01438" lon="4.32446">
        <ele>222.3</ele>
        <time>2011-11-13T08:34:37Z</time>
      </trkpt>
      <trkpt lat="44.01437" lon="4.32456">
        <ele>221</ele>
        <time>2011-11-13T08:34:40Z</time>
      </trkpt>
      <trkpt lat="44.01436" lon="4.32467">
        <ele>220.6</ele>
        <time>2011-11-13T08:34:42Z</time>
      </trkpt>
      <trkpt lat="44.01434" lon="4.32476">
        <ele>220.2</ele>
        <time>2011-11-13T08:34:44Z</time>
      </trkpt>
      <trkpt lat="44.01433" lon="4.32488">
        <ele>220</ele>
        <time>2011-11-13T08:34:46Z</time>
      </trkpt>
      <trkpt lat="44.01433" lon="4.32496">
        <ele>219.8</ele>
        <time>2011-11-13T08:34:47Z</time>
      </trkpt>
      <trkpt lat="44.01432" lon="4.32502">
        <ele>219.7</ele>
        <time>2011-11-13T08:34:48Z</time>
      </trkpt>
      <trkpt lat="44.01431" lon="4.32511">
        <ele>219.2</ele>
        <time>2011-11-13T08:34:50Z</time>
      </trkpt>
      <trkpt lat="44.01428" lon="4.32518">
        <ele>217.5</ele>
        <time>2011-11-13T08:34:53Z</time>
      </trkpt>
      <trkpt lat="44.01425" lon="4.32524">
        <ele>216.9</ele>
        <time>2011-11-13T08:34:55Z</time>
      </trkpt>
      <trkpt lat="44.01423" lon="4.32532">
        <ele>216.8</ele>
        <time>2011-11-13T08:34:57Z</time>
      </trkpt>
      <trkpt lat="44.01418" lon="4.32544">
        <ele>215.8</ele>
        <time>2011-11-13T08:34:59Z</time>
      </trkpt>
      <trkpt lat="44.01417" lon="4.32551">
        <ele>215.2</ele>
        <time>2011-11-13T08:35:00Z</time>
      </trkpt>
      <trkpt lat="44.01415" lon="4.32559">
        <ele>214.4</ele>
        <time>2011-11-13T08:35:01Z</time>
      </trkpt>
      <trkpt lat="44.01412" lon="4.32566">
        <ele>213.6</ele>
        <time>2011-11-13T08:35:02Z</time>
      </trkpt>
      <trkpt lat="44.01408" lon="4.32573">
        <ele>212.9</ele>
        <time>2011-11-13T08:35:03Z</time>
      </trkpt>
      <trkpt lat="44.01405" lon="4.3258">
        <ele>212.1</ele>
        <time>2011-11-13T08:35:04Z</time>
      </trkpt>
      <trkpt lat="44.01402" lon="4.32588">
        <ele>211.4</ele>
        <time>2011-11-13T08:35:05Z</time>
      </trkpt>
      <trkpt lat="44.01399" lon="4.32594">
        <ele>210.6</ele>
        <time>2011-11-13T08:35:06Z</time>
      </trkpt>
      <trkpt lat="44.01395" lon="4.32599">
        <ele>209.9</ele>
        <time>2011-11-13T08:35:07Z</time>
      </trkpt>
      <trkpt lat="44.01391" lon="4.32604">
        <ele>209.2</ele>
        <time>2011-11-13T08:35:08Z</time>
      </trkpt>
      <trkpt lat="44.01387" lon="4.32611">
        <ele>208.7</ele>
        <time>2011-11-13T08:35:09Z</time>
      </trkpt>
      <trkpt lat="44.01382" lon="4.32618">
        <ele>208.1</ele>
        <time>2011-11-13T08:35:10Z</time>
      </trkpt>
      <trkpt lat="44.01377" lon="4.32625">
        <ele>207.4</ele>
        <time>2011-11-13T08:35:11Z</time>
      </trkpt>
      <trkpt lat="44.01371" lon="4.32633">
        <ele>206.7</ele>
        <time>2011-11-13T08:35:12Z</time>
      </trkpt>
      <trkpt lat="44.01365" lon="4.3264">
        <ele>206</ele>
        <time>2011-11-13T08:35:13Z</time>
      </trkpt>
      <trkpt lat="44.01359" lon="4.32646">
        <ele>205.1</ele>
        <time>2011-11-13T08:35:14Z</time>
      </trkpt>
      <trkpt lat="44.01354" lon="4.32653">
        <ele>204.5</ele>
        <time>2011-11-13T08:35:15Z</time>
      </trkpt>
      <trkpt lat="44.0135" lon="4.32661">
        <ele>204.1</ele>
        <time>2011-11-13T08:35:16Z</time>
      </trkpt>
      <trkpt lat="44.01346" lon="4.32669">
        <ele>203.8</ele>
        <time>2011-11-13T08:35:17Z</time>
      </trkpt>
      <trkpt lat="44.01343" lon="4.32676">
        <ele>203.5</ele>
        <time>2011-11-13T08:35:18Z</time>
      </trkpt>
      <trkpt lat="44.01338" lon="4.32682">
        <ele>203.5</ele>
        <time>2011-11-13T08:35:19Z</time>
      </trkpt>
      <trkpt lat="44.01335" lon="4.32687">
        <ele>203.4</ele>
        <time>2011-11-13T08:35:20Z</time>
      </trkpt>
      <trkpt lat="44.01332" lon="4.32693">
        <ele>203.3</ele>
        <time>2011-11-13T08:35:21Z</time>
      </trkpt>
      <trkpt lat="44.01327" lon="4.32702">
        <ele>203.4</ele>
        <time>2011-11-13T08:35:23Z</time>
      </trkpt>
      <trkpt lat="44.01324" lon="4.32707">
        <ele>203.4</ele>
        <time>2011-11-13T08:35:24Z</time>
      </trkpt>
      <trkpt lat="44.01319" lon="4.32716">
        <ele>203.4</ele>
        <time>2011-11-13T08:35:26Z</time>
      </trkpt>
      <trkpt lat="44.01317" lon="4.32723">
        <ele>203.6</ele>
        <time>2011-11-13T08:35:28Z</time>
      </trkpt>
      <trkpt lat="44.0132" lon="4.32728">
        <ele>204</ele>
        <time>2011-11-13T08:36:25Z</time>
      </trkpt>
      <trkpt lat="44.01324" lon="4.3273">
        <ele>208.6</ele>
        <time>2011-11-13T08:37:00Z</time>
      </trkpt>
      <trkpt lat="44.01327" lon="4.32738">
        <ele>208.7</ele>
        <time>2011-11-13T08:37:03Z</time>
      </trkpt>
      <trkpt lat="44.01327" lon="4.32746">
        <ele>208.7</ele>
        <time>2011-11-13T08:37:06Z</time>
      </trkpt>
      <trkpt lat="44.01328" lon="4.32755">
        <ele>209</ele>
        <time>2011-11-13T08:37:09Z</time>
      </trkpt>
      <trkpt lat="44.01328" lon="4.32762">
        <ele>209.1</ele>
        <time>2011-11-13T08:37:11Z</time>
      </trkpt>
      <trkpt lat="44.01329" lon="4.32771">
        <ele>209.4</ele>
        <time>2011-11-13T08:37:13Z</time>
      </trkpt>
      <trkpt lat="44.01328" lon="4.3278">
        <ele>208.2</ele>
        <time>2011-11-13T08:37:15Z</time>
      </trkpt>
      <trkpt lat="44.01329" lon="4.32788">
        <ele>206.8</ele>
        <time>2011-11-13T08:37:17Z</time>
      </trkpt>
      <trkpt lat="44.01331" lon="4.32797">
        <ele>206.2</ele>
        <time>2011-11-13T08:37:19Z</time>
      </trkpt>
      <trkpt lat="44.01331" lon="4.32804">
        <ele>206.1</ele>
        <time>2011-11-13T08:37:21Z</time>
      </trkpt>
      <trkpt lat="44.01334" lon="4.32809">
        <ele>205.9</ele>
        <time>2011-11-13T08:37:23Z</time>
      </trkpt>
      <trkpt lat="44.01336" lon="4.32816">
        <ele>205.7</ele>
        <time>2011-11-13T08:37:26Z</time>
      </trkpt>
      <trkpt lat="44.01341" lon="4.32821">
        <ele>204.4</ele>
        <time>2011-11-13T08:37:31Z</time>
      </trkpt>
      <trkpt lat="44.01346" lon="4.32826">
        <ele>203.4</ele>
        <time>2011-11-13T08:37:34Z</time>
      </trkpt>
      <trkpt lat="44.01346" lon="4.32826">
        <ele>203.4</ele>
        <time>2011-11-13T08:37:34Z</time>
      </trkpt>
      <trkpt lat="44.01346" lon="4.32826">
        <ele>203.4</ele>
        <time>2011-11-13T08:37:53Z</time>
      </trkpt>
      <trkpt lat="44.01355" lon="4.32848">
        <ele>202</ele>
        <time>2011-11-13T08:37:54Z</time>
      </trkpt>
      <trkpt lat="44.01358" lon="4.32857">
        <ele>202.3</ele>
        <time>2011-11-13T08:37:56Z</time>
      </trkpt>
      <trkpt lat="44.0136" lon="4.32862">
        <ele>202.7</ele>
        <time>2011-11-13T08:37:57Z</time>
      </trkpt>
      <trkpt lat="44.01364" lon="4.32869">
        <ele>203</ele>
        <time>2011-11-13T08:37:58Z</time>
      </trkpt>
      <trkpt lat="44.01367" lon="4.32875">
        <ele>203.4</ele>
        <time>2011-11-13T08:37:59Z</time>
      </trkpt>
      <trkpt lat="44.01371" lon="4.32882">
        <ele>203.9</ele>
        <time>2011-11-13T08:38:00Z</time>
      </trkpt>
      <trkpt lat="44.01373" lon="4.32889">
        <ele>204.2</ele>
        <time>2011-11-13T08:38:01Z</time>
      </trkpt>
      <trkpt lat="44.01375" lon="4.32896">
        <ele>204.5</ele>
        <time>2011-11-13T08:38:02Z</time>
      </trkpt>
      <trkpt lat="44.01378" lon="4.32902">
        <ele>204.7</ele>
        <time>2011-11-13T08:38:04Z</time>
      </trkpt>
      <trkpt lat="44.01382" lon="4.32909">
        <ele>204.2</ele>
        <time>2011-11-13T08:38:07Z</time>
      </trkpt>
      <trkpt lat="44.01384" lon="4.32915">
        <ele>204.2</ele>
        <time>2011-11-13T08:38:09Z</time>
      </trkpt>
      <trkpt lat="44.01388" lon="4.32921">
        <ele>204.4</ele>
        <time>2011-11-13T08:38:11Z</time>
      </trkpt>
      <trkpt lat="44.01393" lon="4.32927">
        <ele>204.8</ele>
        <time>2011-11-13T08:38:13Z</time>
      </trkpt>
      <trkpt lat="44.01399" lon="4.32935">
        <ele>204.9</ele>
        <time>2011-11-13T08:38:15Z</time>
      </trkpt>
      <trkpt lat="44.01405" lon="4.3294">
        <ele>205.5</ele>
        <time>2011-11-13T08:38:17Z</time>
      </trkpt>
      <trkpt lat="44.01412" lon="4.32946">
        <ele>205.6</ele>
        <time>2011-11-13T08:38:19Z</time>
      </trkpt>
      <trkpt lat="44.01416" lon="4.3295">
        <ele>205.6</ele>
        <time>2011-11-13T08:38:20Z</time>
      </trkpt>
      <trkpt lat="44.01422" lon="4.32955">
        <ele>205.8</ele>
        <time>2011-11-13T08:38:22Z</time>
      </trkpt>
      <trkpt lat="44.01429" lon="4.3296">
        <ele>205.8</ele>
        <time>2011-11-13T08:38:24Z</time>
      </trkpt>
      <trkpt lat="44.01437" lon="4.32962">
        <ele>206</ele>
        <time>2011-11-13T08:38:26Z</time>
      </trkpt>
      <trkpt lat="44.01444" lon="4.32967">
        <ele>206.9</ele>
        <time>2011-11-13T08:38:28Z</time>
      </trkpt>
      <trkpt lat="44.01448" lon="4.32971">
        <ele>207.2</ele>
        <time>2011-11-13T08:38:29Z</time>
      </trkpt>
      <trkpt lat="44.01451" lon="4.32976">
        <ele>207.4</ele>
        <time>2011-11-13T08:38:30Z</time>
      </trkpt>
      <trkpt lat="44.01454" lon="4.32981">
        <ele>207.5</ele>
        <time>2011-11-13T08:38:31Z</time>
      </trkpt>
      <trkpt lat="44.01457" lon="4.32987">
        <ele>207.7</ele>
        <time>2011-11-13T08:38:32Z</time>
      </trkpt>
      <trkpt lat="44.01459" lon="4.32992">
        <ele>207.6</ele>
        <time>2011-11-13T08:38:33Z</time>
      </trkpt>
      <trkpt lat="44.01465" lon="4.33002">
        <ele>207.2</ele>
        <time>2011-11-13T08:38:35Z</time>
      </trkpt>
      <trkpt lat="44.01469" lon="4.33007">
        <ele>206.8</ele>
        <time>2011-11-13T08:38:36Z</time>
      </trkpt>
      <trkpt lat="44.01472" lon="4.33013">
        <ele>206.8</ele>
        <time>2011-11-13T08:38:37Z</time>
      </trkpt>
      <trkpt lat="44.01476" lon="4.33019">
        <ele>206.9</ele>
        <time>2011-11-13T08:38:38Z</time>
      </trkpt>
      <trkpt lat="44.0148" lon="4.33026">
        <ele>206.9</ele>
        <time>2011-11-13T08:38:39Z</time>
      </trkpt>
      <trkpt lat="44.01484" lon="4.33031">
        <ele>207.1</ele>
        <time>2011-11-13T08:38:40Z</time>
      </trkpt>
      <trkpt lat="44.01489" lon="4.33036">
        <ele>207.5</ele>
        <time>2011-11-13T08:38:41Z</time>
      </trkpt>
      <trkpt lat="44.01493" lon="4.33041">
        <ele>208</ele>
        <time>2011-11-13T08:38:42Z</time>
      </trkpt>
      <trkpt lat="44.01497" lon="4.33045">
        <ele>208.5</ele>
        <time>2011-11-13T08:38:43Z</time>
      </trkpt>
      <trkpt lat="44.01502" lon="4.33048">
        <ele>209</ele>
        <time>2011-11-13T08:38:44Z</time>
      </trkpt>
      <trkpt lat="44.01507" lon="4.33051">
        <ele>209.1</ele>
        <time>2011-11-13T08:38:45Z</time>
      </trkpt>
      <trkpt lat="44.01511" lon="4.33053">
        <ele>208.9</ele>
        <time>2011-11-13T08:38:46Z</time>
      </trkpt>
      <trkpt lat="44.01516" lon="4.33053">
        <ele>208.4</ele>
        <time>2011-11-13T08:38:47Z</time>
      </trkpt>
      <trkpt lat="44.01521" lon="4.33051">
        <ele>207.9</ele>
        <time>2011-11-13T08:38:48Z</time>
      </trkpt>
      <trkpt lat="44.01525" lon="4.33048">
        <ele>207.4</ele>
        <time>2011-11-13T08:38:49Z</time>
      </trkpt>
      <trkpt lat="44.0153" lon="4.33044">
        <ele>206.8</ele>
        <time>2011-11-13T08:38:50Z</time>
      </trkpt>
      <trkpt lat="44.01535" lon="4.33041">
        <ele>206.2</ele>
        <time>2011-11-13T08:38:51Z</time>
      </trkpt>
      <trkpt lat="44.0154" lon="4.33037">
        <ele>205.7</ele>
        <time>2011-11-13T08:38:52Z</time>
      </trkpt>
      <trkpt lat="44.01544" lon="4.33034">
        <ele>205.2</ele>
        <time>2011-11-13T08:38:53Z</time>
      </trkpt>
      <trkpt lat="44.01551" lon="4.33028">
        <ele>204</ele>
        <time>2011-11-13T08:38:55Z</time>
      </trkpt>
      <trkpt lat="44.01558" lon="4.3302">
        <ele>203.2</ele>
        <time>2011-11-13T08:38:57Z</time>
      </trkpt>
      <trkpt lat="44.01565" lon="4.33013">
        <ele>202.4</ele>
        <time>2011-11-13T08:38:59Z</time>
      </trkpt>
      <trkpt lat="44.01572" lon="4.33006">
        <ele>201.6</ele>
        <time>2011-11-13T08:39:01Z</time>
      </trkpt>
      <trkpt lat="44.01576" lon="4.33002">
        <ele>201.1</ele>
        <time>2011-11-13T08:39:02Z</time>
      </trkpt>
      <trkpt lat="44.01579" lon="4.32997">
        <ele>200.5</ele>
        <time>2011-11-13T08:39:03Z</time>
      </trkpt>
      <trkpt lat="44.01583" lon="4.32993">
        <ele>200.1</ele>
        <time>2011-11-13T08:39:04Z</time>
      </trkpt>
      <trkpt lat="44.01587" lon="4.32989">
        <ele>199.7</ele>
        <time>2011-11-13T08:39:05Z</time>
      </trkpt>
      <trkpt lat="44.01591" lon="4.32985">
        <ele>199.3</ele>
        <time>2011-11-13T08:39:06Z</time>
      </trkpt>
      <trkpt lat="44.01594" lon="4.3298">
        <ele>197.2</ele>
        <time>2011-11-13T08:39:07Z</time>
      </trkpt>
      <trkpt lat="44.01598" lon="4.32975">
        <ele>195.9</ele>
        <time>2011-11-13T08:39:08Z</time>
      </trkpt>
      <trkpt lat="44.01602" lon="4.32969">
        <ele>194.4</ele>
        <time>2011-11-13T08:39:09Z</time>
      </trkpt>
      <trkpt lat="44.01606" lon="4.32964">
        <ele>192.7</ele>
        <time>2011-11-13T08:39:10Z</time>
      </trkpt>
      <trkpt lat="44.0161" lon="4.32958">
        <ele>191.3</ele>
        <time>2011-11-13T08:39:11Z</time>
      </trkpt>
      <trkpt lat="44.01613" lon="4.32952">
        <ele>190.6</ele>
        <time>2011-11-13T08:39:12Z</time>
      </trkpt>
      <trkpt lat="44.01616" lon="4.32946">
        <ele>190.3</ele>
        <time>2011-11-13T08:39:14Z</time>
      </trkpt>
      <trkpt lat="44.0162" lon="4.32943">
        <ele>179.1</ele>
        <time>2011-11-13T08:42:30Z</time>
      </trkpt>
      <trkpt lat="44.01623" lon="4.32937">
        <ele>179.3</ele>
        <time>2011-11-13T08:42:33Z</time>
      </trkpt>
      <trkpt lat="44.01625" lon="4.32931">
        <ele>179.7</ele>
        <time>2011-11-13T08:42:36Z</time>
      </trkpt>
      <trkpt lat="44.01627" lon="4.32925">
        <ele>180.3</ele>
        <time>2011-11-13T08:42:38Z</time>
      </trkpt>
      <trkpt lat="44.01629" lon="4.32914">
        <ele>180.9</ele>
        <time>2011-11-13T08:42:40Z</time>
      </trkpt>
      <trkpt lat="44.01629" lon="4.32908">
        <ele>181.2</ele>
        <time>2011-11-13T08:42:41Z</time>
      </trkpt>
      <trkpt lat="44.0163" lon="4.32902">
        <ele>181.6</ele>
        <time>2011-11-13T08:42:42Z</time>
      </trkpt>
      <trkpt lat="44.0163" lon="4.32894">
        <ele>181.7</ele>
        <time>2011-11-13T08:42:43Z</time>
      </trkpt>
      <trkpt lat="44.01631" lon="4.32886">
        <ele>181.9</ele>
        <time>2011-11-13T08:42:44Z</time>
      </trkpt>
      <trkpt lat="44.01632" lon="4.32878">
        <ele>182</ele>
        <time>2011-11-13T08:42:45Z</time>
      </trkpt>
      <trkpt lat="44.01634" lon="4.3287">
        <ele>182.1</ele>
        <time>2011-11-13T08:42:46Z</time>
      </trkpt>
      <trkpt lat="44.01636" lon="4.32863">
        <ele>182.2</ele>
        <time>2011-11-13T08:42:47Z</time>
      </trkpt>
      <trkpt lat="44.01638" lon="4.32855">
        <ele>182.2</ele>
        <time>2011-11-13T08:42:48Z</time>
      </trkpt>
      <trkpt lat="44.01639" lon="4.32848">
        <ele>182.2</ele>
        <time>2011-11-13T08:42:49Z</time>
      </trkpt>
      <trkpt lat="44.01641" lon="4.32841">
        <ele>182.4</ele>
        <time>2011-11-13T08:42:50Z</time>
      </trkpt>
      <trkpt lat="44.01643" lon="4.32834">
        <ele>182.3</ele>
        <time>2011-11-13T08:42:51Z</time>
      </trkpt>
      <trkpt lat="44.01645" lon="4.32827">
        <ele>182.3</ele>
        <time>2011-11-13T08:42:52Z</time>
      </trkpt>
      <trkpt lat="44.01647" lon="4.32819">
        <ele>182.4</ele>
        <time>2011-11-13T08:42:53Z</time>
      </trkpt>
      <trkpt lat="44.0165" lon="4.32812">
        <ele>182.5</ele>
        <time>2011-11-13T08:42:54Z</time>
      </trkpt>
      <trkpt lat="44.01654" lon="4.32806">
        <ele>182.6</ele>
        <time>2011-11-13T08:42:55Z</time>
      </trkpt>
      <trkpt lat="44.01658" lon="4.328">
        <ele>182.8</ele>
        <time>2011-11-13T08:42:56Z</time>
      </trkpt>
      <trkpt lat="44.01662" lon="4.32796">
        <ele>183</ele>
        <time>2011-11-13T08:42:57Z</time>
      </trkpt>
      <trkpt lat="44.01667" lon="4.32793">
        <ele>183.1</ele>
        <time>2011-11-13T08:42:58Z</time>
      </trkpt>
      <trkpt lat="44.01673" lon="4.32791">
        <ele>183.2</ele>
        <time>2011-11-13T08:42:59Z</time>
      </trkpt>
      <trkpt lat="44.01678" lon="4.3279">
        <ele>183.3</ele>
        <time>2011-11-13T08:43:00Z</time>
      </trkpt>
      <trkpt lat="44.01684" lon="4.32789">
        <ele>182.2</ele>
        <time>2011-11-13T08:43:01Z</time>
      </trkpt>
      <trkpt lat="44.0169" lon="4.3279">
        <ele>182.5</ele>
        <time>2011-11-13T08:43:02Z</time>
      </trkpt>
      <trkpt lat="44.01695" lon="4.32791">
        <ele>182.6</ele>
        <time>2011-11-13T08:43:03Z</time>
      </trkpt>
      <trkpt lat="44.01701" lon="4.32792">
        <ele>182.6</ele>
        <time>2011-11-13T08:43:04Z</time>
      </trkpt>
      <trkpt lat="44.01706" lon="4.32793">
        <ele>182.5</ele>
        <time>2011-11-13T08:43:05Z</time>
      </trkpt>
      <trkpt lat="44.01712" lon="4.32793">
        <ele>182.5</ele>
        <time>2011-11-13T08:43:06Z</time>
      </trkpt>
      <trkpt lat="44.01717" lon="4.32794">
        <ele>182.3</ele>
        <time>2011-11-13T08:43:07Z</time>
      </trkpt>
      <trkpt lat="44.01722" lon="4.32793">
        <ele>182.3</ele>
        <time>2011-11-13T08:43:08Z</time>
      </trkpt>
      <trkpt lat="44.01858" lon="4.32495">
        <ele>184.6</ele>
        <time>2011-11-13T08:44:28Z</time>
      </trkpt>
      <trkpt lat="44.01858" lon="4.32495">
        <ele>184.6</ele>
        <time>2011-11-13T08:44:28Z</time>
      </trkpt>
      <trkpt lat="44.01858" lon="4.32495">
        <ele>184.6</ele>
        <time>2011-11-13T08:44:45Z</time>
      </trkpt>
      <trkpt lat="44.01864" lon="4.32483">
        <ele>175.7</ele>
        <time>2011-11-13T08:44:47Z</time>
      </trkpt>
      <trkpt lat="44.01867" lon="4.32478">
        <ele>176.9</ele>
        <time>2011-11-13T08:44:50Z</time>
      </trkpt>
      <trkpt lat="44.01873" lon="4.32474">
        <ele>177.2</ele>
        <time>2011-11-13T08:44:53Z</time>
      </trkpt>
      <trkpt lat="44.01878" lon="4.32472">
        <ele>174.8</ele>
        <time>2011-11-13T08:44:56Z</time>
      </trkpt>
      <trkpt lat="44.01884" lon="4.32471">
        <ele>173.6</ele>
        <time>2011-11-13T08:44:58Z</time>
      </trkpt>
      <trkpt lat="44.0189" lon="4.32472">
        <ele>174</ele>
        <time>2011-11-13T08:45:00Z</time>
      </trkpt>
      <trkpt lat="44.01895" lon="4.32475">
        <ele>175</ele>
        <time>2011-11-13T08:45:02Z</time>
      </trkpt>
      <trkpt lat="44.01899" lon="4.32477">
        <ele>175.4</ele>
        <time>2011-11-13T08:45:04Z</time>
      </trkpt>
      <trkpt lat="44.01904" lon="4.32479">
        <ele>175.9</ele>
        <time>2011-11-13T08:45:06Z</time>
      </trkpt>
      <trkpt lat="44.01911" lon="4.32479">
        <ele>176</ele>
        <time>2011-11-13T08:45:08Z</time>
      </trkpt>
      <trkpt lat="44.01919" lon="4.32475">
        <ele>176.4</ele>
        <time>2011-11-13T08:45:10Z</time>
      </trkpt>
      <trkpt lat="44.01927" lon="4.32471">
        <ele>176.8</ele>
        <time>2011-11-13T08:45:12Z</time>
      </trkpt>
      <trkpt lat="44.01936" lon="4.32467">
        <ele>177.2</ele>
        <time>2011-11-13T08:45:14Z</time>
      </trkpt>
      <trkpt lat="44.01941" lon="4.32464">
        <ele>177.7</ele>
        <time>2011-11-13T08:45:16Z</time>
      </trkpt>
      <trkpt lat="44.01947" lon="4.3246">
        <ele>178</ele>
        <time>2011-11-13T08:45:19Z</time>
      </trkpt>
      <trkpt lat="44.01951" lon="4.32457">
        <ele>178.3</ele>
        <time>2011-11-13T08:45:21Z</time>
      </trkpt>
      <trkpt lat="44.01956" lon="4.32455">
        <ele>178.6</ele>
        <time>2011-11-13T08:45:23Z</time>
      </trkpt>
      <trkpt lat="44.01961" lon="4.32453">
        <ele>178.9</ele>
        <time>2011-11-13T08:45:25Z</time>
      </trkpt>
      <trkpt lat="44.01965" lon="4.3245">
        <ele>178.8</ele>
        <time>2011-11-13T08:45:27Z</time>
      </trkpt>
      <trkpt lat="44.0197" lon="4.32446">
        <ele>178.3</ele>
        <time>2011-11-13T08:45:30Z</time>
      </trkpt>
      <trkpt lat="44.01975" lon="4.32444">
        <ele>178.2</ele>
        <time>2011-11-13T08:45:32Z</time>
      </trkpt>
      <trkpt lat="44.0198" lon="4.32441">
        <ele>178.4</ele>
        <time>2011-11-13T08:45:35Z</time>
      </trkpt>
      <trkpt lat="44.01985" lon="4.3244">
        <ele>178.5</ele>
        <time>2011-11-13T08:45:37Z</time>
      </trkpt>
      <trkpt lat="44.0199" lon="4.32438">
        <ele>178.7</ele>
        <time>2011-11-13T08:45:39Z</time>
      </trkpt>
      <trkpt lat="44.01994" lon="4.32436">
        <ele>178.9</ele>
        <time>2011-11-13T08:45:41Z</time>
      </trkpt>
      <trkpt lat="44.01999" lon="4.32435">
        <ele>178.7</ele>
        <time>2011-11-13T08:45:43Z</time>
      </trkpt>
      <trkpt lat="44.02004" lon="4.32433">
        <ele>178.9</ele>
        <time>2011-11-13T08:45:45Z</time>
      </trkpt>
      <trkpt lat="44.02009" lon="4.32433">
        <ele>179.4</ele>
        <time>2011-11-13T08:45:47Z</time>
      </trkpt>
      <trkpt lat="44.02015" lon="4.32433">
        <ele>180</ele>
        <time>2011-11-13T08:45:49Z</time>
      </trkpt>
      <trkpt lat="44.0202" lon="4.32434">
        <ele>180.3</ele>
        <time>2011-11-13T08:45:51Z</time>
      </trkpt>
      <trkpt lat="44.02026" lon="4.32433">
        <ele>180.6</ele>
        <time>2011-11-13T08:45:53Z</time>
      </trkpt>
      <trkpt lat="44.02032" lon="4.32434">
        <ele>180.6</ele>
        <time>2011-11-13T08:45:55Z</time>
      </trkpt>
      <trkpt lat="44.0204" lon="4.32434">
        <ele>181.3</ele>
        <time>2011-11-13T08:45:57Z</time>
      </trkpt>
      <trkpt lat="44.02046" lon="4.32433">
        <ele>181.7</ele>
        <time>2011-11-13T08:45:59Z</time>
      </trkpt>
      <trkpt lat="44.02053" lon="4.32433">
        <ele>181.8</ele>
        <time>2011-11-13T08:46:01Z</time>
      </trkpt>
      <trkpt lat="44.02059" lon="4.32433">
        <ele>182</ele>
        <time>2011-11-13T08:46:03Z</time>
      </trkpt>
      <trkpt lat="44.02064" lon="4.32433">
        <ele>182.2</ele>
        <time>2011-11-13T08:46:05Z</time>
      </trkpt>
      <trkpt lat="44.0207" lon="4.32432">
        <ele>181.9</ele>
        <time>2011-11-13T08:46:07Z</time>
      </trkpt>
      <trkpt lat="44.02076" lon="4.32432">
        <ele>181.6</ele>
        <time>2011-11-13T08:46:09Z</time>
      </trkpt>
      <trkpt lat="44.02081" lon="4.32432">
        <ele>181.9</ele>
        <time>2011-11-13T08:46:11Z</time>
      </trkpt>
      <trkpt lat="44.02086" lon="4.32432">
        <ele>182</ele>
        <time>2011-11-13T08:46:13Z</time>
      </trkpt>
      <trkpt lat="44.02091" lon="4.32432">
        <ele>182.3</ele>
        <time>2011-11-13T08:46:15Z</time>
      </trkpt>
      <trkpt lat="44.02096" lon="4.32432">
        <ele>182.3</ele>
        <time>2011-11-13T08:46:17Z</time>
      </trkpt>
      <trkpt lat="44.02101" lon="4.32431">
        <ele>182.7</ele>
        <time>2011-11-13T08:46:19Z</time>
      </trkpt>
      <trkpt lat="44.02106" lon="4.3243">
        <ele>182.9</ele>
        <time>2011-11-13T08:46:21Z</time>
      </trkpt>
      <trkpt lat="44.02111" lon="4.32429">
        <ele>183.2</ele>
        <time>2011-11-13T08:46:23Z</time>
      </trkpt>
      <trkpt lat="44.02115" lon="4.32427">
        <ele>183.4</ele>
        <time>2011-11-13T08:46:25Z</time>
      </trkpt>
      <trkpt lat="44.02121" lon="4.32423">
        <ele>184</ele>
        <time>2011-11-13T08:46:28Z</time>
      </trkpt>
      <trkpt lat="44.02126" lon="4.32422">
        <ele>184.2</ele>
        <time>2011-11-13T08:46:30Z</time>
      </trkpt>
      <trkpt lat="44.02133" lon="4.3242">
        <ele>184.2</ele>
        <time>2011-11-13T08:46:33Z</time>
      </trkpt>
      <trkpt lat="44.02139" lon="4.32418">
        <ele>184.4</ele>
        <time>2011-11-13T08:46:36Z</time>
      </trkpt>
      <trkpt lat="44.02144" lon="4.32418">
        <ele>184.9</ele>
        <time>2011-11-13T08:46:38Z</time>
      </trkpt>
      <trkpt lat="44.02148" lon="4.32418">
        <ele>185.4</ele>
        <time>2011-11-13T08:46:40Z</time>
      </trkpt>
      <trkpt lat="44.02154" lon="4.32418">
        <ele>185.8</ele>
        <time>2011-11-13T08:46:42Z</time>
      </trkpt>
      <trkpt lat="44.0216" lon="4.32419">
        <ele>186.6</ele>
        <time>2011-11-13T08:46:44Z</time>
      </trkpt>
      <trkpt lat="44.02166" lon="4.3242">
        <ele>187.5</ele>
        <time>2011-11-13T08:46:46Z</time>
      </trkpt>
      <trkpt lat="44.02172" lon="4.3242">
        <ele>188.1</ele>
        <time>2011-11-13T08:46:48Z</time>
      </trkpt>
      <trkpt lat="44.02178" lon="4.3242">
        <ele>188.4</ele>
        <time>2011-11-13T08:46:50Z</time>
      </trkpt>
      <trkpt lat="44.02184" lon="4.3242">
        <ele>188.3</ele>
        <time>2011-11-13T08:46:52Z</time>
      </trkpt>
      <trkpt lat="44.0219" lon="4.32419">
        <ele>188.1</ele>
        <time>2011-11-13T08:46:54Z</time>
      </trkpt>
      <trkpt lat="44.02196" lon="4.32418">
        <ele>188</ele>
        <time>2011-11-13T08:46:56Z</time>
      </trkpt>
      <trkpt lat="44.02202" lon="4.32416">
        <ele>187.9</ele>
        <time>2011-11-13T08:46:58Z</time>
      </trkpt>
      <trkpt lat="44.02208" lon="4.32415">
        <ele>187.9</ele>
        <time>2011-11-13T08:47:00Z</time>
      </trkpt>
      <trkpt lat="44.02214" lon="4.32414">
        <ele>188.2</ele>
        <time>2011-11-13T08:47:02Z</time>
      </trkpt>
      <trkpt lat="44.0222" lon="4.32414">
        <ele>188.5</ele>
        <time>2011-11-13T08:47:04Z</time>
      </trkpt>
      <trkpt lat="44.02226" lon="4.32414">
        <ele>188.4</ele>
        <time>2011-11-13T08:47:06Z</time>
      </trkpt>
      <trkpt lat="44.02231" lon="4.32414">
        <ele>188.4</ele>
        <time>2011-11-13T08:47:08Z</time>
      </trkpt>
      <trkpt lat="44.02237" lon="4.32414">
        <ele>188.3</ele>
        <time>2011-11-13T08:47:10Z</time>
      </trkpt>
      <trkpt lat="44.02243" lon="4.32414">
        <ele>188.5</ele>
        <time>2011-11-13T08:47:12Z</time>
      </trkpt>
      <trkpt lat="44.02248" lon="4.32415">
        <ele>188.7</ele>
        <time>2011-11-13T08:47:14Z</time>
      </trkpt>
      <trkpt lat="44.02254" lon="4.32415">
        <ele>188.8</ele>
        <time>2011-11-13T08:47:16Z</time>
      </trkpt>
      <trkpt lat="44.0226" lon="4.32415">
        <ele>189.2</ele>
        <time>2011-11-13T08:47:18Z</time>
      </trkpt>
      <trkpt lat="44.02266" lon="4.32416">
        <ele>189.5</ele>
        <time>2011-11-13T08:47:20Z</time>
      </trkpt>
      <trkpt lat="44.02271" lon="4.32417">
        <ele>189.7</ele>
        <time>2011-11-13T08:47:22Z</time>
      </trkpt>
      <trkpt lat="44.02277" lon="4.32417">
        <ele>189.9</ele>
        <time>2011-11-13T08:47:24Z</time>
      </trkpt>
      <trkpt lat="44.02283" lon="4.32418">
        <ele>190.3</ele>
        <time>2011-11-13T08:47:26Z</time>
      </trkpt>
      <trkpt lat="44.02288" lon="4.32419">
        <ele>190.8</ele>
        <time>2011-11-13T08:47:28Z</time>
      </trkpt>
      <trkpt lat="44.02293" lon="4.32421">
        <ele>191.5</ele>
        <time>2011-11-13T08:47:30Z</time>
      </trkpt>
      <trkpt lat="44.02297" lon="4.32425">
        <ele>191.6</ele>
        <time>2011-11-13T08:47:32Z</time>
      </trkpt>
      <trkpt lat="44.023" lon="4.32431">
        <ele>191.9</ele>
        <time>2011-11-13T08:47:34Z</time>
      </trkpt>
      <trkpt lat="44.02302" lon="4.32438">
        <ele>192.3</ele>
        <time>2011-11-13T08:47:36Z</time>
      </trkpt>
      <trkpt lat="44.02304" lon="4.32445">
        <ele>192.2</ele>
        <time>2011-11-13T08:47:38Z</time>
      </trkpt>
      <trkpt lat="44.02308" lon="4.3245">
        <ele>192.2</ele>
        <time>2011-11-13T08:47:40Z</time>
      </trkpt>
      <trkpt lat="44.02313" lon="4.32452">
        <ele>192.1</ele>
        <time>2011-11-13T08:47:43Z</time>
      </trkpt>
      <trkpt lat="44.02317" lon="4.32449">
        <ele>191.8</ele>
        <time>2011-11-13T08:47:46Z</time>
      </trkpt>
      <trkpt lat="44.02321" lon="4.32446">
        <ele>191.4</ele>
        <time>2011-11-13T08:47:49Z</time>
      </trkpt>
      <trkpt lat="44.02324" lon="4.32442">
        <ele>191.4</ele>
        <time>2011-11-13T08:47:52Z</time>
      </trkpt>
      <trkpt lat="44.02328" lon="4.32438">
        <ele>191.5</ele>
        <time>2011-11-13T08:47:55Z</time>
      </trkpt>
      <trkpt lat="44.02332" lon="4.32433">
        <ele>191.4</ele>
        <time>2011-11-13T08:47:59Z</time>
      </trkpt>
      <trkpt lat="44.02336" lon="4.32429">
        <ele>191.4</ele>
        <time>2011-11-13T08:48:04Z</time>
      </trkpt>
      <trkpt lat="44.0234" lon="4.32426">
        <ele>191.3</ele>
        <time>2011-11-13T08:48:09Z</time>
      </trkpt>
      <trkpt lat="44.02344" lon="4.32422">
        <ele>191.2</ele>
        <time>2011-11-13T08:48:12Z</time>
      </trkpt>
      <trkpt lat="44.02349" lon="4.32419">
        <ele>191.1</ele>
        <time>2011-11-13T08:48:15Z</time>
      </trkpt>
      <trkpt lat="44.02354" lon="4.32415">
        <ele>191.3</ele>
        <time>2011-11-13T08:48:18Z</time>
      </trkpt>
      <trkpt lat="44.02359" lon="4.32411">
        <ele>191.3</ele>
        <time>2011-11-13T08:48:21Z</time>
      </trkpt>
      <trkpt lat="44.02364" lon="4.32407">
        <ele>191.3</ele>
        <time>2011-11-13T08:48:24Z</time>
      </trkpt>
      <trkpt lat="44.0237" lon="4.32403">
        <ele>191.3</ele>
        <time>2011-11-13T08:48:27Z</time>
      </trkpt>
      <trkpt lat="44.02376" lon="4.32398">
        <ele>191.4</ele>
        <time>2011-11-13T08:48:30Z</time>
      </trkpt>
      <trkpt lat="44.02379" lon="4.32394">
        <ele>191.6</ele>
        <time>2011-11-13T08:48:32Z</time>
      </trkpt>
      <trkpt lat="44.02384" lon="4.32391">
        <ele>191.7</ele>
        <time>2011-11-13T08:48:34Z</time>
      </trkpt>
      <trkpt lat="44.02388" lon="4.32386">
        <ele>191.7</ele>
        <time>2011-11-13T08:48:36Z</time>
      </trkpt>
      <trkpt lat="44.02392" lon="4.32382">
        <ele>191.6</ele>
        <time>2011-11-13T08:48:38Z</time>
      </trkpt>
      <trkpt lat="44.02397" lon="4.32378">
        <ele>191.6</ele>
        <time>2011-11-13T08:48:40Z</time>
      </trkpt>
      <trkpt lat="44.02401" lon="4.32373">
        <ele>191.6</ele>
        <time>2011-11-13T08:48:42Z</time>
      </trkpt>
      <trkpt lat="44.02406" lon="4.32368">
        <ele>191.5</ele>
        <time>2011-11-13T08:48:44Z</time>
      </trkpt>
      <trkpt lat="44.0241" lon="4.32362">
        <ele>191.9</ele>
        <time>2011-11-13T08:48:46Z</time>
      </trkpt>
      <trkpt lat="44.02416" lon="4.32356">
        <ele>192</ele>
        <time>2011-11-13T08:48:48Z</time>
      </trkpt>
      <trkpt lat="44.02421" lon="4.32352">
        <ele>192.2</ele>
        <time>2011-11-13T08:48:50Z</time>
      </trkpt>
      <trkpt lat="44.02426" lon="4.3235">
        <ele>192.5</ele>
        <time>2011-11-13T08:48:52Z</time>
      </trkpt>
      <trkpt lat="44.02432" lon="4.32351">
        <ele>193</ele>
        <time>2011-11-13T08:48:54Z</time>
      </trkpt>
      <trkpt lat="44.02437" lon="4.32351">
        <ele>193.4</ele>
        <time>2011-11-13T08:48:56Z</time>
      </trkpt>
      <trkpt lat="44.02443" lon="4.32353">
        <ele>193.6</ele>
        <time>2011-11-13T08:48:58Z</time>
      </trkpt>
      <trkpt lat="44.02448" lon="4.32354">
        <ele>193.9</ele>
        <time>2011-11-13T08:49:00Z</time>
      </trkpt>
      <trkpt lat="44.02453" lon="4.32356">
        <ele>194</ele>
        <time>2011-11-13T08:49:02Z</time>
      </trkpt>
      <trkpt lat="44.02458" lon="4.32358">
        <ele>194.2</ele>
        <time>2011-11-13T08:49:04Z</time>
      </trkpt>
      <trkpt lat="44.02464" lon="4.3236">
        <ele>194.4</ele>
        <time>2011-11-13T08:49:07Z</time>
      </trkpt>
      <trkpt lat="44.02469" lon="4.32362">
        <ele>194.6</ele>
        <time>2011-11-13T08:49:09Z</time>
      </trkpt>
      <trkpt lat="44.02474" lon="4.32364">
        <ele>194.6</ele>
        <time>2011-11-13T08:49:12Z</time>
      </trkpt>
      <trkpt lat="44.02479" lon="4.32365">
        <ele>194.7</ele>
        <time>2011-11-13T08:49:15Z</time>
      </trkpt>
      <trkpt lat="44.02484" lon="4.32363">
        <ele>192.4</ele>
        <time>2011-11-13T08:49:20Z</time>
      </trkpt>
      <trkpt lat="44.02487" lon="4.32357">
        <ele>192.9</ele>
        <time>2011-11-13T08:49:23Z</time>
      </trkpt>
      <trkpt lat="44.026" lon="4.31875">
        <ele>197.1</ele>
        <time>2011-11-13T08:51:47Z</time>
      </trkpt>
      <trkpt lat="44.02608" lon="4.31871">
        <ele>194.9</ele>
        <time>2011-11-13T08:51:49Z</time>
      </trkpt>
      <trkpt lat="44.02617" lon="4.31877">
        <ele>187.5</ele>
        <time>2011-11-13T08:52:51Z</time>
      </trkpt>
      <trkpt lat="44.02616" lon="4.31869">
        <ele>186.8</ele>
        <time>2011-11-13T08:52:56Z</time>
      </trkpt>
      <trkpt lat="44.02616" lon="4.31861">
        <ele>187.6</ele>
        <time>2011-11-13T08:52:59Z</time>
      </trkpt>
      <trkpt lat="44.02616" lon="4.31854">
        <ele>188.1</ele>
        <time>2011-11-13T08:53:01Z</time>
      </trkpt>
      <trkpt lat="44.02616" lon="4.31848">
        <ele>188.4</ele>
        <time>2011-11-13T08:53:03Z</time>
      </trkpt>
      <trkpt lat="44.02617" lon="4.3184">
        <ele>189.1</ele>
        <time>2011-11-13T08:53:06Z</time>
      </trkpt>
      <trkpt lat="44.02616" lon="4.31832">
        <ele>189.7</ele>
        <time>2011-11-13T08:53:09Z</time>
      </trkpt>
      <trkpt lat="44.02615" lon="4.31825">
        <ele>190.2</ele>
        <time>2011-11-13T08:53:12Z</time>
      </trkpt>
      <trkpt lat="44.02615" lon="4.31817">
        <ele>191.2</ele>
        <time>2011-11-13T08:53:15Z</time>
      </trkpt>
      <trkpt lat="44.02615" lon="4.3181">
        <ele>191.8</ele>
        <time>2011-11-13T08:53:18Z</time>
      </trkpt>
      <trkpt lat="44.02615" lon="4.31804">
        <ele>192.8</ele>
        <time>2011-11-13T08:53:21Z</time>
      </trkpt>
      <trkpt lat="44.02616" lon="4.31795">
        <ele>193.8</ele>
        <time>2011-11-13T08:53:25Z</time>
      </trkpt>
      <trkpt lat="44.02618" lon="4.31788">
        <ele>195.4</ele>
        <time>2011-11-13T08:53:28Z</time>
      </trkpt>
      <trkpt lat="44.0262" lon="4.31783">
        <ele>196.7</ele>
        <time>2011-11-13T08:53:32Z</time>
      </trkpt>
      <trkpt lat="44.02619" lon="4.31775">
        <ele>197.6</ele>
        <time>2011-11-13T08:53:36Z</time>
      </trkpt>
      <trkpt lat="44.0262" lon="4.31769">
        <ele>198.5</ele>
        <time>2011-11-13T08:53:39Z</time>
      </trkpt>
      <trkpt lat="44.02619" lon="4.3176">
        <ele>198.9</ele>
        <time>2011-11-13T08:53:42Z</time>
      </trkpt>
      <trkpt lat="44.02619" lon="4.31753">
        <ele>199.1</ele>
        <time>2011-11-13T08:53:44Z</time>
      </trkpt>
      <trkpt lat="44.02618" lon="4.31746">
        <ele>199.5</ele>
        <time>2011-11-13T08:53:46Z</time>
      </trkpt>
      <trkpt lat="44.02619" lon="4.31737">
        <ele>200</ele>
        <time>2011-11-13T08:53:49Z</time>
      </trkpt>
      <trkpt lat="44.02621" lon="4.31729">
        <ele>199.9</ele>
        <time>2011-11-13T08:53:52Z</time>
      </trkpt>
      <trkpt lat="44.02621" lon="4.31722">
        <ele>199.8</ele>
        <time>2011-11-13T08:53:54Z</time>
      </trkpt>
      <trkpt lat="44.02622" lon="4.31714">
        <ele>199.8</ele>
        <time>2011-11-13T08:53:57Z</time>
      </trkpt>
      <trkpt lat="44.02623" lon="4.31707">
        <ele>200.1</ele>
        <time>2011-11-13T08:54:00Z</time>
      </trkpt>
      <trkpt lat="44.02625" lon="4.31698">
        <ele>200.5</ele>
        <time>2011-11-13T08:54:03Z</time>
      </trkpt>
      <trkpt lat="44.02625" lon="4.3169">
        <ele>200.9</ele>
        <time>2011-11-13T08:54:06Z</time>
      </trkpt>
      <trkpt lat="44.02626" lon="4.31683">
        <ele>201.5</ele>
        <time>2011-11-13T08:54:08Z</time>
      </trkpt>
      <trkpt lat="44.02627" lon="4.31676">
        <ele>201.9</ele>
        <time>2011-11-13T08:54:11Z</time>
      </trkpt>
      <trkpt lat="44.02629" lon="4.31668">
        <ele>203</ele>
        <time>2011-11-13T08:54:18Z</time>
      </trkpt>
      <trkpt lat="44.02629" lon="4.3166">
        <ele>203.2</ele>
        <time>2011-11-13T08:54:23Z</time>
      </trkpt>
      <trkpt lat="44.0263" lon="4.31653">
        <ele>202.5</ele>
        <time>2011-11-13T08:54:26Z</time>
      </trkpt>
      <trkpt lat="44.02631" lon="4.31646">
        <ele>202.6</ele>
        <time>2011-11-13T08:54:30Z</time>
      </trkpt>
      <trkpt lat="44.02633" lon="4.31638">
        <ele>203.1</ele>
        <time>2011-11-13T08:54:33Z</time>
      </trkpt>
      <trkpt lat="44.02634" lon="4.3163">
        <ele>203.2</ele>
        <time>2011-11-13T08:54:37Z</time>
      </trkpt>
      <trkpt lat="44.02636" lon="4.31624">
        <ele>203.6</ele>
        <time>2011-11-13T08:54:41Z</time>
      </trkpt>
      <trkpt lat="44.02638" lon="4.31618">
        <ele>204.6</ele>
        <time>2011-11-13T08:55:07Z</time>
      </trkpt>
      <trkpt lat="44.02638" lon="4.3161">
        <ele>204.4</ele>
        <time>2011-11-13T08:55:09Z</time>
      </trkpt>
      <trkpt lat="44.0264" lon="4.31603">
        <ele>205</ele>
        <time>2011-11-13T08:55:13Z</time>
      </trkpt>
      <trkpt lat="44.02641" lon="4.31597">
        <ele>205.6</ele>
        <time>2011-11-13T08:55:21Z</time>
      </trkpt>
      <trkpt lat="44.02643" lon="4.31589">
        <ele>205.3</ele>
        <time>2011-11-13T08:55:24Z</time>
      </trkpt>
      <trkpt lat="44.02689" lon="4.3152">
        <ele>186.3</ele>
        <time>2011-11-13T08:56:49Z</time>
      </trkpt>
      <trkpt lat="44.02689" lon="4.3152">
        <ele>186.3</ele>
        <time>2011-11-13T08:56:49Z</time>
      </trkpt>
      <trkpt lat="44.02689" lon="4.3152">
        <ele>186.3</ele>
        <time>2011-11-13T08:57:07Z</time>
      </trkpt>
      <trkpt lat="44.02703" lon="4.31502">
        <ele>206.5</ele>
        <time>2011-11-13T08:57:08Z</time>
      </trkpt>
      <trkpt lat="44.02703" lon="4.31494">
        <ele>208.1</ele>
        <time>2011-11-13T08:57:11Z</time>
      </trkpt>
      <trkpt lat="44.02706" lon="4.31485">
        <ele>208.1</ele>
        <time>2011-11-13T08:57:14Z</time>
      </trkpt>
      <trkpt lat="44.0271" lon="4.31478">
        <ele>207.1</ele>
        <time>2011-11-13T08:57:16Z</time>
      </trkpt>
      <trkpt lat="44.02714" lon="4.31471">
        <ele>206.6</ele>
        <time>2011-11-13T08:57:18Z</time>
      </trkpt>
      <trkpt lat="44.02717" lon="4.31464">
        <ele>206.5</ele>
        <time>2011-11-13T08:57:20Z</time>
      </trkpt>
      <trkpt lat="44.0272" lon="4.31456">
        <ele>206.8</ele>
        <time>2011-11-13T08:57:22Z</time>
      </trkpt>
      <trkpt lat="44.02724" lon="4.31448">
        <ele>206.9</ele>
        <time>2011-11-13T08:57:24Z</time>
      </trkpt>
      <trkpt lat="44.02727" lon="4.31441">
        <ele>207</ele>
        <time>2011-11-13T08:57:26Z</time>
      </trkpt>
      <trkpt lat="44.02729" lon="4.31434">
        <ele>207.2</ele>
        <time>2011-11-13T08:57:28Z</time>
      </trkpt>
      <trkpt lat="44.02732" lon="4.31428">
        <ele>207.4</ele>
        <time>2011-11-13T08:57:30Z</time>
      </trkpt>
      <trkpt lat="44.02734" lon="4.31423">
        <ele>207.3</ele>
        <time>2011-11-13T08:57:32Z</time>
      </trkpt>
      <trkpt lat="44.02736" lon="4.31416">
        <ele>207.1</ele>
        <time>2011-11-13T08:57:34Z</time>
      </trkpt>
      <trkpt lat="44.02738" lon="4.31409">
        <ele>206.9</ele>
        <time>2011-11-13T08:57:36Z</time>
      </trkpt>
      <trkpt lat="44.02741" lon="4.31402">
        <ele>206.2</ele>
        <time>2011-11-13T08:57:38Z</time>
      </trkpt>
      <trkpt lat="44.02743" lon="4.31394">
        <ele>205.5</ele>
        <time>2011-11-13T08:57:40Z</time>
      </trkpt>
      <trkpt lat="44.02746" lon="4.31384">
        <ele>205.6</ele>
        <time>2011-11-13T08:57:42Z</time>
      </trkpt>
      <trkpt lat="44.02749" lon="4.31375">
        <ele>205.5</ele>
        <time>2011-11-13T08:57:44Z</time>
      </trkpt>
      <trkpt lat="44.02752" lon="4.31366">
        <ele>205.1</ele>
        <time>2011-11-13T08:57:46Z</time>
      </trkpt>
      <trkpt lat="44.02756" lon="4.31358">
        <ele>204.6</ele>
        <time>2011-11-13T08:57:48Z</time>
      </trkpt>
      <trkpt lat="44.02759" lon="4.31348">
        <ele>204.2</ele>
        <time>2011-11-13T08:57:50Z</time>
      </trkpt>
      <trkpt lat="44.02761" lon="4.31341">
        <ele>203.7</ele>
        <time>2011-11-13T08:57:52Z</time>
      </trkpt>
      <trkpt lat="44.02765" lon="4.31334">
        <ele>203.1</ele>
        <time>2011-11-13T08:57:54Z</time>
      </trkpt>
      <trkpt lat="44.0277" lon="4.31325">
        <ele>203</ele>
        <time>2011-11-13T08:57:56Z</time>
      </trkpt>
      <trkpt lat="44.02776" lon="4.31316">
        <ele>202.9</ele>
        <time>2011-11-13T08:57:58Z</time>
      </trkpt>
      <trkpt lat="44.02779" lon="4.31311">
        <ele>202.8</ele>
        <time>2011-11-13T08:57:59Z</time>
      </trkpt>
      <trkpt lat="44.02781" lon="4.31305">
        <ele>202.5</ele>
        <time>2011-11-13T08:58:00Z</time>
      </trkpt>
      <trkpt lat="44.02784" lon="4.313">
        <ele>202.4</ele>
        <time>2011-11-13T08:58:01Z</time>
      </trkpt>
      <trkpt lat="44.02787" lon="4.31294">
        <ele>202.3</ele>
        <time>2011-11-13T08:58:02Z</time>
      </trkpt>
      <trkpt lat="44.0279" lon="4.31288">
        <ele>202.2</ele>
        <time>2011-11-13T08:58:03Z</time>
      </trkpt>
      <trkpt lat="44.02793" lon="4.31281">
        <ele>202.4</ele>
        <time>2011-11-13T08:58:04Z</time>
      </trkpt>
      <trkpt lat="44.02796" lon="4.31275">
        <ele>202.6</ele>
        <time>2011-11-13T08:58:05Z</time>
      </trkpt>
      <trkpt lat="44.02799" lon="4.31269">
        <ele>202.6</ele>
        <time>2011-11-13T08:58:06Z</time>
      </trkpt>
      <trkpt lat="44.02802" lon="4.31263">
        <ele>202.7</ele>
        <time>2011-11-13T08:58:07Z</time>
      </trkpt>
      <trkpt lat="44.02804" lon="4.31258">
        <ele>202.6</ele>
        <time>2011-11-13T08:58:08Z</time>
      </trkpt>
      <trkpt lat="44.02808" lon="4.31248">
        <ele>202.4</ele>
        <time>2011-11-13T08:58:10Z</time>
      </trkpt>
      <trkpt lat="44.02812" lon="4.31239">
        <ele>201.9</ele>
        <time>2011-11-13T08:58:12Z</time>
      </trkpt>
      <trkpt lat="44.02816" lon="4.3123">
        <ele>202.1</ele>
        <time>2011-11-13T08:58:14Z</time>
      </trkpt>
      <trkpt lat="44.0282" lon="4.31221">
        <ele>202.1</ele>
        <time>2011-11-13T08:58:16Z</time>
      </trkpt>
      <trkpt lat="44.02824" lon="4.3121">
        <ele>202</ele>
        <time>2011-11-13T08:58:18Z</time>
      </trkpt>
      <trkpt lat="44.02827" lon="4.31198">
        <ele>201.7</ele>
        <time>2011-11-13T08:58:20Z</time>
      </trkpt>
      <trkpt lat="44.02831" lon="4.31188">
        <ele>201.4</ele>
        <time>2011-11-13T08:58:22Z</time>
      </trkpt>
      <trkpt lat="44.02834" lon="4.31179">
        <ele>201.5</ele>
        <time>2011-11-13T08:58:24Z</time>
      </trkpt>
      <trkpt lat="44.02838" lon="4.31168">
        <ele>201.3</ele>
        <time>2011-11-13T08:58:26Z</time>
      </trkpt>
      <trkpt lat="44.02841" lon="4.31163">
        <ele>201.2</ele>
        <time>2011-11-13T08:58:27Z</time>
      </trkpt>
      <trkpt lat="44.02845" lon="4.31154">
        <ele>201.2</ele>
        <time>2011-11-13T08:58:29Z</time>
      </trkpt>
      <trkpt lat="44.0285" lon="4.31145">
        <ele>201</ele>
        <time>2011-11-13T08:58:31Z</time>
      </trkpt>
      <trkpt lat="44.02855" lon="4.31136">
        <ele>200.6</ele>
        <time>2011-11-13T08:58:33Z</time>
      </trkpt>
      <trkpt lat="44.02859" lon="4.31126">
        <ele>200.4</ele>
        <time>2011-11-13T08:58:35Z</time>
      </trkpt>
      <trkpt lat="44.02862" lon="4.31121">
        <ele>200.4</ele>
        <time>2011-11-13T08:58:36Z</time>
      </trkpt>
      <trkpt lat="44.02864" lon="4.31115">
        <ele>200.2</ele>
        <time>2011-11-13T08:58:37Z</time>
      </trkpt>
      <trkpt lat="44.02867" lon="4.31108">
        <ele>200.1</ele>
        <time>2011-11-13T08:58:38Z</time>
      </trkpt>
      <trkpt lat="44.02871" lon="4.31099">
        <ele>199.8</ele>
        <time>2011-11-13T08:58:39Z</time>
      </trkpt>
      <trkpt lat="44.02874" lon="4.3109">
        <ele>199.7</ele>
        <time>2011-11-13T08:58:40Z</time>
      </trkpt>
      <trkpt lat="44.02879" lon="4.31081">
        <ele>199.8</ele>
        <time>2011-11-13T08:58:41Z</time>
      </trkpt>
      <trkpt lat="44.02883" lon="4.31072">
        <ele>199.8</ele>
        <time>2011-11-13T08:58:42Z</time>
      </trkpt>
      <trkpt lat="44.02888" lon="4.31062">
        <ele>199.7</ele>
        <time>2011-11-13T08:58:43Z</time>
      </trkpt>
      <trkpt lat="44.02892" lon="4.31053">
        <ele>199.9</ele>
        <time>2011-11-13T08:58:44Z</time>
      </trkpt>
      <trkpt lat="44.02897" lon="4.31044">
        <ele>199.9</ele>
        <time>2011-11-13T08:58:45Z</time>
      </trkpt>
      <trkpt lat="44.02901" lon="4.31034">
        <ele>199.9</ele>
        <time>2011-11-13T08:58:46Z</time>
      </trkpt>
      <trkpt lat="44.02905" lon="4.31026">
        <ele>199.7</ele>
        <time>2011-11-13T08:58:47Z</time>
      </trkpt>
      <trkpt lat="44.02908" lon="4.31018">
        <ele>199.6</ele>
        <time>2011-11-13T08:58:48Z</time>
      </trkpt>
      <trkpt lat="44.02911" lon="4.31011">
        <ele>199.5</ele>
        <time>2011-11-13T08:58:49Z</time>
      </trkpt>
      <trkpt lat="44.02913" lon="4.31006">
        <ele>199.4</ele>
        <time>2011-11-13T08:58:50Z</time>
      </trkpt>
      <trkpt lat="44.02917" lon="4.30997">
        <ele>198.9</ele>
        <time>2011-11-13T08:58:52Z</time>
      </trkpt>
      <trkpt lat="44.02922" lon="4.30989">
        <ele>198.5</ele>
        <time>2011-11-13T08:58:54Z</time>
      </trkpt>
      <trkpt lat="44.02925" lon="4.3098">
        <ele>198</ele>
        <time>2011-11-13T08:58:56Z</time>
      </trkpt>
      <trkpt lat="44.02929" lon="4.30973">
        <ele>197.9</ele>
        <time>2011-11-13T08:58:58Z</time>
      </trkpt>
      <trkpt lat="44.02933" lon="4.30965">
        <ele>197.8</ele>
        <time>2011-11-13T08:59:00Z</time>
      </trkpt>
      <trkpt lat="44.02936" lon="4.30958">
        <ele>197.8</ele>
        <time>2011-11-13T08:59:02Z</time>
      </trkpt>
      <trkpt lat="44.0294" lon="4.30949">
        <ele>197.5</ele>
        <time>2011-11-13T08:59:04Z</time>
      </trkpt>
      <trkpt lat="44.02943" lon="4.30942">
        <ele>197</ele>
        <time>2011-11-13T08:59:06Z</time>
      </trkpt>
      <trkpt lat="44.02946" lon="4.30934">
        <ele>196.7</ele>
        <time>2011-11-13T08:59:08Z</time>
      </trkpt>
      <trkpt lat="44.02948" lon="4.30927">
        <ele>196.8</ele>
        <time>2011-11-13T08:59:10Z</time>
      </trkpt>
      <trkpt lat="44.0295" lon="4.3092">
        <ele>196.6</ele>
        <time>2011-11-13T08:59:12Z</time>
      </trkpt>
      <trkpt lat="44.02952" lon="4.30912">
        <ele>196.4</ele>
        <time>2011-11-13T08:59:14Z</time>
      </trkpt>
      <trkpt lat="44.02954" lon="4.30903">
        <ele>195.1</ele>
        <time>2011-11-13T08:59:16Z</time>
      </trkpt>
      <trkpt lat="44.02957" lon="4.30894">
        <ele>194.1</ele>
        <time>2011-11-13T08:59:18Z</time>
      </trkpt>
      <trkpt lat="44.02958" lon="4.30886">
        <ele>194.2</ele>
        <time>2011-11-13T08:59:20Z</time>
      </trkpt>
      <trkpt lat="44.02959" lon="4.30877">
        <ele>194.4</ele>
        <time>2011-11-13T08:59:22Z</time>
      </trkpt>
      <trkpt lat="44.0296" lon="4.30871">
        <ele>194.2</ele>
        <time>2011-11-13T08:59:24Z</time>
      </trkpt>
      <trkpt lat="44.02963" lon="4.30864">
        <ele>194.1</ele>
        <time>2011-11-13T08:59:27Z</time>
      </trkpt>
      <trkpt lat="44.02968" lon="4.30857">
        <ele>194.1</ele>
        <time>2011-11-13T08:59:30Z</time>
      </trkpt>
      <trkpt lat="44.02971" lon="4.30849">
        <ele>193.9</ele>
        <time>2011-11-13T08:59:33Z</time>
      </trkpt>
      <trkpt lat="44.02974" lon="4.30843">
        <ele>194</ele>
        <time>2011-11-13T08:59:35Z</time>
      </trkpt>
      <trkpt lat="44.02976" lon="4.30836">
        <ele>193.7</ele>
        <time>2011-11-13T08:59:37Z</time>
      </trkpt>
      <trkpt lat="44.02978" lon="4.3083">
        <ele>193.6</ele>
        <time>2011-11-13T08:59:39Z</time>
      </trkpt>
      <trkpt lat="44.0298" lon="4.30822">
        <ele>193.7</ele>
        <time>2011-11-13T08:59:41Z</time>
      </trkpt>
      <trkpt lat="44.02983" lon="4.30815">
        <ele>193.6</ele>
        <time>2011-11-13T08:59:43Z</time>
      </trkpt>
      <trkpt lat="44.02987" lon="4.30808">
        <ele>193.7</ele>
        <time>2011-11-13T08:59:45Z</time>
      </trkpt>
      <trkpt lat="44.02993" lon="4.30798">
        <ele>193.6</ele>
        <time>2011-11-13T08:59:47Z</time>
      </trkpt>
      <trkpt lat="44.02997" lon="4.30793">
        <ele>193.6</ele>
        <time>2011-11-13T08:59:48Z</time>
      </trkpt>
      <trkpt lat="44.03002" lon="4.30787">
        <ele>193.3</ele>
        <time>2011-11-13T08:59:49Z</time>
      </trkpt>
      <trkpt lat="44.03008" lon="4.30781">
        <ele>193.4</ele>
        <time>2011-11-13T08:59:50Z</time>
      </trkpt>
      <trkpt lat="44.03015" lon="4.30775">
        <ele>193.2</ele>
        <time>2011-11-13T08:59:51Z</time>
      </trkpt>
      <trkpt lat="44.03022" lon="4.30768">
        <ele>193.1</ele>
        <time>2011-11-13T08:59:52Z</time>
      </trkpt>
      <trkpt lat="44.03029" lon="4.30762">
        <ele>192.9</ele>
        <time>2011-11-13T08:59:53Z</time>
      </trkpt>
      <trkpt lat="44.03035" lon="4.30755">
        <ele>192.6</ele>
        <time>2011-11-13T08:59:54Z</time>
      </trkpt>
      <trkpt lat="44.0304" lon="4.30749">
        <ele>192.5</ele>
        <time>2011-11-13T08:59:55Z</time>
      </trkpt>
      <trkpt lat="44.03046" lon="4.30742">
        <ele>192.2</ele>
        <time>2011-11-13T08:59:56Z</time>
      </trkpt>
      <trkpt lat="44.03052" lon="4.30735">
        <ele>192.1</ele>
        <time>2011-11-13T08:59:57Z</time>
      </trkpt>
      <trkpt lat="44.03058" lon="4.30729">
        <ele>192</ele>
        <time>2011-11-13T08:59:58Z</time>
      </trkpt>
      <trkpt lat="44.03064" lon="4.30723">
        <ele>191.8</ele>
        <time>2011-11-13T08:59:59Z</time>
      </trkpt>
      <trkpt lat="44.0307" lon="4.30718">
        <ele>191.9</ele>
        <time>2011-11-13T09:00:00Z</time>
      </trkpt>
      <trkpt lat="44.03075" lon="4.30712">
        <ele>191.9</ele>
        <time>2011-11-13T09:00:01Z</time>
      </trkpt>
      <trkpt lat="44.0308" lon="4.30708">
        <ele>191.8</ele>
        <time>2011-11-13T09:00:02Z</time>
      </trkpt>
      <trkpt lat="44.03086" lon="4.30702">
        <ele>191.8</ele>
        <time>2011-11-13T09:00:03Z</time>
      </trkpt>
      <trkpt lat="44.03091" lon="4.30697">
        <ele>191.8</ele>
        <time>2011-11-13T09:00:04Z</time>
      </trkpt>
      <trkpt lat="44.03097" lon="4.30692">
        <ele>191.5</ele>
        <time>2011-11-13T09:00:05Z</time>
      </trkpt>
      <trkpt lat="44.03101" lon="4.30686">
        <ele>191.5</ele>
        <time>2011-11-13T09:00:06Z</time>
      </trkpt>
      <trkpt lat="44.03108" lon="4.30681">
        <ele>191.7</ele>
        <time>2011-11-13T09:00:07Z</time>
      </trkpt>
      <trkpt lat="44.03113" lon="4.30676">
        <ele>191.6</ele>
        <time>2011-11-13T09:00:08Z</time>
      </trkpt>
      <trkpt lat="44.03119" lon="4.30672">
        <ele>191.7</ele>
        <time>2011-11-13T09:00:09Z</time>
      </trkpt>
      <trkpt lat="44.03126" lon="4.30667">
        <ele>191.8</ele>
        <time>2011-11-13T09:00:10Z</time>
      </trkpt>
      <trkpt lat="44.03132" lon="4.3066">
        <ele>190.1</ele>
        <time>2011-11-13T09:00:11Z</time>
      </trkpt>
      <trkpt lat="44.03139" lon="4.30654">
        <ele>190</ele>
        <time>2011-11-13T09:00:12Z</time>
      </trkpt>
      <trkpt lat="44.03146" lon="4.30648">
        <ele>190</ele>
        <time>2011-11-13T09:00:13Z</time>
      </trkpt>
      <trkpt lat="44.03153" lon="4.3064">
        <ele>190.4</ele>
        <time>2011-11-13T09:00:14Z</time>
      </trkpt>
      <trkpt lat="44.03158" lon="4.30632">
        <ele>190.6</ele>
        <time>2011-11-13T09:00:15Z</time>
      </trkpt>
      <trkpt lat="44.03162" lon="4.30624">
        <ele>190.5</ele>
        <time>2011-11-13T09:00:16Z</time>
      </trkpt>
      <trkpt lat="44.03166" lon="4.30617">
        <ele>190.6</ele>
        <time>2011-11-13T09:00:17Z</time>
      </trkpt>
      <trkpt lat="44.0317" lon="4.30611">
        <ele>190.5</ele>
        <time>2011-11-13T09:00:18Z</time>
      </trkpt>
      <trkpt lat="44.03174" lon="4.30605">
        <ele>190.5</ele>
        <time>2011-11-13T09:00:19Z</time>
      </trkpt>
      <trkpt lat="44.03176" lon="4.306">
        <ele>190.6</ele>
        <time>2011-11-13T09:00:20Z</time>
      </trkpt>
      <trkpt lat="44.03179" lon="4.30589">
        <ele>190.7</ele>
        <time>2011-11-13T09:00:22Z</time>
      </trkpt>
      <trkpt lat="44.03182" lon="4.30579">
        <ele>188.5</ele>
        <time>2011-11-13T09:00:24Z</time>
      </trkpt>
      <trkpt lat="44.03184" lon="4.30568">
        <ele>187.3</ele>
        <time>2011-11-13T09:00:26Z</time>
      </trkpt>
      <trkpt lat="44.03186" lon="4.30558">
        <ele>186.7</ele>
        <time>2011-11-13T09:00:28Z</time>
      </trkpt>
      <trkpt lat="44.03187" lon="4.30547">
        <ele>186.7</ele>
        <time>2011-11-13T09:00:30Z</time>
      </trkpt>
      <trkpt lat="44.0319" lon="4.30537">
        <ele>186.4</ele>
        <time>2011-11-13T09:00:32Z</time>
      </trkpt>
      <trkpt lat="44.03191" lon="4.30529">
        <ele>186.6</ele>
        <time>2011-11-13T09:00:34Z</time>
      </trkpt>
      <trkpt lat="44.03192" lon="4.30522">
        <ele>186.2</ele>
        <time>2011-11-13T09:00:36Z</time>
      </trkpt>
      <trkpt lat="44.03193" lon="4.30515">
        <ele>186.3</ele>
        <time>2011-11-13T09:00:38Z</time>
      </trkpt>
      <trkpt lat="44.03193" lon="4.30508">
        <ele>186.2</ele>
        <time>2011-11-13T09:00:40Z</time>
      </trkpt>
      <trkpt lat="44.03193" lon="4.305">
        <ele>185.9</ele>
        <time>2011-11-13T09:00:42Z</time>
      </trkpt>
      <trkpt lat="44.03192" lon="4.30492">
        <ele>185.5</ele>
        <time>2011-11-13T09:00:44Z</time>
      </trkpt>
      <trkpt lat="44.0319" lon="4.30482">
        <ele>185.5</ele>
        <time>2011-11-13T09:00:46Z</time>
      </trkpt>
      <trkpt lat="44.03189" lon="4.30471">
        <ele>185.5</ele>
        <time>2011-11-13T09:00:48Z</time>
      </trkpt>
      <trkpt lat="44.03186" lon="4.3046">
        <ele>184.9</ele>
        <time>2011-11-13T09:00:50Z</time>
      </trkpt>
      <trkpt lat="44.03184" lon="4.30449">
        <ele>184.5</ele>
        <time>2011-11-13T09:00:52Z</time>
      </trkpt>
      <trkpt lat="44.03182" lon="4.30439">
        <ele>184.7</ele>
        <time>2011-11-13T09:00:54Z</time>
      </trkpt>
      <trkpt lat="44.0318" lon="4.30429">
        <ele>184.2</ele>
        <time>2011-11-13T09:00:56Z</time>
      </trkpt>
      <trkpt lat="44.03178" lon="4.30419">
        <ele>184</ele>
        <time>2011-11-13T09:00:58Z</time>
      </trkpt>
      <trkpt lat="44.03175" lon="4.3041">
        <ele>183.8</ele>
        <time>2011-11-13T09:01:00Z</time>
      </trkpt>
      <trkpt lat="44.03173" lon="4.30401">
        <ele>183.7</ele>
        <time>2011-11-13T09:01:02Z</time>
      </trkpt>
      <trkpt lat="44.03171" lon="4.30391">
        <ele>183.7</ele>
        <time>2011-11-13T09:01:04Z</time>
      </trkpt>
      <trkpt lat="44.03169" lon="4.30382">
        <ele>183.8</ele>
        <time>2011-11-13T09:01:06Z</time>
      </trkpt>
      <trkpt lat="44.03168" lon="4.30371">
        <ele>183.8</ele>
        <time>2011-11-13T09:01:08Z</time>
      </trkpt>
      <trkpt lat="44.03167" lon="4.30362">
        <ele>183.6</ele>
        <time>2011-11-13T09:01:10Z</time>
      </trkpt>
      <trkpt lat="44.03166" lon="4.30352">
        <ele>183.4</ele>
        <time>2011-11-13T09:01:12Z</time>
      </trkpt>
      <trkpt lat="44.03165" lon="4.30343">
        <ele>183.3</ele>
        <time>2011-11-13T09:01:14Z</time>
      </trkpt>
      <trkpt lat="44.03163" lon="4.30333">
        <ele>182.9</ele>
        <time>2011-11-13T09:01:16Z</time>
      </trkpt>
      <trkpt lat="44.03162" lon="4.30325">
        <ele>182.9</ele>
        <time>2011-11-13T09:01:18Z</time>
      </trkpt>
      <trkpt lat="44.03162" lon="4.30316">
        <ele>182.8</ele>
        <time>2011-11-13T09:01:20Z</time>
      </trkpt>
      <trkpt lat="44.03161" lon="4.30308">
        <ele>182.8</ele>
        <time>2011-11-13T09:01:22Z</time>
      </trkpt>
      <trkpt lat="44.0316" lon="4.30301">
        <ele>182.5</ele>
        <time>2011-11-13T09:01:24Z</time>
      </trkpt>
      <trkpt lat="44.0316" lon="4.30294">
        <ele>182.4</ele>
        <time>2011-11-13T09:01:26Z</time>
      </trkpt>
      <trkpt lat="44.03162" lon="4.30286">
        <ele>181.8</ele>
        <time>2011-11-13T09:01:28Z</time>
      </trkpt>
      <trkpt lat="44.03164" lon="4.3028">
        <ele>181.2</ele>
        <time>2011-11-13T09:01:30Z</time>
      </trkpt>
      <trkpt lat="44.03167" lon="4.30274">
        <ele>180.5</ele>
        <time>2011-11-13T09:01:32Z</time>
      </trkpt>
      <trkpt lat="44.03169" lon="4.30268">
        <ele>180.1</ele>
        <time>2011-11-13T09:01:34Z</time>
      </trkpt>
      <trkpt lat="44.03172" lon="4.30262">
        <ele>179.9</ele>
        <time>2011-11-13T09:01:36Z</time>
      </trkpt>
      <trkpt lat="44.03175" lon="4.30257">
        <ele>179.8</ele>
        <time>2011-11-13T09:01:38Z</time>
      </trkpt>
      <trkpt lat="44.03178" lon="4.30251">
        <ele>179.5</ele>
        <time>2011-11-13T09:01:40Z</time>
      </trkpt>
      <trkpt lat="44.03181" lon="4.30246">
        <ele>179.2</ele>
        <time>2011-11-13T09:01:42Z</time>
      </trkpt>
      <trkpt lat="44.03185" lon="4.3024">
        <ele>178.8</ele>
        <time>2011-11-13T09:01:44Z</time>
      </trkpt>
      <trkpt lat="44.03188" lon="4.30234">
        <ele>178.3</ele>
        <time>2011-11-13T09:01:46Z</time>
      </trkpt>
      <trkpt lat="44.03191" lon="4.30229">
        <ele>178.1</ele>
        <time>2011-11-13T09:01:48Z</time>
      </trkpt>
      <trkpt lat="44.03195" lon="4.30223">
        <ele>177.9</ele>
        <time>2011-11-13T09:01:50Z</time>
      </trkpt>
      <trkpt lat="44.03199" lon="4.30217">
        <ele>177.8</ele>
        <time>2011-11-13T09:01:52Z</time>
      </trkpt>
      <trkpt lat="44.03203" lon="4.30212">
        <ele>177.9</ele>
        <time>2011-11-13T09:01:54Z</time>
      </trkpt>
      <trkpt lat="44.03207" lon="4.30207">
        <ele>178.1</ele>
        <time>2011-11-13T09:01:56Z</time>
      </trkpt>
      <trkpt lat="44.03211" lon="4.30202">
        <ele>178</ele>
        <time>2011-11-13T09:01:58Z</time>
      </trkpt>
      <trkpt lat="44.03214" lon="4.30197">
        <ele>178</ele>
        <time>2011-11-13T09:02:00Z</time>
      </trkpt>
      <trkpt lat="44.03219" lon="4.30191">
        <ele>178.2</ele>
        <time>2011-11-13T09:02:03Z</time>
      </trkpt>
      <trkpt lat="44.03222" lon="4.30186">
        <ele>178.2</ele>
        <time>2011-11-13T09:02:05Z</time>
      </trkpt>
      <trkpt lat="44.03225" lon="4.30181">
        <ele>178.2</ele>
        <time>2011-11-13T09:02:07Z</time>
      </trkpt>
      <trkpt lat="44.03228" lon="4.30176">
        <ele>178.1</ele>
        <time>2011-11-13T09:02:09Z</time>
      </trkpt>
      <trkpt lat="44.0323" lon="4.3017">
        <ele>178.1</ele>
        <time>2011-11-13T09:02:11Z</time>
      </trkpt>
      <trkpt lat="44.03233" lon="4.30164">
        <ele>178.2</ele>
        <time>2011-11-13T09:02:13Z</time>
      </trkpt>
      <trkpt lat="44.03236" lon="4.30156">
        <ele>178.3</ele>
        <time>2011-11-13T09:02:16Z</time>
      </trkpt>
      <trkpt lat="44.03239" lon="4.30148">
        <ele>178.6</ele>
        <time>2011-11-13T09:02:19Z</time>
      </trkpt>
      <trkpt lat="44.03241" lon="4.30142">
        <ele>178.7</ele>
        <time>2011-11-13T09:02:21Z</time>
      </trkpt>
      <trkpt lat="44.03242" lon="4.30135">
        <ele>178.8</ele>
        <time>2011-11-13T09:02:23Z</time>
      </trkpt>
      <trkpt lat="44.03242" lon="4.30128">
        <ele>178.9</ele>
        <time>2011-11-13T09:02:25Z</time>
      </trkpt>
      <trkpt lat="44.03243" lon="4.30119">
        <ele>178.8</ele>
        <time>2011-11-13T09:02:27Z</time>
      </trkpt>
      <trkpt lat="44.03244" lon="4.30109">
        <ele>178.7</ele>
        <time>2011-11-13T09:02:29Z</time>
      </trkpt>
      <trkpt lat="44.03245" lon="4.30098">
        <ele>178.6</ele>
        <time>2011-11-13T09:02:31Z</time>
      </trkpt>
      <trkpt lat="44.03247" lon="4.30087">
        <ele>178.5</ele>
        <time>2011-11-13T09:02:33Z</time>
      </trkpt>
      <trkpt lat="44.03249" lon="4.30075">
        <ele>178.4</ele>
        <time>2011-11-13T09:02:35Z</time>
      </trkpt>
      <trkpt lat="44.03251" lon="4.30063">
        <ele>178.2</ele>
        <time>2011-11-13T09:02:37Z</time>
      </trkpt>
      <trkpt lat="44.03253" lon="4.30053">
        <ele>178.2</ele>
        <time>2011-11-13T09:02:39Z</time>
      </trkpt>
      <trkpt lat="44.03254" lon="4.30044">
        <ele>178</ele>
        <time>2011-11-13T09:02:41Z</time>
      </trkpt>
      <trkpt lat="44.03256" lon="4.30036">
        <ele>177.8</ele>
        <time>2011-11-13T09:02:43Z</time>
      </trkpt>
      <trkpt lat="44.03258" lon="4.30026">
        <ele>177.7</ele>
        <time>2011-11-13T09:02:45Z</time>
      </trkpt>
      <trkpt lat="44.03259" lon="4.30016">
        <ele>177.6</ele>
        <time>2011-11-13T09:02:47Z</time>
      </trkpt>
      <trkpt lat="44.03261" lon="4.30006">
        <ele>177.6</ele>
        <time>2011-11-13T09:02:49Z</time>
      </trkpt>
      <trkpt lat="44.03263" lon="4.29995">
        <ele>177.4</ele>
        <time>2011-11-13T09:02:51Z</time>
      </trkpt>
      <trkpt lat="44.03264" lon="4.29984">
        <ele>177.3</ele>
        <time>2011-11-13T09:02:53Z</time>
      </trkpt>
      <trkpt lat="44.03266" lon="4.29973">
        <ele>177.3</ele>
        <time>2011-11-13T09:02:55Z</time>
      </trkpt>
      <trkpt lat="44.03267" lon="4.29962">
        <ele>177.2</ele>
        <time>2011-11-13T09:02:57Z</time>
      </trkpt>
      <trkpt lat="44.03269" lon="4.29951">
        <ele>177</ele>
        <time>2011-11-13T09:02:59Z</time>
      </trkpt>
      <trkpt lat="44.0327" lon="4.29941">
        <ele>176.7</ele>
        <time>2011-11-13T09:03:01Z</time>
      </trkpt>
      <trkpt lat="44.03272" lon="4.29931">
        <ele>176.5</ele>
        <time>2011-11-13T09:03:03Z</time>
      </trkpt>
      <trkpt lat="44.03274" lon="4.29921">
        <ele>176.4</ele>
        <time>2011-11-13T09:03:05Z</time>
      </trkpt>
      <trkpt lat="44.03277" lon="4.29911">
        <ele>176.4</ele>
        <time>2011-11-13T09:03:07Z</time>
      </trkpt>
      <trkpt lat="44.0328" lon="4.29901">
        <ele>176.4</ele>
        <time>2011-11-13T09:03:09Z</time>
      </trkpt>
      <trkpt lat="44.03283" lon="4.29891">
        <ele>176.2</ele>
        <time>2011-11-13T09:03:11Z</time>
      </trkpt>
      <trkpt lat="44.03287" lon="4.29881">
        <ele>176</ele>
        <time>2011-11-13T09:03:13Z</time>
      </trkpt>
      <trkpt lat="44.03291" lon="4.29872">
        <ele>175.9</ele>
        <time>2011-11-13T09:03:15Z</time>
      </trkpt>
      <trkpt lat="44.03295" lon="4.29861">
        <ele>175.9</ele>
        <time>2011-11-13T09:03:17Z</time>
      </trkpt>
      <trkpt lat="44.03298" lon="4.29851">
        <ele>175.8</ele>
        <time>2011-11-13T09:03:19Z</time>
      </trkpt>
      <trkpt lat="44.03301" lon="4.2984">
        <ele>175.8</ele>
        <time>2011-11-13T09:03:21Z</time>
      </trkpt>
      <trkpt lat="44.03304" lon="4.29829">
        <ele>175.9</ele>
        <time>2011-11-13T09:03:23Z</time>
      </trkpt>
      <trkpt lat="44.03306" lon="4.29818">
        <ele>175.9</ele>
        <time>2011-11-13T09:03:25Z</time>
      </trkpt>
      <trkpt lat="44.03308" lon="4.29807">
        <ele>175.9</ele>
        <time>2011-11-13T09:03:27Z</time>
      </trkpt>
      <trkpt lat="44.03309" lon="4.29796">
        <ele>175.9</ele>
        <time>2011-11-13T09:03:29Z</time>
      </trkpt>
      <trkpt lat="44.03309" lon="4.29785">
        <ele>176</ele>
        <time>2011-11-13T09:03:31Z</time>
      </trkpt>
      <trkpt lat="44.0331" lon="4.29774">
        <ele>176</ele>
        <time>2011-11-13T09:03:33Z</time>
      </trkpt>
      <trkpt lat="44.0331" lon="4.29763">
        <ele>176</ele>
        <time>2011-11-13T09:03:35Z</time>
      </trkpt>
      <trkpt lat="44.03311" lon="4.29752">
        <ele>175.8</ele>
        <time>2011-11-13T09:03:37Z</time>
      </trkpt>
      <trkpt lat="44.03312" lon="4.29741">
        <ele>175.7</ele>
        <time>2011-11-13T09:03:39Z</time>
      </trkpt>
      <trkpt lat="44.03314" lon="4.2973">
        <ele>175.5</ele>
        <time>2011-11-13T09:03:41Z</time>
      </trkpt>
      <trkpt lat="44.03317" lon="4.2972">
        <ele>175.5</ele>
        <time>2011-11-13T09:03:43Z</time>
      </trkpt>
      <trkpt lat="44.0332" lon="4.29712">
        <ele>175.3</ele>
        <time>2011-11-13T09:03:45Z</time>
      </trkpt>
      <trkpt lat="44.03323" lon="4.29703">
        <ele>175.2</ele>
        <time>2011-11-13T09:03:47Z</time>
      </trkpt>
      <trkpt lat="44.03327" lon="4.29694">
        <ele>175.1</ele>
        <time>2011-11-13T09:03:49Z</time>
      </trkpt>
      <trkpt lat="44.03331" lon="4.29686">
        <ele>175.1</ele>
        <time>2011-11-13T09:03:51Z</time>
      </trkpt>
      <trkpt lat="44.03335" lon="4.29678">
        <ele>175.1</ele>
        <time>2011-11-13T09:03:53Z</time>
      </trkpt>
      <trkpt lat="44.03338" lon="4.29671">
        <ele>175.1</ele>
        <time>2011-11-13T09:03:55Z</time>
      </trkpt>
      <trkpt lat="44.03342" lon="4.29664">
        <ele>174.9</ele>
        <time>2011-11-13T09:03:57Z</time>
      </trkpt>
      <trkpt lat="44.03346" lon="4.29657">
        <ele>175.2</ele>
        <time>2011-11-13T09:03:59Z</time>
      </trkpt>
      <trkpt lat="44.03349" lon="4.2965">
        <ele>175.4</ele>
        <time>2011-11-13T09:04:01Z</time>
      </trkpt>
      <trkpt lat="44.03352" lon="4.29644">
        <ele>175.5</ele>
        <time>2011-11-13T09:04:03Z</time>
      </trkpt>
      <trkpt lat="44.03355" lon="4.29637">
        <ele>175.5</ele>
        <time>2011-11-13T09:04:05Z</time>
      </trkpt>
      <trkpt lat="44.03358" lon="4.29631">
        <ele>175.4</ele>
        <time>2011-11-13T09:04:07Z</time>
      </trkpt>
      <trkpt lat="44.03361" lon="4.29625">
        <ele>175.6</ele>
        <time>2011-11-13T09:04:09Z</time>
      </trkpt>
      <trkpt lat="44.03364" lon="4.29619">
        <ele>175.9</ele>
        <time>2011-11-13T09:04:11Z</time>
      </trkpt>
      <trkpt lat="44.03366" lon="4.29612">
        <ele>175.9</ele>
        <time>2011-11-13T09:04:13Z</time>
      </trkpt>
      <trkpt lat="44.03368" lon="4.29604">
        <ele>175.8</ele>
        <time>2011-11-13T09:04:16Z</time>
      </trkpt>
      <trkpt lat="44.0337" lon="4.29596">
        <ele>175.8</ele>
        <time>2011-11-13T09:04:19Z</time>
      </trkpt>
      <trkpt lat="44.03373" lon="4.29587">
        <ele>175.7</ele>
        <time>2011-11-13T09:04:22Z</time>
      </trkpt>
      <trkpt lat="44.03375" lon="4.29581">
        <ele>175.6</ele>
        <time>2011-11-13T09:04:24Z</time>
      </trkpt>
      <trkpt lat="44.03378" lon="4.29574">
        <ele>175.6</ele>
        <time>2011-11-13T09:04:26Z</time>
      </trkpt>
      <trkpt lat="44.03381" lon="4.29566">
        <ele>175.6</ele>
        <time>2011-11-13T09:04:28Z</time>
      </trkpt>
      <trkpt lat="44.03384" lon="4.29559">
        <ele>175.7</ele>
        <time>2011-11-13T09:04:30Z</time>
      </trkpt>
      <trkpt lat="44.03388" lon="4.29551">
        <ele>175.7</ele>
        <time>2011-11-13T09:04:32Z</time>
      </trkpt>
      <trkpt lat="44.03391" lon="4.29544">
        <ele>175.9</ele>
        <time>2011-11-13T09:04:34Z</time>
      </trkpt>
      <trkpt lat="44.03394" lon="4.29538">
        <ele>176</ele>
        <time>2011-11-13T09:04:36Z</time>
      </trkpt>
      <trkpt lat="44.03397" lon="4.2953">
        <ele>175.9</ele>
        <time>2011-11-13T09:04:38Z</time>
      </trkpt>
      <trkpt lat="44.03401" lon="4.29523">
        <ele>176.1</ele>
        <time>2011-11-13T09:04:40Z</time>
      </trkpt>
      <trkpt lat="44.03404" lon="4.29515">
        <ele>176</ele>
        <time>2011-11-13T09:04:42Z</time>
      </trkpt>
      <trkpt lat="44.03407" lon="4.29508">
        <ele>175.9</ele>
        <time>2011-11-13T09:04:44Z</time>
      </trkpt>
      <trkpt lat="44.0341" lon="4.295">
        <ele>175.9</ele>
        <time>2011-11-13T09:04:46Z</time>
      </trkpt>
      <trkpt lat="44.03414" lon="4.29492">
        <ele>175.9</ele>
        <time>2011-11-13T09:04:48Z</time>
      </trkpt>
      <trkpt lat="44.03417" lon="4.29485">
        <ele>176.1</ele>
        <time>2011-11-13T09:04:50Z</time>
      </trkpt>
      <trkpt lat="44.0342" lon="4.29477">
        <ele>176</ele>
        <time>2011-11-13T09:04:52Z</time>
      </trkpt>
      <trkpt lat="44.03424" lon="4.29469">
        <ele>176</ele>
        <time>2011-11-13T09:04:54Z</time>
      </trkpt>
      <trkpt lat="44.03429" lon="4.29461">
        <ele>176</ele>
        <time>2011-11-13T09:04:56Z</time>
      </trkpt>
      <trkpt lat="44.03433" lon="4.29454">
        <ele>176.3</ele>
        <time>2011-11-13T09:04:58Z</time>
      </trkpt>
      <trkpt lat="44.03438" lon="4.29447">
        <ele>176.3</ele>
        <time>2011-11-13T09:05:00Z</time>
      </trkpt>
      <trkpt lat="44.03442" lon="4.2944">
        <ele>176.4</ele>
        <time>2011-11-13T09:05:02Z</time>
      </trkpt>
      <trkpt lat="44.03445" lon="4.29433">
        <ele>176.4</ele>
        <time>2011-11-13T09:05:04Z</time>
      </trkpt>
      <trkpt lat="44.03449" lon="4.29426">
        <ele>176.3</ele>
        <time>2011-11-13T09:05:06Z</time>
      </trkpt>
      <trkpt lat="44.03452" lon="4.29418">
        <ele>176.3</ele>
        <time>2011-11-13T09:05:08Z</time>
      </trkpt>
      <trkpt lat="44.03455" lon="4.29412">
        <ele>176.4</ele>
        <time>2011-11-13T09:05:10Z</time>
      </trkpt>
      <trkpt lat="44.03459" lon="4.29405">
        <ele>176.4</ele>
        <time>2011-11-13T09:05:12Z</time>
      </trkpt>
      <trkpt lat="44.03464" lon="4.29398">
        <ele>176.6</ele>
        <time>2011-11-13T09:05:14Z</time>
      </trkpt>
      <trkpt lat="44.03468" lon="4.29392">
        <ele>176.7</ele>
        <time>2011-11-13T09:05:16Z</time>
      </trkpt>
      <trkpt lat="44.03472" lon="4.29386">
        <ele>176.7</ele>
        <time>2011-11-13T09:05:18Z</time>
      </trkpt>
      <trkpt lat="44.03476" lon="4.29378">
        <ele>176.6</ele>
        <time>2011-11-13T09:05:20Z</time>
      </trkpt>
      <trkpt lat="44.03481" lon="4.2937">
        <ele>176.6</ele>
        <time>2011-11-13T09:05:22Z</time>
      </trkpt>
      <trkpt lat="44.03485" lon="4.29363">
        <ele>176.5</ele>
        <time>2011-11-13T09:05:24Z</time>
      </trkpt>
      <trkpt lat="44.03488" lon="4.29357">
        <ele>176.7</ele>
        <time>2011-11-13T09:05:26Z</time>
      </trkpt>
      <trkpt lat="44.03493" lon="4.2935">
        <ele>177</ele>
        <time>2011-11-13T09:05:29Z</time>
      </trkpt>
      <trkpt lat="44.03495" lon="4.29345">
        <ele>176.9</ele>
        <time>2011-11-13T09:05:31Z</time>
      </trkpt>
      <trkpt lat="44.03499" lon="4.29339">
        <ele>177.1</ele>
        <time>2011-11-13T09:05:33Z</time>
      </trkpt>
      <trkpt lat="44.03502" lon="4.29332">
        <ele>177.5</ele>
        <time>2011-11-13T09:05:35Z</time>
      </trkpt>
      <trkpt lat="44.03507" lon="4.29324">
        <ele>177.6</ele>
        <time>2011-11-13T09:05:37Z</time>
      </trkpt>
      <trkpt lat="44.03512" lon="4.29315">
        <ele>177.8</ele>
        <time>2011-11-13T09:05:39Z</time>
      </trkpt>
      <trkpt lat="44.03518" lon="4.29307">
        <ele>177.9</ele>
        <time>2011-11-13T09:05:41Z</time>
      </trkpt>
      <trkpt lat="44.03524" lon="4.29302">
        <ele>178.1</ele>
        <time>2011-11-13T09:05:43Z</time>
      </trkpt>
      <trkpt lat="44.0353" lon="4.29301">
        <ele>178.8</ele>
        <time>2011-11-13T09:05:45Z</time>
      </trkpt>
      <trkpt lat="44.03537" lon="4.29304">
        <ele>179.1</ele>
        <time>2011-11-13T09:05:47Z</time>
      </trkpt>
      <trkpt lat="44.03542" lon="4.29305">
        <ele>179.4</ele>
        <time>2011-11-13T09:05:49Z</time>
      </trkpt>
      <trkpt lat="44.03549" lon="4.29305">
        <ele>179.5</ele>
        <time>2011-11-13T09:05:52Z</time>
      </trkpt>
      <trkpt lat="44.03554" lon="4.29304">
        <ele>179.8</ele>
        <time>2011-11-13T09:05:54Z</time>
      </trkpt>
      <trkpt lat="44.03561" lon="4.29302">
        <ele>180</ele>
        <time>2011-11-13T09:05:56Z</time>
      </trkpt>
      <trkpt lat="44.03568" lon="4.293">
        <ele>180.2</ele>
        <time>2011-11-13T09:05:58Z</time>
      </trkpt>
      <trkpt lat="44.03573" lon="4.29299">
        <ele>180.4</ele>
        <time>2011-11-13T09:06:00Z</time>
      </trkpt>
      <trkpt lat="44.0358" lon="4.29296">
        <ele>179.9</ele>
        <time>2011-11-13T09:06:02Z</time>
      </trkpt>
      <trkpt lat="44.03586" lon="4.29295">
        <ele>179.5</ele>
        <time>2011-11-13T09:06:04Z</time>
      </trkpt>
      <trkpt lat="44.03587" lon="4.29287">
        <ele>180</ele>
        <time>2011-11-13T09:06:08Z</time>
      </trkpt>
      <trkpt lat="44.03587" lon="4.29278">
        <ele>180.3</ele>
        <time>2011-11-13T09:06:11Z</time>
      </trkpt>
      <trkpt lat="44.03587" lon="4.29268">
        <ele>180.6</ele>
        <time>2011-11-13T09:06:13Z</time>
      </trkpt>
      <trkpt lat="44.03589" lon="4.2926">
        <ele>180.8</ele>
        <time>2011-11-13T09:06:15Z</time>
      </trkpt>
      <trkpt lat="44.03592" lon="4.29255">
        <ele>180.8</ele>
        <time>2011-11-13T09:06:17Z</time>
      </trkpt>
      <trkpt lat="44.03596" lon="4.29251">
        <ele>180.8</ele>
        <time>2011-11-13T09:06:19Z</time>
      </trkpt>
      <trkpt lat="44.03601" lon="4.29247">
        <ele>180.9</ele>
        <time>2011-11-13T09:06:21Z</time>
      </trkpt>
      <trkpt lat="44.03606" lon="4.29244">
        <ele>181.1</ele>
        <time>2011-11-13T09:06:23Z</time>
      </trkpt>
      <trkpt lat="44.03612" lon="4.29241">
        <ele>181.3</ele>
        <time>2011-11-13T09:06:25Z</time>
      </trkpt>
      <trkpt lat="44.03618" lon="4.29238">
        <ele>181.6</ele>
        <time>2011-11-13T09:06:27Z</time>
      </trkpt>
      <trkpt lat="44.03623" lon="4.29236">
        <ele>181.7</ele>
        <time>2011-11-13T09:06:29Z</time>
      </trkpt>
      <trkpt lat="44.03627" lon="4.29233">
        <ele>182</ele>
        <time>2011-11-13T09:06:31Z</time>
      </trkpt>
      <trkpt lat="44.03632" lon="4.29229">
        <ele>182.3</ele>
        <time>2011-11-13T09:06:33Z</time>
      </trkpt>
      <trkpt lat="44.03638" lon="4.29226">
        <ele>181.9</ele>
        <time>2011-11-13T09:06:35Z</time>
      </trkpt>
      <trkpt lat="44.03642" lon="4.29222">
        <ele>182.2</ele>
        <time>2011-11-13T09:06:37Z</time>
      </trkpt>
      <trkpt lat="44.03647" lon="4.29218">
        <ele>182.4</ele>
        <time>2011-11-13T09:06:40Z</time>
      </trkpt>
      <trkpt lat="44.03652" lon="4.29216">
        <ele>182.5</ele>
        <time>2011-11-13T09:06:43Z</time>
      </trkpt>
      <trkpt lat="44.03657" lon="4.29214">
        <ele>182.8</ele>
        <time>2011-11-13T09:06:46Z</time>
      </trkpt>
      <trkpt lat="44.03664" lon="4.29213">
        <ele>183.8</ele>
        <time>2011-11-13T09:06:49Z</time>
      </trkpt>
      <trkpt lat="44.03669" lon="4.29213">
        <ele>184.2</ele>
        <time>2011-11-13T09:06:51Z</time>
      </trkpt>
      <trkpt lat="44.03675" lon="4.29213">
        <ele>184.4</ele>
        <time>2011-11-13T09:06:53Z</time>
      </trkpt>
      <trkpt lat="44.03681" lon="4.29213">
        <ele>183.9</ele>
        <time>2011-11-13T09:06:55Z</time>
      </trkpt>
      <trkpt lat="44.03686" lon="4.29214">
        <ele>183.5</ele>
        <time>2011-11-13T09:06:57Z</time>
      </trkpt>
      <trkpt lat="44.03692" lon="4.29216">
        <ele>183.2</ele>
        <time>2011-11-13T09:06:59Z</time>
      </trkpt>
      <trkpt lat="44.03696" lon="4.29218">
        <ele>183.2</ele>
        <time>2011-11-13T09:07:01Z</time>
      </trkpt>
      <trkpt lat="44.03702" lon="4.29219">
        <ele>183.5</ele>
        <time>2011-11-13T09:07:03Z</time>
      </trkpt>
      <trkpt lat="44.03707" lon="4.2922">
        <ele>184</ele>
        <time>2011-11-13T09:07:05Z</time>
      </trkpt>
      <trkpt lat="44.03713" lon="4.2922">
        <ele>184.5</ele>
        <time>2011-11-13T09:07:08Z</time>
      </trkpt>
      <trkpt lat="44.03719" lon="4.29216">
        <ele>185</ele>
        <time>2011-11-13T09:07:11Z</time>
      </trkpt>
      <trkpt lat="44.03723" lon="4.2921">
        <ele>185.4</ele>
        <time>2011-11-13T09:07:14Z</time>
      </trkpt>
      <trkpt lat="44.03727" lon="4.29205">
        <ele>185.4</ele>
        <time>2011-11-13T09:07:17Z</time>
      </trkpt>
      <trkpt lat="44.03731" lon="4.292">
        <ele>185.3</ele>
        <time>2011-11-13T09:07:20Z</time>
      </trkpt>
      <trkpt lat="44.03734" lon="4.29194">
        <ele>185.2</ele>
        <time>2011-11-13T09:07:23Z</time>
      </trkpt>
      <trkpt lat="44.03738" lon="4.29188">
        <ele>185.2</ele>
        <time>2011-11-13T09:07:26Z</time>
      </trkpt>
      <trkpt lat="44.03742" lon="4.29182">
        <ele>185.3</ele>
        <time>2011-11-13T09:07:29Z</time>
      </trkpt>
      <trkpt lat="44.03746" lon="4.29178">
        <ele>185.6</ele>
        <time>2011-11-13T09:07:31Z</time>
      </trkpt>
      <trkpt lat="44.03751" lon="4.29172">
        <ele>185.8</ele>
        <time>2011-11-13T09:07:34Z</time>
      </trkpt>
      <trkpt lat="44.03755" lon="4.29166">
        <ele>186</ele>
        <time>2011-11-13T09:07:37Z</time>
      </trkpt>
      <trkpt lat="44.03759" lon="4.29161">
        <ele>186.3</ele>
        <time>2011-11-13T09:07:40Z</time>
      </trkpt>
      <trkpt lat="44.03763" lon="4.29157">
        <ele>186.7</ele>
        <time>2011-11-13T09:07:44Z</time>
      </trkpt>
      <trkpt lat="44.03768" lon="4.29154">
        <ele>187.6</ele>
        <time>2011-11-13T09:07:49Z</time>
      </trkpt>
      <trkpt lat="44.03773" lon="4.29151">
        <ele>187.9</ele>
        <time>2011-11-13T09:07:53Z</time>
      </trkpt>
      <trkpt lat="44.03778" lon="4.29149">
        <ele>188.2</ele>
        <time>2011-11-13T09:07:57Z</time>
      </trkpt>
      <trkpt lat="44.03783" lon="4.29146">
        <ele>188.7</ele>
        <time>2011-11-13T09:08:01Z</time>
      </trkpt>
      <trkpt lat="44.03788" lon="4.29143">
        <ele>188.8</ele>
        <time>2011-11-13T09:08:05Z</time>
      </trkpt>
      <trkpt lat="44.03792" lon="4.29141">
        <ele>189.2</ele>
        <time>2011-11-13T09:08:08Z</time>
      </trkpt>
      <trkpt lat="44.03798" lon="4.29137">
        <ele>188.8</ele>
        <time>2011-11-13T09:08:11Z</time>
      </trkpt>
      <trkpt lat="44.03803" lon="4.29133">
        <ele>189.3</ele>
        <time>2011-11-13T09:08:14Z</time>
      </trkpt>
      <trkpt lat="44.03808" lon="4.29128">
        <ele>189.4</ele>
        <time>2011-11-13T09:08:17Z</time>
      </trkpt>
      <trkpt lat="44.03814" lon="4.29123">
        <ele>189.8</ele>
        <time>2011-11-13T09:08:20Z</time>
      </trkpt>
      <trkpt lat="44.03818" lon="4.2912">
        <ele>189.9</ele>
        <time>2011-11-13T09:08:22Z</time>
      </trkpt>
      <trkpt lat="44.03823" lon="4.29117">
        <ele>190.1</ele>
        <time>2011-11-13T09:08:24Z</time>
      </trkpt>
      <trkpt lat="44.03831" lon="4.29114">
        <ele>190.4</ele>
        <time>2011-11-13T09:08:26Z</time>
      </trkpt>
      <trkpt lat="44.03839" lon="4.29112">
        <ele>190.8</ele>
        <time>2011-11-13T09:08:28Z</time>
      </trkpt>
      <trkpt lat="44.03847" lon="4.29112">
        <ele>191</ele>
        <time>2011-11-13T09:08:30Z</time>
      </trkpt>
      <trkpt lat="44.03855" lon="4.29113">
        <ele>190.9</ele>
        <time>2011-11-13T09:08:32Z</time>
      </trkpt>
      <trkpt lat="44.03863" lon="4.29114">
        <ele>190.8</ele>
        <time>2011-11-13T09:08:34Z</time>
      </trkpt>
      <trkpt lat="44.0387" lon="4.29114">
        <ele>190.9</ele>
        <time>2011-11-13T09:08:36Z</time>
      </trkpt>
      <trkpt lat="44.03877" lon="4.29113">
        <ele>191</ele>
        <time>2011-11-13T09:08:38Z</time>
      </trkpt>
      <trkpt lat="44.03884" lon="4.29113">
        <ele>191.2</ele>
        <time>2011-11-13T09:08:40Z</time>
      </trkpt>
      <trkpt lat="44.03891" lon="4.29114">
        <ele>191.5</ele>
        <time>2011-11-13T09:08:42Z</time>
      </trkpt>
      <trkpt lat="44.03897" lon="4.29114">
        <ele>191.7</ele>
        <time>2011-11-13T09:08:44Z</time>
      </trkpt>
      <trkpt lat="44.03902" lon="4.29115">
        <ele>192.1</ele>
        <time>2011-11-13T09:08:46Z</time>
      </trkpt>
      <trkpt lat="44.03907" lon="4.29117">
        <ele>192.1</ele>
        <time>2011-11-13T09:08:48Z</time>
      </trkpt>
      <trkpt lat="44.03912" lon="4.29119">
        <ele>192.1</ele>
        <time>2011-11-13T09:08:50Z</time>
      </trkpt>
      <trkpt lat="44.03917" lon="4.29121">
        <ele>192.1</ele>
        <time>2011-11-13T09:08:52Z</time>
      </trkpt>
      <trkpt lat="44.03922" lon="4.29123">
        <ele>192</ele>
        <time>2011-11-13T09:08:54Z</time>
      </trkpt>
      <trkpt lat="44.03927" lon="4.29125">
        <ele>192.2</ele>
        <time>2011-11-13T09:08:56Z</time>
      </trkpt>
      <trkpt lat="44.03931" lon="4.29127">
        <ele>192.1</ele>
        <time>2011-11-13T09:08:58Z</time>
      </trkpt>
      <trkpt lat="44.03936" lon="4.2913">
        <ele>192</ele>
        <time>2011-11-13T09:09:00Z</time>
      </trkpt>
      <trkpt lat="44.0394" lon="4.29133">
        <ele>192.1</ele>
        <time>2011-11-13T09:09:02Z</time>
      </trkpt>
      <trkpt lat="44.03946" lon="4.29136">
        <ele>192.1</ele>
        <time>2011-11-13T09:09:04Z</time>
      </trkpt>
      <trkpt lat="44.0395" lon="4.29139">
        <ele>192.4</ele>
        <time>2011-11-13T09:09:06Z</time>
      </trkpt>
      <trkpt lat="44.03955" lon="4.29143">
        <ele>192.7</ele>
        <time>2011-11-13T09:09:08Z</time>
      </trkpt>
      <trkpt lat="44.0396" lon="4.29146">
        <ele>192.9</ele>
        <time>2011-11-13T09:09:10Z</time>
      </trkpt>
      <trkpt lat="44.03966" lon="4.2915">
        <ele>193.1</ele>
        <time>2011-11-13T09:09:12Z</time>
      </trkpt>
      <trkpt lat="44.03971" lon="4.29154">
        <ele>193.3</ele>
        <time>2011-11-13T09:09:14Z</time>
      </trkpt>
      <trkpt lat="44.03976" lon="4.29158">
        <ele>193.6</ele>
        <time>2011-11-13T09:09:16Z</time>
      </trkpt>
      <trkpt lat="44.03981" lon="4.29162">
        <ele>193.7</ele>
        <time>2011-11-13T09:09:18Z</time>
      </trkpt>
      <trkpt lat="44.03986" lon="4.29165">
        <ele>194.2</ele>
        <time>2011-11-13T09:09:20Z</time>
      </trkpt>
      <trkpt lat="44.03992" lon="4.29167">
        <ele>194.6</ele>
        <time>2011-11-13T09:09:23Z</time>
      </trkpt>
      <trkpt lat="44.03997" lon="4.2917">
        <ele>194.5</ele>
        <time>2011-11-13T09:09:25Z</time>
      </trkpt>
      <trkpt lat="44.04002" lon="4.29174">
        <ele>194.7</ele>
        <time>2011-11-13T09:09:27Z</time>
      </trkpt>
      <trkpt lat="44.04007" lon="4.29178">
        <ele>194.9</ele>
        <time>2011-11-13T09:09:29Z</time>
      </trkpt>
      <trkpt lat="44.04012" lon="4.29179">
        <ele>195</ele>
        <time>2011-11-13T09:09:31Z</time>
      </trkpt>
      <trkpt lat="44.04017" lon="4.29181">
        <ele>195.2</ele>
        <time>2011-11-13T09:09:33Z</time>
      </trkpt>
      <trkpt lat="44.04022" lon="4.29185">
        <ele>195.3</ele>
        <time>2011-11-13T09:09:35Z</time>
      </trkpt>
      <trkpt lat="44.04028" lon="4.29188">
        <ele>195.4</ele>
        <time>2011-11-13T09:09:37Z</time>
      </trkpt>
      <trkpt lat="44.04034" lon="4.29191">
        <ele>195.6</ele>
        <time>2011-11-13T09:09:39Z</time>
      </trkpt>
      <trkpt lat="44.04038" lon="4.29194">
        <ele>195.7</ele>
        <time>2011-11-13T09:09:42Z</time>
      </trkpt>
      <trkpt lat="44.04043" lon="4.29197">
        <ele>195.9</ele>
        <time>2011-11-13T09:09:44Z</time>
      </trkpt>
      <trkpt lat="44.04049" lon="4.29201">
        <ele>196.2</ele>
        <time>2011-11-13T09:09:46Z</time>
      </trkpt>
      <trkpt lat="44.04055" lon="4.29205">
        <ele>196.5</ele>
        <time>2011-11-13T09:09:48Z</time>
      </trkpt>
      <trkpt lat="44.04061" lon="4.2921">
        <ele>196.6</ele>
        <time>2011-11-13T09:09:50Z</time>
      </trkpt>
      <trkpt lat="44.04066" lon="4.29215">
        <ele>196.8</ele>
        <time>2011-11-13T09:09:52Z</time>
      </trkpt>
      <trkpt lat="44.04072" lon="4.29218">
        <ele>197.1</ele>
        <time>2011-11-13T09:09:54Z</time>
      </trkpt>
      <trkpt lat="44.04078" lon="4.2922">
        <ele>197.7</ele>
        <time>2011-11-13T09:09:56Z</time>
      </trkpt>
      <trkpt lat="44.04085" lon="4.29218">
        <ele>198.3</ele>
        <time>2011-11-13T09:09:58Z</time>
      </trkpt>
      <trkpt lat="44.04089" lon="4.29214">
        <ele>198.5</ele>
        <time>2011-11-13T09:09:59Z</time>
      </trkpt>
      <trkpt lat="44.04092" lon="4.29208">
        <ele>198.8</ele>
        <time>2011-11-13T09:10:00Z</time>
      </trkpt>
      <trkpt lat="44.04094" lon="4.29201">
        <ele>199.2</ele>
        <time>2011-11-13T09:10:01Z</time>
      </trkpt>
      <trkpt lat="44.04097" lon="4.29192">
        <ele>200.3</ele>
        <time>2011-11-13T09:10:02Z</time>
      </trkpt>
      <trkpt lat="44.04099" lon="4.29183">
        <ele>200.1</ele>
        <time>2011-11-13T09:10:03Z</time>
      </trkpt>
      <trkpt lat="44.04101" lon="4.29175">
        <ele>200</ele>
        <time>2011-11-13T09:10:04Z</time>
      </trkpt>
      <trkpt lat="44.04103" lon="4.29167">
        <ele>199.7</ele>
        <time>2011-11-13T09:10:05Z</time>
      </trkpt>
      <trkpt lat="44.04105" lon="4.29158">
        <ele>199.3</ele>
        <time>2011-11-13T09:10:06Z</time>
      </trkpt>
      <trkpt lat="44.04108" lon="4.2915">
        <ele>198.7</ele>
        <time>2011-11-13T09:10:07Z</time>
      </trkpt>
      <trkpt lat="44.04111" lon="4.29141">
        <ele>198.1</ele>
        <time>2011-11-13T09:10:08Z</time>
      </trkpt>
      <trkpt lat="44.04114" lon="4.29133">
        <ele>197.6</ele>
        <time>2011-11-13T09:10:09Z</time>
      </trkpt>
      <trkpt lat="44.04117" lon="4.29126">
        <ele>197.2</ele>
        <time>2011-11-13T09:10:10Z</time>
      </trkpt>
      <trkpt lat="44.04121" lon="4.2912">
        <ele>196.9</ele>
        <time>2011-11-13T09:10:11Z</time>
      </trkpt>
      <trkpt lat="44.04126" lon="4.29116">
        <ele>196.7</ele>
        <time>2011-11-13T09:10:12Z</time>
      </trkpt>
      <trkpt lat="44.04131" lon="4.29113">
        <ele>196.5</ele>
        <time>2011-11-13T09:10:13Z</time>
      </trkpt>
      <trkpt lat="44.04136" lon="4.29112">
        <ele>196.4</ele>
        <time>2011-11-13T09:10:14Z</time>
      </trkpt>
      <trkpt lat="44.04141" lon="4.29113">
        <ele>196.5</ele>
        <time>2011-11-13T09:10:15Z</time>
      </trkpt>
      <trkpt lat="44.04146" lon="4.29115">
        <ele>196.4</ele>
        <time>2011-11-13T09:10:16Z</time>
      </trkpt>
      <trkpt lat="44.04154" lon="4.29119">
        <ele>196.5</ele>
        <time>2011-11-13T09:10:18Z</time>
      </trkpt>
      <trkpt lat="44.0416" lon="4.29122">
        <ele>196.5</ele>
        <time>2011-11-13T09:10:20Z</time>
      </trkpt>
      <trkpt lat="44.04164" lon="4.29126">
        <ele>196.8</ele>
        <time>2011-11-13T09:10:22Z</time>
      </trkpt>
      <trkpt lat="44.04169" lon="4.29129">
        <ele>197</ele>
        <time>2011-11-13T09:10:25Z</time>
      </trkpt>
      <trkpt lat="44.04173" lon="4.29132">
        <ele>196.7</ele>
        <time>2011-11-13T09:10:28Z</time>
      </trkpt>
      <trkpt lat="44.04178" lon="4.29136">
        <ele>195.9</ele>
        <time>2011-11-13T09:10:33Z</time>
      </trkpt>
      <trkpt lat="44.04182" lon="4.29141">
        <ele>195.1</ele>
        <time>2011-11-13T09:10:38Z</time>
      </trkpt>
      <trkpt lat="44.04186" lon="4.29146">
        <ele>195.2</ele>
        <time>2011-11-13T09:10:42Z</time>
      </trkpt>
      <trkpt lat="44.04191" lon="4.29152">
        <ele>195.7</ele>
        <time>2011-11-13T09:10:45Z</time>
      </trkpt>
      <trkpt lat="44.04195" lon="4.29158">
        <ele>195.8</ele>
        <time>2011-11-13T09:10:48Z</time>
      </trkpt>
      <trkpt lat="44.04199" lon="4.29164">
        <ele>195.7</ele>
        <time>2011-11-13T09:10:51Z</time>
      </trkpt>
      <trkpt lat="44.04204" lon="4.29169">
        <ele>196.1</ele>
        <time>2011-11-13T09:10:54Z</time>
      </trkpt>
      <trkpt lat="44.04209" lon="4.29174">
        <ele>196.6</ele>
        <time>2011-11-13T09:10:56Z</time>
      </trkpt>
      <trkpt lat="44.04214" lon="4.2918">
        <ele>196.8</ele>
        <time>2011-11-13T09:10:58Z</time>
      </trkpt>
      <trkpt lat="44.04219" lon="4.29186">
        <ele>196.9</ele>
        <time>2011-11-13T09:11:00Z</time>
      </trkpt>
      <trkpt lat="44.04224" lon="4.29191">
        <ele>197</ele>
        <time>2011-11-13T09:11:02Z</time>
      </trkpt>
      <trkpt lat="44.04229" lon="4.29196">
        <ele>197</ele>
        <time>2011-11-13T09:11:04Z</time>
      </trkpt>
      <trkpt lat="44.04235" lon="4.292">
        <ele>197.3</ele>
        <time>2011-11-13T09:11:06Z</time>
      </trkpt>
      <trkpt lat="44.0424" lon="4.29203">
        <ele>197.3</ele>
        <time>2011-11-13T09:11:08Z</time>
      </trkpt>
      <trkpt lat="44.04244" lon="4.29207">
        <ele>197.9</ele>
        <time>2011-11-13T09:11:10Z</time>
      </trkpt>
      <trkpt lat="44.04249" lon="4.29211">
        <ele>198.3</ele>
        <time>2011-11-13T09:11:12Z</time>
      </trkpt>
      <trkpt lat="44.04253" lon="4.29215">
        <ele>198.6</ele>
        <time>2011-11-13T09:11:14Z</time>
      </trkpt>
      <trkpt lat="44.04258" lon="4.29219">
        <ele>198.9</ele>
        <time>2011-11-13T09:11:16Z</time>
      </trkpt>
      <trkpt lat="44.04262" lon="4.29223">
        <ele>199.4</ele>
        <time>2011-11-13T09:11:18Z</time>
      </trkpt>
      <trkpt lat="44.04266" lon="4.29226">
        <ele>199.7</ele>
        <time>2011-11-13T09:11:20Z</time>
      </trkpt>
      <trkpt lat="44.0427" lon="4.2923">
        <ele>199.6</ele>
        <time>2011-11-13T09:11:22Z</time>
      </trkpt>
      <trkpt lat="44.04274" lon="4.29234">
        <ele>199.5</ele>
        <time>2011-11-13T09:11:24Z</time>
      </trkpt>
      <trkpt lat="44.04278" lon="4.29239">
        <ele>199.6</ele>
        <time>2011-11-13T09:11:27Z</time>
      </trkpt>
      <trkpt lat="44.04283" lon="4.29245">
        <ele>199.7</ele>
        <time>2011-11-13T09:11:30Z</time>
      </trkpt>
      <trkpt lat="44.04287" lon="4.29251">
        <ele>199.9</ele>
        <time>2011-11-13T09:11:32Z</time>
      </trkpt>
      <trkpt lat="44.04291" lon="4.29256">
        <ele>200.4</ele>
        <time>2011-11-13T09:11:34Z</time>
      </trkpt>
      <trkpt lat="44.04295" lon="4.29262">
        <ele>200.9</ele>
        <time>2011-11-13T09:11:36Z</time>
      </trkpt>
      <trkpt lat="44.04299" lon="4.29268">
        <ele>201.4</ele>
        <time>2011-11-13T09:11:38Z</time>
      </trkpt>
      <trkpt lat="44.04302" lon="4.29274">
        <ele>201.8</ele>
        <time>2011-11-13T09:11:40Z</time>
      </trkpt>
      <trkpt lat="44.04306" lon="4.29279">
        <ele>201.9</ele>
        <time>2011-11-13T09:11:42Z</time>
      </trkpt>
      <trkpt lat="44.0431" lon="4.29285">
        <ele>202.3</ele>
        <time>2011-11-13T09:11:44Z</time>
      </trkpt>
      <trkpt lat="44.04314" lon="4.29292">
        <ele>202.5</ele>
        <time>2011-11-13T09:11:46Z</time>
      </trkpt>
      <trkpt lat="44.04318" lon="4.29298">
        <ele>202.6</ele>
        <time>2011-11-13T09:11:48Z</time>
      </trkpt>
      <trkpt lat="44.04323" lon="4.29305">
        <ele>202.7</ele>
        <time>2011-11-13T09:11:50Z</time>
      </trkpt>
      <trkpt lat="44.04328" lon="4.29312">
        <ele>202.9</ele>
        <time>2011-11-13T09:11:52Z</time>
      </trkpt>
      <trkpt lat="44.04333" lon="4.29319">
        <ele>203.2</ele>
        <time>2011-11-13T09:11:54Z</time>
      </trkpt>
      <trkpt lat="44.04338" lon="4.29326">
        <ele>203.1</ele>
        <time>2011-11-13T09:11:56Z</time>
      </trkpt>
      <trkpt lat="44.04344" lon="4.29332">
        <ele>203.1</ele>
        <time>2011-11-13T09:11:58Z</time>
      </trkpt>
      <trkpt lat="44.04349" lon="4.29339">
        <ele>203</ele>
        <time>2011-11-13T09:12:00Z</time>
      </trkpt>
      <trkpt lat="44.04354" lon="4.29344">
        <ele>203.2</ele>
        <time>2011-11-13T09:12:02Z</time>
      </trkpt>
      <trkpt lat="44.04359" lon="4.2935">
        <ele>203.5</ele>
        <time>2011-11-13T09:12:04Z</time>
      </trkpt>
      <trkpt lat="44.04364" lon="4.29356">
        <ele>204</ele>
        <time>2011-11-13T09:12:06Z</time>
      </trkpt>
      <trkpt lat="44.0437" lon="4.29362">
        <ele>204.2</ele>
        <time>2011-11-13T09:12:08Z</time>
      </trkpt>
      <trkpt lat="44.04375" lon="4.29369">
        <ele>204.5</ele>
        <time>2011-11-13T09:12:10Z</time>
      </trkpt>
      <trkpt lat="44.04378" lon="4.29375">
        <ele>205</ele>
        <time>2011-11-13T09:12:12Z</time>
      </trkpt>
      <trkpt lat="44.04382" lon="4.29381">
        <ele>205.3</ele>
        <time>2011-11-13T09:12:14Z</time>
      </trkpt>
      <trkpt lat="44.04386" lon="4.29385">
        <ele>205.2</ele>
        <time>2011-11-13T09:12:16Z</time>
      </trkpt>
      <trkpt lat="44.04389" lon="4.2939">
        <ele>205</ele>
        <time>2011-11-13T09:12:18Z</time>
      </trkpt>
      <trkpt lat="44.04393" lon="4.29394">
        <ele>204.8</ele>
        <time>2011-11-13T09:12:20Z</time>
      </trkpt>
      <trkpt lat="44.04398" lon="4.29398">
        <ele>204.1</ele>
        <time>2011-11-13T09:12:22Z</time>
      </trkpt>
      <trkpt lat="44.04403" lon="4.294">
        <ele>203.9</ele>
        <time>2011-11-13T09:12:24Z</time>
      </trkpt>
      <trkpt lat="44.04409" lon="4.29403">
        <ele>203.7</ele>
        <time>2011-11-13T09:12:26Z</time>
      </trkpt>
      <trkpt lat="44.04415" lon="4.29406">
        <ele>203.5</ele>
        <time>2011-11-13T09:12:28Z</time>
      </trkpt>
      <trkpt lat="44.04421" lon="4.29409">
        <ele>203.4</ele>
        <time>2011-11-13T09:12:30Z</time>
      </trkpt>
      <trkpt lat="44.04427" lon="4.29412">
        <ele>203.6</ele>
        <time>2011-11-13T09:12:32Z</time>
      </trkpt>
      <trkpt lat="44.04434" lon="4.29415">
        <ele>203.5</ele>
        <time>2011-11-13T09:12:34Z</time>
      </trkpt>
      <trkpt lat="44.04441" lon="4.29419">
        <ele>203.2</ele>
        <time>2011-11-13T09:12:36Z</time>
      </trkpt>
      <trkpt lat="44.04449" lon="4.29423">
        <ele>203.1</ele>
        <time>2011-11-13T09:12:38Z</time>
      </trkpt>
      <trkpt lat="44.04457" lon="4.29427">
        <ele>203.1</ele>
        <time>2011-11-13T09:12:40Z</time>
      </trkpt>
      <trkpt lat="44.04462" lon="4.2943">
        <ele>203.1</ele>
        <time>2011-11-13T09:12:41Z</time>
      </trkpt>
      <trkpt lat="44.0447" lon="4.29434">
        <ele>203.1</ele>
        <time>2011-11-13T09:12:43Z</time>
      </trkpt>
      <trkpt lat="44.04474" lon="4.29436">
        <ele>203.1</ele>
        <time>2011-11-13T09:12:44Z</time>
      </trkpt>
      <trkpt lat="44.04478" lon="4.29438">
        <ele>203.1</ele>
        <time>2011-11-13T09:12:45Z</time>
      </trkpt>
      <trkpt lat="44.04483" lon="4.29441">
        <ele>203.1</ele>
        <time>2011-11-13T09:12:46Z</time>
      </trkpt>
      <trkpt lat="44.04487" lon="4.29444">
        <ele>203.2</ele>
        <time>2011-11-13T09:12:47Z</time>
      </trkpt>
      <trkpt lat="44.04492" lon="4.29447">
        <ele>203.2</ele>
        <time>2011-11-13T09:12:48Z</time>
      </trkpt>
      <trkpt lat="44.04496" lon="4.2945">
        <ele>203.1</ele>
        <time>2011-11-13T09:12:49Z</time>
      </trkpt>
      <trkpt lat="44.04499" lon="4.29453">
        <ele>203.2</ele>
        <time>2011-11-13T09:12:50Z</time>
      </trkpt>
      <trkpt lat="44.04506" lon="4.29459">
        <ele>203</ele>
        <time>2011-11-13T09:12:52Z</time>
      </trkpt>
      <trkpt lat="44.04512" lon="4.29465">
        <ele>203.1</ele>
        <time>2011-11-13T09:12:54Z</time>
      </trkpt>
      <trkpt lat="44.04517" lon="4.29471">
        <ele>203.1</ele>
        <time>2011-11-13T09:12:56Z</time>
      </trkpt>
      <trkpt lat="44.0452" lon="4.29478">
        <ele>203.2</ele>
        <time>2011-11-13T09:12:58Z</time>
      </trkpt>
      <trkpt lat="44.04523" lon="4.29483">
        <ele>202.9</ele>
        <time>2011-11-13T09:13:00Z</time>
      </trkpt>
      <trkpt lat="44.04528" lon="4.29484">
        <ele>200.2</ele>
        <time>2011-11-13T09:13:03Z</time>
      </trkpt>
      <trkpt lat="44.04531" lon="4.29479">
        <ele>199.6</ele>
        <time>2011-11-13T09:13:05Z</time>
      </trkpt>
      <trkpt lat="44.04533" lon="4.29474">
        <ele>197.7</ele>
        <time>2011-11-13T09:14:27Z</time>
      </trkpt>
      <trkpt lat="44.04535" lon="4.29467">
        <ele>197.9</ele>
        <time>2011-11-13T09:14:31Z</time>
      </trkpt>
      <trkpt lat="44.04535" lon="4.29459">
        <ele>197.8</ele>
        <time>2011-11-13T09:14:34Z</time>
      </trkpt>
      <trkpt lat="44.04535" lon="4.29452">
        <ele>197.5</ele>
        <time>2011-11-13T09:14:37Z</time>
      </trkpt>
      <trkpt lat="44.04535" lon="4.29442">
        <ele>197.3</ele>
        <time>2011-11-13T09:14:40Z</time>
      </trkpt>
      <trkpt lat="44.04536" lon="4.29431">
        <ele>197.5</ele>
        <time>2011-11-13T09:14:42Z</time>
      </trkpt>
      <trkpt lat="44.04536" lon="4.29424">
        <ele>197.6</ele>
        <time>2011-11-13T09:14:43Z</time>
      </trkpt>
      <trkpt lat="44.04538" lon="4.29415">
        <ele>197.7</ele>
        <time>2011-11-13T09:14:44Z</time>
      </trkpt>
      <trkpt lat="44.0454" lon="4.29406">
        <ele>197.7</ele>
        <time>2011-11-13T09:14:45Z</time>
      </trkpt>
      <trkpt lat="44.04544" lon="4.29394">
        <ele>197.6</ele>
        <time>2011-11-13T09:14:46Z</time>
      </trkpt>
      <trkpt lat="44.04548" lon="4.29382">
        <ele>197.5</ele>
        <time>2011-11-13T09:14:47Z</time>
      </trkpt>
      <trkpt lat="44.04552" lon="4.29371">
        <ele>197.5</ele>
        <time>2011-11-13T09:14:48Z</time>
      </trkpt>
      <trkpt lat="44.04556" lon="4.29359">
        <ele>197.6</ele>
        <time>2011-11-13T09:14:49Z</time>
      </trkpt>
      <trkpt lat="44.04559" lon="4.29348">
        <ele>197.5</ele>
        <time>2011-11-13T09:14:50Z</time>
      </trkpt>
      <trkpt lat="44.04562" lon="4.29338">
        <ele>197.4</ele>
        <time>2011-11-13T09:14:51Z</time>
      </trkpt>
      <trkpt lat="44.04565" lon="4.2933">
        <ele>197.3</ele>
        <time>2011-11-13T09:14:52Z</time>
      </trkpt>
      <trkpt lat="44.04566" lon="4.29324">
        <ele>197.1</ele>
        <time>2011-11-13T09:14:53Z</time>
      </trkpt>
      <trkpt lat="44.04568" lon="4.29316">
        <ele>196.5</ele>
        <time>2011-11-13T09:14:55Z</time>
      </trkpt>
      <trkpt lat="44.0457" lon="4.29308">
        <ele>196.3</ele>
        <time>2011-11-13T09:14:57Z</time>
      </trkpt>
      <trkpt lat="44.04572" lon="4.293">
        <ele>196.1</ele>
        <time>2011-11-13T09:14:59Z</time>
      </trkpt>
      <trkpt lat="44.04574" lon="4.29292">
        <ele>196</ele>
        <time>2011-11-13T09:15:01Z</time>
      </trkpt>
      <trkpt lat="44.04576" lon="4.29283">
        <ele>196</ele>
        <time>2011-11-13T09:15:03Z</time>
      </trkpt>
      <trkpt lat="44.04578" lon="4.29275">
        <ele>195.8</ele>
        <time>2011-11-13T09:15:05Z</time>
      </trkpt>
      <trkpt lat="44.0458" lon="4.29266">
        <ele>195.6</ele>
        <time>2011-11-13T09:15:07Z</time>
      </trkpt>
      <trkpt lat="44.04582" lon="4.29258">
        <ele>195.4</ele>
        <time>2011-11-13T09:15:09Z</time>
      </trkpt>
      <trkpt lat="44.04585" lon="4.2925">
        <ele>195.3</ele>
        <time>2011-11-13T09:15:11Z</time>
      </trkpt>
      <trkpt lat="44.04587" lon="4.29242">
        <ele>195.2</ele>
        <time>2011-11-13T09:15:13Z</time>
      </trkpt>
      <trkpt lat="44.04589" lon="4.29234">
        <ele>195.1</ele>
        <time>2011-11-13T09:15:15Z</time>
      </trkpt>
      <trkpt lat="44.0459" lon="4.29226">
        <ele>195.1</ele>
        <time>2011-11-13T09:15:17Z</time>
      </trkpt>
      <trkpt lat="44.0459" lon="4.2922">
        <ele>194.8</ele>
        <time>2011-11-13T09:15:19Z</time>
      </trkpt>
      <trkpt lat="44.04588" lon="4.29212">
        <ele>194.6</ele>
        <time>2011-11-13T09:15:21Z</time>
      </trkpt>
      <trkpt lat="44.04586" lon="4.29203">
        <ele>193.9</ele>
        <time>2011-11-13T09:15:23Z</time>
      </trkpt>
      <trkpt lat="44.04584" lon="4.29192">
        <ele>193.3</ele>
        <time>2011-11-13T09:15:25Z</time>
      </trkpt>
      <trkpt lat="44.04585" lon="4.29186">
        <ele>193</ele>
        <time>2011-11-13T09:15:26Z</time>
      </trkpt>
      <trkpt lat="44.04586" lon="4.29179">
        <ele>192.8</ele>
        <time>2011-11-13T09:15:27Z</time>
      </trkpt>
      <trkpt lat="44.04588" lon="4.29173">
        <ele>192.6</ele>
        <time>2011-11-13T09:15:28Z</time>
      </trkpt>
      <trkpt lat="44.04591" lon="4.29163">
        <ele>192.1</ele>
        <time>2011-11-13T09:15:30Z</time>
      </trkpt>
      <trkpt lat="44.04593" lon="4.29156">
        <ele>191.7</ele>
        <time>2011-11-13T09:15:32Z</time>
      </trkpt>
      <trkpt lat="44.04594" lon="4.2915">
        <ele>191.5</ele>
        <time>2011-11-13T09:15:42Z</time>
      </trkpt>
      <trkpt lat="44.04576" lon="4.28618">
        <ele>194</ele>
        <time>2011-11-13T09:20:34Z</time>
      </trkpt>
      <trkpt lat="44.04579" lon="4.28611">
        <ele>189.1</ele>
        <time>2011-11-13T09:20:35Z</time>
      </trkpt>
      <trkpt lat="44.04581" lon="4.28598">
        <ele>188.5</ele>
        <time>2011-11-13T09:20:37Z</time>
      </trkpt>
      <trkpt lat="44.04582" lon="4.28592">
        <ele>189.7</ele>
        <time>2011-11-13T09:20:38Z</time>
      </trkpt>
      <trkpt lat="44.04583" lon="4.28584">
        <ele>189.7</ele>
        <time>2011-11-13T09:20:39Z</time>
      </trkpt>
      <trkpt lat="44.04585" lon="4.28576">
        <ele>189.9</ele>
        <time>2011-11-13T09:20:40Z</time>
      </trkpt>
      <trkpt lat="44.04587" lon="4.28569">
        <ele>189.6</ele>
        <time>2011-11-13T09:20:41Z</time>
      </trkpt>
      <trkpt lat="44.04588" lon="4.28562">
        <ele>189.7</ele>
        <time>2011-11-13T09:20:42Z</time>
      </trkpt>
      <trkpt lat="44.04589" lon="4.28555">
        <ele>190.6</ele>
        <time>2011-11-13T09:20:43Z</time>
      </trkpt>
      <trkpt lat="44.04589" lon="4.28547">
        <ele>191.3</ele>
        <time>2011-11-13T09:20:44Z</time>
      </trkpt>
      <trkpt lat="44.0459" lon="4.28538">
        <ele>191.8</ele>
        <time>2011-11-13T09:20:45Z</time>
      </trkpt>
      <trkpt lat="44.04592" lon="4.28529">
        <ele>192.2</ele>
        <time>2011-11-13T09:20:46Z</time>
      </trkpt>
      <trkpt lat="44.04592" lon="4.2852">
        <ele>193</ele>
        <time>2011-11-13T09:20:47Z</time>
      </trkpt>
      <trkpt lat="44.04592" lon="4.28509">
        <ele>193.1</ele>
        <time>2011-11-13T09:20:48Z</time>
      </trkpt>
      <trkpt lat="44.04593" lon="4.28499">
        <ele>192.9</ele>
        <time>2011-11-13T09:20:49Z</time>
      </trkpt>
      <trkpt lat="44.04593" lon="4.28489">
        <ele>192.9</ele>
        <time>2011-11-13T09:20:50Z</time>
      </trkpt>
      <trkpt lat="44.04594" lon="4.2848">
        <ele>192.9</ele>
        <time>2011-11-13T09:20:51Z</time>
      </trkpt>
      <trkpt lat="44.04594" lon="4.28472">
        <ele>192.9</ele>
        <time>2011-11-13T09:20:52Z</time>
      </trkpt>
      <trkpt lat="44.04594" lon="4.28464">
        <ele>192.8</ele>
        <time>2011-11-13T09:20:53Z</time>
      </trkpt>
      <trkpt lat="44.04594" lon="4.28457">
        <ele>192.6</ele>
        <time>2011-11-13T09:20:54Z</time>
      </trkpt>
      <trkpt lat="44.04595" lon="4.2845">
        <ele>192.8</ele>
        <time>2011-11-13T09:20:55Z</time>
      </trkpt>
      <trkpt lat="44.04596" lon="4.28444">
        <ele>192.9</ele>
        <time>2011-11-13T09:20:56Z</time>
      </trkpt>
      <trkpt lat="44.04598" lon="4.28438">
        <ele>192.9</ele>
        <time>2011-11-13T09:20:57Z</time>
      </trkpt>
      <trkpt lat="44.046" lon="4.28426">
        <ele>192.8</ele>
        <time>2011-11-13T09:20:59Z</time>
      </trkpt>
      <trkpt lat="44.04602" lon="4.28415">
        <ele>192.2</ele>
        <time>2011-11-13T09:21:01Z</time>
      </trkpt>
      <trkpt lat="44.04604" lon="4.28406">
        <ele>192</ele>
        <time>2011-11-13T09:21:03Z</time>
      </trkpt>
      <trkpt lat="44.04606" lon="4.28396">
        <ele>191.8</ele>
        <time>2011-11-13T09:21:05Z</time>
      </trkpt>
      <trkpt lat="44.04609" lon="4.28387">
        <ele>191.8</ele>
        <time>2011-11-13T09:21:07Z</time>
      </trkpt>
      <trkpt lat="44.04612" lon="4.28378">
        <ele>191.8</ele>
        <time>2011-11-13T09:21:09Z</time>
      </trkpt>
      <trkpt lat="44.04614" lon="4.28369">
        <ele>192</ele>
        <time>2011-11-13T09:21:11Z</time>
      </trkpt>
      <trkpt lat="44.04617" lon="4.2836">
        <ele>192.1</ele>
        <time>2011-11-13T09:21:13Z</time>
      </trkpt>
      <trkpt lat="44.0462" lon="4.28351">
        <ele>192.2</ele>
        <time>2011-11-13T09:21:15Z</time>
      </trkpt>
      <trkpt lat="44.04622" lon="4.28342">
        <ele>192.4</ele>
        <time>2011-11-13T09:21:17Z</time>
      </trkpt>
      <trkpt lat="44.04624" lon="4.28332">
        <ele>192.7</ele>
        <time>2011-11-13T09:21:19Z</time>
      </trkpt>
      <trkpt lat="44.04625" lon="4.28323">
        <ele>192.7</ele>
        <time>2011-11-13T09:21:21Z</time>
      </trkpt>
      <trkpt lat="44.04626" lon="4.28313">
        <ele>192.8</ele>
        <time>2011-11-13T09:21:23Z</time>
      </trkpt>
      <trkpt lat="44.04677" lon="4.2805">
        <ele>191.6</ele>
        <time>2011-11-13T09:22:21Z</time>
      </trkpt>
      <trkpt lat="44.04678" lon="4.28042">
        <ele>196.2</ele>
        <time>2011-11-13T09:22:25Z</time>
      </trkpt>
      <trkpt lat="44.04727" lon="4.27851">
        <ele>200.3</ele>
        <time>2011-11-13T09:23:03Z</time>
      </trkpt>
      <trkpt lat="44.04736" lon="4.27849">
        <ele>204.1</ele>
        <time>2011-11-13T09:23:06Z</time>
      </trkpt>
      <trkpt lat="44.04741" lon="4.27846">
        <ele>204</ele>
        <time>2011-11-13T09:23:07Z</time>
      </trkpt>
      <trkpt lat="44.04749" lon="4.27841">
        <ele>205.3</ele>
        <time>2011-11-13T09:23:09Z</time>
      </trkpt>
      <trkpt lat="44.04753" lon="4.27838">
        <ele>206.7</ele>
        <time>2011-11-13T09:23:10Z</time>
      </trkpt>
      <trkpt lat="44.04757" lon="4.27835">
        <ele>205.9</ele>
        <time>2011-11-13T09:23:11Z</time>
      </trkpt>
      <trkpt lat="44.04761" lon="4.27832">
        <ele>205.5</ele>
        <time>2011-11-13T09:23:12Z</time>
      </trkpt>
      <trkpt lat="44.04765" lon="4.27828">
        <ele>205.3</ele>
        <time>2011-11-13T09:23:13Z</time>
      </trkpt>
      <trkpt lat="44.04769" lon="4.27825">
        <ele>206</ele>
        <time>2011-11-13T09:23:16Z</time>
      </trkpt>
      <trkpt lat="44.0477" lon="4.27816">
        <ele>206.9</ele>
        <time>2011-11-13T09:25:50Z</time>
      </trkpt>
      <trkpt lat="44.04769" lon="4.27808">
        <ele>207</ele>
        <time>2011-11-13T09:25:52Z</time>
      </trkpt>
      <trkpt lat="44.04768" lon="4.27799">
        <ele>207.3</ele>
        <time>2011-11-13T09:25:54Z</time>
      </trkpt>
      <trkpt lat="44.04768" lon="4.2779">
        <ele>207.5</ele>
        <time>2011-11-13T09:25:56Z</time>
      </trkpt>
      <trkpt lat="44.04768" lon="4.27781">
        <ele>207.7</ele>
        <time>2011-11-13T09:25:58Z</time>
      </trkpt>
      <trkpt lat="44.04769" lon="4.2777">
        <ele>207.9</ele>
        <time>2011-11-13T09:26:00Z</time>
      </trkpt>
      <trkpt lat="44.04769" lon="4.2776">
        <ele>208</ele>
        <time>2011-11-13T09:26:02Z</time>
      </trkpt>
      <trkpt lat="44.04769" lon="4.27749">
        <ele>208.2</ele>
        <time>2011-11-13T09:26:04Z</time>
      </trkpt>
      <trkpt lat="44.04769" lon="4.27738">
        <ele>208.3</ele>
        <time>2011-11-13T09:26:06Z</time>
      </trkpt>
      <trkpt lat="44.04769" lon="4.27726">
        <ele>208.3</ele>
        <time>2011-11-13T09:26:08Z</time>
      </trkpt>
      <trkpt lat="44.04768" lon="4.27714">
        <ele>208.5</ele>
        <time>2011-11-13T09:26:10Z</time>
      </trkpt>
      <trkpt lat="44.04766" lon="4.27702">
        <ele>208.6</ele>
        <time>2011-11-13T09:26:12Z</time>
      </trkpt>
      <trkpt lat="44.04766" lon="4.27691">
        <ele>208.6</ele>
        <time>2011-11-13T09:26:14Z</time>
      </trkpt>
      <trkpt lat="44.04767" lon="4.27682">
        <ele>208.9</ele>
        <time>2011-11-13T09:26:16Z</time>
      </trkpt>
      <trkpt lat="44.04768" lon="4.27674">
        <ele>209.2</ele>
        <time>2011-11-13T09:26:18Z</time>
      </trkpt>
      <trkpt lat="44.0477" lon="4.27668">
        <ele>209.6</ele>
        <time>2011-11-13T09:26:20Z</time>
      </trkpt>
      <trkpt lat="44.04775" lon="4.27663">
        <ele>210.5</ele>
        <time>2011-11-13T09:26:22Z</time>
      </trkpt>
      <trkpt lat="44.04782" lon="4.27659">
        <ele>211.3</ele>
        <time>2011-11-13T09:26:24Z</time>
      </trkpt>
      <trkpt lat="44.04786" lon="4.27655">
        <ele>211.6</ele>
        <time>2011-11-13T09:26:25Z</time>
      </trkpt>
      <trkpt lat="44.04808" lon="4.27651">
        <ele>213.3</ele>
        <time>2011-11-13T09:26:13Z</time>
      </trkpt>
      <trkpt lat="44.04821" lon="4.27625">
        <ele>220.1</ele>
        <time>2011-11-13T09:26:15Z</time>
      </trkpt>
      <trkpt lat="44.04816" lon="4.27626">
        <ele>219.2</ele>
        <time>2011-11-13T09:26:17Z</time>
      </trkpt>
      <trkpt lat="44.04821" lon="4.27616">
        <ele>216.3</ele>
        <time>2011-11-13T09:26:19Z</time>
      </trkpt>
      <trkpt lat="44.04824" lon="4.2761">
        <ele>215.1</ele>
        <time>2011-11-13T09:26:20Z</time>
      </trkpt>
      <trkpt lat="44.04827" lon="4.276">
        <ele>213.9</ele>
        <time>2011-11-13T09:26:22Z</time>
      </trkpt>
      <trkpt lat="44.0483" lon="4.2759">
        <ele>212.1</ele>
        <time>2011-11-13T09:26:24Z</time>
      </trkpt>
      <trkpt lat="44.04833" lon="4.27581">
        <ele>210.9</ele>
        <time>2011-11-13T09:26:26Z</time>
      </trkpt>
      <trkpt lat="44.04835" lon="4.27571">
        <ele>210.8</ele>
        <time>2011-11-13T09:26:28Z</time>
      </trkpt>
      <trkpt lat="44.04838" lon="4.27559">
        <ele>211.1</ele>
        <time>2011-11-13T09:26:30Z</time>
      </trkpt>
      <trkpt lat="44.0484" lon="4.27553">
        <ele>211.3</ele>
        <time>2011-11-13T09:26:31Z</time>
      </trkpt>
      <trkpt lat="44.04842" lon="4.27547">
        <ele>211.5</ele>
        <time>2011-11-13T09:26:32Z</time>
      </trkpt>
      <trkpt lat="44.04844" lon="4.2754">
        <ele>211.8</ele>
        <time>2011-11-13T09:26:33Z</time>
      </trkpt>
      <trkpt lat="44.04845" lon="4.27534">
        <ele>212.2</ele>
        <time>2011-11-13T09:26:34Z</time>
      </trkpt>
      <trkpt lat="44.04848" lon="4.27523">
        <ele>212.7</ele>
        <time>2011-11-13T09:26:36Z</time>
      </trkpt>
      <trkpt lat="44.0485" lon="4.27517">
        <ele>213.1</ele>
        <time>2011-11-13T09:26:37Z</time>
      </trkpt>
      <trkpt lat="44.04852" lon="4.2751">
        <ele>213.2</ele>
        <time>2011-11-13T09:26:38Z</time>
      </trkpt>
      <trkpt lat="44.04853" lon="4.27503">
        <ele>213.8</ele>
        <time>2011-11-13T09:26:39Z</time>
      </trkpt>
      <trkpt lat="44.04855" lon="4.27497">
        <ele>214.2</ele>
        <time>2011-11-13T09:26:40Z</time>
      </trkpt>
      <trkpt lat="44.04857" lon="4.2749">
        <ele>214.6</ele>
        <time>2011-11-13T09:26:41Z</time>
      </trkpt>
      <trkpt lat="44.04859" lon="4.27484">
        <ele>215</ele>
        <time>2011-11-13T09:26:42Z</time>
      </trkpt>
      <trkpt lat="44.04862" lon="4.27477">
        <ele>215.1</ele>
        <time>2011-11-13T09:26:43Z</time>
      </trkpt>
      <trkpt lat="44.04864" lon="4.27471">
        <ele>215.2</ele>
        <time>2011-11-13T09:26:44Z</time>
      </trkpt>
      <trkpt lat="44.04867" lon="4.27464">
        <ele>215.3</ele>
        <time>2011-11-13T09:26:45Z</time>
      </trkpt>
      <trkpt lat="44.0487" lon="4.27458">
        <ele>215.5</ele>
        <time>2011-11-13T09:26:46Z</time>
      </trkpt>
      <trkpt lat="44.04874" lon="4.27452">
        <ele>215.8</ele>
        <time>2011-11-13T09:26:47Z</time>
      </trkpt>
      <trkpt lat="44.04878" lon="4.27447">
        <ele>216</ele>
        <time>2011-11-13T09:26:48Z</time>
      </trkpt>
      <trkpt lat="44.04882" lon="4.27442">
        <ele>216.3</ele>
        <time>2011-11-13T09:26:49Z</time>
      </trkpt>
      <trkpt lat="44.04886" lon="4.27436">
        <ele>216.5</ele>
        <time>2011-11-13T09:26:50Z</time>
      </trkpt>
      <trkpt lat="44.0489" lon="4.2743">
        <ele>216.7</ele>
        <time>2011-11-13T09:26:51Z</time>
      </trkpt>
      <trkpt lat="44.04894" lon="4.27425">
        <ele>217</ele>
        <time>2011-11-13T09:26:52Z</time>
      </trkpt>
      <trkpt lat="44.04898" lon="4.2742">
        <ele>217.2</ele>
        <time>2011-11-13T09:26:53Z</time>
      </trkpt>
      <trkpt lat="44.04902" lon="4.27415">
        <ele>217.3</ele>
        <time>2011-11-13T09:26:54Z</time>
      </trkpt>
      <trkpt lat="44.04906" lon="4.2741">
        <ele>217.4</ele>
        <time>2011-11-13T09:26:55Z</time>
      </trkpt>
      <trkpt lat="44.04911" lon="4.27406">
        <ele>217.6</ele>
        <time>2011-11-13T09:26:56Z</time>
      </trkpt>
      <trkpt lat="44.04916" lon="4.27403">
        <ele>217.7</ele>
        <time>2011-11-13T09:26:57Z</time>
      </trkpt>
      <trkpt lat="44.04921" lon="4.274">
        <ele>217.9</ele>
        <time>2011-11-13T09:26:58Z</time>
      </trkpt>
      <trkpt lat="44.04926" lon="4.27397">
        <ele>218.1</ele>
        <time>2011-11-13T09:26:59Z</time>
      </trkpt>
      <trkpt lat="44.0493" lon="4.27394">
        <ele>218.2</ele>
        <time>2011-11-13T09:27:00Z</time>
      </trkpt>
      <trkpt lat="44.04935" lon="4.27391">
        <ele>218.4</ele>
        <time>2011-11-13T09:27:01Z</time>
      </trkpt>
      <trkpt lat="44.04939" lon="4.27388">
        <ele>218.6</ele>
        <time>2011-11-13T09:27:02Z</time>
      </trkpt>
      <trkpt lat="44.04946" lon="4.27384">
        <ele>219</ele>
        <time>2011-11-13T09:27:04Z</time>
      </trkpt>
      <trkpt lat="44.0495" lon="4.2738">
        <ele>219.1</ele>
        <time>2011-11-13T09:27:07Z</time>
      </trkpt>
      <trkpt lat="44.04955" lon="4.27379">
        <ele>219.9</ele>
        <time>2011-11-13T09:29:23Z</time>
      </trkpt>
      <trkpt lat="44.04961" lon="4.27381">
        <ele>220.4</ele>
        <time>2011-11-13T09:29:27Z</time>
      </trkpt>
      <trkpt lat="44.04965" lon="4.27383">
        <ele>220.6</ele>
        <time>2011-11-13T09:29:29Z</time>
      </trkpt>
      <trkpt lat="44.04972" lon="4.27386">
        <ele>221.1</ele>
        <time>2011-11-13T09:29:31Z</time>
      </trkpt>
      <trkpt lat="44.0498" lon="4.27391">
        <ele>221.3</ele>
        <time>2011-11-13T09:29:33Z</time>
      </trkpt>
      <trkpt lat="44.04985" lon="4.27392">
        <ele>221.3</ele>
        <time>2011-11-13T09:29:34Z</time>
      </trkpt>
      <trkpt lat="44.0499" lon="4.27394">
        <ele>221.2</ele>
        <time>2011-11-13T09:29:35Z</time>
      </trkpt>
      <trkpt lat="44.04995" lon="4.27396">
        <ele>221.2</ele>
        <time>2011-11-13T09:29:36Z</time>
      </trkpt>
      <trkpt lat="44.05" lon="4.27398">
        <ele>221.1</ele>
        <time>2011-11-13T09:29:37Z</time>
      </trkpt>
      <trkpt lat="44.05006" lon="4.27399">
        <ele>221.1</ele>
        <time>2011-11-13T09:29:38Z</time>
      </trkpt>
      <trkpt lat="44.05011" lon="4.274">
        <ele>221</ele>
        <time>2011-11-13T09:29:39Z</time>
      </trkpt>
      <trkpt lat="44.05016" lon="4.274">
        <ele>221.1</ele>
        <time>2011-11-13T09:29:40Z</time>
      </trkpt>
      <trkpt lat="44.0502" lon="4.27401">
        <ele>221.2</ele>
        <time>2011-11-13T09:29:41Z</time>
      </trkpt>
      <trkpt lat="44.05028" lon="4.27401">
        <ele>221.1</ele>
        <time>2011-11-13T09:29:43Z</time>
      </trkpt>
      <trkpt lat="44.05035" lon="4.274">
        <ele>221.1</ele>
        <time>2011-11-13T09:29:45Z</time>
      </trkpt>
      <trkpt lat="44.05042" lon="4.27397">
        <ele>221.4</ele>
        <time>2011-11-13T09:29:47Z</time>
      </trkpt>
      <trkpt lat="44.05048" lon="4.27393">
        <ele>222.1</ele>
        <time>2011-11-13T09:29:49Z</time>
      </trkpt>
      <trkpt lat="44.05054" lon="4.27387">
        <ele>222.5</ele>
        <time>2011-11-13T09:29:51Z</time>
      </trkpt>
      <trkpt lat="44.05059" lon="4.27383">
        <ele>222.6</ele>
        <time>2011-11-13T09:29:52Z</time>
      </trkpt>
      <trkpt lat="44.05063" lon="4.2738">
        <ele>222.8</ele>
        <time>2011-11-13T09:29:53Z</time>
      </trkpt>
      <trkpt lat="44.05068" lon="4.27377">
        <ele>223</ele>
        <time>2011-11-13T09:29:54Z</time>
      </trkpt>
      <trkpt lat="44.05073" lon="4.27374">
        <ele>223.1</ele>
        <time>2011-11-13T09:29:55Z</time>
      </trkpt>
      <trkpt lat="44.05078" lon="4.27371">
        <ele>223.4</ele>
        <time>2011-11-13T09:29:56Z</time>
      </trkpt>
      <trkpt lat="44.05083" lon="4.27368">
        <ele>223.7</ele>
        <time>2011-11-13T09:29:57Z</time>
      </trkpt>
      <trkpt lat="44.05088" lon="4.27365">
        <ele>223.9</ele>
        <time>2011-11-13T09:29:58Z</time>
      </trkpt>
      <trkpt lat="44.05093" lon="4.27362">
        <ele>224.1</ele>
        <time>2011-11-13T09:29:59Z</time>
      </trkpt>
      <trkpt lat="44.05098" lon="4.27358">
        <ele>224.3</ele>
        <time>2011-11-13T09:30:00Z</time>
      </trkpt>
      <trkpt lat="44.05103" lon="4.27355">
        <ele>224.4</ele>
        <time>2011-11-13T09:30:01Z</time>
      </trkpt>
      <trkpt lat="44.05108" lon="4.27352">
        <ele>224.5</ele>
        <time>2011-11-13T09:30:02Z</time>
      </trkpt>
      <trkpt lat="44.05113" lon="4.27348">
        <ele>224.7</ele>
        <time>2011-11-13T09:30:03Z</time>
      </trkpt>
      <trkpt lat="44.05118" lon="4.27345">
        <ele>224.8</ele>
        <time>2011-11-13T09:30:04Z</time>
      </trkpt>
      <trkpt lat="44.05122" lon="4.27341">
        <ele>224.9</ele>
        <time>2011-11-13T09:30:05Z</time>
      </trkpt>
      <trkpt lat="44.05127" lon="4.27338">
        <ele>225.1</ele>
        <time>2011-11-13T09:30:06Z</time>
      </trkpt>
      <trkpt lat="44.05132" lon="4.27334">
        <ele>225.3</ele>
        <time>2011-11-13T09:30:07Z</time>
      </trkpt>
      <trkpt lat="44.05136" lon="4.2733">
        <ele>225.6</ele>
        <time>2011-11-13T09:30:08Z</time>
      </trkpt>
      <trkpt lat="44.0514" lon="4.27324">
        <ele>225.9</ele>
        <time>2011-11-13T09:30:09Z</time>
      </trkpt>
      <trkpt lat="44.05144" lon="4.27318">
        <ele>226.2</ele>
        <time>2011-11-13T09:30:10Z</time>
      </trkpt>
      <trkpt lat="44.05146" lon="4.27312">
        <ele>226.5</ele>
        <time>2011-11-13T09:30:11Z</time>
      </trkpt>
      <trkpt lat="44.05149" lon="4.27306">
        <ele>226.8</ele>
        <time>2011-11-13T09:30:12Z</time>
      </trkpt>
      <trkpt lat="44.05151" lon="4.273">
        <ele>227.2</ele>
        <time>2011-11-13T09:30:13Z</time>
      </trkpt>
      <trkpt lat="44.05153" lon="4.27294">
        <ele>227.4</ele>
        <time>2011-11-13T09:30:14Z</time>
      </trkpt>
      <trkpt lat="44.05155" lon="4.27288">
        <ele>227.6</ele>
        <time>2011-11-13T09:30:15Z</time>
      </trkpt>
      <trkpt lat="44.05157" lon="4.27277">
        <ele>228</ele>
        <time>2011-11-13T09:30:17Z</time>
      </trkpt>
      <trkpt lat="44.05157" lon="4.27264">
        <ele>228.8</ele>
        <time>2011-11-13T09:30:19Z</time>
      </trkpt>
      <trkpt lat="44.05156" lon="4.27258">
        <ele>229</ele>
        <time>2011-11-13T09:30:20Z</time>
      </trkpt>
      <trkpt lat="44.05156" lon="4.27251">
        <ele>229.4</ele>
        <time>2011-11-13T09:30:21Z</time>
      </trkpt>
      <trkpt lat="44.05155" lon="4.27245">
        <ele>229.8</ele>
        <time>2011-11-13T09:30:22Z</time>
      </trkpt>
      <trkpt lat="44.05153" lon="4.27233">
        <ele>230.7</ele>
        <time>2011-11-13T09:30:24Z</time>
      </trkpt>
      <trkpt lat="44.05152" lon="4.27222">
        <ele>231.6</ele>
        <time>2011-11-13T09:30:26Z</time>
      </trkpt>
      <trkpt lat="44.05151" lon="4.27211">
        <ele>232.4</ele>
        <time>2011-11-13T09:30:28Z</time>
      </trkpt>
      <trkpt lat="44.05149" lon="4.272">
        <ele>233.2</ele>
        <time>2011-11-13T09:30:30Z</time>
      </trkpt>
      <trkpt lat="44.05146" lon="4.27189">
        <ele>233.7</ele>
        <time>2011-11-13T09:30:32Z</time>
      </trkpt>
      <trkpt lat="44.05144" lon="4.27178">
        <ele>234.3</ele>
        <time>2011-11-13T09:30:34Z</time>
      </trkpt>
      <trkpt lat="44.05142" lon="4.27168">
        <ele>235</ele>
        <time>2011-11-13T09:30:36Z</time>
      </trkpt>
      <trkpt lat="44.05141" lon="4.27158">
        <ele>235.6</ele>
        <time>2011-11-13T09:30:38Z</time>
      </trkpt>
      <trkpt lat="44.0514" lon="4.27147">
        <ele>235.9</ele>
        <time>2011-11-13T09:30:40Z</time>
      </trkpt>
      <trkpt lat="44.05138" lon="4.27137">
        <ele>236.3</ele>
        <time>2011-11-13T09:30:42Z</time>
      </trkpt>
      <trkpt lat="44.05138" lon="4.27126">
        <ele>236.7</ele>
        <time>2011-11-13T09:30:44Z</time>
      </trkpt>
      <trkpt lat="44.05138" lon="4.27115">
        <ele>237.1</ele>
        <time>2011-11-13T09:30:46Z</time>
      </trkpt>
      <trkpt lat="44.05138" lon="4.27103">
        <ele>237.9</ele>
        <time>2011-11-13T09:30:48Z</time>
      </trkpt>
      <trkpt lat="44.0514" lon="4.27093">
        <ele>238.6</ele>
        <time>2011-11-13T09:30:50Z</time>
      </trkpt>
      <trkpt lat="44.05142" lon="4.27083">
        <ele>239.6</ele>
        <time>2011-11-13T09:30:52Z</time>
      </trkpt>
      <trkpt lat="44.05145" lon="4.27074">
        <ele>240.4</ele>
        <time>2011-11-13T09:30:54Z</time>
      </trkpt>
      <trkpt lat="44.05149" lon="4.27064">
        <ele>241.2</ele>
        <time>2011-11-13T09:30:56Z</time>
      </trkpt>
      <trkpt lat="44.05154" lon="4.27055">
        <ele>242.1</ele>
        <time>2011-11-13T09:30:58Z</time>
      </trkpt>
      <trkpt lat="44.05161" lon="4.27047">
        <ele>243.1</ele>
        <time>2011-11-13T09:31:00Z</time>
      </trkpt>
      <trkpt lat="44.05168" lon="4.2704">
        <ele>244.2</ele>
        <time>2011-11-13T09:31:02Z</time>
      </trkpt>
      <trkpt lat="44.05172" lon="4.27038">
        <ele>244.6</ele>
        <time>2011-11-13T09:31:03Z</time>
      </trkpt>
      <trkpt lat="44.05177" lon="4.27035">
        <ele>244.9</ele>
        <time>2011-11-13T09:31:04Z</time>
      </trkpt>
      <trkpt lat="44.0518" lon="4.27031">
        <ele>245.3</ele>
        <time>2011-11-13T09:31:05Z</time>
      </trkpt>
      <trkpt lat="44.05187" lon="4.27024">
        <ele>246</ele>
        <time>2011-11-13T09:31:07Z</time>
      </trkpt>
      <trkpt lat="44.05193" lon="4.27016">
        <ele>246.7</ele>
        <time>2011-11-13T09:31:09Z</time>
      </trkpt>
      <trkpt lat="44.05198" lon="4.27009">
        <ele>247.4</ele>
        <time>2011-11-13T09:31:11Z</time>
      </trkpt>
      <trkpt lat="44.05202" lon="4.27001">
        <ele>248.1</ele>
        <time>2011-11-13T09:31:13Z</time>
      </trkpt>
      <trkpt lat="44.05205" lon="4.26993">
        <ele>248.8</ele>
        <time>2011-11-13T09:31:15Z</time>
      </trkpt>
      <trkpt lat="44.05209" lon="4.26984">
        <ele>249.2</ele>
        <time>2011-11-13T09:31:17Z</time>
      </trkpt>
      <trkpt lat="44.05212" lon="4.26974">
        <ele>249.6</ele>
        <time>2011-11-13T09:31:19Z</time>
      </trkpt>
      <trkpt lat="44.05215" lon="4.26965">
        <ele>250</ele>
        <time>2011-11-13T09:31:21Z</time>
      </trkpt>
      <trkpt lat="44.05217" lon="4.26956">
        <ele>250.6</ele>
        <time>2011-11-13T09:31:23Z</time>
      </trkpt>
      <trkpt lat="44.05219" lon="4.26946">
        <ele>251.1</ele>
        <time>2011-11-13T09:31:25Z</time>
      </trkpt>
      <trkpt lat="44.0522" lon="4.26936">
        <ele>251.7</ele>
        <time>2011-11-13T09:31:27Z</time>
      </trkpt>
      <trkpt lat="44.0522" lon="4.26926">
        <ele>252.1</ele>
        <time>2011-11-13T09:31:29Z</time>
      </trkpt>
      <trkpt lat="44.05222" lon="4.26914">
        <ele>252.7</ele>
        <time>2011-11-13T09:31:31Z</time>
      </trkpt>
      <trkpt lat="44.05223" lon="4.26902">
        <ele>253.3</ele>
        <time>2011-11-13T09:31:33Z</time>
      </trkpt>
      <trkpt lat="44.05224" lon="4.2689">
        <ele>253.9</ele>
        <time>2011-11-13T09:31:35Z</time>
      </trkpt>
      <trkpt lat="44.05226" lon="4.26878">
        <ele>254.1</ele>
        <time>2011-11-13T09:31:37Z</time>
      </trkpt>
      <trkpt lat="44.05226" lon="4.26871">
        <ele>254.2</ele>
        <time>2011-11-13T09:31:38Z</time>
      </trkpt>
      <trkpt lat="44.05225" lon="4.26865">
        <ele>254.5</ele>
        <time>2011-11-13T09:31:39Z</time>
      </trkpt>
      <trkpt lat="44.05224" lon="4.26853">
        <ele>254.9</ele>
        <time>2011-11-13T09:31:41Z</time>
      </trkpt>
      <trkpt lat="44.05224" lon="4.26841">
        <ele>255.1</ele>
        <time>2011-11-13T09:31:43Z</time>
      </trkpt>
      <trkpt lat="44.05226" lon="4.26829">
        <ele>255.8</ele>
        <time>2011-11-13T09:31:45Z</time>
      </trkpt>
      <trkpt lat="44.0523" lon="4.26818">
        <ele>256</ele>
        <time>2011-11-13T09:31:47Z</time>
      </trkpt>
      <trkpt lat="44.05233" lon="4.26807">
        <ele>256.1</ele>
        <time>2011-11-13T09:31:49Z</time>
      </trkpt>
      <trkpt lat="44.05236" lon="4.26795">
        <ele>256.3</ele>
        <time>2011-11-13T09:31:51Z</time>
      </trkpt>
      <trkpt lat="44.05239" lon="4.26785">
        <ele>256.5</ele>
        <time>2011-11-13T09:31:53Z</time>
      </trkpt>
      <trkpt lat="44.05243" lon="4.26775">
        <ele>256.6</ele>
        <time>2011-11-13T09:31:55Z</time>
      </trkpt>
      <trkpt lat="44.05247" lon="4.26765">
        <ele>256.7</ele>
        <time>2011-11-13T09:31:57Z</time>
      </trkpt>
      <trkpt lat="44.05251" lon="4.26755">
        <ele>256.6</ele>
        <time>2011-11-13T09:31:59Z</time>
      </trkpt>
      <trkpt lat="44.05254" lon="4.26744">
        <ele>256.5</ele>
        <time>2011-11-13T09:32:01Z</time>
      </trkpt>
      <trkpt lat="44.05256" lon="4.26738">
        <ele>256.6</ele>
        <time>2011-11-13T09:32:02Z</time>
      </trkpt>
      <trkpt lat="44.0526" lon="4.26727">
        <ele>256.8</ele>
        <time>2011-11-13T09:32:04Z</time>
      </trkpt>
      <trkpt lat="44.05261" lon="4.26721">
        <ele>256.9</ele>
        <time>2011-11-13T09:32:05Z</time>
      </trkpt>
      <trkpt lat="44.05263" lon="4.26715">
        <ele>256.8</ele>
        <time>2011-11-13T09:32:06Z</time>
      </trkpt>
      <trkpt lat="44.05265" lon="4.26709">
        <ele>256.8</ele>
        <time>2011-11-13T09:32:07Z</time>
      </trkpt>
      <trkpt lat="44.05268" lon="4.26697">
        <ele>257.1</ele>
        <time>2011-11-13T09:32:09Z</time>
      </trkpt>
      <trkpt lat="44.05271" lon="4.26686">
        <ele>257.5</ele>
        <time>2011-11-13T09:32:11Z</time>
      </trkpt>
      <trkpt lat="44.05273" lon="4.26676">
        <ele>257.8</ele>
        <time>2011-11-13T09:32:13Z</time>
      </trkpt>
      <trkpt lat="44.05276" lon="4.26667">
        <ele>258</ele>
        <time>2011-11-13T09:32:15Z</time>
      </trkpt>
      <trkpt lat="44.05278" lon="4.26657">
        <ele>258.3</ele>
        <time>2011-11-13T09:32:17Z</time>
      </trkpt>
      <trkpt lat="44.05281" lon="4.26646">
        <ele>258.4</ele>
        <time>2011-11-13T09:32:19Z</time>
      </trkpt>
      <trkpt lat="44.05283" lon="4.2664">
        <ele>258.5</ele>
        <time>2011-11-13T09:32:20Z</time>
      </trkpt>
      <trkpt lat="44.05284" lon="4.26634">
        <ele>258.6</ele>
        <time>2011-11-13T09:32:21Z</time>
      </trkpt>
      <trkpt lat="44.05286" lon="4.26628">
        <ele>258.7</ele>
        <time>2011-11-13T09:32:22Z</time>
      </trkpt>
      <trkpt lat="44.05288" lon="4.26622">
        <ele>258.8</ele>
        <time>2011-11-13T09:32:23Z</time>
      </trkpt>
      <trkpt lat="44.05289" lon="4.26615">
        <ele>258.9</ele>
        <time>2011-11-13T09:32:24Z</time>
      </trkpt>
      <trkpt lat="44.05291" lon="4.26609">
        <ele>258.9</ele>
        <time>2011-11-13T09:32:25Z</time>
      </trkpt>
      <trkpt lat="44.05292" lon="4.26602">
        <ele>259</ele>
        <time>2011-11-13T09:32:26Z</time>
      </trkpt>
      <trkpt lat="44.05294" lon="4.26596">
        <ele>259.3</ele>
        <time>2011-11-13T09:32:27Z</time>
      </trkpt>
      <trkpt lat="44.05295" lon="4.2659">
        <ele>259.4</ele>
        <time>2011-11-13T09:32:28Z</time>
      </trkpt>
      <trkpt lat="44.05296" lon="4.26584">
        <ele>259.5</ele>
        <time>2011-11-13T09:32:29Z</time>
      </trkpt>
      <trkpt lat="44.05297" lon="4.26577">
        <ele>259.6</ele>
        <time>2011-11-13T09:32:30Z</time>
      </trkpt>
      <trkpt lat="44.053" lon="4.26566">
        <ele>259.4</ele>
        <time>2011-11-13T09:32:32Z</time>
      </trkpt>
      <trkpt lat="44.05301" lon="4.26557">
        <ele>259.6</ele>
        <time>2011-11-13T09:32:34Z</time>
      </trkpt>
      <trkpt lat="44.05302" lon="4.2655">
        <ele>259.8</ele>
        <time>2011-11-13T09:32:36Z</time>
      </trkpt>
      <trkpt lat="44.05304" lon="4.26543">
        <ele>259.6</ele>
        <time>2011-11-13T09:32:39Z</time>
      </trkpt>
      <trkpt lat="44.05305" lon="4.26537">
        <ele>257.7</ele>
        <time>2011-11-13T09:32:44Z</time>
      </trkpt>
      <trkpt lat="44.05308" lon="4.26531">
        <ele>259.9</ele>
        <time>2011-11-13T09:37:39Z</time>
      </trkpt>
      <trkpt lat="44.05306" lon="4.26524">
        <ele>259.9</ele>
        <time>2011-11-13T09:37:45Z</time>
      </trkpt>
      <trkpt lat="44.05301" lon="4.26523">
        <ele>262.1</ele>
        <time>2011-11-13T09:38:36Z</time>
      </trkpt>
      <trkpt lat="44.05296" lon="4.26528">
        <ele>263</ele>
        <time>2011-11-13T09:38:40Z</time>
      </trkpt>
      <trkpt lat="44.0529" lon="4.26528">
        <ele>263.7</ele>
        <time>2011-11-13T09:38:43Z</time>
      </trkpt>
      <trkpt lat="44.05285" lon="4.26528">
        <ele>263.9</ele>
        <time>2011-11-13T09:38:45Z</time>
      </trkpt>
      <trkpt lat="44.0528" lon="4.26529">
        <ele>264.3</ele>
        <time>2011-11-13T09:38:47Z</time>
      </trkpt>
      <trkpt lat="44.05275" lon="4.26529">
        <ele>264.7</ele>
        <time>2011-11-13T09:38:49Z</time>
      </trkpt>
      <trkpt lat="44.0527" lon="4.26529">
        <ele>264.6</ele>
        <time>2011-11-13T09:38:51Z</time>
      </trkpt>
      <trkpt lat="44.05264" lon="4.26528">
        <ele>264.9</ele>
        <time>2011-11-13T09:38:54Z</time>
      </trkpt>
      <trkpt lat="44.0526" lon="4.26525">
        <ele>264.9</ele>
        <time>2011-11-13T09:38:56Z</time>
      </trkpt>
      <trkpt lat="44.05256" lon="4.26519">
        <ele>265.3</ele>
        <time>2011-11-13T09:38:59Z</time>
      </trkpt>
      <trkpt lat="44.05251" lon="4.26516">
        <ele>265.2</ele>
        <time>2011-11-13T09:39:02Z</time>
      </trkpt>
      <trkpt lat="44.05247" lon="4.26512">
        <ele>265.3</ele>
        <time>2011-11-13T09:39:04Z</time>
      </trkpt>
      <trkpt lat="44.05243" lon="4.26509">
        <ele>265.5</ele>
        <time>2011-11-13T09:39:06Z</time>
      </trkpt>
      <trkpt lat="44.05238" lon="4.26504">
        <ele>265.3</ele>
        <time>2011-11-13T09:39:09Z</time>
      </trkpt>
      <trkpt lat="44.05234" lon="4.26501">
        <ele>265.4</ele>
        <time>2011-11-13T09:39:11Z</time>
      </trkpt>
      <trkpt lat="44.0523" lon="4.26497">
        <ele>265.2</ele>
        <time>2011-11-13T09:39:13Z</time>
      </trkpt>
      <trkpt lat="44.05225" lon="4.26494">
        <ele>265.2</ele>
        <time>2011-11-13T09:39:15Z</time>
      </trkpt>
      <trkpt lat="44.0522" lon="4.2649">
        <ele>265.1</ele>
        <time>2011-11-13T09:39:17Z</time>
      </trkpt>
      <trkpt lat="44.05215" lon="4.26484">
        <ele>264.5</ele>
        <time>2011-11-13T09:39:19Z</time>
      </trkpt>
      <trkpt lat="44.05211" lon="4.2648">
        <ele>264</ele>
        <time>2011-11-13T09:39:21Z</time>
      </trkpt>
      <trkpt lat="44.05206" lon="4.26478">
        <ele>263.9</ele>
        <time>2011-11-13T09:39:23Z</time>
      </trkpt>
      <trkpt lat="44.05201" lon="4.26475">
        <ele>263.8</ele>
        <time>2011-11-13T09:39:25Z</time>
      </trkpt>
      <trkpt lat="44.05196" lon="4.26472">
        <ele>263.7</ele>
        <time>2011-11-13T09:39:27Z</time>
      </trkpt>
      <trkpt lat="44.0519" lon="4.26467">
        <ele>263.3</ele>
        <time>2011-11-13T09:39:29Z</time>
      </trkpt>
      <trkpt lat="44.05186" lon="4.26464">
        <ele>262.9</ele>
        <time>2011-11-13T09:39:31Z</time>
      </trkpt>
      <trkpt lat="44.05181" lon="4.26462">
        <ele>262.4</ele>
        <time>2011-11-13T09:39:35Z</time>
      </trkpt>
      <trkpt lat="44.05177" lon="4.26458">
        <ele>261.7</ele>
        <time>2011-11-13T09:39:45Z</time>
      </trkpt>
      <trkpt lat="44.05172" lon="4.26455">
        <ele>261.2</ele>
        <time>2011-11-13T09:39:47Z</time>
      </trkpt>
      <trkpt lat="44.05165" lon="4.26451">
        <ele>260.5</ele>
        <time>2011-11-13T09:39:49Z</time>
      </trkpt>
      <trkpt lat="44.05158" lon="4.26446">
        <ele>259.8</ele>
        <time>2011-11-13T09:39:51Z</time>
      </trkpt>
      <trkpt lat="44.0515" lon="4.2644">
        <ele>259</ele>
        <time>2011-11-13T09:39:53Z</time>
      </trkpt>
      <trkpt lat="44.05145" lon="4.26437">
        <ele>258.8</ele>
        <time>2011-11-13T09:39:54Z</time>
      </trkpt>
      <trkpt lat="44.05141" lon="4.26433">
        <ele>258.4</ele>
        <time>2011-11-13T09:39:55Z</time>
      </trkpt>
      <trkpt lat="44.05136" lon="4.2643">
        <ele>258.1</ele>
        <time>2011-11-13T09:39:56Z</time>
      </trkpt>
      <trkpt lat="44.0513" lon="4.26427">
        <ele>257.9</ele>
        <time>2011-11-13T09:39:57Z</time>
      </trkpt>
      <trkpt lat="44.05125" lon="4.26424">
        <ele>257.6</ele>
        <time>2011-11-13T09:39:58Z</time>
      </trkpt>
      <trkpt lat="44.05119" lon="4.26419">
        <ele>257.2</ele>
        <time>2011-11-13T09:39:59Z</time>
      </trkpt>
      <trkpt lat="44.05113" lon="4.26415">
        <ele>256.7</ele>
        <time>2011-11-13T09:40:00Z</time>
      </trkpt>
      <trkpt lat="44.05107" lon="4.26411">
        <ele>256.4</ele>
        <time>2011-11-13T09:40:01Z</time>
      </trkpt>
      <trkpt lat="44.05101" lon="4.26407">
        <ele>256.2</ele>
        <time>2011-11-13T09:40:02Z</time>
      </trkpt>
      <trkpt lat="44.05096" lon="4.26403">
        <ele>255.9</ele>
        <time>2011-11-13T09:40:03Z</time>
      </trkpt>
      <trkpt lat="44.05091" lon="4.26399">
        <ele>255.6</ele>
        <time>2011-11-13T09:40:04Z</time>
      </trkpt>
      <trkpt lat="44.05086" lon="4.26396">
        <ele>255.3</ele>
        <time>2011-11-13T09:40:05Z</time>
      </trkpt>
      <trkpt lat="44.05081" lon="4.26393">
        <ele>255</ele>
        <time>2011-11-13T09:40:06Z</time>
      </trkpt>
      <trkpt lat="44.05073" lon="4.26388">
        <ele>254.4</ele>
        <time>2011-11-13T09:40:08Z</time>
      </trkpt>
      <trkpt lat="44.05068" lon="4.26384">
        <ele>253.9</ele>
        <time>2011-11-13T09:40:10Z</time>
      </trkpt>
      <trkpt lat="44.05063" lon="4.26381">
        <ele>253.4</ele>
        <time>2011-11-13T09:40:12Z</time>
      </trkpt>
      <trkpt lat="44.05057" lon="4.26378">
        <ele>252.6</ele>
        <time>2011-11-13T09:40:15Z</time>
      </trkpt>
      <trkpt lat="44.05052" lon="4.26375">
        <ele>252.1</ele>
        <time>2011-11-13T09:40:17Z</time>
      </trkpt>
      <trkpt lat="44.05046" lon="4.26371">
        <ele>251.6</ele>
        <time>2011-11-13T09:40:19Z</time>
      </trkpt>
      <trkpt lat="44.0504" lon="4.26364">
        <ele>251.1</ele>
        <time>2011-11-13T09:40:21Z</time>
      </trkpt>
      <trkpt lat="44.05034" lon="4.26355">
        <ele>250.5</ele>
        <time>2011-11-13T09:40:23Z</time>
      </trkpt>
      <trkpt lat="44.0503" lon="4.26351">
        <ele>250.1</ele>
        <time>2011-11-13T09:40:24Z</time>
      </trkpt>
      <trkpt lat="44.05024" lon="4.26343">
        <ele>249.6</ele>
        <time>2011-11-13T09:40:26Z</time>
      </trkpt>
      <trkpt lat="44.0502" lon="4.26339">
        <ele>249.3</ele>
        <time>2011-11-13T09:40:27Z</time>
      </trkpt>
      <trkpt lat="44.05017" lon="4.26334">
        <ele>248.9</ele>
        <time>2011-11-13T09:40:28Z</time>
      </trkpt>
      <trkpt lat="44.05013" lon="4.26329">
        <ele>248.5</ele>
        <time>2011-11-13T09:40:29Z</time>
      </trkpt>
      <trkpt lat="44.05009" lon="4.26325">
        <ele>248.1</ele>
        <time>2011-11-13T09:40:30Z</time>
      </trkpt>
      <trkpt lat="44.05006" lon="4.2632">
        <ele>247.7</ele>
        <time>2011-11-13T09:40:31Z</time>
      </trkpt>
      <trkpt lat="44.05002" lon="4.26316">
        <ele>247.5</ele>
        <time>2011-11-13T09:40:32Z</time>
      </trkpt>
      <trkpt lat="44.04995" lon="4.26309">
        <ele>247</ele>
        <time>2011-11-13T09:40:34Z</time>
      </trkpt>
      <trkpt lat="44.0499" lon="4.26302">
        <ele>246.7</ele>
        <time>2011-11-13T09:40:36Z</time>
      </trkpt>
      <trkpt lat="44.04986" lon="4.26296">
        <ele>246.1</ele>
        <time>2011-11-13T09:40:38Z</time>
      </trkpt>
      <trkpt lat="44.04982" lon="4.2629">
        <ele>245</ele>
        <time>2011-11-13T09:40:40Z</time>
      </trkpt>
      <trkpt lat="44.04977" lon="4.26282">
        <ele>244.3</ele>
        <time>2011-11-13T09:40:42Z</time>
      </trkpt>
      <trkpt lat="44.04974" lon="4.26272">
        <ele>244.1</ele>
        <time>2011-11-13T09:40:43Z</time>
      </trkpt>
      <trkpt lat="44.04969" lon="4.26264">
        <ele>243.5</ele>
        <time>2011-11-13T09:40:45Z</time>
      </trkpt>
      <trkpt lat="44.04964" lon="4.26256">
        <ele>242.8</ele>
        <time>2011-11-13T09:40:47Z</time>
      </trkpt>
      <trkpt lat="44.04959" lon="4.26248">
        <ele>242.1</ele>
        <time>2011-11-13T09:40:49Z</time>
      </trkpt>
      <trkpt lat="44.04954" lon="4.26239">
        <ele>241</ele>
        <time>2011-11-13T09:40:51Z</time>
      </trkpt>
      <trkpt lat="44.04949" lon="4.26232">
        <ele>240.3</ele>
        <time>2011-11-13T09:40:53Z</time>
      </trkpt>
      <trkpt lat="44.04946" lon="4.26226">
        <ele>239.9</ele>
        <time>2011-11-13T09:40:55Z</time>
      </trkpt>
      <trkpt lat="44.04941" lon="4.26221">
        <ele>239.4</ele>
        <time>2011-11-13T09:40:58Z</time>
      </trkpt>
      <trkpt lat="44.04936" lon="4.26217">
        <ele>238.8</ele>
        <time>2011-11-13T09:41:00Z</time>
      </trkpt>
      <trkpt lat="44.0493" lon="4.26212">
        <ele>238.2</ele>
        <time>2011-11-13T09:41:02Z</time>
      </trkpt>
      <trkpt lat="44.04924" lon="4.26206">
        <ele>237.7</ele>
        <time>2011-11-13T09:41:04Z</time>
      </trkpt>
      <trkpt lat="44.04918" lon="4.26201">
        <ele>237.1</ele>
        <time>2011-11-13T09:41:06Z</time>
      </trkpt>
      <trkpt lat="44.04913" lon="4.26196">
        <ele>236.4</ele>
        <time>2011-11-13T09:41:08Z</time>
      </trkpt>
      <trkpt lat="44.04907" lon="4.26191">
        <ele>235.9</ele>
        <time>2011-11-13T09:41:10Z</time>
      </trkpt>
      <trkpt lat="44.04902" lon="4.26188">
        <ele>235.6</ele>
        <time>2011-11-13T09:41:12Z</time>
      </trkpt>
      <trkpt lat="44.04895" lon="4.26185">
        <ele>234.8</ele>
        <time>2011-11-13T09:41:14Z</time>
      </trkpt>
      <trkpt lat="44.04888" lon="4.26183">
        <ele>234.4</ele>
        <time>2011-11-13T09:41:16Z</time>
      </trkpt>
      <trkpt lat="44.04882" lon="4.26179">
        <ele>233.6</ele>
        <time>2011-11-13T09:41:19Z</time>
      </trkpt>
      <trkpt lat="44.04877" lon="4.26174">
        <ele>232.9</ele>
        <time>2011-11-13T09:41:21Z</time>
      </trkpt>
      <trkpt lat="44.04872" lon="4.26169">
        <ele>232.5</ele>
        <time>2011-11-13T09:41:23Z</time>
      </trkpt>
      <trkpt lat="44.04865" lon="4.26164">
        <ele>232.2</ele>
        <time>2011-11-13T09:41:25Z</time>
      </trkpt>
      <trkpt lat="44.0486" lon="4.2616">
        <ele>231.9</ele>
        <time>2011-11-13T09:41:27Z</time>
      </trkpt>
      <trkpt lat="44.04855" lon="4.26156">
        <ele>231.5</ele>
        <time>2011-11-13T09:41:29Z</time>
      </trkpt>
      <trkpt lat="44.0485" lon="4.2615">
        <ele>230</ele>
        <time>2011-11-13T09:41:33Z</time>
      </trkpt>
      <trkpt lat="44.04846" lon="4.26146">
        <ele>228.8</ele>
        <time>2011-11-13T09:41:35Z</time>
      </trkpt>
      <trkpt lat="44.0484" lon="4.26143">
        <ele>227.7</ele>
        <time>2011-11-13T09:41:37Z</time>
      </trkpt>
      <trkpt lat="44.04835" lon="4.26139">
        <ele>226.7</ele>
        <time>2011-11-13T09:41:40Z</time>
      </trkpt>
      <trkpt lat="44.04831" lon="4.26134">
        <ele>225.9</ele>
        <time>2011-11-13T09:42:20Z</time>
      </trkpt>
      <trkpt lat="44.04828" lon="4.26127">
        <ele>225.7</ele>
        <time>2011-11-13T09:42:23Z</time>
      </trkpt>
      <trkpt lat="44.04825" lon="4.2612">
        <ele>225.4</ele>
        <time>2011-11-13T09:42:25Z</time>
      </trkpt>
      <trkpt lat="44.04821" lon="4.2611">
        <ele>225.2</ele>
        <time>2011-11-13T09:42:27Z</time>
      </trkpt>
      <trkpt lat="44.04815" lon="4.261">
        <ele>224.9</ele>
        <time>2011-11-13T09:42:29Z</time>
      </trkpt>
      <trkpt lat="44.0481" lon="4.2609">
        <ele>224.5</ele>
        <time>2011-11-13T09:42:31Z</time>
      </trkpt>
      <trkpt lat="44.04806" lon="4.26081">
        <ele>224.2</ele>
        <time>2011-11-13T09:42:33Z</time>
      </trkpt>
      <trkpt lat="44.04802" lon="4.26073">
        <ele>223.9</ele>
        <time>2011-11-13T09:42:35Z</time>
      </trkpt>
      <trkpt lat="44.04799" lon="4.26065">
        <ele>223.5</ele>
        <time>2011-11-13T09:42:37Z</time>
      </trkpt>
      <trkpt lat="44.04796" lon="4.26059">
        <ele>223.2</ele>
        <time>2011-11-13T09:42:39Z</time>
      </trkpt>
      <trkpt lat="44.04793" lon="4.26052">
        <ele>223</ele>
        <time>2011-11-13T09:42:41Z</time>
      </trkpt>
      <trkpt lat="44.0479" lon="4.26043">
        <ele>222.8</ele>
        <time>2011-11-13T09:42:43Z</time>
      </trkpt>
      <trkpt lat="44.04787" lon="4.26032">
        <ele>222.4</ele>
        <time>2011-11-13T09:42:45Z</time>
      </trkpt>
      <trkpt lat="44.04785" lon="4.26026">
        <ele>222</ele>
        <time>2011-11-13T09:42:46Z</time>
      </trkpt>
      <trkpt lat="44.04784" lon="4.2602">
        <ele>221.8</ele>
        <time>2011-11-13T09:42:47Z</time>
      </trkpt>
      <trkpt lat="44.04782" lon="4.26013">
        <ele>221.5</ele>
        <time>2011-11-13T09:42:48Z</time>
      </trkpt>
      <trkpt lat="44.0478" lon="4.26007">
        <ele>221.2</ele>
        <time>2011-11-13T09:42:49Z</time>
      </trkpt>
      <trkpt lat="44.04778" lon="4.26001">
        <ele>221</ele>
        <time>2011-11-13T09:42:50Z</time>
      </trkpt>
      <trkpt lat="44.04777" lon="4.25995">
        <ele>220.8</ele>
        <time>2011-11-13T09:42:51Z</time>
      </trkpt>
      <trkpt lat="44.04775" lon="4.25988">
        <ele>220.7</ele>
        <time>2011-11-13T09:42:52Z</time>
      </trkpt>
      <trkpt lat="44.04773" lon="4.25982">
        <ele>220.7</ele>
        <time>2011-11-13T09:42:53Z</time>
      </trkpt>
      <trkpt lat="44.0477" lon="4.25976">
        <ele>220.6</ele>
        <time>2011-11-13T09:42:54Z</time>
      </trkpt>
      <trkpt lat="44.04768" lon="4.2597">
        <ele>220.4</ele>
        <time>2011-11-13T09:42:55Z</time>
      </trkpt>
      <trkpt lat="44.04766" lon="4.25963">
        <ele>220</ele>
        <time>2011-11-13T09:42:56Z</time>
      </trkpt>
      <trkpt lat="44.04764" lon="4.25956">
        <ele>219.7</ele>
        <time>2011-11-13T09:42:57Z</time>
      </trkpt>
      <trkpt lat="44.04761" lon="4.2595">
        <ele>219.4</ele>
        <time>2011-11-13T09:42:58Z</time>
      </trkpt>
      <trkpt lat="44.04759" lon="4.25943">
        <ele>219.2</ele>
        <time>2011-11-13T09:42:59Z</time>
      </trkpt>
      <trkpt lat="44.04757" lon="4.25936">
        <ele>219</ele>
        <time>2011-11-13T09:43:00Z</time>
      </trkpt>
      <trkpt lat="44.04754" lon="4.25928">
        <ele>218.7</ele>
        <time>2011-11-13T09:43:01Z</time>
      </trkpt>
      <trkpt lat="44.04752" lon="4.25921">
        <ele>218.6</ele>
        <time>2011-11-13T09:43:02Z</time>
      </trkpt>
      <trkpt lat="44.0475" lon="4.25914">
        <ele>218.3</ele>
        <time>2011-11-13T09:43:03Z</time>
      </trkpt>
      <trkpt lat="44.04747" lon="4.25907">
        <ele>218.3</ele>
        <time>2011-11-13T09:43:04Z</time>
      </trkpt>
      <trkpt lat="44.04744" lon="4.259">
        <ele>218.3</ele>
        <time>2011-11-13T09:43:05Z</time>
      </trkpt>
      <trkpt lat="44.04742" lon="4.25893">
        <ele>218.3</ele>
        <time>2011-11-13T09:43:06Z</time>
      </trkpt>
      <trkpt lat="44.04739" lon="4.25887">
        <ele>218.2</ele>
        <time>2011-11-13T09:43:07Z</time>
      </trkpt>
      <trkpt lat="44.04736" lon="4.25881">
        <ele>218.2</ele>
        <time>2011-11-13T09:43:08Z</time>
      </trkpt>
      <trkpt lat="44.04733" lon="4.25875">
        <ele>218</ele>
        <time>2011-11-13T09:43:09Z</time>
      </trkpt>
      <trkpt lat="44.0473" lon="4.25869">
        <ele>218</ele>
        <time>2011-11-13T09:43:10Z</time>
      </trkpt>
      <trkpt lat="44.04727" lon="4.25863">
        <ele>217.8</ele>
        <time>2011-11-13T09:43:11Z</time>
      </trkpt>
      <trkpt lat="44.04724" lon="4.25857">
        <ele>217.6</ele>
        <time>2011-11-13T09:43:12Z</time>
      </trkpt>
      <trkpt lat="44.0472" lon="4.25851">
        <ele>217.4</ele>
        <time>2011-11-13T09:43:13Z</time>
      </trkpt>
      <trkpt lat="44.04716" lon="4.25845">
        <ele>217</ele>
        <time>2011-11-13T09:43:14Z</time>
      </trkpt>
      <trkpt lat="44.04713" lon="4.25838">
        <ele>216.4</ele>
        <time>2011-11-13T09:43:15Z</time>
      </trkpt>
      <trkpt lat="44.04709" lon="4.25832">
        <ele>215.9</ele>
        <time>2011-11-13T09:43:16Z</time>
      </trkpt>
      <trkpt lat="44.04706" lon="4.25826">
        <ele>215.5</ele>
        <time>2011-11-13T09:43:17Z</time>
      </trkpt>
      <trkpt lat="44.04702" lon="4.25819">
        <ele>215</ele>
        <time>2011-11-13T09:43:18Z</time>
      </trkpt>
      <trkpt lat="44.04699" lon="4.25812">
        <ele>214.6</ele>
        <time>2011-11-13T09:43:19Z</time>
      </trkpt>
      <trkpt lat="44.04695" lon="4.25805">
        <ele>214.1</ele>
        <time>2011-11-13T09:43:20Z</time>
      </trkpt>
      <trkpt lat="44.04691" lon="4.25799">
        <ele>213.8</ele>
        <time>2011-11-13T09:43:21Z</time>
      </trkpt>
      <trkpt lat="44.04687" lon="4.25792">
        <ele>213.1</ele>
        <time>2011-11-13T09:43:22Z</time>
      </trkpt>
      <trkpt lat="44.04684" lon="4.25784">
        <ele>212.3</ele>
        <time>2011-11-13T09:43:23Z</time>
      </trkpt>
      <trkpt lat="44.0468" lon="4.25777">
        <ele>211.5</ele>
        <time>2011-11-13T09:43:24Z</time>
      </trkpt>
      <trkpt lat="44.04676" lon="4.2577">
        <ele>210.8</ele>
        <time>2011-11-13T09:43:25Z</time>
      </trkpt>
      <trkpt lat="44.04672" lon="4.25762">
        <ele>210.2</ele>
        <time>2011-11-13T09:43:26Z</time>
      </trkpt>
      <trkpt lat="44.04668" lon="4.25755">
        <ele>209.6</ele>
        <time>2011-11-13T09:43:27Z</time>
      </trkpt>
      <trkpt lat="44.04664" lon="4.25748">
        <ele>209.2</ele>
        <time>2011-11-13T09:43:28Z</time>
      </trkpt>
      <trkpt lat="44.0466" lon="4.25741">
        <ele>208.7</ele>
        <time>2011-11-13T09:43:29Z</time>
      </trkpt>
      <trkpt lat="44.04656" lon="4.25734">
        <ele>208.2</ele>
        <time>2011-11-13T09:43:30Z</time>
      </trkpt>
      <trkpt lat="44.04652" lon="4.25727">
        <ele>207.9</ele>
        <time>2011-11-13T09:43:31Z</time>
      </trkpt>
      <trkpt lat="44.04649" lon="4.25721">
        <ele>207.6</ele>
        <time>2011-11-13T09:43:32Z</time>
      </trkpt>
      <trkpt lat="44.04645" lon="4.25715">
        <ele>207.4</ele>
        <time>2011-11-13T09:43:33Z</time>
      </trkpt>
      <trkpt lat="44.04642" lon="4.2571">
        <ele>207.1</ele>
        <time>2011-11-13T09:43:34Z</time>
      </trkpt>
      <trkpt lat="44.04639" lon="4.25702">
        <ele>206.6</ele>
        <time>2011-11-13T09:43:36Z</time>
      </trkpt>
      <trkpt lat="44.04641" lon="4.25695">
        <ele>205.5</ele>
        <time>2011-11-13T09:43:40Z</time>
      </trkpt>
      <trkpt lat="44.04644" lon="4.2569">
        <ele>205</ele>
        <time>2011-11-13T09:43:43Z</time>
      </trkpt>
      <trkpt lat="44.04648" lon="4.25683">
        <ele>203.9</ele>
        <time>2011-11-13T09:43:46Z</time>
      </trkpt>
      <trkpt lat="44.04653" lon="4.25677">
        <ele>203.2</ele>
        <time>2011-11-13T09:43:48Z</time>
      </trkpt>
      <trkpt lat="44.04659" lon="4.25669">
        <ele>202.5</ele>
        <time>2011-11-13T09:43:50Z</time>
      </trkpt>
      <trkpt lat="44.04662" lon="4.25665">
        <ele>201.9</ele>
        <time>2011-11-13T09:43:51Z</time>
      </trkpt>
      <trkpt lat="44.04665" lon="4.2566">
        <ele>201.5</ele>
        <time>2011-11-13T09:43:52Z</time>
      </trkpt>
      <trkpt lat="44.04668" lon="4.25655">
        <ele>201.1</ele>
        <time>2011-11-13T09:43:53Z</time>
      </trkpt>
      <trkpt lat="44.04672" lon="4.25651">
        <ele>200.8</ele>
        <time>2011-11-13T09:43:54Z</time>
      </trkpt>
      <trkpt lat="44.04675" lon="4.25645">
        <ele>200.4</ele>
        <time>2011-11-13T09:43:55Z</time>
      </trkpt>
      <trkpt lat="44.04679" lon="4.2564">
        <ele>200.1</ele>
        <time>2011-11-13T09:43:56Z</time>
      </trkpt>
      <trkpt lat="44.04683" lon="4.25634">
        <ele>199.9</ele>
        <time>2011-11-13T09:43:57Z</time>
      </trkpt>
      <trkpt lat="44.04687" lon="4.25628">
        <ele>199.8</ele>
        <time>2011-11-13T09:43:58Z</time>
      </trkpt>
      <trkpt lat="44.04691" lon="4.25622">
        <ele>199.6</ele>
        <time>2011-11-13T09:43:59Z</time>
      </trkpt>
      <trkpt lat="44.04695" lon="4.25617">
        <ele>199.5</ele>
        <time>2011-11-13T09:44:00Z</time>
      </trkpt>
      <trkpt lat="44.04699" lon="4.25611">
        <ele>199.4</ele>
        <time>2011-11-13T09:44:01Z</time>
      </trkpt>
      <trkpt lat="44.04703" lon="4.25605">
        <ele>199.2</ele>
        <time>2011-11-13T09:44:02Z</time>
      </trkpt>
      <trkpt lat="44.04708" lon="4.256">
        <ele>199.1</ele>
        <time>2011-11-13T09:44:03Z</time>
      </trkpt>
      <trkpt lat="44.04712" lon="4.25594">
        <ele>198.9</ele>
        <time>2011-11-13T09:44:04Z</time>
      </trkpt>
      <trkpt lat="44.04717" lon="4.25589">
        <ele>198.9</ele>
        <time>2011-11-13T09:44:05Z</time>
      </trkpt>
      <trkpt lat="44.04721" lon="4.25583">
        <ele>198.8</ele>
        <time>2011-11-13T09:44:06Z</time>
      </trkpt>
      <trkpt lat="44.04726" lon="4.25578">
        <ele>198.8</ele>
        <time>2011-11-13T09:44:07Z</time>
      </trkpt>
      <trkpt lat="44.0473" lon="4.25572">
        <ele>198.7</ele>
        <time>2011-11-13T09:44:08Z</time>
      </trkpt>
      <trkpt lat="44.04734" lon="4.25567">
        <ele>198.6</ele>
        <time>2011-11-13T09:44:09Z</time>
      </trkpt>
      <trkpt lat="44.04738" lon="4.25562">
        <ele>198.5</ele>
        <time>2011-11-13T09:44:10Z</time>
      </trkpt>
      <trkpt lat="44.04742" lon="4.25558">
        <ele>198.5</ele>
        <time>2011-11-13T09:44:11Z</time>
      </trkpt>
      <trkpt lat="44.04746" lon="4.25552">
        <ele>198.3</ele>
        <time>2011-11-13T09:44:12Z</time>
      </trkpt>
      <trkpt lat="44.04749" lon="4.25548">
        <ele>198.1</ele>
        <time>2011-11-13T09:44:13Z</time>
      </trkpt>
      <trkpt lat="44.04753" lon="4.25538">
        <ele>197.7</ele>
        <time>2011-11-13T09:44:15Z</time>
      </trkpt>
      <trkpt lat="44.04752" lon="4.25529">
        <ele>197.8</ele>
        <time>2011-11-13T09:44:17Z</time>
      </trkpt>
      <trkpt lat="44.04746" lon="4.25524">
        <ele>197.7</ele>
        <time>2011-11-13T09:44:19Z</time>
      </trkpt>
      <trkpt lat="44.04739" lon="4.25519">
        <ele>197.4</ele>
        <time>2011-11-13T09:44:21Z</time>
      </trkpt>
      <trkpt lat="44.04732" lon="4.25514">
        <ele>197.2</ele>
        <time>2011-11-13T09:44:23Z</time>
      </trkpt>
      <trkpt lat="44.04727" lon="4.2551">
        <ele>196.8</ele>
        <time>2011-11-13T09:44:25Z</time>
      </trkpt>
      <trkpt lat="44.04721" lon="4.25508">
        <ele>196.7</ele>
        <time>2011-11-13T09:44:27Z</time>
      </trkpt>
      <trkpt lat="44.04717" lon="4.25509">
        <ele>197</ele>
        <time>2011-11-13T09:44:29Z</time>
      </trkpt>
      <trkpt lat="44.04711" lon="4.25512">
        <ele>197.1</ele>
        <time>2011-11-13T09:44:32Z</time>
      </trkpt>
      <trkpt lat="44.04706" lon="4.25515">
        <ele>197.1</ele>
        <time>2011-11-13T09:44:35Z</time>
      </trkpt>
      <trkpt lat="44.04706" lon="4.25522">
        <ele>196.7</ele>
        <time>2011-11-13T09:46:14Z</time>
      </trkpt>
      <trkpt lat="44.04703" lon="4.25527">
        <ele>197.1</ele>
        <time>2011-11-13T09:46:20Z</time>
      </trkpt>
      <trkpt lat="44.04699" lon="4.25531">
        <ele>197.6</ele>
        <time>2011-11-13T09:46:23Z</time>
      </trkpt>
      <trkpt lat="44.04695" lon="4.25535">
        <ele>197.5</ele>
        <time>2011-11-13T09:46:25Z</time>
      </trkpt>
      <trkpt lat="44.04688" lon="4.25539">
        <ele>197.7</ele>
        <time>2011-11-13T09:46:27Z</time>
      </trkpt>
      <trkpt lat="44.04683" lon="4.25542">
        <ele>197.8</ele>
        <time>2011-11-13T09:46:28Z</time>
      </trkpt>
      <trkpt lat="44.04675" lon="4.25546">
        <ele>197.7</ele>
        <time>2011-11-13T09:46:30Z</time>
      </trkpt>
      <trkpt lat="44.04667" lon="4.25549">
        <ele>197.4</ele>
        <time>2011-11-13T09:46:32Z</time>
      </trkpt>
      <trkpt lat="44.0466" lon="4.25555">
        <ele>197.2</ele>
        <time>2011-11-13T09:46:34Z</time>
      </trkpt>
      <trkpt lat="44.04655" lon="4.25558">
        <ele>197.4</ele>
        <time>2011-11-13T09:46:35Z</time>
      </trkpt>
      <trkpt lat="44.04649" lon="4.2556">
        <ele>197.7</ele>
        <time>2011-11-13T09:46:36Z</time>
      </trkpt>
      <trkpt lat="44.04644" lon="4.25563">
        <ele>198.1</ele>
        <time>2011-11-13T09:46:37Z</time>
      </trkpt>
      <trkpt lat="44.04639" lon="4.25566">
        <ele>198.4</ele>
        <time>2011-11-13T09:46:38Z</time>
      </trkpt>
      <trkpt lat="44.04634" lon="4.2557">
        <ele>198.6</ele>
        <time>2011-11-13T09:46:39Z</time>
      </trkpt>
      <trkpt lat="44.04629" lon="4.25573">
        <ele>198.8</ele>
        <time>2011-11-13T09:46:40Z</time>
      </trkpt>
      <trkpt lat="44.04624" lon="4.25576">
        <ele>199</ele>
        <time>2011-11-13T09:46:41Z</time>
      </trkpt>
      <trkpt lat="44.0462" lon="4.25579">
        <ele>199.2</ele>
        <time>2011-11-13T09:46:42Z</time>
      </trkpt>
      <trkpt lat="44.04616" lon="4.25582">
        <ele>199.3</ele>
        <time>2011-11-13T09:46:43Z</time>
      </trkpt>
      <trkpt lat="44.04612" lon="4.25585">
        <ele>199.2</ele>
        <time>2011-11-13T09:46:44Z</time>
      </trkpt>
      <trkpt lat="44.04607" lon="4.25588">
        <ele>199.1</ele>
        <time>2011-11-13T09:46:45Z</time>
      </trkpt>
      <trkpt lat="44.04602" lon="4.25591">
        <ele>199</ele>
        <time>2011-11-13T09:46:46Z</time>
      </trkpt>
      <trkpt lat="44.04597" lon="4.25594">
        <ele>198.8</ele>
        <time>2011-11-13T09:46:47Z</time>
      </trkpt>
      <trkpt lat="44.04591" lon="4.25598">
        <ele>198.7</ele>
        <time>2011-11-13T09:46:48Z</time>
      </trkpt>
      <trkpt lat="44.04585" lon="4.25602">
        <ele>198.6</ele>
        <time>2011-11-13T09:46:49Z</time>
      </trkpt>
      <trkpt lat="44.04579" lon="4.25605">
        <ele>198.8</ele>
        <time>2011-11-13T09:46:50Z</time>
      </trkpt>
      <trkpt lat="44.04573" lon="4.25609">
        <ele>198.9</ele>
        <time>2011-11-13T09:46:51Z</time>
      </trkpt>
      <trkpt lat="44.04567" lon="4.25613">
        <ele>199.1</ele>
        <time>2011-11-13T09:46:52Z</time>
      </trkpt>
      <trkpt lat="44.04561" lon="4.25617">
        <ele>199.2</ele>
        <time>2011-11-13T09:46:53Z</time>
      </trkpt>
      <trkpt lat="44.04554" lon="4.25621">
        <ele>199.4</ele>
        <time>2011-11-13T09:46:54Z</time>
      </trkpt>
      <trkpt lat="44.04548" lon="4.25624">
        <ele>199.6</ele>
        <time>2011-11-13T09:46:55Z</time>
      </trkpt>
      <trkpt lat="44.04543" lon="4.25627">
        <ele>199.8</ele>
        <time>2011-11-13T09:46:56Z</time>
      </trkpt>
      <trkpt lat="44.04537" lon="4.2563">
        <ele>199.9</ele>
        <time>2011-11-13T09:46:57Z</time>
      </trkpt>
      <trkpt lat="44.04532" lon="4.25634">
        <ele>199.9</ele>
        <time>2011-11-13T09:46:58Z</time>
      </trkpt>
      <trkpt lat="44.04527" lon="4.25636">
        <ele>199.6</ele>
        <time>2011-11-13T09:46:59Z</time>
      </trkpt>
      <trkpt lat="44.04519" lon="4.25641">
        <ele>199.5</ele>
        <time>2011-11-13T09:47:01Z</time>
      </trkpt>
      <trkpt lat="44.04512" lon="4.25645">
        <ele>199</ele>
        <time>2011-11-13T09:47:03Z</time>
      </trkpt>
      <trkpt lat="44.04504" lon="4.2565">
        <ele>198.5</ele>
        <time>2011-11-13T09:47:05Z</time>
      </trkpt>
      <trkpt lat="44.04497" lon="4.25655">
        <ele>198.1</ele>
        <time>2011-11-13T09:47:07Z</time>
      </trkpt>
      <trkpt lat="44.0449" lon="4.25659">
        <ele>197.8</ele>
        <time>2011-11-13T09:47:09Z</time>
      </trkpt>
      <trkpt lat="44.04481" lon="4.25663">
        <ele>197.5</ele>
        <time>2011-11-13T09:47:11Z</time>
      </trkpt>
      <trkpt lat="44.04476" lon="4.25666">
        <ele>197.4</ele>
        <time>2011-11-13T09:47:12Z</time>
      </trkpt>
      <trkpt lat="44.04471" lon="4.25669">
        <ele>197.3</ele>
        <time>2011-11-13T09:47:13Z</time>
      </trkpt>
      <trkpt lat="44.04466" lon="4.25673">
        <ele>197.2</ele>
        <time>2011-11-13T09:47:14Z</time>
      </trkpt>
      <trkpt lat="44.0446" lon="4.25677">
        <ele>197.2</ele>
        <time>2011-11-13T09:47:15Z</time>
      </trkpt>
      <trkpt lat="44.04454" lon="4.25682">
        <ele>197.3</ele>
        <time>2011-11-13T09:47:16Z</time>
      </trkpt>
      <trkpt lat="44.04447" lon="4.25686">
        <ele>197.7</ele>
        <time>2011-11-13T09:47:17Z</time>
      </trkpt>
      <trkpt lat="44.0444" lon="4.25691">
        <ele>197.5</ele>
        <time>2011-11-13T09:47:18Z</time>
      </trkpt>
      <trkpt lat="44.04434" lon="4.25695">
        <ele>197.3</ele>
        <time>2011-11-13T09:47:19Z</time>
      </trkpt>
      <trkpt lat="44.04427" lon="4.25698">
        <ele>197.5</ele>
        <time>2011-11-13T09:47:20Z</time>
      </trkpt>
      <trkpt lat="44.04421" lon="4.25702">
        <ele>197.6</ele>
        <time>2011-11-13T09:47:21Z</time>
      </trkpt>
      <trkpt lat="44.04415" lon="4.25706">
        <ele>197.3</ele>
        <time>2011-11-13T09:47:22Z</time>
      </trkpt>
      <trkpt lat="44.04409" lon="4.25711">
        <ele>197.3</ele>
        <time>2011-11-13T09:47:23Z</time>
      </trkpt>
      <trkpt lat="44.04402" lon="4.25715">
        <ele>197.3</ele>
        <time>2011-11-13T09:47:24Z</time>
      </trkpt>
      <trkpt lat="44.04395" lon="4.2572">
        <ele>197.3</ele>
        <time>2011-11-13T09:47:25Z</time>
      </trkpt>
      <trkpt lat="44.04388" lon="4.25724">
        <ele>197.3</ele>
        <time>2011-11-13T09:47:26Z</time>
      </trkpt>
      <trkpt lat="44.04381" lon="4.25728">
        <ele>197.3</ele>
        <time>2011-11-13T09:47:27Z</time>
      </trkpt>
      <trkpt lat="44.04374" lon="4.25733">
        <ele>197.1</ele>
        <time>2011-11-13T09:47:28Z</time>
      </trkpt>
      <trkpt lat="44.04366" lon="4.25737">
        <ele>197</ele>
        <time>2011-11-13T09:47:29Z</time>
      </trkpt>
      <trkpt lat="44.04359" lon="4.25742">
        <ele>197.1</ele>
        <time>2011-11-13T09:47:30Z</time>
      </trkpt>
      <trkpt lat="44.04352" lon="4.25746">
        <ele>197.1</ele>
        <time>2011-11-13T09:47:31Z</time>
      </trkpt>
      <trkpt lat="44.04344" lon="4.25751">
        <ele>197.3</ele>
        <time>2011-11-13T09:47:32Z</time>
      </trkpt>
      <trkpt lat="44.04337" lon="4.25756">
        <ele>197.4</ele>
        <time>2011-11-13T09:47:33Z</time>
      </trkpt>
      <trkpt lat="44.0433" lon="4.2576">
        <ele>197.6</ele>
        <time>2011-11-13T09:47:34Z</time>
      </trkpt>
      <trkpt lat="44.04322" lon="4.25765">
        <ele>197.8</ele>
        <time>2011-11-13T09:47:35Z</time>
      </trkpt>
      <trkpt lat="44.04315" lon="4.2577">
        <ele>197.9</ele>
        <time>2011-11-13T09:47:36Z</time>
      </trkpt>
      <trkpt lat="44.04307" lon="4.25775">
        <ele>197.7</ele>
        <time>2011-11-13T09:47:37Z</time>
      </trkpt>
      <trkpt lat="44.04299" lon="4.25779">
        <ele>197.5</ele>
        <time>2011-11-13T09:47:38Z</time>
      </trkpt>
      <trkpt lat="44.04291" lon="4.25784">
        <ele>197.4</ele>
        <time>2011-11-13T09:47:39Z</time>
      </trkpt>
      <trkpt lat="44.04283" lon="4.25789">
        <ele>197.3</ele>
        <time>2011-11-13T09:47:40Z</time>
      </trkpt>
      <trkpt lat="44.04275" lon="4.25793">
        <ele>197.1</ele>
        <time>2011-11-13T09:47:41Z</time>
      </trkpt>
      <trkpt lat="44.04268" lon="4.25798">
        <ele>196.9</ele>
        <time>2011-11-13T09:47:42Z</time>
      </trkpt>
      <trkpt lat="44.0426" lon="4.25803">
        <ele>196.7</ele>
        <time>2011-11-13T09:47:43Z</time>
      </trkpt>
      <trkpt lat="44.04253" lon="4.25808">
        <ele>196.6</ele>
        <time>2011-11-13T09:47:44Z</time>
      </trkpt>
      <trkpt lat="44.04245" lon="4.25812">
        <ele>196.6</ele>
        <time>2011-11-13T09:47:45Z</time>
      </trkpt>
      <trkpt lat="44.04238" lon="4.25817">
        <ele>196.5</ele>
        <time>2011-11-13T09:47:46Z</time>
      </trkpt>
      <trkpt lat="44.0423" lon="4.25822">
        <ele>196.5</ele>
        <time>2011-11-13T09:47:47Z</time>
      </trkpt>
      <trkpt lat="44.04223" lon="4.25826">
        <ele>196.5</ele>
        <time>2011-11-13T09:47:48Z</time>
      </trkpt>
      <trkpt lat="44.04216" lon="4.25831">
        <ele>196.6</ele>
        <time>2011-11-13T09:47:49Z</time>
      </trkpt>
      <trkpt lat="44.04208" lon="4.25836">
        <ele>196.7</ele>
        <time>2011-11-13T09:47:50Z</time>
      </trkpt>
      <trkpt lat="44.04201" lon="4.2584">
        <ele>196.7</ele>
        <time>2011-11-13T09:47:51Z</time>
      </trkpt>
      <trkpt lat="44.04193" lon="4.25844">
        <ele>196.8</ele>
        <time>2011-11-13T09:47:52Z</time>
      </trkpt>
      <trkpt lat="44.04186" lon="4.25849">
        <ele>196.8</ele>
        <time>2011-11-13T09:47:53Z</time>
      </trkpt>
      <trkpt lat="44.04179" lon="4.25854">
        <ele>197.1</ele>
        <time>2011-11-13T09:47:54Z</time>
      </trkpt>
      <trkpt lat="44.04172" lon="4.25858">
        <ele>197.2</ele>
        <time>2011-11-13T09:47:55Z</time>
      </trkpt>
      <trkpt lat="44.04165" lon="4.25863">
        <ele>197.5</ele>
        <time>2011-11-13T09:47:56Z</time>
      </trkpt>
      <trkpt lat="44.04158" lon="4.25867">
        <ele>197.7</ele>
        <time>2011-11-13T09:47:57Z</time>
      </trkpt>
      <trkpt lat="44.04151" lon="4.25872">
        <ele>197.8</ele>
        <time>2011-11-13T09:47:58Z</time>
      </trkpt>
      <trkpt lat="44.04144" lon="4.25876">
        <ele>197.9</ele>
        <time>2011-11-13T09:47:59Z</time>
      </trkpt>
      <trkpt lat="44.04137" lon="4.25881">
        <ele>198.2</ele>
        <time>2011-11-13T09:48:00Z</time>
      </trkpt>
      <trkpt lat="44.0413" lon="4.25885">
        <ele>198.6</ele>
        <time>2011-11-13T09:48:01Z</time>
      </trkpt>
      <trkpt lat="44.04123" lon="4.2589">
        <ele>198.9</ele>
        <time>2011-11-13T09:48:02Z</time>
      </trkpt>
      <trkpt lat="44.04116" lon="4.25894">
        <ele>199.3</ele>
        <time>2011-11-13T09:48:03Z</time>
      </trkpt>
      <trkpt lat="44.0411" lon="4.25899">
        <ele>199.7</ele>
        <time>2011-11-13T09:48:04Z</time>
      </trkpt>
      <trkpt lat="44.04103" lon="4.25903">
        <ele>200.3</ele>
        <time>2011-11-13T09:48:05Z</time>
      </trkpt>
      <trkpt lat="44.04097" lon="4.25906">
        <ele>200.8</ele>
        <time>2011-11-13T09:48:06Z</time>
      </trkpt>
      <trkpt lat="44.0409" lon="4.2591">
        <ele>201.1</ele>
        <time>2011-11-13T09:48:07Z</time>
      </trkpt>
      <trkpt lat="44.04084" lon="4.25914">
        <ele>201.4</ele>
        <time>2011-11-13T09:48:08Z</time>
      </trkpt>
      <trkpt lat="44.04078" lon="4.25918">
        <ele>201.6</ele>
        <time>2011-11-13T09:48:09Z</time>
      </trkpt>
      <trkpt lat="44.04071" lon="4.25923">
        <ele>201.9</ele>
        <time>2011-11-13T09:48:10Z</time>
      </trkpt>
      <trkpt lat="44.04065" lon="4.25927">
        <ele>202.3</ele>
        <time>2011-11-13T09:48:11Z</time>
      </trkpt>
      <trkpt lat="44.04058" lon="4.25931">
        <ele>202.4</ele>
        <time>2011-11-13T09:48:12Z</time>
      </trkpt>
      <trkpt lat="44.04052" lon="4.25935">
        <ele>202.4</ele>
        <time>2011-11-13T09:48:13Z</time>
      </trkpt>
      <trkpt lat="44.04045" lon="4.25939">
        <ele>202.2</ele>
        <time>2011-11-13T09:48:14Z</time>
      </trkpt>
      <trkpt lat="44.04038" lon="4.25943">
        <ele>201.9</ele>
        <time>2011-11-13T09:48:15Z</time>
      </trkpt>
      <trkpt lat="44.04031" lon="4.25948">
        <ele>201.8</ele>
        <time>2011-11-13T09:48:16Z</time>
      </trkpt>
      <trkpt lat="44.04024" lon="4.25952">
        <ele>201.4</ele>
        <time>2011-11-13T09:48:17Z</time>
      </trkpt>
      <trkpt lat="44.04016" lon="4.25956">
        <ele>201.2</ele>
        <time>2011-11-13T09:48:18Z</time>
      </trkpt>
      <trkpt lat="44.04009" lon="4.2596">
        <ele>200.9</ele>
        <time>2011-11-13T09:48:19Z</time>
      </trkpt>
      <trkpt lat="44.04002" lon="4.25964">
        <ele>200.6</ele>
        <time>2011-11-13T09:48:20Z</time>
      </trkpt>
      <trkpt lat="44.03995" lon="4.25969">
        <ele>200.3</ele>
        <time>2011-11-13T09:48:21Z</time>
      </trkpt>
      <trkpt lat="44.03988" lon="4.25973">
        <ele>200</ele>
        <time>2011-11-13T09:48:22Z</time>
      </trkpt>
      <trkpt lat="44.03981" lon="4.25978">
        <ele>199.7</ele>
        <time>2011-11-13T09:48:23Z</time>
      </trkpt>
      <trkpt lat="44.03974" lon="4.25982">
        <ele>199.5</ele>
        <time>2011-11-13T09:48:24Z</time>
      </trkpt>
      <trkpt lat="44.03967" lon="4.25986">
        <ele>199.4</ele>
        <time>2011-11-13T09:48:25Z</time>
      </trkpt>
      <trkpt lat="44.0396" lon="4.2599">
        <ele>199</ele>
        <time>2011-11-13T09:48:26Z</time>
      </trkpt>
      <trkpt lat="44.03953" lon="4.25995">
        <ele>198.8</ele>
        <time>2011-11-13T09:48:27Z</time>
      </trkpt>
      <trkpt lat="44.03946" lon="4.25998">
        <ele>198.6</ele>
        <time>2011-11-13T09:48:28Z</time>
      </trkpt>
      <trkpt lat="44.03939" lon="4.26003">
        <ele>198.3</ele>
        <time>2011-11-13T09:48:29Z</time>
      </trkpt>
      <trkpt lat="44.03933" lon="4.26006">
        <ele>198.1</ele>
        <time>2011-11-13T09:48:30Z</time>
      </trkpt>
      <trkpt lat="44.03926" lon="4.2601">
        <ele>197.7</ele>
        <time>2011-11-13T09:48:31Z</time>
      </trkpt>
      <trkpt lat="44.0392" lon="4.26014">
        <ele>197.6</ele>
        <time>2011-11-13T09:48:32Z</time>
      </trkpt>
      <trkpt lat="44.03914" lon="4.26017">
        <ele>197.2</ele>
        <time>2011-11-13T09:48:33Z</time>
      </trkpt>
      <trkpt lat="44.03908" lon="4.26021">
        <ele>196.9</ele>
        <time>2011-11-13T09:48:34Z</time>
      </trkpt>
      <trkpt lat="44.03902" lon="4.26025">
        <ele>196.5</ele>
        <time>2011-11-13T09:48:35Z</time>
      </trkpt>
      <trkpt lat="44.03895" lon="4.26029">
        <ele>195.9</ele>
        <time>2011-11-13T09:48:36Z</time>
      </trkpt>
      <trkpt lat="44.03889" lon="4.26032">
        <ele>195.8</ele>
        <time>2011-11-13T09:48:37Z</time>
      </trkpt>
      <trkpt lat="44.03883" lon="4.26036">
        <ele>195.8</ele>
        <time>2011-11-13T09:48:38Z</time>
      </trkpt>
      <trkpt lat="44.03876" lon="4.26041">
        <ele>195.8</ele>
        <time>2011-11-13T09:48:39Z</time>
      </trkpt>
      <trkpt lat="44.0387" lon="4.26045">
        <ele>195.8</ele>
        <time>2011-11-13T09:48:40Z</time>
      </trkpt>
      <trkpt lat="44.03863" lon="4.2605">
        <ele>195.8</ele>
        <time>2011-11-13T09:48:41Z</time>
      </trkpt>
      <trkpt lat="44.03857" lon="4.26054">
        <ele>196</ele>
        <time>2011-11-13T09:48:42Z</time>
      </trkpt>
      <trkpt lat="44.0385" lon="4.26059">
        <ele>196.1</ele>
        <time>2011-11-13T09:48:43Z</time>
      </trkpt>
      <trkpt lat="44.03843" lon="4.26063">
        <ele>196.2</ele>
        <time>2011-11-13T09:48:44Z</time>
      </trkpt>
      <trkpt lat="44.03837" lon="4.26068">
        <ele>196.4</ele>
        <time>2011-11-13T09:48:45Z</time>
      </trkpt>
      <trkpt lat="44.0383" lon="4.26072">
        <ele>196.7</ele>
        <time>2011-11-13T09:48:46Z</time>
      </trkpt>
      <trkpt lat="44.03824" lon="4.26076">
        <ele>196.6</ele>
        <time>2011-11-13T09:48:47Z</time>
      </trkpt>
      <trkpt lat="44.03817" lon="4.26081">
        <ele>196.8</ele>
        <time>2011-11-13T09:48:48Z</time>
      </trkpt>
      <trkpt lat="44.03811" lon="4.26085">
        <ele>197</ele>
        <time>2011-11-13T09:48:49Z</time>
      </trkpt>
      <trkpt lat="44.03805" lon="4.26088">
        <ele>197.5</ele>
        <time>2011-11-13T09:48:50Z</time>
      </trkpt>
      <trkpt lat="44.03799" lon="4.26093">
        <ele>198.1</ele>
        <time>2011-11-13T09:48:51Z</time>
      </trkpt>
      <trkpt lat="44.03793" lon="4.26097">
        <ele>198.6</ele>
        <time>2011-11-13T09:48:52Z</time>
      </trkpt>
      <trkpt lat="44.03787" lon="4.26101">
        <ele>199.1</ele>
        <time>2011-11-13T09:48:53Z</time>
      </trkpt>
      <trkpt lat="44.03781" lon="4.26105">
        <ele>199.5</ele>
        <time>2011-11-13T09:48:54Z</time>
      </trkpt>
      <trkpt lat="44.03776" lon="4.26109">
        <ele>199.8</ele>
        <time>2011-11-13T09:48:55Z</time>
      </trkpt>
      <trkpt lat="44.03771" lon="4.26113">
        <ele>200.3</ele>
        <time>2011-11-13T09:48:56Z</time>
      </trkpt>
      <trkpt lat="44.03766" lon="4.26116">
        <ele>200.6</ele>
        <time>2011-11-13T09:48:57Z</time>
      </trkpt>
      <trkpt lat="44.03761" lon="4.26119">
        <ele>201.1</ele>
        <time>2011-11-13T09:48:58Z</time>
      </trkpt>
      <trkpt lat="44.03757" lon="4.26122">
        <ele>201.4</ele>
        <time>2011-11-13T09:48:59Z</time>
      </trkpt>
      <trkpt lat="44.03753" lon="4.26125">
        <ele>201.6</ele>
        <time>2011-11-13T09:49:00Z</time>
      </trkpt>
      <trkpt lat="44.03745" lon="4.26129">
        <ele>202.4</ele>
        <time>2011-11-13T09:49:02Z</time>
      </trkpt>
      <trkpt lat="44.03741" lon="4.2613">
        <ele>199</ele>
        <time>2011-11-13T09:49:06Z</time>
      </trkpt>
      <trkpt lat="44.03741" lon="4.2613">
        <ele>199</ele>
        <time>2011-11-13T09:49:06Z</time>
      </trkpt>
      <trkpt lat="44.03741" lon="4.2613">
        <ele>199</ele>
        <time>2011-11-13T09:49:14Z</time>
      </trkpt>
      <trkpt lat="44.03736" lon="4.26129">
        <ele>199</ele>
        <time>2011-11-13T09:49:25Z</time>
      </trkpt>
      <trkpt lat="44.03734" lon="4.26123">
        <ele>194.8</ele>
        <time>2011-11-13T09:51:10Z</time>
      </trkpt>
      <trkpt lat="44.0373" lon="4.26124">
        <ele>194.6</ele>
        <time>2011-11-13T09:51:17Z</time>
      </trkpt>
      <trkpt lat="44.03728" lon="4.2613">
        <ele>194.9</ele>
        <time>2011-11-13T09:51:22Z</time>
      </trkpt>
      <trkpt lat="44.03724" lon="4.26136">
        <ele>197.7</ele>
        <time>2011-11-13T09:52:00Z</time>
      </trkpt>
      <trkpt lat="44.0372" lon="4.26139">
        <ele>198.2</ele>
        <time>2011-11-13T09:52:02Z</time>
      </trkpt>
      <trkpt lat="44.03714" lon="4.26143">
        <ele>198.6</ele>
        <time>2011-11-13T09:52:04Z</time>
      </trkpt>
      <trkpt lat="44.03708" lon="4.26146">
        <ele>199.1</ele>
        <time>2011-11-13T09:52:06Z</time>
      </trkpt>
      <trkpt lat="44.03702" lon="4.26151">
        <ele>198.9</ele>
        <time>2011-11-13T09:52:08Z</time>
      </trkpt>
      <trkpt lat="44.03694" lon="4.26157">
        <ele>199.1</ele>
        <time>2011-11-13T09:52:10Z</time>
      </trkpt>
      <trkpt lat="44.03687" lon="4.26162">
        <ele>199.6</ele>
        <time>2011-11-13T09:52:12Z</time>
      </trkpt>
      <trkpt lat="44.03682" lon="4.26165">
        <ele>199.8</ele>
        <time>2011-11-13T09:52:13Z</time>
      </trkpt>
      <trkpt lat="44.03678" lon="4.26167">
        <ele>199.9</ele>
        <time>2011-11-13T09:52:14Z</time>
      </trkpt>
      <trkpt lat="44.0367" lon="4.26172">
        <ele>200.3</ele>
        <time>2011-11-13T09:52:16Z</time>
      </trkpt>
      <trkpt lat="44.03663" lon="4.26178">
        <ele>200.5</ele>
        <time>2011-11-13T09:52:18Z</time>
      </trkpt>
      <trkpt lat="44.03655" lon="4.26182">
        <ele>200.2</ele>
        <time>2011-11-13T09:52:20Z</time>
      </trkpt>
      <trkpt lat="44.03647" lon="4.26186">
        <ele>200</ele>
        <time>2011-11-13T09:52:22Z</time>
      </trkpt>
      <trkpt lat="44.03641" lon="4.2619">
        <ele>200</ele>
        <time>2011-11-13T09:52:24Z</time>
      </trkpt>
      <trkpt lat="44.03634" lon="4.26194">
        <ele>199.7</ele>
        <time>2011-11-13T09:52:26Z</time>
      </trkpt>
      <trkpt lat="44.03627" lon="4.26198">
        <ele>199.3</ele>
        <time>2011-11-13T09:52:28Z</time>
      </trkpt>
      <trkpt lat="44.0362" lon="4.26202">
        <ele>199.4</ele>
        <time>2011-11-13T09:52:30Z</time>
      </trkpt>
      <trkpt lat="44.03615" lon="4.26205">
        <ele>199.3</ele>
        <time>2011-11-13T09:52:31Z</time>
      </trkpt>
      <trkpt lat="44.03611" lon="4.26208">
        <ele>199.3</ele>
        <time>2011-11-13T09:52:32Z</time>
      </trkpt>
      <trkpt lat="44.03604" lon="4.26213">
        <ele>199.4</ele>
        <time>2011-11-13T09:52:34Z</time>
      </trkpt>
      <trkpt lat="44.03596" lon="4.26217">
        <ele>199.1</ele>
        <time>2011-11-13T09:52:36Z</time>
      </trkpt>
      <trkpt lat="44.03589" lon="4.26222">
        <ele>198.9</ele>
        <time>2011-11-13T09:52:38Z</time>
      </trkpt>
      <trkpt lat="44.03583" lon="4.26226">
        <ele>199.5</ele>
        <time>2011-11-13T09:52:40Z</time>
      </trkpt>
      <trkpt lat="44.03577" lon="4.26231">
        <ele>200.3</ele>
        <time>2011-11-13T09:52:42Z</time>
      </trkpt>
      <trkpt lat="44.03571" lon="4.26236">
        <ele>200.5</ele>
        <time>2011-11-13T09:52:44Z</time>
      </trkpt>
      <trkpt lat="44.03564" lon="4.26241">
        <ele>200.5</ele>
        <time>2011-11-13T09:52:46Z</time>
      </trkpt>
      <trkpt lat="44.03557" lon="4.26246">
        <ele>200</ele>
        <time>2011-11-13T09:52:48Z</time>
      </trkpt>
      <trkpt lat="44.03549" lon="4.2625">
        <ele>200</ele>
        <time>2011-11-13T09:52:50Z</time>
      </trkpt>
      <trkpt lat="44.03542" lon="4.26255">
        <ele>199.7</ele>
        <time>2011-11-13T09:52:52Z</time>
      </trkpt>
      <trkpt lat="44.03534" lon="4.26259">
        <ele>199.6</ele>
        <time>2011-11-13T09:52:54Z</time>
      </trkpt>
      <trkpt lat="44.03527" lon="4.26264">
        <ele>199.7</ele>
        <time>2011-11-13T09:52:56Z</time>
      </trkpt>
      <trkpt lat="44.0352" lon="4.26268">
        <ele>199.6</ele>
        <time>2011-11-13T09:52:58Z</time>
      </trkpt>
      <trkpt lat="44.03514" lon="4.26271">
        <ele>199.3</ele>
        <time>2011-11-13T09:53:00Z</time>
      </trkpt>
      <trkpt lat="44.03508" lon="4.26275">
        <ele>199</ele>
        <time>2011-11-13T09:53:02Z</time>
      </trkpt>
      <trkpt lat="44.03501" lon="4.26279">
        <ele>198.6</ele>
        <time>2011-11-13T09:53:04Z</time>
      </trkpt>
      <trkpt lat="44.03495" lon="4.26282">
        <ele>198.5</ele>
        <time>2011-11-13T09:53:06Z</time>
      </trkpt>
      <trkpt lat="44.03488" lon="4.26287">
        <ele>198.6</ele>
        <time>2011-11-13T09:53:08Z</time>
      </trkpt>
      <trkpt lat="44.03482" lon="4.26292">
        <ele>198.4</ele>
        <time>2011-11-13T09:53:10Z</time>
      </trkpt>
      <trkpt lat="44.03476" lon="4.26297">
        <ele>198.1</ele>
        <time>2011-11-13T09:53:12Z</time>
      </trkpt>
      <trkpt lat="44.03471" lon="4.26299">
        <ele>197.9</ele>
        <time>2011-11-13T09:53:13Z</time>
      </trkpt>
      <trkpt lat="44.03464" lon="4.26305">
        <ele>198.1</ele>
        <time>2011-11-13T09:53:15Z</time>
      </trkpt>
      <trkpt lat="44.03458" lon="4.26311">
        <ele>197.7</ele>
        <time>2011-11-13T09:53:17Z</time>
      </trkpt>
      <trkpt lat="44.03452" lon="4.26315">
        <ele>197.4</ele>
        <time>2011-11-13T09:53:19Z</time>
      </trkpt>
      <trkpt lat="44.03445" lon="4.26321">
        <ele>196.9</ele>
        <time>2011-11-13T09:53:21Z</time>
      </trkpt>
      <trkpt lat="44.03438" lon="4.26327">
        <ele>196.8</ele>
        <time>2011-11-13T09:53:23Z</time>
      </trkpt>
      <trkpt lat="44.03432" lon="4.26332">
        <ele>196.5</ele>
        <time>2011-11-13T09:53:25Z</time>
      </trkpt>
      <trkpt lat="44.03425" lon="4.26338">
        <ele>196.2</ele>
        <time>2011-11-13T09:53:27Z</time>
      </trkpt>
      <trkpt lat="44.03418" lon="4.26345">
        <ele>196.2</ele>
        <time>2011-11-13T09:53:29Z</time>
      </trkpt>
      <trkpt lat="44.03413" lon="4.26352">
        <ele>196.5</ele>
        <time>2011-11-13T09:53:31Z</time>
      </trkpt>
      <trkpt lat="44.0341" lon="4.26357">
        <ele>196.9</ele>
        <time>2011-11-13T09:53:33Z</time>
      </trkpt>
      <trkpt lat="44.0341" lon="4.26364">
        <ele>197.9</ele>
        <time>2011-11-13T09:53:35Z</time>
      </trkpt>
      <trkpt lat="44.03411" lon="4.26372">
        <ele>198.6</ele>
        <time>2011-11-13T09:53:38Z</time>
      </trkpt>
      <trkpt lat="44.03412" lon="4.2638">
        <ele>199.2</ele>
        <time>2011-11-13T09:53:41Z</time>
      </trkpt>
      <trkpt lat="44.03412" lon="4.26388">
        <ele>199.7</ele>
        <time>2011-11-13T09:53:43Z</time>
      </trkpt>
      <trkpt lat="44.03415" lon="4.26395">
        <ele>200.2</ele>
        <time>2011-11-13T09:53:45Z</time>
      </trkpt>
      <trkpt lat="44.0342" lon="4.26402">
        <ele>201</ele>
        <time>2011-11-13T09:53:47Z</time>
      </trkpt>
      <trkpt lat="44.03424" lon="4.26408">
        <ele>201.4</ele>
        <time>2011-11-13T09:53:49Z</time>
      </trkpt>
      <trkpt lat="44.03428" lon="4.26412">
        <ele>201.6</ele>
        <time>2011-11-13T09:53:51Z</time>
      </trkpt>
      <trkpt lat="44.03434" lon="4.26416">
        <ele>202.2</ele>
        <time>2011-11-13T09:53:54Z</time>
      </trkpt>
      <trkpt lat="44.03439" lon="4.26418">
        <ele>202.5</ele>
        <time>2011-11-13T09:53:57Z</time>
      </trkpt>
      <trkpt lat="44.03445" lon="4.26419">
        <ele>202.7</ele>
        <time>2011-11-13T09:54:00Z</time>
      </trkpt>
      <trkpt lat="44.0345" lon="4.26421">
        <ele>202.9</ele>
        <time>2011-11-13T09:54:03Z</time>
      </trkpt>
      <trkpt lat="44.03454" lon="4.26422">
        <ele>203.6</ele>
        <time>2011-11-13T09:54:06Z</time>
      </trkpt>
      <trkpt lat="44.03459" lon="4.26426">
        <ele>203.7</ele>
        <time>2011-11-13T09:54:09Z</time>
      </trkpt>
      <trkpt lat="44.03464" lon="4.26428">
        <ele>203.7</ele>
        <time>2011-11-13T09:54:12Z</time>
      </trkpt>
      <trkpt lat="44.03468" lon="4.26431">
        <ele>203.6</ele>
        <time>2011-11-13T09:54:15Z</time>
      </trkpt>
      <trkpt lat="44.03472" lon="4.26434">
        <ele>204.3</ele>
        <time>2011-11-13T09:54:19Z</time>
      </trkpt>
      <trkpt lat="44.03477" lon="4.26437">
        <ele>204.5</ele>
        <time>2011-11-13T09:54:23Z</time>
      </trkpt>
      <trkpt lat="44.03481" lon="4.26442">
        <ele>205</ele>
        <time>2011-11-13T09:54:27Z</time>
      </trkpt>
      <trkpt lat="44.03485" lon="4.26445">
        <ele>205.8</ele>
        <time>2011-11-13T09:54:31Z</time>
      </trkpt>
      <trkpt lat="44.0349" lon="4.26448">
        <ele>206.7</ele>
        <time>2011-11-13T09:54:35Z</time>
      </trkpt>
      <trkpt lat="44.03495" lon="4.2645">
        <ele>208.2</ele>
        <time>2011-11-13T09:54:40Z</time>
      </trkpt>
      <trkpt lat="44.03499" lon="4.26453">
        <ele>208.5</ele>
        <time>2011-11-13T09:54:44Z</time>
      </trkpt>
      <trkpt lat="44.03503" lon="4.26456">
        <ele>208.9</ele>
        <time>2011-11-13T09:54:49Z</time>
      </trkpt>
      <trkpt lat="44.03508" lon="4.2646">
        <ele>209.7</ele>
        <time>2011-11-13T09:54:54Z</time>
      </trkpt>
      <trkpt lat="44.03512" lon="4.26463">
        <ele>210.2</ele>
        <time>2011-11-13T09:54:58Z</time>
      </trkpt>
      <trkpt lat="44.03517" lon="4.26467">
        <ele>210.7</ele>
        <time>2011-11-13T09:55:01Z</time>
      </trkpt>
      <trkpt lat="44.03522" lon="4.2647">
        <ele>210.9</ele>
        <time>2011-11-13T09:55:04Z</time>
      </trkpt>
      <trkpt lat="44.03528" lon="4.26474">
        <ele>211.1</ele>
        <time>2011-11-13T09:55:07Z</time>
      </trkpt>
      <trkpt lat="44.03532" lon="4.26478">
        <ele>210.8</ele>
        <time>2011-11-13T09:55:11Z</time>
      </trkpt>
      <trkpt lat="44.03538" lon="4.26482">
        <ele>211</ele>
        <time>2011-11-13T09:55:14Z</time>
      </trkpt>
      <trkpt lat="44.03544" lon="4.26485">
        <ele>211.3</ele>
        <time>2011-11-13T09:55:16Z</time>
      </trkpt>
      <trkpt lat="44.0355" lon="4.26488">
        <ele>211.4</ele>
        <time>2011-11-13T09:55:18Z</time>
      </trkpt>
      <trkpt lat="44.03556" lon="4.26491">
        <ele>211.4</ele>
        <time>2011-11-13T09:55:20Z</time>
      </trkpt>
      <trkpt lat="44.03562" lon="4.26495">
        <ele>211.7</ele>
        <time>2011-11-13T09:55:22Z</time>
      </trkpt>
      <trkpt lat="44.03569" lon="4.26499">
        <ele>212.3</ele>
        <time>2011-11-13T09:55:24Z</time>
      </trkpt>
      <trkpt lat="44.03575" lon="4.26502">
        <ele>212.6</ele>
        <time>2011-11-13T09:55:26Z</time>
      </trkpt>
      <trkpt lat="44.03582" lon="4.26505">
        <ele>213.2</ele>
        <time>2011-11-13T09:55:28Z</time>
      </trkpt>
      <trkpt lat="44.03588" lon="4.26508">
        <ele>213.9</ele>
        <time>2011-11-13T09:55:30Z</time>
      </trkpt>
      <trkpt lat="44.03594" lon="4.26512">
        <ele>214.6</ele>
        <time>2011-11-13T09:55:32Z</time>
      </trkpt>
      <trkpt lat="44.036" lon="4.26515">
        <ele>215</ele>
        <time>2011-11-13T09:55:34Z</time>
      </trkpt>
      <trkpt lat="44.03604" lon="4.26518">
        <ele>215.3</ele>
        <time>2011-11-13T09:55:36Z</time>
      </trkpt>
      <trkpt lat="44.03608" lon="4.26522">
        <ele>216.5</ele>
        <time>2011-11-13T09:55:39Z</time>
      </trkpt>
      <trkpt lat="44.03609" lon="4.26529">
        <ele>217.4</ele>
        <time>2011-11-13T09:55:43Z</time>
      </trkpt>
      <trkpt lat="44.03603" lon="4.26531">
        <ele>217.2</ele>
        <time>2011-11-13T09:55:46Z</time>
      </trkpt>
      <trkpt lat="44.03599" lon="4.26538">
        <ele>216.8</ele>
        <time>2011-11-13T09:55:49Z</time>
      </trkpt>
      <trkpt lat="44.03597" lon="4.26546">
        <ele>211.7</ele>
        <time>2011-11-13T09:56:11Z</time>
      </trkpt>
      <trkpt lat="44.036" lon="4.26541">
        <ele>213.6</ele>
        <time>2011-11-13T09:56:26Z</time>
      </trkpt>
      <trkpt lat="44.03604" lon="4.26536">
        <ele>213.5</ele>
        <time>2011-11-13T09:56:32Z</time>
      </trkpt>
      <trkpt lat="44.03605" lon="4.26529">
        <ele>213</ele>
        <time>2011-11-13T09:57:04Z</time>
      </trkpt>
      <trkpt lat="44.03601" lon="4.26524">
        <ele>213.1</ele>
        <time>2011-11-13T09:57:06Z</time>
      </trkpt>
      <trkpt lat="44.03595" lon="4.26519">
        <ele>213.1</ele>
        <time>2011-11-13T09:57:08Z</time>
      </trkpt>
      <trkpt lat="44.03588" lon="4.26514">
        <ele>213.3</ele>
        <time>2011-11-13T09:57:10Z</time>
      </trkpt>
      <trkpt lat="44.034" lon="4.26361">
        <ele>199.8</ele>
        <time>2011-11-13T09:58:01Z</time>
      </trkpt>
      <trkpt lat="44.034" lon="4.26361">
        <ele>199.8</ele>
        <time>2011-11-13T09:58:01Z</time>
      </trkpt>
      <trkpt lat="44.034" lon="4.26361">
        <ele>199.8</ele>
        <time>2011-11-13T09:59:59Z</time>
      </trkpt>
      <trkpt lat="44.034" lon="4.26368">
        <ele>194.2</ele>
        <time>2011-11-13T10:00:08Z</time>
      </trkpt>
      <trkpt lat="44.03399" lon="4.26375">
        <ele>194.4</ele>
        <time>2011-11-13T10:00:12Z</time>
      </trkpt>
      <trkpt lat="44.03396" lon="4.26381">
        <ele>195.8</ele>
        <time>2011-11-13T10:00:26Z</time>
      </trkpt>
      <trkpt lat="44.03392" lon="4.26386">
        <ele>196</ele>
        <time>2011-11-13T10:00:29Z</time>
      </trkpt>
      <trkpt lat="44.03389" lon="4.26392">
        <ele>196</ele>
        <time>2011-11-13T10:00:31Z</time>
      </trkpt>
      <trkpt lat="44.03385" lon="4.26397">
        <ele>196</ele>
        <time>2011-11-13T10:00:33Z</time>
      </trkpt>
      <trkpt lat="44.0338" lon="4.26403">
        <ele>196.2</ele>
        <time>2011-11-13T10:00:35Z</time>
      </trkpt>
      <trkpt lat="44.03374" lon="4.26409">
        <ele>196.4</ele>
        <time>2011-11-13T10:00:38Z</time>
      </trkpt>
      <trkpt lat="44.0337" lon="4.26416">
        <ele>196.5</ele>
        <time>2011-11-13T10:00:40Z</time>
      </trkpt>
      <trkpt lat="44.03365" lon="4.26424">
        <ele>197.1</ele>
        <time>2011-11-13T10:00:42Z</time>
      </trkpt>
      <trkpt lat="44.03361" lon="4.26431">
        <ele>197.4</ele>
        <time>2011-11-13T10:00:44Z</time>
      </trkpt>
      <trkpt lat="44.03357" lon="4.26436">
        <ele>197.8</ele>
        <time>2011-11-13T10:00:46Z</time>
      </trkpt>
      <trkpt lat="44.03353" lon="4.26441">
        <ele>197.7</ele>
        <time>2011-11-13T10:00:48Z</time>
      </trkpt>
      <trkpt lat="44.03348" lon="4.26447">
        <ele>198.1</ele>
        <time>2011-11-13T10:00:50Z</time>
      </trkpt>
      <trkpt lat="44.03344" lon="4.26455">
        <ele>198.7</ele>
        <time>2011-11-13T10:00:52Z</time>
      </trkpt>
      <trkpt lat="44.03339" lon="4.26463">
        <ele>199.2</ele>
        <time>2011-11-13T10:00:54Z</time>
      </trkpt>
      <trkpt lat="44.03336" lon="4.26471">
        <ele>199.5</ele>
        <time>2011-11-13T10:00:56Z</time>
      </trkpt>
      <trkpt lat="44.03332" lon="4.26478">
        <ele>199.8</ele>
        <time>2011-11-13T10:00:58Z</time>
      </trkpt>
      <trkpt lat="44.03327" lon="4.26486">
        <ele>200.2</ele>
        <time>2011-11-13T10:01:00Z</time>
      </trkpt>
      <trkpt lat="44.03322" lon="4.26494">
        <ele>200.5</ele>
        <time>2011-11-13T10:01:02Z</time>
      </trkpt>
      <trkpt lat="44.03318" lon="4.26501">
        <ele>200.8</ele>
        <time>2011-11-13T10:01:04Z</time>
      </trkpt>
      <trkpt lat="44.03315" lon="4.26506">
        <ele>201.4</ele>
        <time>2011-11-13T10:01:06Z</time>
      </trkpt>
      <trkpt lat="44.03312" lon="4.26511">
        <ele>202</ele>
        <time>2011-11-13T10:01:08Z</time>
      </trkpt>
      <trkpt lat="44.03307" lon="4.26516">
        <ele>202.4</ele>
        <time>2011-11-13T10:01:11Z</time>
      </trkpt>
      <trkpt lat="44.03303" lon="4.26521">
        <ele>202.8</ele>
        <time>2011-11-13T10:01:14Z</time>
      </trkpt>
      <trkpt lat="44.03301" lon="4.26528">
        <ele>203.3</ele>
        <time>2011-11-13T10:01:17Z</time>
      </trkpt>
      <trkpt lat="44.03298" lon="4.26534">
        <ele>204.1</ele>
        <time>2011-11-13T10:01:34Z</time>
      </trkpt>
      <trkpt lat="44.03295" lon="4.2654">
        <ele>204.8</ele>
        <time>2011-11-13T10:01:38Z</time>
      </trkpt>
      <trkpt lat="44.03293" lon="4.26546">
        <ele>205.2</ele>
        <time>2011-11-13T10:01:41Z</time>
      </trkpt>
      <trkpt lat="44.03291" lon="4.26552">
        <ele>205.5</ele>
        <time>2011-11-13T10:01:43Z</time>
      </trkpt>
      <trkpt lat="44.03289" lon="4.26558">
        <ele>206.3</ele>
        <time>2011-11-13T10:01:45Z</time>
      </trkpt>
      <trkpt lat="44.03286" lon="4.26567">
        <ele>207.3</ele>
        <time>2011-11-13T10:01:48Z</time>
      </trkpt>
      <trkpt lat="44.03285" lon="4.26575">
        <ele>207.5</ele>
        <time>2011-11-13T10:01:50Z</time>
      </trkpt>
      <trkpt lat="44.03284" lon="4.26583">
        <ele>208</ele>
        <time>2011-11-13T10:01:52Z</time>
      </trkpt>
      <trkpt lat="44.03283" lon="4.2659">
        <ele>208.4</ele>
        <time>2011-11-13T10:01:54Z</time>
      </trkpt>
      <trkpt lat="44.03282" lon="4.26597">
        <ele>208.3</ele>
        <time>2011-11-13T10:01:56Z</time>
      </trkpt>
      <trkpt lat="44.0328" lon="4.26603">
        <ele>208.4</ele>
        <time>2011-11-13T10:01:58Z</time>
      </trkpt>
      <trkpt lat="44.03279" lon="4.26612">
        <ele>208.5</ele>
        <time>2011-11-13T10:02:01Z</time>
      </trkpt>
      <trkpt lat="44.03275" lon="4.26618">
        <ele>208.6</ele>
        <time>2011-11-13T10:02:04Z</time>
      </trkpt>
      <trkpt lat="44.0327" lon="4.26626">
        <ele>208.5</ele>
        <time>2011-11-13T10:02:07Z</time>
      </trkpt>
      <trkpt lat="44.03269" lon="4.26634">
        <ele>208.3</ele>
        <time>2011-11-13T10:02:09Z</time>
      </trkpt>
      <trkpt lat="44.03268" lon="4.26644">
        <ele>208.5</ele>
        <time>2011-11-13T10:02:11Z</time>
      </trkpt>
      <trkpt lat="44.03268" lon="4.26654">
        <ele>209</ele>
        <time>2011-11-13T10:02:13Z</time>
      </trkpt>
      <trkpt lat="44.03267" lon="4.26662">
        <ele>209.4</ele>
        <time>2011-11-13T10:02:15Z</time>
      </trkpt>
      <trkpt lat="44.03268" lon="4.26672">
        <ele>209.7</ele>
        <time>2011-11-13T10:02:17Z</time>
      </trkpt>
      <trkpt lat="44.03268" lon="4.26683">
        <ele>209.8</ele>
        <time>2011-11-13T10:02:19Z</time>
      </trkpt>
      <trkpt lat="44.03268" lon="4.26694">
        <ele>210</ele>
        <time>2011-11-13T10:02:21Z</time>
      </trkpt>
      <trkpt lat="44.03268" lon="4.26705">
        <ele>210.3</ele>
        <time>2011-11-13T10:02:23Z</time>
      </trkpt>
      <trkpt lat="44.03268" lon="4.26711">
        <ele>210.2</ele>
        <time>2011-11-13T10:02:24Z</time>
      </trkpt>
      <trkpt lat="44.03268" lon="4.26718">
        <ele>210.1</ele>
        <time>2011-11-13T10:02:25Z</time>
      </trkpt>
      <trkpt lat="44.03267" lon="4.26725">
        <ele>210.1</ele>
        <time>2011-11-13T10:02:26Z</time>
      </trkpt>
      <trkpt lat="44.03267" lon="4.26733">
        <ele>209.7</ele>
        <time>2011-11-13T10:02:27Z</time>
      </trkpt>
      <trkpt lat="44.03268" lon="4.26741">
        <ele>208.6</ele>
        <time>2011-11-13T10:02:28Z</time>
      </trkpt>
      <trkpt lat="44.03264" lon="4.26751">
        <ele>207.7</ele>
        <time>2011-11-13T10:02:30Z</time>
      </trkpt>
      <trkpt lat="44.03258" lon="4.26756">
        <ele>207.6</ele>
        <time>2011-11-13T10:02:32Z</time>
      </trkpt>
      <trkpt lat="44.03252" lon="4.26756">
        <ele>207.5</ele>
        <time>2011-11-13T10:02:33Z</time>
      </trkpt>
      <trkpt lat="44.03247" lon="4.26754">
        <ele>207.6</ele>
        <time>2011-11-13T10:02:34Z</time>
      </trkpt>
      <trkpt lat="44.03241" lon="4.26753">
        <ele>207.6</ele>
        <time>2011-11-13T10:02:35Z</time>
      </trkpt>
      <trkpt lat="44.03232" lon="4.26752">
        <ele>207.8</ele>
        <time>2011-11-13T10:02:37Z</time>
      </trkpt>
      <trkpt lat="44.03223" lon="4.2675">
        <ele>207.6</ele>
        <time>2011-11-13T10:02:39Z</time>
      </trkpt>
      <trkpt lat="44.03216" lon="4.26748">
        <ele>207.4</ele>
        <time>2011-11-13T10:02:41Z</time>
      </trkpt>
      <trkpt lat="44.03208" lon="4.26744">
        <ele>206.9</ele>
        <time>2011-11-13T10:02:43Z</time>
      </trkpt>
      <trkpt lat="44.03203" lon="4.26743">
        <ele>206.5</ele>
        <time>2011-11-13T10:02:44Z</time>
      </trkpt>
      <trkpt lat="44.03195" lon="4.26739">
        <ele>206.5</ele>
        <time>2011-11-13T10:02:46Z</time>
      </trkpt>
      <trkpt lat="44.03187" lon="4.26736">
        <ele>206.4</ele>
        <time>2011-11-13T10:02:48Z</time>
      </trkpt>
      <trkpt lat="44.0318" lon="4.26733">
        <ele>206.4</ele>
        <time>2011-11-13T10:02:50Z</time>
      </trkpt>
      <trkpt lat="44.03171" lon="4.2673">
        <ele>205.9</ele>
        <time>2011-11-13T10:02:52Z</time>
      </trkpt>
      <trkpt lat="44.03167" lon="4.26729">
        <ele>205.8</ele>
        <time>2011-11-13T10:02:53Z</time>
      </trkpt>
      <trkpt lat="44.03158" lon="4.26726">
        <ele>206</ele>
        <time>2011-11-13T10:02:55Z</time>
      </trkpt>
      <trkpt lat="44.0315" lon="4.26724">
        <ele>206</ele>
        <time>2011-11-13T10:02:57Z</time>
      </trkpt>
      <trkpt lat="44.03142" lon="4.26722">
        <ele>206.3</ele>
        <time>2011-11-13T10:02:59Z</time>
      </trkpt>
      <trkpt lat="44.03134" lon="4.2672">
        <ele>206.2</ele>
        <time>2011-11-13T10:03:01Z</time>
      </trkpt>
      <trkpt lat="44.03126" lon="4.26719">
        <ele>206.3</ele>
        <time>2011-11-13T10:03:03Z</time>
      </trkpt>
      <trkpt lat="44.03121" lon="4.26718">
        <ele>206.5</ele>
        <time>2011-11-13T10:03:04Z</time>
      </trkpt>
      <trkpt lat="44.03115" lon="4.26717">
        <ele>206.8</ele>
        <time>2011-11-13T10:03:05Z</time>
      </trkpt>
      <trkpt lat="44.0311" lon="4.26716">
        <ele>206.9</ele>
        <time>2011-11-13T10:03:06Z</time>
      </trkpt>
      <trkpt lat="44.03105" lon="4.26716">
        <ele>207.2</ele>
        <time>2011-11-13T10:03:07Z</time>
      </trkpt>
      <trkpt lat="44.03098" lon="4.26714">
        <ele>207.8</ele>
        <time>2011-11-13T10:03:09Z</time>
      </trkpt>
      <trkpt lat="44.03091" lon="4.26712">
        <ele>208</ele>
        <time>2011-11-13T10:03:11Z</time>
      </trkpt>
      <trkpt lat="44.03084" lon="4.26712">
        <ele>207.8</ele>
        <time>2011-11-13T10:03:13Z</time>
      </trkpt>
      <trkpt lat="44.0308" lon="4.2671">
        <ele>207.7</ele>
        <time>2011-11-13T10:03:15Z</time>
      </trkpt>
      <trkpt lat="44.03074" lon="4.26709">
        <ele>207.5</ele>
        <time>2011-11-13T10:03:17Z</time>
      </trkpt>
      <trkpt lat="44.03068" lon="4.26707">
        <ele>207</ele>
        <time>2011-11-13T10:03:19Z</time>
      </trkpt>
      <trkpt lat="44.03063" lon="4.26704">
        <ele>206.6</ele>
        <time>2011-11-13T10:03:21Z</time>
      </trkpt>
      <trkpt lat="44.03058" lon="4.26701">
        <ele>206.9</ele>
        <time>2011-11-13T10:03:23Z</time>
      </trkpt>
      <trkpt lat="44.03052" lon="4.26698">
        <ele>207.3</ele>
        <time>2011-11-13T10:03:25Z</time>
      </trkpt>
      <trkpt lat="44.03043" lon="4.26694">
        <ele>207.6</ele>
        <time>2011-11-13T10:03:27Z</time>
      </trkpt>
      <trkpt lat="44.03037" lon="4.26692">
        <ele>208</ele>
        <time>2011-11-13T10:03:28Z</time>
      </trkpt>
      <trkpt lat="44.0303" lon="4.26689">
        <ele>208.2</ele>
        <time>2011-11-13T10:03:29Z</time>
      </trkpt>
      <trkpt lat="44.03024" lon="4.26687">
        <ele>208.4</ele>
        <time>2011-11-13T10:03:30Z</time>
      </trkpt>
      <trkpt lat="44.03018" lon="4.26685">
        <ele>208.4</ele>
        <time>2011-11-13T10:03:31Z</time>
      </trkpt>
      <trkpt lat="44.03011" lon="4.26683">
        <ele>208.4</ele>
        <time>2011-11-13T10:03:32Z</time>
      </trkpt>
      <trkpt lat="44.03005" lon="4.2668">
        <ele>208.4</ele>
        <time>2011-11-13T10:03:33Z</time>
      </trkpt>
      <trkpt lat="44.02999" lon="4.26678">
        <ele>208.4</ele>
        <time>2011-11-13T10:03:34Z</time>
      </trkpt>
      <trkpt lat="44.02992" lon="4.26676">
        <ele>208.7</ele>
        <time>2011-11-13T10:03:35Z</time>
      </trkpt>
      <trkpt lat="44.02986" lon="4.26674">
        <ele>208.9</ele>
        <time>2011-11-13T10:03:36Z</time>
      </trkpt>
      <trkpt lat="44.0298" lon="4.26672">
        <ele>209.1</ele>
        <time>2011-11-13T10:03:37Z</time>
      </trkpt>
      <trkpt lat="44.02974" lon="4.2667">
        <ele>209.2</ele>
        <time>2011-11-13T10:03:38Z</time>
      </trkpt>
      <trkpt lat="44.02968" lon="4.26668">
        <ele>209.1</ele>
        <time>2011-11-13T10:03:39Z</time>
      </trkpt>
      <trkpt lat="44.02961" lon="4.26666">
        <ele>209.2</ele>
        <time>2011-11-13T10:03:40Z</time>
      </trkpt>
      <trkpt lat="44.02954" lon="4.26664">
        <ele>209.3</ele>
        <time>2011-11-13T10:03:41Z</time>
      </trkpt>
      <trkpt lat="44.02948" lon="4.26663">
        <ele>209.5</ele>
        <time>2011-11-13T10:03:42Z</time>
      </trkpt>
      <trkpt lat="44.02941" lon="4.26661">
        <ele>209.6</ele>
        <time>2011-11-13T10:03:43Z</time>
      </trkpt>
      <trkpt lat="44.02934" lon="4.26659">
        <ele>209.8</ele>
        <time>2011-11-13T10:03:44Z</time>
      </trkpt>
      <trkpt lat="44.02928" lon="4.26656">
        <ele>209.9</ele>
        <time>2011-11-13T10:03:45Z</time>
      </trkpt>
      <trkpt lat="44.02921" lon="4.26654">
        <ele>210.1</ele>
        <time>2011-11-13T10:03:46Z</time>
      </trkpt>
      <trkpt lat="44.02915" lon="4.26652">
        <ele>210.1</ele>
        <time>2011-11-13T10:03:47Z</time>
      </trkpt>
      <trkpt lat="44.02908" lon="4.2665">
        <ele>210.1</ele>
        <time>2011-11-13T10:03:48Z</time>
      </trkpt>
      <trkpt lat="44.02902" lon="4.26647">
        <ele>210</ele>
        <time>2011-11-13T10:03:49Z</time>
      </trkpt>
      <trkpt lat="44.02896" lon="4.26645">
        <ele>209.8</ele>
        <time>2011-11-13T10:03:50Z</time>
      </trkpt>
      <trkpt lat="44.02889" lon="4.26643">
        <ele>209.5</ele>
        <time>2011-11-13T10:03:51Z</time>
      </trkpt>
      <trkpt lat="44.02883" lon="4.26641">
        <ele>209.3</ele>
        <time>2011-11-13T10:03:52Z</time>
      </trkpt>
      <trkpt lat="44.02876" lon="4.26638">
        <ele>209.1</ele>
        <time>2011-11-13T10:03:53Z</time>
      </trkpt>
      <trkpt lat="44.0287" lon="4.26636">
        <ele>209.1</ele>
        <time>2011-11-13T10:03:54Z</time>
      </trkpt>
      <trkpt lat="44.02864" lon="4.26634">
        <ele>208.8</ele>
        <time>2011-11-13T10:03:55Z</time>
      </trkpt>
      <trkpt lat="44.02859" lon="4.26632">
        <ele>208.7</ele>
        <time>2011-11-13T10:03:56Z</time>
      </trkpt>
      <trkpt lat="44.02852" lon="4.2663">
        <ele>208.6</ele>
        <time>2011-11-13T10:03:57Z</time>
      </trkpt>
      <trkpt lat="44.02846" lon="4.26628">
        <ele>208.5</ele>
        <time>2011-11-13T10:03:58Z</time>
      </trkpt>
      <trkpt lat="44.02841" lon="4.26626">
        <ele>208.4</ele>
        <time>2011-11-13T10:03:59Z</time>
      </trkpt>
      <trkpt lat="44.02835" lon="4.26624">
        <ele>208.3</ele>
        <time>2011-11-13T10:04:00Z</time>
      </trkpt>
      <trkpt lat="44.0283" lon="4.26622">
        <ele>208</ele>
        <time>2011-11-13T10:04:01Z</time>
      </trkpt>
      <trkpt lat="44.02825" lon="4.2662">
        <ele>207.7</ele>
        <time>2011-11-13T10:04:02Z</time>
      </trkpt>
      <trkpt lat="44.0282" lon="4.26618">
        <ele>207.5</ele>
        <time>2011-11-13T10:04:03Z</time>
      </trkpt>
      <trkpt lat="44.02814" lon="4.26616">
        <ele>207.1</ele>
        <time>2011-11-13T10:04:04Z</time>
      </trkpt>
      <trkpt lat="44.02809" lon="4.26614">
        <ele>206.7</ele>
        <time>2011-11-13T10:04:05Z</time>
      </trkpt>
      <trkpt lat="44.02804" lon="4.26612">
        <ele>206.3</ele>
        <time>2011-11-13T10:04:06Z</time>
      </trkpt>
      <trkpt lat="44.02798" lon="4.2661">
        <ele>205.9</ele>
        <time>2011-11-13T10:04:07Z</time>
      </trkpt>
      <trkpt lat="44.02793" lon="4.26608">
        <ele>205.6</ele>
        <time>2011-11-13T10:04:08Z</time>
      </trkpt>
      <trkpt lat="44.02788" lon="4.26606">
        <ele>205.4</ele>
        <time>2011-11-13T10:04:09Z</time>
      </trkpt>
      <trkpt lat="44.02783" lon="4.26604">
        <ele>205.3</ele>
        <time>2011-11-13T10:04:10Z</time>
      </trkpt>
      <trkpt lat="44.02778" lon="4.26602">
        <ele>205.3</ele>
        <time>2011-11-13T10:04:11Z</time>
      </trkpt>
      <trkpt lat="44.02773" lon="4.26601">
        <ele>205.2</ele>
        <time>2011-11-13T10:04:12Z</time>
      </trkpt>
      <trkpt lat="44.02768" lon="4.26599">
        <ele>205.1</ele>
        <time>2011-11-13T10:04:13Z</time>
      </trkpt>
      <trkpt lat="44.02763" lon="4.26598">
        <ele>205.2</ele>
        <time>2011-11-13T10:04:14Z</time>
      </trkpt>
      <trkpt lat="44.02757" lon="4.26596">
        <ele>205</ele>
        <time>2011-11-13T10:04:15Z</time>
      </trkpt>
      <trkpt lat="44.02751" lon="4.26594">
        <ele>204.9</ele>
        <time>2011-11-13T10:04:16Z</time>
      </trkpt>
      <trkpt lat="44.02746" lon="4.26592">
        <ele>204.8</ele>
        <time>2011-11-13T10:04:17Z</time>
      </trkpt>
      <trkpt lat="44.0274" lon="4.2659">
        <ele>204.8</ele>
        <time>2011-11-13T10:04:18Z</time>
      </trkpt>
      <trkpt lat="44.02734" lon="4.26588">
        <ele>204.6</ele>
        <time>2011-11-13T10:04:19Z</time>
      </trkpt>
      <trkpt lat="44.02728" lon="4.26586">
        <ele>204.4</ele>
        <time>2011-11-13T10:04:20Z</time>
      </trkpt>
      <trkpt lat="44.02722" lon="4.26585">
        <ele>204.1</ele>
        <time>2011-11-13T10:04:21Z</time>
      </trkpt>
      <trkpt lat="44.02716" lon="4.26583">
        <ele>203.7</ele>
        <time>2011-11-13T10:04:22Z</time>
      </trkpt>
      <trkpt lat="44.0271" lon="4.26581">
        <ele>203.4</ele>
        <time>2011-11-13T10:04:23Z</time>
      </trkpt>
      <trkpt lat="44.02703" lon="4.26578">
        <ele>203.1</ele>
        <time>2011-11-13T10:04:24Z</time>
      </trkpt>
      <trkpt lat="44.02697" lon="4.26576">
        <ele>202.5</ele>
        <time>2011-11-13T10:04:25Z</time>
      </trkpt>
      <trkpt lat="44.0269" lon="4.26573">
        <ele>202.1</ele>
        <time>2011-11-13T10:04:26Z</time>
      </trkpt>
      <trkpt lat="44.02684" lon="4.2657">
        <ele>201.7</ele>
        <time>2011-11-13T10:04:27Z</time>
      </trkpt>
      <trkpt lat="44.02677" lon="4.26568">
        <ele>201.3</ele>
        <time>2011-11-13T10:04:28Z</time>
      </trkpt>
      <trkpt lat="44.0267" lon="4.26566">
        <ele>200.9</ele>
        <time>2011-11-13T10:04:29Z</time>
      </trkpt>
      <trkpt lat="44.02663" lon="4.26564">
        <ele>200.7</ele>
        <time>2011-11-13T10:04:30Z</time>
      </trkpt>
      <trkpt lat="44.02656" lon="4.26562">
        <ele>200.6</ele>
        <time>2011-11-13T10:04:31Z</time>
      </trkpt>
      <trkpt lat="44.02649" lon="4.26559">
        <ele>200.2</ele>
        <time>2011-11-13T10:04:32Z</time>
      </trkpt>
      <trkpt lat="44.02642" lon="4.26556">
        <ele>199.4</ele>
        <time>2011-11-13T10:04:33Z</time>
      </trkpt>
      <trkpt lat="44.02635" lon="4.26554">
        <ele>198.7</ele>
        <time>2011-11-13T10:04:34Z</time>
      </trkpt>
      <trkpt lat="44.02628" lon="4.26552">
        <ele>198.4</ele>
        <time>2011-11-13T10:04:35Z</time>
      </trkpt>
      <trkpt lat="44.02622" lon="4.26549">
        <ele>197.8</ele>
        <time>2011-11-13T10:04:36Z</time>
      </trkpt>
      <trkpt lat="44.02615" lon="4.26546">
        <ele>197.4</ele>
        <time>2011-11-13T10:04:37Z</time>
      </trkpt>
      <trkpt lat="44.02608" lon="4.26543">
        <ele>197.1</ele>
        <time>2011-11-13T10:04:38Z</time>
      </trkpt>
      <trkpt lat="44.02602" lon="4.2654">
        <ele>196.9</ele>
        <time>2011-11-13T10:04:39Z</time>
      </trkpt>
      <trkpt lat="44.02595" lon="4.26537">
        <ele>196.6</ele>
        <time>2011-11-13T10:04:40Z</time>
      </trkpt>
      <trkpt lat="44.02589" lon="4.26533">
        <ele>196.9</ele>
        <time>2011-11-13T10:04:41Z</time>
      </trkpt>
      <trkpt lat="44.02584" lon="4.26527">
        <ele>197.1</ele>
        <time>2011-11-13T10:04:42Z</time>
      </trkpt>
      <trkpt lat="44.0258" lon="4.2652">
        <ele>197</ele>
        <time>2011-11-13T10:04:43Z</time>
      </trkpt>
      <trkpt lat="44.02576" lon="4.26512">
        <ele>196.8</ele>
        <time>2011-11-13T10:04:44Z</time>
      </trkpt>
      <trkpt lat="44.02572" lon="4.26504">
        <ele>196.4</ele>
        <time>2011-11-13T10:04:45Z</time>
      </trkpt>
      <trkpt lat="44.02569" lon="4.26498">
        <ele>196.1</ele>
        <time>2011-11-13T10:04:46Z</time>
      </trkpt>
      <trkpt lat="44.02565" lon="4.26491">
        <ele>195.8</ele>
        <time>2011-11-13T10:04:47Z</time>
      </trkpt>
      <trkpt lat="44.02561" lon="4.26484">
        <ele>195.5</ele>
        <time>2011-11-13T10:04:48Z</time>
      </trkpt>
      <trkpt lat="44.02558" lon="4.26478">
        <ele>195.2</ele>
        <time>2011-11-13T10:04:49Z</time>
      </trkpt>
      <trkpt lat="44.02555" lon="4.26471">
        <ele>194.9</ele>
        <time>2011-11-13T10:04:50Z</time>
      </trkpt>
      <trkpt lat="44.02552" lon="4.26465">
        <ele>194.6</ele>
        <time>2011-11-13T10:04:51Z</time>
      </trkpt>
      <trkpt lat="44.02549" lon="4.2646">
        <ele>194.4</ele>
        <time>2011-11-13T10:04:52Z</time>
      </trkpt>
      <trkpt lat="44.02546" lon="4.26455">
        <ele>194.2</ele>
        <time>2011-11-13T10:04:53Z</time>
      </trkpt>
      <trkpt lat="44.02543" lon="4.26449">
        <ele>194</ele>
        <time>2011-11-13T10:04:54Z</time>
      </trkpt>
      <trkpt lat="44.0254" lon="4.26443">
        <ele>193.9</ele>
        <time>2011-11-13T10:04:55Z</time>
      </trkpt>
      <trkpt lat="44.02537" lon="4.26437">
        <ele>193.6</ele>
        <time>2011-11-13T10:04:56Z</time>
      </trkpt>
      <trkpt lat="44.02534" lon="4.26432">
        <ele>193.3</ele>
        <time>2011-11-13T10:04:57Z</time>
      </trkpt>
      <trkpt lat="44.02532" lon="4.26426">
        <ele>193.2</ele>
        <time>2011-11-13T10:04:58Z</time>
      </trkpt>
      <trkpt lat="44.02529" lon="4.26421">
        <ele>193.2</ele>
        <time>2011-11-13T10:04:59Z</time>
      </trkpt>
      <trkpt lat="44.02526" lon="4.26415">
        <ele>193.1</ele>
        <time>2011-11-13T10:05:00Z</time>
      </trkpt>
      <trkpt lat="44.02523" lon="4.2641">
        <ele>193</ele>
        <time>2011-11-13T10:05:01Z</time>
      </trkpt>
      <trkpt lat="44.0252" lon="4.26405">
        <ele>193</ele>
        <time>2011-11-13T10:05:02Z</time>
      </trkpt>
      <trkpt lat="44.02518" lon="4.264">
        <ele>192.9</ele>
        <time>2011-11-13T10:05:03Z</time>
      </trkpt>
      <trkpt lat="44.02515" lon="4.26395">
        <ele>192.9</ele>
        <time>2011-11-13T10:05:04Z</time>
      </trkpt>
      <trkpt lat="44.02512" lon="4.2639">
        <ele>192.8</ele>
        <time>2011-11-13T10:05:05Z</time>
      </trkpt>
      <trkpt lat="44.02509" lon="4.26385">
        <ele>192.7</ele>
        <time>2011-11-13T10:05:06Z</time>
      </trkpt>
      <trkpt lat="44.02506" lon="4.2638">
        <ele>192.5</ele>
        <time>2011-11-13T10:05:07Z</time>
      </trkpt>
      <trkpt lat="44.02503" lon="4.26376">
        <ele>192.5</ele>
        <time>2011-11-13T10:05:08Z</time>
      </trkpt>
      <trkpt lat="44.02496" lon="4.26368">
        <ele>192.3</ele>
        <time>2011-11-13T10:05:10Z</time>
      </trkpt>
      <trkpt lat="44.02492" lon="4.26364">
        <ele>192.8</ele>
        <time>2011-11-13T10:05:50Z</time>
      </trkpt>
      <trkpt lat="44.02489" lon="4.26359">
        <ele>192.4</ele>
        <time>2011-11-13T10:05:52Z</time>
      </trkpt>
      <trkpt lat="44.02483" lon="4.26355">
        <ele>192.1</ele>
        <time>2011-11-13T10:05:54Z</time>
      </trkpt>
      <trkpt lat="44.02475" lon="4.26349">
        <ele>191.6</ele>
        <time>2011-11-13T10:05:56Z</time>
      </trkpt>
      <trkpt lat="44.02471" lon="4.26346">
        <ele>191.6</ele>
        <time>2011-11-13T10:05:57Z</time>
      </trkpt>
      <trkpt lat="44.02466" lon="4.26342">
        <ele>191.5</ele>
        <time>2011-11-13T10:05:58Z</time>
      </trkpt>
      <trkpt lat="44.02462" lon="4.26339">
        <ele>191.3</ele>
        <time>2011-11-13T10:05:59Z</time>
      </trkpt>
      <trkpt lat="44.02458" lon="4.26335">
        <ele>191.2</ele>
        <time>2011-11-13T10:06:00Z</time>
      </trkpt>
      <trkpt lat="44.02453" lon="4.26331">
        <ele>191.1</ele>
        <time>2011-11-13T10:06:01Z</time>
      </trkpt>
      <trkpt lat="44.02448" lon="4.26328">
        <ele>191</ele>
        <time>2011-11-13T10:06:02Z</time>
      </trkpt>
      <trkpt lat="44.02443" lon="4.26325">
        <ele>190.8</ele>
        <time>2011-11-13T10:06:03Z</time>
      </trkpt>
      <trkpt lat="44.02439" lon="4.26323">
        <ele>190.7</ele>
        <time>2011-11-13T10:06:04Z</time>
      </trkpt>
      <trkpt lat="44.02434" lon="4.26321">
        <ele>190.5</ele>
        <time>2011-11-13T10:06:05Z</time>
      </trkpt>
      <trkpt lat="44.02429" lon="4.2632">
        <ele>190.4</ele>
        <time>2011-11-13T10:06:06Z</time>
      </trkpt>
      <trkpt lat="44.02424" lon="4.2632">
        <ele>190.3</ele>
        <time>2011-11-13T10:06:07Z</time>
      </trkpt>
      <trkpt lat="44.02419" lon="4.26322">
        <ele>190</ele>
        <time>2011-11-13T10:06:08Z</time>
      </trkpt>
      <trkpt lat="44.02414" lon="4.26324">
        <ele>190</ele>
        <time>2011-11-13T10:06:09Z</time>
      </trkpt>
      <trkpt lat="44.02409" lon="4.26326">
        <ele>190</ele>
        <time>2011-11-13T10:06:10Z</time>
      </trkpt>
      <trkpt lat="44.02404" lon="4.26328">
        <ele>189.9</ele>
        <time>2011-11-13T10:06:11Z</time>
      </trkpt>
      <trkpt lat="44.02399" lon="4.2633">
        <ele>189.9</ele>
        <time>2011-11-13T10:06:12Z</time>
      </trkpt>
      <trkpt lat="44.02395" lon="4.26331">
        <ele>189.8</ele>
        <time>2011-11-13T10:06:13Z</time>
      </trkpt>
      <trkpt lat="44.0239" lon="4.26332">
        <ele>189.8</ele>
        <time>2011-11-13T10:06:14Z</time>
      </trkpt>
      <trkpt lat="44.02386" lon="4.26332">
        <ele>189.8</ele>
        <time>2011-11-13T10:06:15Z</time>
      </trkpt>
      <trkpt lat="44.02377" lon="4.2633">
        <ele>190.3</ele>
        <time>2011-11-13T10:06:17Z</time>
      </trkpt>
      <trkpt lat="44.02368" lon="4.26328">
        <ele>190.8</ele>
        <time>2011-11-13T10:06:19Z</time>
      </trkpt>
      <trkpt lat="44.02359" lon="4.26326">
        <ele>191.4</ele>
        <time>2011-11-13T10:06:21Z</time>
      </trkpt>
      <trkpt lat="44.02351" lon="4.26327">
        <ele>192</ele>
        <time>2011-11-13T10:06:23Z</time>
      </trkpt>
      <trkpt lat="44.02343" lon="4.2633">
        <ele>192.3</ele>
        <time>2011-11-13T10:06:25Z</time>
      </trkpt>
      <trkpt lat="44.02337" lon="4.26335">
        <ele>192.8</ele>
        <time>2011-11-13T10:06:27Z</time>
      </trkpt>
      <trkpt lat="44.02332" lon="4.26339">
        <ele>193.1</ele>
        <time>2011-11-13T10:06:29Z</time>
      </trkpt>
      <trkpt lat="44.02326" lon="4.26345">
        <ele>193.7</ele>
        <time>2011-11-13T10:06:31Z</time>
      </trkpt>
      <trkpt lat="44.0232" lon="4.26349">
        <ele>193.9</ele>
        <time>2011-11-13T10:06:33Z</time>
      </trkpt>
      <trkpt lat="44.02315" lon="4.26353">
        <ele>194</ele>
        <time>2011-11-13T10:06:35Z</time>
      </trkpt>
      <trkpt lat="44.0231" lon="4.26358">
        <ele>194.2</ele>
        <time>2011-11-13T10:06:37Z</time>
      </trkpt>
      <trkpt lat="44.02306" lon="4.26364">
        <ele>193.9</ele>
        <time>2011-11-13T10:06:39Z</time>
      </trkpt>
      <trkpt lat="44.02301" lon="4.2637">
        <ele>193.7</ele>
        <time>2011-11-13T10:06:41Z</time>
      </trkpt>
      <trkpt lat="44.02296" lon="4.26378">
        <ele>193.9</ele>
        <time>2011-11-13T10:06:43Z</time>
      </trkpt>
      <trkpt lat="44.02291" lon="4.26386">
        <ele>194.1</ele>
        <time>2011-11-13T10:06:45Z</time>
      </trkpt>
      <trkpt lat="44.02285" lon="4.26394">
        <ele>194.4</ele>
        <time>2011-11-13T10:06:47Z</time>
      </trkpt>
      <trkpt lat="44.0228" lon="4.26403">
        <ele>194.3</ele>
        <time>2011-11-13T10:06:49Z</time>
      </trkpt>
      <trkpt lat="44.02274" lon="4.26412">
        <ele>194.1</ele>
        <time>2011-11-13T10:06:51Z</time>
      </trkpt>
      <trkpt lat="44.02269" lon="4.26422">
        <ele>193.9</ele>
        <time>2011-11-13T10:06:53Z</time>
      </trkpt>
      <trkpt lat="44.02264" lon="4.26431">
        <ele>193.7</ele>
        <time>2011-11-13T10:06:55Z</time>
      </trkpt>
      <trkpt lat="44.02259" lon="4.26441">
        <ele>193.4</ele>
        <time>2011-11-13T10:06:57Z</time>
      </trkpt>
      <trkpt lat="44.02254" lon="4.26451">
        <ele>193.3</ele>
        <time>2011-11-13T10:06:59Z</time>
      </trkpt>
      <trkpt lat="44.0225" lon="4.2646">
        <ele>193.2</ele>
        <time>2011-11-13T10:07:01Z</time>
      </trkpt>
      <trkpt lat="44.02245" lon="4.2647">
        <ele>193</ele>
        <time>2011-11-13T10:07:03Z</time>
      </trkpt>
      <trkpt lat="44.02241" lon="4.26479">
        <ele>192.7</ele>
        <time>2011-11-13T10:07:05Z</time>
      </trkpt>
      <trkpt lat="44.02236" lon="4.26488">
        <ele>192.5</ele>
        <time>2011-11-13T10:07:07Z</time>
      </trkpt>
      <trkpt lat="44.02231" lon="4.26496">
        <ele>192.4</ele>
        <time>2011-11-13T10:07:09Z</time>
      </trkpt>
      <trkpt lat="44.02226" lon="4.26505">
        <ele>192.2</ele>
        <time>2011-11-13T10:07:11Z</time>
      </trkpt>
      <trkpt lat="44.02222" lon="4.26513">
        <ele>192</ele>
        <time>2011-11-13T10:07:13Z</time>
      </trkpt>
      <trkpt lat="44.02217" lon="4.26521">
        <ele>192</ele>
        <time>2011-11-13T10:07:15Z</time>
      </trkpt>
      <trkpt lat="44.02211" lon="4.26528">
        <ele>191.9</ele>
        <time>2011-11-13T10:07:17Z</time>
      </trkpt>
      <trkpt lat="44.02206" lon="4.26536">
        <ele>191.5</ele>
        <time>2011-11-13T10:07:19Z</time>
      </trkpt>
      <trkpt lat="44.02201" lon="4.26543">
        <ele>191.5</ele>
        <time>2011-11-13T10:07:21Z</time>
      </trkpt>
      <trkpt lat="44.02196" lon="4.26551">
        <ele>191.1</ele>
        <time>2011-11-13T10:07:23Z</time>
      </trkpt>
      <trkpt lat="44.0219" lon="4.26559">
        <ele>190.8</ele>
        <time>2011-11-13T10:07:25Z</time>
      </trkpt>
      <trkpt lat="44.02185" lon="4.26566">
        <ele>190.9</ele>
        <time>2011-11-13T10:07:27Z</time>
      </trkpt>
      <trkpt lat="44.02179" lon="4.26574">
        <ele>190.9</ele>
        <time>2011-11-13T10:07:29Z</time>
      </trkpt>
      <trkpt lat="44.02174" lon="4.26582">
        <ele>190.9</ele>
        <time>2011-11-13T10:07:31Z</time>
      </trkpt>
      <trkpt lat="44.02169" lon="4.2659">
        <ele>190.6</ele>
        <time>2011-11-13T10:07:33Z</time>
      </trkpt>
      <trkpt lat="44.02164" lon="4.26597">
        <ele>190.7</ele>
        <time>2011-11-13T10:07:35Z</time>
      </trkpt>
      <trkpt lat="44.02159" lon="4.26604">
        <ele>190.9</ele>
        <time>2011-11-13T10:07:37Z</time>
      </trkpt>
      <trkpt lat="44.02154" lon="4.26611">
        <ele>191</ele>
        <time>2011-11-13T10:07:39Z</time>
      </trkpt>
      <trkpt lat="44.02149" lon="4.26618">
        <ele>191.6</ele>
        <time>2011-11-13T10:07:41Z</time>
      </trkpt>
      <trkpt lat="44.02144" lon="4.26626">
        <ele>191.9</ele>
        <time>2011-11-13T10:07:43Z</time>
      </trkpt>
      <trkpt lat="44.02139" lon="4.26634">
        <ele>191.8</ele>
        <time>2011-11-13T10:07:45Z</time>
      </trkpt>
      <trkpt lat="44.02135" lon="4.26641">
        <ele>191.6</ele>
        <time>2011-11-13T10:07:47Z</time>
      </trkpt>
      <trkpt lat="44.0213" lon="4.26649">
        <ele>191.5</ele>
        <time>2011-11-13T10:07:49Z</time>
      </trkpt>
      <trkpt lat="44.02124" lon="4.26656">
        <ele>191.4</ele>
        <time>2011-11-13T10:07:51Z</time>
      </trkpt>
      <trkpt lat="44.02117" lon="4.26664">
        <ele>191.2</ele>
        <time>2011-11-13T10:07:53Z</time>
      </trkpt>
      <trkpt lat="44.02111" lon="4.26673">
        <ele>191.3</ele>
        <time>2011-11-13T10:07:55Z</time>
      </trkpt>
      <trkpt lat="44.02104" lon="4.26679">
        <ele>191.2</ele>
        <time>2011-11-13T10:07:57Z</time>
      </trkpt>
      <trkpt lat="44.02096" lon="4.26682">
        <ele>191.4</ele>
        <time>2011-11-13T10:07:59Z</time>
      </trkpt>
      <trkpt lat="44.02087" lon="4.26683">
        <ele>191.3</ele>
        <time>2011-11-13T10:08:01Z</time>
      </trkpt>
      <trkpt lat="44.02078" lon="4.26685">
        <ele>191.4</ele>
        <time>2011-11-13T10:08:03Z</time>
      </trkpt>
      <trkpt lat="44.02074" lon="4.26686">
        <ele>191.3</ele>
        <time>2011-11-13T10:08:04Z</time>
      </trkpt>
      <trkpt lat="44.02065" lon="4.2669">
        <ele>191.3</ele>
        <time>2011-11-13T10:08:06Z</time>
      </trkpt>
      <trkpt lat="44.02058" lon="4.26697">
        <ele>191.3</ele>
        <time>2011-11-13T10:08:08Z</time>
      </trkpt>
      <trkpt lat="44.02051" lon="4.26705">
        <ele>191.5</ele>
        <time>2011-11-13T10:08:10Z</time>
      </trkpt>
      <trkpt lat="44.01929" lon="4.26901">
        <ele>193.1</ele>
        <time>2011-11-13T10:08:50Z</time>
      </trkpt>
      <trkpt lat="44.0192" lon="4.26915">
        <ele>188.6</ele>
        <time>2011-11-13T10:08:53Z</time>
      </trkpt>
      <trkpt lat="44.01915" lon="4.26925">
        <ele>187.1</ele>
        <time>2011-11-13T10:08:55Z</time>
      </trkpt>
      <trkpt lat="44.0191" lon="4.26933">
        <ele>187.8</ele>
        <time>2011-11-13T10:08:57Z</time>
      </trkpt>
      <trkpt lat="44.01904" lon="4.2694">
        <ele>189.3</ele>
        <time>2011-11-13T10:08:59Z</time>
      </trkpt>
      <trkpt lat="44.01899" lon="4.2695">
        <ele>188.8</ele>
        <time>2011-11-13T10:09:01Z</time>
      </trkpt>
      <trkpt lat="44.01895" lon="4.26959">
        <ele>188.6</ele>
        <time>2011-11-13T10:09:03Z</time>
      </trkpt>
      <trkpt lat="44.0189" lon="4.26968">
        <ele>189.1</ele>
        <time>2011-11-13T10:09:05Z</time>
      </trkpt>
      <trkpt lat="44.01885" lon="4.26977">
        <ele>189.6</ele>
        <time>2011-11-13T10:09:07Z</time>
      </trkpt>
      <trkpt lat="44.01881" lon="4.26986">
        <ele>189.9</ele>
        <time>2011-11-13T10:09:09Z</time>
      </trkpt>
      <trkpt lat="44.01871" lon="4.27022">
        <ele>227.5</ele>
        <time>2011-11-13T10:09:18Z</time>
      </trkpt>
      <trkpt lat="44.01863" lon="4.27023">
        <ele>216.5</ele>
        <time>2011-11-13T10:09:19Z</time>
      </trkpt>
      <trkpt lat="44.01858" lon="4.27025">
        <ele>210.6</ele>
        <time>2011-11-13T10:09:20Z</time>
      </trkpt>
      <trkpt lat="44.01853" lon="4.27027">
        <ele>210.6</ele>
        <time>2011-11-13T10:09:21Z</time>
      </trkpt>
      <trkpt lat="44.01848" lon="4.27027">
        <ele>209.9</ele>
        <time>2011-11-13T10:09:22Z</time>
      </trkpt>
      <trkpt lat="44.01841" lon="4.27032">
        <ele>214.3</ele>
        <time>2011-11-13T10:09:24Z</time>
      </trkpt>
      <trkpt lat="44.01834" lon="4.27037">
        <ele>216.9</ele>
        <time>2011-11-13T10:09:26Z</time>
      </trkpt>
      <trkpt lat="44.01826" lon="4.2704">
        <ele>216.5</ele>
        <time>2011-11-13T10:09:28Z</time>
      </trkpt>
      <trkpt lat="44.01818" lon="4.27043">
        <ele>216.1</ele>
        <time>2011-11-13T10:09:30Z</time>
      </trkpt>
      <trkpt lat="44.01812" lon="4.27046">
        <ele>216</ele>
        <time>2011-11-13T10:09:32Z</time>
      </trkpt>
      <trkpt lat="44.01805" lon="4.27048">
        <ele>216.8</ele>
        <time>2011-11-13T10:09:34Z</time>
      </trkpt>
      <trkpt lat="44.01798" lon="4.2705">
        <ele>217.4</ele>
        <time>2011-11-13T10:09:36Z</time>
      </trkpt>
      <trkpt lat="44.01791" lon="4.27052">
        <ele>219.1</ele>
        <time>2011-11-13T10:09:38Z</time>
      </trkpt>
      <trkpt lat="44.01784" lon="4.27053">
        <ele>221.8</ele>
        <time>2011-11-13T10:09:40Z</time>
      </trkpt>
      <trkpt lat="44.01777" lon="4.27055">
        <ele>225</ele>
        <time>2011-11-13T10:09:42Z</time>
      </trkpt>
      <trkpt lat="44.01771" lon="4.27057">
        <ele>225.9</ele>
        <time>2011-11-13T10:09:44Z</time>
      </trkpt>
      <trkpt lat="44.01763" lon="4.27062">
        <ele>224.9</ele>
        <time>2011-11-13T10:09:46Z</time>
      </trkpt>
      <trkpt lat="44.01756" lon="4.27068">
        <ele>223.9</ele>
        <time>2011-11-13T10:09:48Z</time>
      </trkpt>
      <trkpt lat="44.0175" lon="4.27075">
        <ele>223.7</ele>
        <time>2011-11-13T10:09:50Z</time>
      </trkpt>
      <trkpt lat="44.01746" lon="4.27085">
        <ele>223.8</ele>
        <time>2011-11-13T10:09:52Z</time>
      </trkpt>
      <trkpt lat="44.01742" lon="4.27094">
        <ele>223.7</ele>
        <time>2011-11-13T10:09:54Z</time>
      </trkpt>
      <trkpt lat="44.0174" lon="4.27105">
        <ele>224</ele>
        <time>2011-11-13T10:09:56Z</time>
      </trkpt>
      <trkpt lat="44.01738" lon="4.27116">
        <ele>224.4</ele>
        <time>2011-11-13T10:09:58Z</time>
      </trkpt>
      <trkpt lat="44.01737" lon="4.27126">
        <ele>224.7</ele>
        <time>2011-11-13T10:10:00Z</time>
      </trkpt>
      <trkpt lat="44.01737" lon="4.27136">
        <ele>224.9</ele>
        <time>2011-11-13T10:10:02Z</time>
      </trkpt>
      <trkpt lat="44.01737" lon="4.27147">
        <ele>224.9</ele>
        <time>2011-11-13T10:10:04Z</time>
      </trkpt>
      <trkpt lat="44.01737" lon="4.27157">
        <ele>224.8</ele>
        <time>2011-11-13T10:10:06Z</time>
      </trkpt>
      <trkpt lat="44.01737" lon="4.27166">
        <ele>225</ele>
        <time>2011-11-13T10:10:08Z</time>
      </trkpt>
      <trkpt lat="44.01737" lon="4.27176">
        <ele>225.1</ele>
        <time>2011-11-13T10:10:10Z</time>
      </trkpt>
      <trkpt lat="44.01737" lon="4.27186">
        <ele>225.1</ele>
        <time>2011-11-13T10:10:12Z</time>
      </trkpt>
      <trkpt lat="44.01738" lon="4.27196">
        <ele>225.1</ele>
        <time>2011-11-13T10:10:14Z</time>
      </trkpt>
      <trkpt lat="44.01739" lon="4.27206">
        <ele>225.2</ele>
        <time>2011-11-13T10:10:16Z</time>
      </trkpt>
      <trkpt lat="44.01739" lon="4.27217">
        <ele>225.3</ele>
        <time>2011-11-13T10:10:18Z</time>
      </trkpt>
      <trkpt lat="44.01739" lon="4.27227">
        <ele>225.2</ele>
        <time>2011-11-13T10:10:20Z</time>
      </trkpt>
      <trkpt lat="44.01739" lon="4.27237">
        <ele>225.5</ele>
        <time>2011-11-13T10:10:22Z</time>
      </trkpt>
      <trkpt lat="44.01738" lon="4.27246">
        <ele>225.8</ele>
        <time>2011-11-13T10:10:24Z</time>
      </trkpt>
      <trkpt lat="44.01736" lon="4.27256">
        <ele>226.1</ele>
        <time>2011-11-13T10:10:26Z</time>
      </trkpt>
      <trkpt lat="44.01734" lon="4.27265">
        <ele>226.3</ele>
        <time>2011-11-13T10:10:28Z</time>
      </trkpt>
      <trkpt lat="44.01731" lon="4.27275">
        <ele>226.3</ele>
        <time>2011-11-13T10:10:30Z</time>
      </trkpt>
      <trkpt lat="44.01727" lon="4.27285">
        <ele>226.2</ele>
        <time>2011-11-13T10:10:32Z</time>
      </trkpt>
      <trkpt lat="44.01723" lon="4.27295">
        <ele>226.2</ele>
        <time>2011-11-13T10:10:34Z</time>
      </trkpt>
      <trkpt lat="44.0172" lon="4.27304">
        <ele>226.6</ele>
        <time>2011-11-13T10:10:36Z</time>
      </trkpt>
      <trkpt lat="44.01718" lon="4.27314">
        <ele>227</ele>
        <time>2011-11-13T10:10:38Z</time>
      </trkpt>
      <trkpt lat="44.01716" lon="4.27324">
        <ele>227.4</ele>
        <time>2011-11-13T10:10:40Z</time>
      </trkpt>
      <trkpt lat="44.01716" lon="4.27334">
        <ele>227.6</ele>
        <time>2011-11-13T10:10:42Z</time>
      </trkpt>
      <trkpt lat="44.01717" lon="4.27344">
        <ele>227.7</ele>
        <time>2011-11-13T10:10:44Z</time>
      </trkpt>
      <trkpt lat="44.01718" lon="4.27354">
        <ele>228</ele>
        <time>2011-11-13T10:10:46Z</time>
      </trkpt>
      <trkpt lat="44.0172" lon="4.27364">
        <ele>228.2</ele>
        <time>2011-11-13T10:10:48Z</time>
      </trkpt>
      <trkpt lat="44.01721" lon="4.27375">
        <ele>228.4</ele>
        <time>2011-11-13T10:10:50Z</time>
      </trkpt>
      <trkpt lat="44.01722" lon="4.27386">
        <ele>228.8</ele>
        <time>2011-11-13T10:10:52Z</time>
      </trkpt>
      <trkpt lat="44.01722" lon="4.27397">
        <ele>229.3</ele>
        <time>2011-11-13T10:10:54Z</time>
      </trkpt>
      <trkpt lat="44.0172" lon="4.27408">
        <ele>229.7</ele>
        <time>2011-11-13T10:10:56Z</time>
      </trkpt>
      <trkpt lat="44.01718" lon="4.27419">
        <ele>230.1</ele>
        <time>2011-11-13T10:10:58Z</time>
      </trkpt>
      <trkpt lat="44.01716" lon="4.2743">
        <ele>230.6</ele>
        <time>2011-11-13T10:11:00Z</time>
      </trkpt>
      <trkpt lat="44.01715" lon="4.27441">
        <ele>231</ele>
        <time>2011-11-13T10:11:02Z</time>
      </trkpt>
      <trkpt lat="44.01715" lon="4.2745">
        <ele>231.4</ele>
        <time>2011-11-13T10:11:04Z</time>
      </trkpt>
      <trkpt lat="44.01716" lon="4.27457">
        <ele>232</ele>
        <time>2011-11-13T10:11:06Z</time>
      </trkpt>
      <trkpt lat="44.01721" lon="4.27466">
        <ele>233</ele>
        <time>2011-11-13T10:11:08Z</time>
      </trkpt>
      <trkpt lat="44.01724" lon="4.2747">
        <ele>233.4</ele>
        <time>2011-11-13T10:11:09Z</time>
      </trkpt>
      <trkpt lat="44.0173" lon="4.27476">
        <ele>233.9</ele>
        <time>2011-11-13T10:11:11Z</time>
      </trkpt>
      <trkpt lat="44.01737" lon="4.27482">
        <ele>234.3</ele>
        <time>2011-11-13T10:11:13Z</time>
      </trkpt>
      <trkpt lat="44.01743" lon="4.27487">
        <ele>235</ele>
        <time>2011-11-13T10:11:15Z</time>
      </trkpt>
      <trkpt lat="44.0175" lon="4.27494">
        <ele>236</ele>
        <time>2011-11-13T10:11:17Z</time>
      </trkpt>
      <trkpt lat="44.01757" lon="4.275">
        <ele>236.7</ele>
        <time>2011-11-13T10:11:19Z</time>
      </trkpt>
      <trkpt lat="44.01761" lon="4.27503">
        <ele>237</ele>
        <time>2011-11-13T10:11:20Z</time>
      </trkpt>
      <trkpt lat="44.01768" lon="4.2751">
        <ele>237.9</ele>
        <time>2011-11-13T10:11:22Z</time>
      </trkpt>
      <trkpt lat="44.01771" lon="4.27514">
        <ele>238.2</ele>
        <time>2011-11-13T10:11:23Z</time>
      </trkpt>
      <trkpt lat="44.01774" lon="4.27519">
        <ele>238.6</ele>
        <time>2011-11-13T10:11:24Z</time>
      </trkpt>
      <trkpt lat="44.0178" lon="4.27528">
        <ele>239.3</ele>
        <time>2011-11-13T10:11:26Z</time>
      </trkpt>
      <trkpt lat="44.01785" lon="4.27537">
        <ele>239.9</ele>
        <time>2011-11-13T10:11:28Z</time>
      </trkpt>
      <trkpt lat="44.0179" lon="4.27546">
        <ele>240.4</ele>
        <time>2011-11-13T10:11:30Z</time>
      </trkpt>
      <trkpt lat="44.01794" lon="4.27556">
        <ele>240.7</ele>
        <time>2011-11-13T10:11:32Z</time>
      </trkpt>
      <trkpt lat="44.01797" lon="4.27566">
        <ele>241</ele>
        <time>2011-11-13T10:11:34Z</time>
      </trkpt>
      <trkpt lat="44.018" lon="4.27575">
        <ele>241.2</ele>
        <time>2011-11-13T10:11:36Z</time>
      </trkpt>
      <trkpt lat="44.01803" lon="4.27584">
        <ele>241.2</ele>
        <time>2011-11-13T10:11:38Z</time>
      </trkpt>
      <trkpt lat="44.01806" lon="4.27594">
        <ele>241.1</ele>
        <time>2011-11-13T10:11:40Z</time>
      </trkpt>
      <trkpt lat="44.01809" lon="4.27604">
        <ele>241.2</ele>
        <time>2011-11-13T10:11:42Z</time>
      </trkpt>
      <trkpt lat="44.0181" lon="4.2761">
        <ele>241.3</ele>
        <time>2011-11-13T10:11:43Z</time>
      </trkpt>
      <trkpt lat="44.01812" lon="4.27616">
        <ele>241.5</ele>
        <time>2011-11-13T10:11:44Z</time>
      </trkpt>
      <trkpt lat="44.01814" lon="4.27623">
        <ele>241.6</ele>
        <time>2011-11-13T10:11:45Z</time>
      </trkpt>
      <trkpt lat="44.01817" lon="4.2763">
        <ele>241.9</ele>
        <time>2011-11-13T10:11:46Z</time>
      </trkpt>
      <trkpt lat="44.0182" lon="4.27638">
        <ele>242.2</ele>
        <time>2011-11-13T10:11:47Z</time>
      </trkpt>
      <trkpt lat="44.01822" lon="4.27646">
        <ele>242.4</ele>
        <time>2011-11-13T10:11:48Z</time>
      </trkpt>
      <trkpt lat="44.01825" lon="4.27655">
        <ele>242.6</ele>
        <time>2011-11-13T10:11:49Z</time>
      </trkpt>
      <trkpt lat="44.01827" lon="4.27663">
        <ele>243</ele>
        <time>2011-11-13T10:11:50Z</time>
      </trkpt>
      <trkpt lat="44.01829" lon="4.27672">
        <ele>243.3</ele>
        <time>2011-11-13T10:11:51Z</time>
      </trkpt>
      <trkpt lat="44.01831" lon="4.2768">
        <ele>243.6</ele>
        <time>2011-11-13T10:11:52Z</time>
      </trkpt>
      <trkpt lat="44.01833" lon="4.27689">
        <ele>243.9</ele>
        <time>2011-11-13T10:11:53Z</time>
      </trkpt>
      <trkpt lat="44.01835" lon="4.27697">
        <ele>244.3</ele>
        <time>2011-11-13T10:11:54Z</time>
      </trkpt>
      <trkpt lat="44.01837" lon="4.27706">
        <ele>244.5</ele>
        <time>2011-11-13T10:11:55Z</time>
      </trkpt>
      <trkpt lat="44.01839" lon="4.27714">
        <ele>244.5</ele>
        <time>2011-11-13T10:11:56Z</time>
      </trkpt>
      <trkpt lat="44.01841" lon="4.27723">
        <ele>244.5</ele>
        <time>2011-11-13T10:11:57Z</time>
      </trkpt>
      <trkpt lat="44.01843" lon="4.27731">
        <ele>244.5</ele>
        <time>2011-11-13T10:11:58Z</time>
      </trkpt>
      <trkpt lat="44.01845" lon="4.27739">
        <ele>244.5</ele>
        <time>2011-11-13T10:11:59Z</time>
      </trkpt>
      <trkpt lat="44.01847" lon="4.27746">
        <ele>244.5</ele>
        <time>2011-11-13T10:12:00Z</time>
      </trkpt>
      <trkpt lat="44.01848" lon="4.27753">
        <ele>244.4</ele>
        <time>2011-11-13T10:12:01Z</time>
      </trkpt>
      <trkpt lat="44.0185" lon="4.2776">
        <ele>244.4</ele>
        <time>2011-11-13T10:12:02Z</time>
      </trkpt>
      <trkpt lat="44.01852" lon="4.2777">
        <ele>244.4</ele>
        <time>2011-11-13T10:12:04Z</time>
      </trkpt>
      <trkpt lat="44.01854" lon="4.27778">
        <ele>244.6</ele>
        <time>2011-11-13T10:12:06Z</time>
      </trkpt>
      <trkpt lat="44.01855" lon="4.27786">
        <ele>244.5</ele>
        <time>2011-11-13T10:12:08Z</time>
      </trkpt>
      <trkpt lat="44.01856" lon="4.27792">
        <ele>244.6</ele>
        <time>2011-11-13T10:12:10Z</time>
      </trkpt>
      <trkpt lat="44.01858" lon="4.27798">
        <ele>244.3</ele>
        <time>2011-11-13T10:12:12Z</time>
      </trkpt>
      <trkpt lat="44.01859" lon="4.27806">
        <ele>244.4</ele>
        <time>2011-11-13T10:12:15Z</time>
      </trkpt>
      <trkpt lat="44.01859" lon="4.27814">
        <ele>240.6</ele>
        <time>2011-11-13T10:15:26Z</time>
      </trkpt>
      <trkpt lat="44.01858" lon="4.27823">
        <ele>240.6</ele>
        <time>2011-11-13T10:15:28Z</time>
      </trkpt>
      <trkpt lat="44.01854" lon="4.27835">
        <ele>240.5</ele>
        <time>2011-11-13T10:15:30Z</time>
      </trkpt>
      <trkpt lat="44.01853" lon="4.27841">
        <ele>240.5</ele>
        <time>2011-11-13T10:15:31Z</time>
      </trkpt>
      <trkpt lat="44.01851" lon="4.27848">
        <ele>240.5</ele>
        <time>2011-11-13T10:15:32Z</time>
      </trkpt>
      <trkpt lat="44.01849" lon="4.27854">
        <ele>240.4</ele>
        <time>2011-11-13T10:15:33Z</time>
      </trkpt>
      <trkpt lat="44.01847" lon="4.27862">
        <ele>240.3</ele>
        <time>2011-11-13T10:15:34Z</time>
      </trkpt>
      <trkpt lat="44.01846" lon="4.27868">
        <ele>240.3</ele>
        <time>2011-11-13T10:15:35Z</time>
      </trkpt>
      <trkpt lat="44.01845" lon="4.27875">
        <ele>240.2</ele>
        <time>2011-11-13T10:15:36Z</time>
      </trkpt>
      <trkpt lat="44.01844" lon="4.27882">
        <ele>240.2</ele>
        <time>2011-11-13T10:15:37Z</time>
      </trkpt>
      <trkpt lat="44.01843" lon="4.27889">
        <ele>240.2</ele>
        <time>2011-11-13T10:15:38Z</time>
      </trkpt>
      <trkpt lat="44.01842" lon="4.27896">
        <ele>240.3</ele>
        <time>2011-11-13T10:15:39Z</time>
      </trkpt>
      <trkpt lat="44.01842" lon="4.27903">
        <ele>240.3</ele>
        <time>2011-11-13T10:15:40Z</time>
      </trkpt>
      <trkpt lat="44.01842" lon="4.2791">
        <ele>240.2</ele>
        <time>2011-11-13T10:15:41Z</time>
      </trkpt>
      <trkpt lat="44.01842" lon="4.27917">
        <ele>240.2</ele>
        <time>2011-11-13T10:15:42Z</time>
      </trkpt>
      <trkpt lat="44.01842" lon="4.27924">
        <ele>240.1</ele>
        <time>2011-11-13T10:15:43Z</time>
      </trkpt>
      <trkpt lat="44.01842" lon="4.27932">
        <ele>240.1</ele>
        <time>2011-11-13T10:15:44Z</time>
      </trkpt>
      <trkpt lat="44.01842" lon="4.27938">
        <ele>240</ele>
        <time>2011-11-13T10:15:45Z</time>
      </trkpt>
      <trkpt lat="44.01843" lon="4.27945">
        <ele>240</ele>
        <time>2011-11-13T10:15:46Z</time>
      </trkpt>
      <trkpt lat="44.01843" lon="4.27952">
        <ele>239.9</ele>
        <time>2011-11-13T10:15:47Z</time>
      </trkpt>
      <trkpt lat="44.01843" lon="4.27958">
        <ele>239.9</ele>
        <time>2011-11-13T10:15:48Z</time>
      </trkpt>
      <trkpt lat="44.01843" lon="4.2797">
        <ele>239.9</ele>
        <time>2011-11-13T10:15:50Z</time>
      </trkpt>
      <trkpt lat="44.01844" lon="4.27981">
        <ele>239.9</ele>
        <time>2011-11-13T10:15:52Z</time>
      </trkpt>
      <trkpt lat="44.01844" lon="4.27992">
        <ele>239.9</ele>
        <time>2011-11-13T10:15:54Z</time>
      </trkpt>
      <trkpt lat="44.01843" lon="4.28003">
        <ele>240</ele>
        <time>2011-11-13T10:15:56Z</time>
      </trkpt>
      <trkpt lat="44.01842" lon="4.28013">
        <ele>240.2</ele>
        <time>2011-11-13T10:15:58Z</time>
      </trkpt>
      <trkpt lat="44.0184" lon="4.28023">
        <ele>240.3</ele>
        <time>2011-11-13T10:16:00Z</time>
      </trkpt>
      <trkpt lat="44.01838" lon="4.28033">
        <ele>240.4</ele>
        <time>2011-11-13T10:16:02Z</time>
      </trkpt>
      <trkpt lat="44.01835" lon="4.28042">
        <ele>240.7</ele>
        <time>2011-11-13T10:16:04Z</time>
      </trkpt>
      <trkpt lat="44.01833" lon="4.28051">
        <ele>241</ele>
        <time>2011-11-13T10:16:06Z</time>
      </trkpt>
      <trkpt lat="44.0183" lon="4.28059">
        <ele>241.2</ele>
        <time>2011-11-13T10:16:08Z</time>
      </trkpt>
      <trkpt lat="44.01828" lon="4.28068">
        <ele>241.3</ele>
        <time>2011-11-13T10:16:10Z</time>
      </trkpt>
      <trkpt lat="44.01825" lon="4.28077">
        <ele>241.5</ele>
        <time>2011-11-13T10:16:12Z</time>
      </trkpt>
      <trkpt lat="44.01823" lon="4.28086">
        <ele>241.7</ele>
        <time>2011-11-13T10:16:14Z</time>
      </trkpt>
      <trkpt lat="44.01821" lon="4.28096">
        <ele>242.1</ele>
        <time>2011-11-13T10:16:16Z</time>
      </trkpt>
      <trkpt lat="44.01821" lon="4.28106">
        <ele>242.5</ele>
        <time>2011-11-13T10:16:18Z</time>
      </trkpt>
      <trkpt lat="44.0182" lon="4.28114">
        <ele>243.4</ele>
        <time>2011-11-13T10:16:20Z</time>
      </trkpt>
      <trkpt lat="44.01819" lon="4.28124">
        <ele>243.8</ele>
        <time>2011-11-13T10:16:22Z</time>
      </trkpt>
      <trkpt lat="44.01818" lon="4.28134">
        <ele>244.2</ele>
        <time>2011-11-13T10:16:24Z</time>
      </trkpt>
      <trkpt lat="44.01818" lon="4.28143">
        <ele>244.6</ele>
        <time>2011-11-13T10:16:26Z</time>
      </trkpt>
      <trkpt lat="44.01816" lon="4.28153">
        <ele>244.8</ele>
        <time>2011-11-13T10:16:28Z</time>
      </trkpt>
      <trkpt lat="44.01815" lon="4.28164">
        <ele>245.4</ele>
        <time>2011-11-13T10:16:30Z</time>
      </trkpt>
      <trkpt lat="44.01813" lon="4.28177">
        <ele>246.1</ele>
        <time>2011-11-13T10:16:32Z</time>
      </trkpt>
      <trkpt lat="44.01812" lon="4.28184">
        <ele>246.2</ele>
        <time>2011-11-13T10:16:33Z</time>
      </trkpt>
      <trkpt lat="44.01811" lon="4.28192">
        <ele>246.1</ele>
        <time>2011-11-13T10:16:34Z</time>
      </trkpt>
      <trkpt lat="44.0181" lon="4.282">
        <ele>246</ele>
        <time>2011-11-13T10:16:35Z</time>
      </trkpt>
      <trkpt lat="44.01809" lon="4.28208">
        <ele>246</ele>
        <time>2011-11-13T10:16:36Z</time>
      </trkpt>
      <trkpt lat="44.01808" lon="4.28216">
        <ele>246</ele>
        <time>2011-11-13T10:16:37Z</time>
      </trkpt>
      <trkpt lat="44.01806" lon="4.28225">
        <ele>246</ele>
        <time>2011-11-13T10:16:38Z</time>
      </trkpt>
      <trkpt lat="44.01806" lon="4.28233">
        <ele>246</ele>
        <time>2011-11-13T10:16:39Z</time>
      </trkpt>
      <trkpt lat="44.01805" lon="4.28242">
        <ele>246</ele>
        <time>2011-11-13T10:16:40Z</time>
      </trkpt>
      <trkpt lat="44.01804" lon="4.28251">
        <ele>246</ele>
        <time>2011-11-13T10:16:41Z</time>
      </trkpt>
      <trkpt lat="44.01803" lon="4.28259">
        <ele>246.1</ele>
        <time>2011-11-13T10:16:42Z</time>
      </trkpt>
      <trkpt lat="44.01801" lon="4.28268">
        <ele>246.1</ele>
        <time>2011-11-13T10:16:43Z</time>
      </trkpt>
      <trkpt lat="44.018" lon="4.28277">
        <ele>246.1</ele>
        <time>2011-11-13T10:16:44Z</time>
      </trkpt>
      <trkpt lat="44.01798" lon="4.28286">
        <ele>246.2</ele>
        <time>2011-11-13T10:16:45Z</time>
      </trkpt>
      <trkpt lat="44.01797" lon="4.28294">
        <ele>246.3</ele>
        <time>2011-11-13T10:16:46Z</time>
      </trkpt>
      <trkpt lat="44.01795" lon="4.28302">
        <ele>246.4</ele>
        <time>2011-11-13T10:16:47Z</time>
      </trkpt>
      <trkpt lat="44.01793" lon="4.28311">
        <ele>246.3</ele>
        <time>2011-11-13T10:16:48Z</time>
      </trkpt>
      <trkpt lat="44.01792" lon="4.28318">
        <ele>246.3</ele>
        <time>2011-11-13T10:16:49Z</time>
      </trkpt>
      <trkpt lat="44.0179" lon="4.28326">
        <ele>246.1</ele>
        <time>2011-11-13T10:16:50Z</time>
      </trkpt>
      <trkpt lat="44.01789" lon="4.28333">
        <ele>246.1</ele>
        <time>2011-11-13T10:16:51Z</time>
      </trkpt>
      <trkpt lat="44.01788" lon="4.28339">
        <ele>246.1</ele>
        <time>2011-11-13T10:16:52Z</time>
      </trkpt>
      <trkpt lat="44.01785" lon="4.2835">
        <ele>246.3</ele>
        <time>2011-11-13T10:16:54Z</time>
      </trkpt>
      <trkpt lat="44.01783" lon="4.28361">
        <ele>246.4</ele>
        <time>2011-11-13T10:16:56Z</time>
      </trkpt>
      <trkpt lat="44.01781" lon="4.28372">
        <ele>246.2</ele>
        <time>2011-11-13T10:16:58Z</time>
      </trkpt>
      <trkpt lat="44.0178" lon="4.28384">
        <ele>246.1</ele>
        <time>2011-11-13T10:17:00Z</time>
      </trkpt>
      <trkpt lat="44.01779" lon="4.28394">
        <ele>246</ele>
        <time>2011-11-13T10:17:02Z</time>
      </trkpt>
      <trkpt lat="44.01777" lon="4.28405">
        <ele>246</ele>
        <time>2011-11-13T10:17:04Z</time>
      </trkpt>
      <trkpt lat="44.01775" lon="4.28417">
        <ele>245.9</ele>
        <time>2011-11-13T10:17:06Z</time>
      </trkpt>
      <trkpt lat="44.01774" lon="4.28422">
        <ele>245.9</ele>
        <time>2011-11-13T10:17:07Z</time>
      </trkpt>
      <trkpt lat="44.01771" lon="4.28433">
        <ele>246.2</ele>
        <time>2011-11-13T10:17:09Z</time>
      </trkpt>
      <trkpt lat="44.0177" lon="4.28442">
        <ele>246.3</ele>
        <time>2011-11-13T10:17:11Z</time>
      </trkpt>
      <trkpt lat="44.01771" lon="4.28448">
        <ele>246.8</ele>
        <time>2011-11-13T10:17:14Z</time>
      </trkpt>
      <trkpt lat="44.01773" lon="4.28455">
        <ele>246.1</ele>
        <time>2011-11-13T10:19:51Z</time>
      </trkpt>
      <trkpt lat="44.01772" lon="4.28462">
        <ele>246.2</ele>
        <time>2011-11-13T10:19:53Z</time>
      </trkpt>
      <trkpt lat="44.0177" lon="4.28471">
        <ele>246.2</ele>
        <time>2011-11-13T10:19:55Z</time>
      </trkpt>
      <trkpt lat="44.01767" lon="4.28482">
        <ele>246.2</ele>
        <time>2011-11-13T10:19:57Z</time>
      </trkpt>
      <trkpt lat="44.01765" lon="4.28489">
        <ele>246.3</ele>
        <time>2011-11-13T10:19:58Z</time>
      </trkpt>
      <trkpt lat="44.01763" lon="4.28496">
        <ele>246.4</ele>
        <time>2011-11-13T10:19:59Z</time>
      </trkpt>
      <trkpt lat="44.0176" lon="4.28504">
        <ele>246.4</ele>
        <time>2011-11-13T10:20:00Z</time>
      </trkpt>
      <trkpt lat="44.01757" lon="4.28511">
        <ele>246.4</ele>
        <time>2011-11-13T10:20:01Z</time>
      </trkpt>
      <trkpt lat="44.01755" lon="4.28519">
        <ele>246.5</ele>
        <time>2011-11-13T10:20:02Z</time>
      </trkpt>
      <trkpt lat="44.01752" lon="4.28528">
        <ele>246.4</ele>
        <time>2011-11-13T10:20:03Z</time>
      </trkpt>
      <trkpt lat="44.0175" lon="4.28536">
        <ele>246.3</ele>
        <time>2011-11-13T10:20:04Z</time>
      </trkpt>
      <trkpt lat="44.01748" lon="4.28544">
        <ele>246.3</ele>
        <time>2011-11-13T10:20:05Z</time>
      </trkpt>
      <trkpt lat="44.01746" lon="4.28553">
        <ele>246.2</ele>
        <time>2011-11-13T10:20:06Z</time>
      </trkpt>
      <trkpt lat="44.01744" lon="4.28561">
        <ele>246</ele>
        <time>2011-11-13T10:20:07Z</time>
      </trkpt>
      <trkpt lat="44.01743" lon="4.28569">
        <ele>245.9</ele>
        <time>2011-11-13T10:20:08Z</time>
      </trkpt>
      <trkpt lat="44.01741" lon="4.28576">
        <ele>245.7</ele>
        <time>2011-11-13T10:20:09Z</time>
      </trkpt>
      <trkpt lat="44.01739" lon="4.28584">
        <ele>245.5</ele>
        <time>2011-11-13T10:20:10Z</time>
      </trkpt>
      <trkpt lat="44.01738" lon="4.28592">
        <ele>245.4</ele>
        <time>2011-11-13T10:20:11Z</time>
      </trkpt>
      <trkpt lat="44.01736" lon="4.28599">
        <ele>245.3</ele>
        <time>2011-11-13T10:20:12Z</time>
      </trkpt>
      <trkpt lat="44.01735" lon="4.28606">
        <ele>245.2</ele>
        <time>2011-11-13T10:20:13Z</time>
      </trkpt>
      <trkpt lat="44.01734" lon="4.28614">
        <ele>245.1</ele>
        <time>2011-11-13T10:20:14Z</time>
      </trkpt>
      <trkpt lat="44.01732" lon="4.28621">
        <ele>244.9</ele>
        <time>2011-11-13T10:20:15Z</time>
      </trkpt>
      <trkpt lat="44.01731" lon="4.28628">
        <ele>244.8</ele>
        <time>2011-11-13T10:20:16Z</time>
      </trkpt>
      <trkpt lat="44.0173" lon="4.28635">
        <ele>244.7</ele>
        <time>2011-11-13T10:20:17Z</time>
      </trkpt>
      <trkpt lat="44.01729" lon="4.28642">
        <ele>244.8</ele>
        <time>2011-11-13T10:20:18Z</time>
      </trkpt>
      <trkpt lat="44.01728" lon="4.28649">
        <ele>244.5</ele>
        <time>2011-11-13T10:20:19Z</time>
      </trkpt>
      <trkpt lat="44.01727" lon="4.28655">
        <ele>244</ele>
        <time>2011-11-13T10:20:20Z</time>
      </trkpt>
      <trkpt lat="44.01726" lon="4.28662">
        <ele>243.6</ele>
        <time>2011-11-13T10:20:21Z</time>
      </trkpt>
      <trkpt lat="44.01725" lon="4.28668">
        <ele>243.3</ele>
        <time>2011-11-13T10:20:22Z</time>
      </trkpt>
      <trkpt lat="44.01724" lon="4.28675">
        <ele>242.9</ele>
        <time>2011-11-13T10:20:23Z</time>
      </trkpt>
      <trkpt lat="44.01724" lon="4.28681">
        <ele>242.6</ele>
        <time>2011-11-13T10:20:24Z</time>
      </trkpt>
      <trkpt lat="44.01722" lon="4.28692">
        <ele>242.1</ele>
        <time>2011-11-13T10:20:26Z</time>
      </trkpt>
      <trkpt lat="44.01721" lon="4.28703">
        <ele>241.5</ele>
        <time>2011-11-13T10:20:28Z</time>
      </trkpt>
      <trkpt lat="44.01721" lon="4.28712">
        <ele>240.7</ele>
        <time>2011-11-13T10:20:30Z</time>
      </trkpt>
      <trkpt lat="44.0172" lon="4.28723">
        <ele>240.4</ele>
        <time>2011-11-13T10:20:32Z</time>
      </trkpt>
      <trkpt lat="44.0172" lon="4.28736">
        <ele>240.1</ele>
        <time>2011-11-13T10:20:34Z</time>
      </trkpt>
      <trkpt lat="44.0172" lon="4.28742">
        <ele>239.9</ele>
        <time>2011-11-13T10:20:35Z</time>
      </trkpt>
      <trkpt lat="44.01719" lon="4.28749">
        <ele>239.7</ele>
        <time>2011-11-13T10:20:36Z</time>
      </trkpt>
      <trkpt lat="44.01719" lon="4.28756">
        <ele>239.6</ele>
        <time>2011-11-13T10:20:37Z</time>
      </trkpt>
      <trkpt lat="44.01719" lon="4.28762">
        <ele>239.5</ele>
        <time>2011-11-13T10:20:38Z</time>
      </trkpt>
      <trkpt lat="44.01719" lon="4.28769">
        <ele>239.3</ele>
        <time>2011-11-13T10:20:39Z</time>
      </trkpt>
      <trkpt lat="44.01718" lon="4.28776">
        <ele>239.1</ele>
        <time>2011-11-13T10:20:40Z</time>
      </trkpt>
      <trkpt lat="44.01718" lon="4.28783">
        <ele>239</ele>
        <time>2011-11-13T10:20:41Z</time>
      </trkpt>
      <trkpt lat="44.01718" lon="4.2879">
        <ele>238.8</ele>
        <time>2011-11-13T10:20:42Z</time>
      </trkpt>
      <trkpt lat="44.01718" lon="4.28797">
        <ele>238.7</ele>
        <time>2011-11-13T10:20:43Z</time>
      </trkpt>
      <trkpt lat="44.01718" lon="4.28804">
        <ele>238.3</ele>
        <time>2011-11-13T10:20:44Z</time>
      </trkpt>
      <trkpt lat="44.01717" lon="4.28811">
        <ele>238.2</ele>
        <time>2011-11-13T10:20:45Z</time>
      </trkpt>
      <trkpt lat="44.01716" lon="4.28818">
        <ele>238</ele>
        <time>2011-11-13T10:20:46Z</time>
      </trkpt>
      <trkpt lat="44.01715" lon="4.28825">
        <ele>238</ele>
        <time>2011-11-13T10:20:47Z</time>
      </trkpt>
      <trkpt lat="44.01714" lon="4.28832">
        <ele>238</ele>
        <time>2011-11-13T10:20:48Z</time>
      </trkpt>
      <trkpt lat="44.01712" lon="4.28839">
        <ele>238</ele>
        <time>2011-11-13T10:20:49Z</time>
      </trkpt>
      <trkpt lat="44.0171" lon="4.28846">
        <ele>238.1</ele>
        <time>2011-11-13T10:20:50Z</time>
      </trkpt>
      <trkpt lat="44.01708" lon="4.28852">
        <ele>238.1</ele>
        <time>2011-11-13T10:20:51Z</time>
      </trkpt>
      <trkpt lat="44.01706" lon="4.28857">
        <ele>238.2</ele>
        <time>2011-11-13T10:20:52Z</time>
      </trkpt>
      <trkpt lat="44.01702" lon="4.28862">
        <ele>238.2</ele>
        <time>2011-11-13T10:20:53Z</time>
      </trkpt>
      <trkpt lat="44.01698" lon="4.28865">
        <ele>238.5</ele>
        <time>2011-11-13T10:20:54Z</time>
      </trkpt>
      <trkpt lat="44.01693" lon="4.28868">
        <ele>238.5</ele>
        <time>2011-11-13T10:20:55Z</time>
      </trkpt>
      <trkpt lat="44.01686" lon="4.28871">
        <ele>238.8</ele>
        <time>2011-11-13T10:20:57Z</time>
      </trkpt>
      <trkpt lat="44.01679" lon="4.28875">
        <ele>239.1</ele>
        <time>2011-11-13T10:20:59Z</time>
      </trkpt>
      <trkpt lat="44.01672" lon="4.2888">
        <ele>239.3</ele>
        <time>2011-11-13T10:21:01Z</time>
      </trkpt>
      <trkpt lat="44.01667" lon="4.28885">
        <ele>239.7</ele>
        <time>2011-11-13T10:21:03Z</time>
      </trkpt>
      <trkpt lat="44.01665" lon="4.28891">
        <ele>240.2</ele>
        <time>2011-11-13T10:21:05Z</time>
      </trkpt>
      <trkpt lat="44.01666" lon="4.289">
        <ele>240.5</ele>
        <time>2011-11-13T10:21:07Z</time>
      </trkpt>
      <trkpt lat="44.01666" lon="4.2891">
        <ele>240.8</ele>
        <time>2011-11-13T10:21:09Z</time>
      </trkpt>
      <trkpt lat="44.01665" lon="4.28921">
        <ele>241.1</ele>
        <time>2011-11-13T10:21:11Z</time>
      </trkpt>
      <trkpt lat="44.01664" lon="4.28933">
        <ele>241.6</ele>
        <time>2011-11-13T10:21:13Z</time>
      </trkpt>
      <trkpt lat="44.01663" lon="4.28944">
        <ele>241.8</ele>
        <time>2011-11-13T10:21:15Z</time>
      </trkpt>
      <trkpt lat="44.01662" lon="4.28955">
        <ele>242.2</ele>
        <time>2011-11-13T10:21:17Z</time>
      </trkpt>
      <trkpt lat="44.0166" lon="4.28966">
        <ele>242.9</ele>
        <time>2011-11-13T10:21:19Z</time>
      </trkpt>
      <trkpt lat="44.01659" lon="4.28977">
        <ele>243.2</ele>
        <time>2011-11-13T10:21:21Z</time>
      </trkpt>
      <trkpt lat="44.01658" lon="4.28988">
        <ele>243.6</ele>
        <time>2011-11-13T10:21:23Z</time>
      </trkpt>
      <trkpt lat="44.01657" lon="4.28999">
        <ele>243.9</ele>
        <time>2011-11-13T10:21:25Z</time>
      </trkpt>
      <trkpt lat="44.01656" lon="4.29009">
        <ele>244</ele>
        <time>2011-11-13T10:21:27Z</time>
      </trkpt>
      <trkpt lat="44.01654" lon="4.29019">
        <ele>244.5</ele>
        <time>2011-11-13T10:21:29Z</time>
      </trkpt>
      <trkpt lat="44.01653" lon="4.2903">
        <ele>245</ele>
        <time>2011-11-13T10:21:31Z</time>
      </trkpt>
      <trkpt lat="44.01652" lon="4.29039">
        <ele>245.7</ele>
        <time>2011-11-13T10:21:33Z</time>
      </trkpt>
      <trkpt lat="44.0165" lon="4.29047">
        <ele>246.4</ele>
        <time>2011-11-13T10:21:35Z</time>
      </trkpt>
      <trkpt lat="44.01648" lon="4.29055">
        <ele>247</ele>
        <time>2011-11-13T10:21:37Z</time>
      </trkpt>
      <trkpt lat="44.01646" lon="4.29061">
        <ele>247.6</ele>
        <time>2011-11-13T10:21:39Z</time>
      </trkpt>
      <trkpt lat="44.01643" lon="4.29067">
        <ele>248.5</ele>
        <time>2011-11-13T10:21:42Z</time>
      </trkpt>
      <trkpt lat="44.01638" lon="4.29065">
        <ele>251.4</ele>
        <time>2011-11-13T10:21:44Z</time>
      </trkpt>
      <trkpt lat="44.01632" lon="4.29065">
        <ele>253</ele>
        <time>2011-11-13T10:21:46Z</time>
      </trkpt>
      <trkpt lat="44.01628" lon="4.29069">
        <ele>253.7</ele>
        <time>2011-11-13T10:21:49Z</time>
      </trkpt>
      <trkpt lat="44.01633" lon="4.29064">
        <ele>255.7</ele>
        <time>2011-11-13T10:21:55Z</time>
      </trkpt>
      <trkpt lat="44.01638" lon="4.2906">
        <ele>256.2</ele>
        <time>2011-11-13T10:21:58Z</time>
      </trkpt>
      <trkpt lat="44.01643" lon="4.29055">
        <ele>256.5</ele>
        <time>2011-11-13T10:22:01Z</time>
      </trkpt>
      <trkpt lat="44.01646" lon="4.2905">
        <ele>256.7</ele>
        <time>2011-11-13T10:22:05Z</time>
      </trkpt>
      <trkpt lat="44.01641" lon="4.29053">
        <ele>256.1</ele>
        <time>2011-11-13T10:24:01Z</time>
      </trkpt>
      <trkpt lat="44.01637" lon="4.29056">
        <ele>256</ele>
        <time>2011-11-13T10:24:04Z</time>
      </trkpt>
      <trkpt lat="44.01632" lon="4.29059">
        <ele>256.1</ele>
        <time>2011-11-13T10:24:07Z</time>
      </trkpt>
      <trkpt lat="44.01626" lon="4.29065">
        <ele>256.3</ele>
        <time>2011-11-13T10:24:10Z</time>
      </trkpt>
      <trkpt lat="44.01624" lon="4.29071">
        <ele>256.8</ele>
        <time>2011-11-13T10:24:12Z</time>
      </trkpt>
      <trkpt lat="44.01623" lon="4.29078">
        <ele>257</ele>
        <time>2011-11-13T10:24:15Z</time>
      </trkpt>
      <trkpt lat="44.01621" lon="4.29085">
        <ele>256.3</ele>
        <time>2011-11-13T10:24:18Z</time>
      </trkpt>
      <trkpt lat="44.01618" lon="4.29092">
        <ele>256</ele>
        <time>2011-11-13T10:24:21Z</time>
      </trkpt>
      <trkpt lat="44.01615" lon="4.291">
        <ele>255.6</ele>
        <time>2011-11-13T10:24:24Z</time>
      </trkpt>
      <trkpt lat="44.01613" lon="4.29105">
        <ele>255.4</ele>
        <time>2011-11-13T10:24:26Z</time>
      </trkpt>
      <trkpt lat="44.01609" lon="4.2911">
        <ele>255.3</ele>
        <time>2011-11-13T10:24:28Z</time>
      </trkpt>
      <trkpt lat="44.01605" lon="4.29115">
        <ele>255.3</ele>
        <time>2011-11-13T10:24:30Z</time>
      </trkpt>
      <trkpt lat="44.01602" lon="4.2912">
        <ele>254.9</ele>
        <time>2011-11-13T10:24:32Z</time>
      </trkpt>
      <trkpt lat="44.01599" lon="4.29125">
        <ele>254.9</ele>
        <time>2011-11-13T10:24:34Z</time>
      </trkpt>
      <trkpt lat="44.01596" lon="4.2913">
        <ele>255.1</ele>
        <time>2011-11-13T10:24:36Z</time>
      </trkpt>
      <trkpt lat="44.01592" lon="4.29137">
        <ele>255.2</ele>
        <time>2011-11-13T10:24:39Z</time>
      </trkpt>
      <trkpt lat="44.01588" lon="4.29144">
        <ele>255</ele>
        <time>2011-11-13T10:24:42Z</time>
      </trkpt>
      <trkpt lat="44.01586" lon="4.29152">
        <ele>254.8</ele>
        <time>2011-11-13T10:24:45Z</time>
      </trkpt>
      <trkpt lat="44.01584" lon="4.2916">
        <ele>254.9</ele>
        <time>2011-11-13T10:24:48Z</time>
      </trkpt>
      <trkpt lat="44.01582" lon="4.29168">
        <ele>254.9</ele>
        <time>2011-11-13T10:24:51Z</time>
      </trkpt>
      <trkpt lat="44.01582" lon="4.29175">
        <ele>254.9</ele>
        <time>2011-11-13T10:24:54Z</time>
      </trkpt>
      <trkpt lat="44.01579" lon="4.29184">
        <ele>255.2</ele>
        <time>2011-11-13T10:24:57Z</time>
      </trkpt>
      <trkpt lat="44.01579" lon="4.2919">
        <ele>255.3</ele>
        <time>2011-11-13T10:24:59Z</time>
      </trkpt>
      <trkpt lat="44.01578" lon="4.29199">
        <ele>255.5</ele>
        <time>2011-11-13T10:25:02Z</time>
      </trkpt>
      <trkpt lat="44.01576" lon="4.29205">
        <ele>255.9</ele>
        <time>2011-11-13T10:25:04Z</time>
      </trkpt>
      <trkpt lat="44.01572" lon="4.29212">
        <ele>256.8</ele>
        <time>2011-11-13T10:25:07Z</time>
      </trkpt>
      <trkpt lat="44.01568" lon="4.29218">
        <ele>257.6</ele>
        <time>2011-11-13T10:25:09Z</time>
      </trkpt>
      <trkpt lat="44.01563" lon="4.29224">
        <ele>258</ele>
        <time>2011-11-13T10:25:11Z</time>
      </trkpt>
      <trkpt lat="44.01557" lon="4.29229">
        <ele>258.3</ele>
        <time>2011-11-13T10:25:13Z</time>
      </trkpt>
      <trkpt lat="44.01551" lon="4.29234">
        <ele>258.4</ele>
        <time>2011-11-13T10:25:15Z</time>
      </trkpt>
      <trkpt lat="44.01546" lon="4.29239">
        <ele>258.6</ele>
        <time>2011-11-13T10:25:17Z</time>
      </trkpt>
      <trkpt lat="44.01541" lon="4.29243">
        <ele>258.4</ele>
        <time>2011-11-13T10:25:19Z</time>
      </trkpt>
      <trkpt lat="44.01535" lon="4.29247">
        <ele>258.3</ele>
        <time>2011-11-13T10:25:21Z</time>
      </trkpt>
      <trkpt lat="44.0153" lon="4.29251">
        <ele>258.2</ele>
        <time>2011-11-13T10:25:23Z</time>
      </trkpt>
      <trkpt lat="44.01525" lon="4.29254">
        <ele>258</ele>
        <time>2011-11-13T10:25:25Z</time>
      </trkpt>
      <trkpt lat="44.0152" lon="4.29258">
        <ele>257.7</ele>
        <time>2011-11-13T10:25:28Z</time>
      </trkpt>
      <trkpt lat="44.01514" lon="4.29259">
        <ele>256.6</ele>
        <time>2011-11-13T10:28:01Z</time>
      </trkpt>
      <trkpt lat="44.0151" lon="4.29263">
        <ele>256.1</ele>
        <time>2011-11-13T10:28:05Z</time>
      </trkpt>
      <trkpt lat="44.01504" lon="4.29268">
        <ele>255.5</ele>
        <time>2011-11-13T10:28:08Z</time>
      </trkpt>
      <trkpt lat="44.015" lon="4.29273">
        <ele>255.1</ele>
        <time>2011-11-13T10:28:10Z</time>
      </trkpt>
      <trkpt lat="44.01495" lon="4.29278">
        <ele>254.7</ele>
        <time>2011-11-13T10:28:12Z</time>
      </trkpt>
      <trkpt lat="44.01489" lon="4.29283">
        <ele>254</ele>
        <time>2011-11-13T10:28:14Z</time>
      </trkpt>
      <trkpt lat="44.01483" lon="4.29287">
        <ele>253.7</ele>
        <time>2011-11-13T10:28:16Z</time>
      </trkpt>
      <trkpt lat="44.01477" lon="4.29289">
        <ele>253.6</ele>
        <time>2011-11-13T10:28:18Z</time>
      </trkpt>
      <trkpt lat="44.01473" lon="4.29291">
        <ele>253.5</ele>
        <time>2011-11-13T10:28:20Z</time>
      </trkpt>
      <trkpt lat="44.01467" lon="4.29294">
        <ele>253.7</ele>
        <time>2011-11-13T10:28:23Z</time>
      </trkpt>
      <trkpt lat="44.01462" lon="4.29298">
        <ele>253.8</ele>
        <time>2011-11-13T10:28:26Z</time>
      </trkpt>
      <trkpt lat="44.01458" lon="4.29302">
        <ele>253.7</ele>
        <time>2011-11-13T10:28:28Z</time>
      </trkpt>
      <trkpt lat="44.01452" lon="4.29308">
        <ele>253.8</ele>
        <time>2011-11-13T10:28:31Z</time>
      </trkpt>
      <trkpt lat="44.01449" lon="4.29313">
        <ele>253.9</ele>
        <time>2011-11-13T10:28:33Z</time>
      </trkpt>
      <trkpt lat="44.01445" lon="4.29319">
        <ele>254</ele>
        <time>2011-11-13T10:28:35Z</time>
      </trkpt>
      <trkpt lat="44.0144" lon="4.29326">
        <ele>254.1</ele>
        <time>2011-11-13T10:28:37Z</time>
      </trkpt>
      <trkpt lat="44.01434" lon="4.29333">
        <ele>254.3</ele>
        <time>2011-11-13T10:28:39Z</time>
      </trkpt>
      <trkpt lat="44.01427" lon="4.29341">
        <ele>254.4</ele>
        <time>2011-11-13T10:28:41Z</time>
      </trkpt>
      <trkpt lat="44.01421" lon="4.29349">
        <ele>254.7</ele>
        <time>2011-11-13T10:28:43Z</time>
      </trkpt>
      <trkpt lat="44.01416" lon="4.29354">
        <ele>254.8</ele>
        <time>2011-11-13T10:28:45Z</time>
      </trkpt>
      <trkpt lat="44.01414" lon="4.29359">
        <ele>254.2</ele>
        <time>2011-11-13T10:28:58Z</time>
      </trkpt>
      <trkpt lat="44.0141" lon="4.29366">
        <ele>254.1</ele>
        <time>2011-11-13T10:29:01Z</time>
      </trkpt>
      <trkpt lat="44.01407" lon="4.2937">
        <ele>254.1</ele>
        <time>2011-11-13T10:29:03Z</time>
      </trkpt>
      <trkpt lat="44.01403" lon="4.29376">
        <ele>254</ele>
        <time>2011-11-13T10:29:05Z</time>
      </trkpt>
      <trkpt lat="44.01398" lon="4.29381">
        <ele>254</ele>
        <time>2011-11-13T10:29:07Z</time>
      </trkpt>
      <trkpt lat="44.01394" lon="4.29387">
        <ele>254.2</ele>
        <time>2011-11-13T10:29:09Z</time>
      </trkpt>
      <trkpt lat="44.0139" lon="4.29392">
        <ele>254.2</ele>
        <time>2011-11-13T10:29:11Z</time>
      </trkpt>
      <trkpt lat="44.01386" lon="4.29398">
        <ele>254.3</ele>
        <time>2011-11-13T10:29:13Z</time>
      </trkpt>
      <trkpt lat="44.01382" lon="4.29403">
        <ele>254.5</ele>
        <time>2011-11-13T10:29:15Z</time>
      </trkpt>
      <trkpt lat="44.01376" lon="4.29409">
        <ele>254.5</ele>
        <time>2011-11-13T10:29:17Z</time>
      </trkpt>
      <trkpt lat="44.01373" lon="4.29415">
        <ele>254.5</ele>
        <time>2011-11-13T10:29:19Z</time>
      </trkpt>
      <trkpt lat="44.01369" lon="4.29421">
        <ele>254.7</ele>
        <time>2011-11-13T10:29:21Z</time>
      </trkpt>
      <trkpt lat="44.01365" lon="4.29427">
        <ele>254.7</ele>
        <time>2011-11-13T10:29:23Z</time>
      </trkpt>
      <trkpt lat="44.0136" lon="4.29433">
        <ele>254.7</ele>
        <time>2011-11-13T10:29:25Z</time>
      </trkpt>
      <trkpt lat="44.01356" lon="4.2944">
        <ele>254.6</ele>
        <time>2011-11-13T10:29:27Z</time>
      </trkpt>
      <trkpt lat="44.01352" lon="4.29447">
        <ele>254.5</ele>
        <time>2011-11-13T10:29:29Z</time>
      </trkpt>
      <trkpt lat="44.01346" lon="4.29456">
        <ele>254.7</ele>
        <time>2011-11-13T10:29:31Z</time>
      </trkpt>
      <trkpt lat="44.01342" lon="4.2946">
        <ele>254.7</ele>
        <time>2011-11-13T10:29:32Z</time>
      </trkpt>
      <trkpt lat="44.01339" lon="4.29464">
        <ele>254.7</ele>
        <time>2011-11-13T10:29:33Z</time>
      </trkpt>
      <trkpt lat="44.01334" lon="4.29467">
        <ele>254.4</ele>
        <time>2011-11-13T10:29:34Z</time>
      </trkpt>
      <trkpt lat="44.0133" lon="4.2947">
        <ele>253.7</ele>
        <time>2011-11-13T10:29:35Z</time>
      </trkpt>
      <trkpt lat="44.01325" lon="4.29472">
        <ele>253.3</ele>
        <time>2011-11-13T10:29:36Z</time>
      </trkpt>
      <trkpt lat="44.01319" lon="4.29472">
        <ele>253</ele>
        <time>2011-11-13T10:29:37Z</time>
      </trkpt>
      <trkpt lat="44.01313" lon="4.29471">
        <ele>252.8</ele>
        <time>2011-11-13T10:29:38Z</time>
      </trkpt>
      <trkpt lat="44.01307" lon="4.2947">
        <ele>252.4</ele>
        <time>2011-11-13T10:29:39Z</time>
      </trkpt>
      <trkpt lat="44.01302" lon="4.29468">
        <ele>252</ele>
        <time>2011-11-13T10:29:40Z</time>
      </trkpt>
      <trkpt lat="44.01296" lon="4.29468">
        <ele>251.5</ele>
        <time>2011-11-13T10:29:41Z</time>
      </trkpt>
      <trkpt lat="44.01292" lon="4.29468">
        <ele>251.1</ele>
        <time>2011-11-13T10:29:42Z</time>
      </trkpt>
      <trkpt lat="44.01283" lon="4.29468">
        <ele>250.3</ele>
        <time>2011-11-13T10:29:44Z</time>
      </trkpt>
      <trkpt lat="44.01277" lon="4.29471">
        <ele>250.1</ele>
        <time>2011-11-13T10:29:46Z</time>
      </trkpt>
      <trkpt lat="44.01274" lon="4.29478">
        <ele>250.2</ele>
        <time>2011-11-13T10:29:48Z</time>
      </trkpt>
      <trkpt lat="44.01274" lon="4.29486">
        <ele>250.1</ele>
        <time>2011-11-13T10:29:50Z</time>
      </trkpt>
      <trkpt lat="44.01273" lon="4.29494">
        <ele>249.9</ele>
        <time>2011-11-13T10:29:52Z</time>
      </trkpt>
      <trkpt lat="44.01271" lon="4.29501">
        <ele>249.9</ele>
        <time>2011-11-13T10:29:54Z</time>
      </trkpt>
      <trkpt lat="44.01269" lon="4.29507">
        <ele>250.1</ele>
        <time>2011-11-13T10:29:56Z</time>
      </trkpt>
      <trkpt lat="44.01268" lon="4.29515">
        <ele>250</ele>
        <time>2011-11-13T10:29:58Z</time>
      </trkpt>
      <trkpt lat="44.01266" lon="4.29522">
        <ele>249.8</ele>
        <time>2011-11-13T10:30:00Z</time>
      </trkpt>
      <trkpt lat="44.01264" lon="4.2953">
        <ele>249.8</ele>
        <time>2011-11-13T10:30:02Z</time>
      </trkpt>
      <trkpt lat="44.01262" lon="4.29538">
        <ele>249.9</ele>
        <time>2011-11-13T10:30:04Z</time>
      </trkpt>
      <trkpt lat="44.01261" lon="4.29545">
        <ele>249.7</ele>
        <time>2011-11-13T10:30:06Z</time>
      </trkpt>
      <trkpt lat="44.0126" lon="4.29551">
        <ele>249.7</ele>
        <time>2011-11-13T10:30:08Z</time>
      </trkpt>
      <trkpt lat="44.0126" lon="4.29558">
        <ele>249.7</ele>
        <time>2011-11-13T10:30:10Z</time>
      </trkpt>
      <trkpt lat="44.01259" lon="4.29566">
        <ele>250</ele>
        <time>2011-11-13T10:30:13Z</time>
      </trkpt>
      <trkpt lat="44.0126" lon="4.29574">
        <ele>250</ele>
        <time>2011-11-13T10:30:16Z</time>
      </trkpt>
      <trkpt lat="44.0126" lon="4.29583">
        <ele>250.2</ele>
        <time>2011-11-13T10:30:19Z</time>
      </trkpt>
      <trkpt lat="44.01258" lon="4.2959">
        <ele>251</ele>
        <time>2011-11-13T10:30:22Z</time>
      </trkpt>
      <trkpt lat="44.01256" lon="4.29596">
        <ele>251.8</ele>
        <time>2011-11-13T10:30:25Z</time>
      </trkpt>
      <trkpt lat="44.01254" lon="4.29602">
        <ele>252.3</ele>
        <time>2011-11-13T10:30:28Z</time>
      </trkpt>
      <trkpt lat="44.01251" lon="4.29608">
        <ele>253.1</ele>
        <time>2011-11-13T10:30:32Z</time>
      </trkpt>
      <trkpt lat="44.01248" lon="4.29614">
        <ele>253.9</ele>
        <time>2011-11-13T10:30:36Z</time>
      </trkpt>
      <trkpt lat="44.01245" lon="4.29619">
        <ele>254.8</ele>
        <time>2011-11-13T10:30:41Z</time>
      </trkpt>
      <trkpt lat="44.01243" lon="4.29625">
        <ele>254.7</ele>
        <time>2011-11-13T10:30:46Z</time>
      </trkpt>
      <trkpt lat="44.01241" lon="4.29632">
        <ele>254.5</ele>
        <time>2011-11-13T10:30:50Z</time>
      </trkpt>
      <trkpt lat="44.01239" lon="4.29638">
        <ele>254.5</ele>
        <time>2011-11-13T10:30:53Z</time>
      </trkpt>
      <trkpt lat="44.01236" lon="4.29643">
        <ele>254.2</ele>
        <time>2011-11-13T10:30:55Z</time>
      </trkpt>
      <trkpt lat="44.01235" lon="4.2965">
        <ele>254.5</ele>
        <time>2011-11-13T10:30:58Z</time>
      </trkpt>
      <trkpt lat="44.01232" lon="4.29657">
        <ele>255.3</ele>
        <time>2011-11-13T10:31:01Z</time>
      </trkpt>
      <trkpt lat="44.01231" lon="4.29665">
        <ele>255.2</ele>
        <time>2011-11-13T10:31:04Z</time>
      </trkpt>
      <trkpt lat="44.01229" lon="4.29672">
        <ele>255.1</ele>
        <time>2011-11-13T10:31:08Z</time>
      </trkpt>
      <trkpt lat="44.01226" lon="4.29678">
        <ele>255.8</ele>
        <time>2011-11-13T10:31:11Z</time>
      </trkpt>
      <trkpt lat="44.01224" lon="4.29686">
        <ele>256</ele>
        <time>2011-11-13T10:31:14Z</time>
      </trkpt>
      <trkpt lat="44.01221" lon="4.29692">
        <ele>257.1</ele>
        <time>2011-11-13T10:31:17Z</time>
      </trkpt>
      <trkpt lat="44.01221" lon="4.29698">
        <ele>256.9</ele>
        <time>2011-11-13T10:31:22Z</time>
      </trkpt>
      <trkpt lat="44.0122" lon="4.29704">
        <ele>256.7</ele>
        <time>2011-11-13T10:31:26Z</time>
      </trkpt>
      <trkpt lat="44.01218" lon="4.29712">
        <ele>256.4</ele>
        <time>2011-11-13T10:31:29Z</time>
      </trkpt>
      <trkpt lat="44.01217" lon="4.29718">
        <ele>256.2</ele>
        <time>2011-11-13T10:31:31Z</time>
      </trkpt>
      <trkpt lat="44.01214" lon="4.29727">
        <ele>256.3</ele>
        <time>2011-11-13T10:31:33Z</time>
      </trkpt>
      <trkpt lat="44.01212" lon="4.29737">
        <ele>256.3</ele>
        <time>2011-11-13T10:31:35Z</time>
      </trkpt>
      <trkpt lat="44.0121" lon="4.29746">
        <ele>256.3</ele>
        <time>2011-11-13T10:31:37Z</time>
      </trkpt>
      <trkpt lat="44.01209" lon="4.29754">
        <ele>256.3</ele>
        <time>2011-11-13T10:31:39Z</time>
      </trkpt>
      <trkpt lat="44.01207" lon="4.29764">
        <ele>256.2</ele>
        <time>2011-11-13T10:31:41Z</time>
      </trkpt>
      <trkpt lat="44.01205" lon="4.29773">
        <ele>256.1</ele>
        <time>2011-11-13T10:31:43Z</time>
      </trkpt>
      <trkpt lat="44.01202" lon="4.29781">
        <ele>256.5</ele>
        <time>2011-11-13T10:31:45Z</time>
      </trkpt>
      <trkpt lat="44.012" lon="4.29788">
        <ele>256.9</ele>
        <time>2011-11-13T10:31:47Z</time>
      </trkpt>
      <trkpt lat="44.01197" lon="4.29795">
        <ele>257</ele>
        <time>2011-11-13T10:31:49Z</time>
      </trkpt>
      <trkpt lat="44.01195" lon="4.29802">
        <ele>257</ele>
        <time>2011-11-13T10:31:51Z</time>
      </trkpt>
      <trkpt lat="44.01193" lon="4.29809">
        <ele>256.6</ele>
        <time>2011-11-13T10:31:53Z</time>
      </trkpt>
      <trkpt lat="44.0119" lon="4.29818">
        <ele>256.4</ele>
        <time>2011-11-13T10:31:55Z</time>
      </trkpt>
      <trkpt lat="44.01186" lon="4.29827">
        <ele>256.5</ele>
        <time>2011-11-13T10:31:57Z</time>
      </trkpt>
      <trkpt lat="44.01184" lon="4.29836">
        <ele>256.2</ele>
        <time>2011-11-13T10:31:59Z</time>
      </trkpt>
      <trkpt lat="44.0118" lon="4.29845">
        <ele>256.1</ele>
        <time>2011-11-13T10:32:01Z</time>
      </trkpt>
      <trkpt lat="44.01177" lon="4.29855">
        <ele>256</ele>
        <time>2011-11-13T10:32:03Z</time>
      </trkpt>
      <trkpt lat="44.01173" lon="4.29864">
        <ele>255.8</ele>
        <time>2011-11-13T10:32:05Z</time>
      </trkpt>
      <trkpt lat="44.0117" lon="4.29872">
        <ele>255.6</ele>
        <time>2011-11-13T10:32:07Z</time>
      </trkpt>
      <trkpt lat="44.01167" lon="4.2988">
        <ele>255.5</ele>
        <time>2011-11-13T10:32:09Z</time>
      </trkpt>
      <trkpt lat="44.01164" lon="4.29888">
        <ele>255.5</ele>
        <time>2011-11-13T10:32:11Z</time>
      </trkpt>
      <trkpt lat="44.0116" lon="4.29895">
        <ele>255.5</ele>
        <time>2011-11-13T10:32:13Z</time>
      </trkpt>
      <trkpt lat="44.01157" lon="4.29901">
        <ele>255.6</ele>
        <time>2011-11-13T10:32:15Z</time>
      </trkpt>
      <trkpt lat="44.01153" lon="4.29905">
        <ele>255.7</ele>
        <time>2011-11-13T10:32:17Z</time>
      </trkpt>
      <trkpt lat="44.01148" lon="4.29908">
        <ele>255.4</ele>
        <time>2011-11-13T10:32:20Z</time>
      </trkpt>
      <trkpt lat="44.01142" lon="4.29906">
        <ele>254.6</ele>
        <time>2011-11-13T10:32:26Z</time>
      </trkpt>
      <trkpt lat="44.01138" lon="4.29901">
        <ele>254.8</ele>
        <time>2011-11-13T10:32:29Z</time>
      </trkpt>
      <trkpt lat="44.01134" lon="4.29895">
        <ele>254.6</ele>
        <time>2011-11-13T10:32:32Z</time>
      </trkpt>
      <trkpt lat="44.01129" lon="4.29894">
        <ele>255.1</ele>
        <time>2011-11-13T10:32:35Z</time>
      </trkpt>
      <trkpt lat="44.01125" lon="4.299">
        <ele>255.4</ele>
        <time>2011-11-13T10:32:38Z</time>
      </trkpt>
      <trkpt lat="44.01124" lon="4.29909">
        <ele>255.6</ele>
        <time>2011-11-13T10:32:41Z</time>
      </trkpt>
      <trkpt lat="44.01124" lon="4.29916">
        <ele>255.7</ele>
        <time>2011-11-13T10:32:44Z</time>
      </trkpt>
      <trkpt lat="44.01125" lon="4.29923">
        <ele>256</ele>
        <time>2011-11-13T10:32:48Z</time>
      </trkpt>
      <trkpt lat="44.01125" lon="4.29929">
        <ele>256.2</ele>
        <time>2011-11-13T10:34:03Z</time>
      </trkpt>
      <trkpt lat="44.01124" lon="4.29937">
        <ele>256.3</ele>
        <time>2011-11-13T10:34:07Z</time>
      </trkpt>
      <trkpt lat="44.01123" lon="4.29945">
        <ele>256.3</ele>
        <time>2011-11-13T10:34:10Z</time>
      </trkpt>
      <trkpt lat="44.01128" lon="4.29984">
        <ele>247.1</ele>
        <time>2011-11-13T10:34:17Z</time>
      </trkpt>
      <trkpt lat="44.01127" lon="4.29991">
        <ele>253.3</ele>
        <time>2011-11-13T10:34:22Z</time>
      </trkpt>
      <trkpt lat="44.01127" lon="4.29998">
        <ele>253.2</ele>
        <time>2011-11-13T10:34:24Z</time>
      </trkpt>
      <trkpt lat="44.01127" lon="4.30005">
        <ele>253.5</ele>
        <time>2011-11-13T10:34:26Z</time>
      </trkpt>
      <trkpt lat="44.01126" lon="4.30014">
        <ele>253</ele>
        <time>2011-11-13T10:34:28Z</time>
      </trkpt>
      <trkpt lat="44.01124" lon="4.30024">
        <ele>251.2</ele>
        <time>2011-11-13T10:34:30Z</time>
      </trkpt>
      <trkpt lat="44.01124" lon="4.30032">
        <ele>251</ele>
        <time>2011-11-13T10:34:32Z</time>
      </trkpt>
      <trkpt lat="44.01122" lon="4.3004">
        <ele>251.8</ele>
        <time>2011-11-13T10:34:34Z</time>
      </trkpt>
      <trkpt lat="44.01122" lon="4.30048">
        <ele>251.6</ele>
        <time>2011-11-13T10:34:36Z</time>
      </trkpt>
      <trkpt lat="44.01121" lon="4.30057">
        <ele>251.3</ele>
        <time>2011-11-13T10:34:38Z</time>
      </trkpt>
      <trkpt lat="44.01121" lon="4.30065">
        <ele>251.5</ele>
        <time>2011-11-13T10:34:40Z</time>
      </trkpt>
      <trkpt lat="44.0112" lon="4.30073">
        <ele>252.1</ele>
        <time>2011-11-13T10:34:42Z</time>
      </trkpt>
      <trkpt lat="44.01119" lon="4.30079">
        <ele>252</ele>
        <time>2011-11-13T10:34:44Z</time>
      </trkpt>
      <trkpt lat="44.01118" lon="4.30086">
        <ele>252.4</ele>
        <time>2011-11-13T10:34:46Z</time>
      </trkpt>
      <trkpt lat="44.01117" lon="4.30093">
        <ele>252.5</ele>
        <time>2011-11-13T10:34:48Z</time>
      </trkpt>
      <trkpt lat="44.01117" lon="4.30102">
        <ele>252.4</ele>
        <time>2011-11-13T10:34:50Z</time>
      </trkpt>
      <trkpt lat="44.01117" lon="4.30109">
        <ele>252.1</ele>
        <time>2011-11-13T10:34:52Z</time>
      </trkpt>
      <trkpt lat="44.01119" lon="4.30116">
        <ele>252.2</ele>
        <time>2011-11-13T10:34:54Z</time>
      </trkpt>
      <trkpt lat="44.01121" lon="4.30124">
        <ele>252.4</ele>
        <time>2011-11-13T10:34:57Z</time>
      </trkpt>
      <trkpt lat="44.01122" lon="4.30132">
        <ele>252.5</ele>
        <time>2011-11-13T10:35:00Z</time>
      </trkpt>
      <trkpt lat="44.01123" lon="4.30139">
        <ele>251.7</ele>
        <time>2011-11-13T10:35:04Z</time>
      </trkpt>
      <trkpt lat="44.01118" lon="4.30146">
        <ele>251.1</ele>
        <time>2011-11-13T10:35:08Z</time>
      </trkpt>
      <trkpt lat="44.01113" lon="4.3015">
        <ele>251.1</ele>
        <time>2011-11-13T10:35:10Z</time>
      </trkpt>
      <trkpt lat="44.01105" lon="4.30156">
        <ele>251.2</ele>
        <time>2011-11-13T10:35:12Z</time>
      </trkpt>
      <trkpt lat="44.01101" lon="4.30159">
        <ele>251.1</ele>
        <time>2011-11-13T10:35:13Z</time>
      </trkpt>
      <trkpt lat="44.01096" lon="4.30162">
        <ele>251.1</ele>
        <time>2011-11-13T10:35:14Z</time>
      </trkpt>
      <trkpt lat="44.01091" lon="4.30164">
        <ele>251.1</ele>
        <time>2011-11-13T10:35:15Z</time>
      </trkpt>
      <trkpt lat="44.01086" lon="4.30167">
        <ele>251.1</ele>
        <time>2011-11-13T10:35:16Z</time>
      </trkpt>
      <trkpt lat="44.01081" lon="4.30169">
        <ele>251</ele>
        <time>2011-11-13T10:35:17Z</time>
      </trkpt>
      <trkpt lat="44.01076" lon="4.30171">
        <ele>251</ele>
        <time>2011-11-13T10:35:18Z</time>
      </trkpt>
      <trkpt lat="44.01071" lon="4.30173">
        <ele>250.7</ele>
        <time>2011-11-13T10:35:19Z</time>
      </trkpt>
      <trkpt lat="44.01066" lon="4.30174">
        <ele>250.6</ele>
        <time>2011-11-13T10:35:20Z</time>
      </trkpt>
      <trkpt lat="44.01061" lon="4.30176">
        <ele>250.7</ele>
        <time>2011-11-13T10:35:21Z</time>
      </trkpt>
      <trkpt lat="44.01056" lon="4.30178">
        <ele>250.6</ele>
        <time>2011-11-13T10:35:22Z</time>
      </trkpt>
      <trkpt lat="44.01051" lon="4.3018">
        <ele>250.6</ele>
        <time>2011-11-13T10:35:23Z</time>
      </trkpt>
      <trkpt lat="44.01046" lon="4.30181">
        <ele>250.6</ele>
        <time>2011-11-13T10:35:24Z</time>
      </trkpt>
      <trkpt lat="44.01039" lon="4.30184">
        <ele>250.6</ele>
        <time>2011-11-13T10:35:26Z</time>
      </trkpt>
      <trkpt lat="44.01035" lon="4.30187">
        <ele>250.7</ele>
        <time>2011-11-13T10:35:33Z</time>
      </trkpt>
      <trkpt lat="44.01034" lon="4.30194">
        <ele>250.7</ele>
        <time>2011-11-13T10:35:38Z</time>
      </trkpt>
      <trkpt lat="44.01034" lon="4.30194">
        <ele>250.7</ele>
        <time>2011-11-13T10:35:38Z</time>
      </trkpt>
      <trkpt lat="44.01034" lon="4.30194">
        <ele>250.7</ele>
        <time>2011-11-13T10:35:45Z</time>
      </trkpt>
      <trkpt lat="44.01036" lon="4.30201">
        <ele>250</ele>
        <time>2011-11-13T10:35:55Z</time>
      </trkpt>
      <trkpt lat="44.0104" lon="4.30205">
        <ele>250.3</ele>
        <time>2011-11-13T10:35:58Z</time>
      </trkpt>
      <trkpt lat="44.01045" lon="4.3021">
        <ele>250.4</ele>
        <time>2011-11-13T10:36:02Z</time>
      </trkpt>
      <trkpt lat="44.01047" lon="4.30219">
        <ele>250.6</ele>
        <time>2011-11-13T10:36:05Z</time>
      </trkpt>
      <trkpt lat="44.01046" lon="4.30228">
        <ele>250.8</ele>
        <time>2011-11-13T10:36:07Z</time>
      </trkpt>
      <trkpt lat="44.01044" lon="4.30236">
        <ele>250.7</ele>
        <time>2011-11-13T10:36:09Z</time>
      </trkpt>
      <trkpt lat="44.01043" lon="4.30246">
        <ele>250.8</ele>
        <time>2011-11-13T10:36:11Z</time>
      </trkpt>
      <trkpt lat="44.01041" lon="4.30257">
        <ele>250.7</ele>
        <time>2011-11-13T10:36:13Z</time>
      </trkpt>
      <trkpt lat="44.0104" lon="4.30263">
        <ele>250.6</ele>
        <time>2011-11-13T10:36:14Z</time>
      </trkpt>
      <trkpt lat="44.0104" lon="4.3027">
        <ele>250.8</ele>
        <time>2011-11-13T10:36:15Z</time>
      </trkpt>
      <trkpt lat="44.01039" lon="4.30278">
        <ele>250.8</ele>
        <time>2011-11-13T10:36:16Z</time>
      </trkpt>
      <trkpt lat="44.01038" lon="4.30285">
        <ele>250.8</ele>
        <time>2011-11-13T10:36:17Z</time>
      </trkpt>
      <trkpt lat="44.01034" lon="4.30301">
        <ele>250.8</ele>
        <time>2011-11-13T10:36:18Z</time>
      </trkpt>
      <trkpt lat="44.01034" lon="4.30311">
        <ele>250.2</ele>
        <time>2011-11-13T10:36:20Z</time>
      </trkpt>
      <trkpt lat="44.01033" lon="4.30319">
        <ele>249.2</ele>
        <time>2011-11-13T10:36:22Z</time>
      </trkpt>
      <trkpt lat="44.01032" lon="4.30328">
        <ele>248.8</ele>
        <time>2011-11-13T10:36:24Z</time>
      </trkpt>
      <trkpt lat="44.01029" lon="4.30336">
        <ele>248.2</ele>
        <time>2011-11-13T10:36:26Z</time>
      </trkpt>
      <trkpt lat="44.01024" lon="4.30343">
        <ele>247.6</ele>
        <time>2011-11-13T10:36:28Z</time>
      </trkpt>
      <trkpt lat="44.0102" lon="4.30347">
        <ele>247.4</ele>
        <time>2011-11-13T10:36:30Z</time>
      </trkpt>
      <trkpt lat="44.01016" lon="4.30352">
        <ele>246.9</ele>
        <time>2011-11-13T10:36:32Z</time>
      </trkpt>
      <trkpt lat="44.01013" lon="4.30357">
        <ele>246.5</ele>
        <time>2011-11-13T10:36:34Z</time>
      </trkpt>
      <trkpt lat="44.0101" lon="4.30363">
        <ele>246.2</ele>
        <time>2011-11-13T10:36:36Z</time>
      </trkpt>
      <trkpt lat="44.01008" lon="4.30372">
        <ele>245.6</ele>
        <time>2011-11-13T10:36:38Z</time>
      </trkpt>
      <trkpt lat="44.01005" lon="4.30382">
        <ele>245.5</ele>
        <time>2011-11-13T10:36:40Z</time>
      </trkpt>
      <trkpt lat="44.01003" lon="4.30392">
        <ele>245.3</ele>
        <time>2011-11-13T10:36:42Z</time>
      </trkpt>
      <trkpt lat="44.01003" lon="4.30399">
        <ele>244.3</ele>
        <time>2011-11-13T10:36:45Z</time>
      </trkpt>
      <trkpt lat="44.01001" lon="4.30406">
        <ele>240.5</ele>
        <time>2011-11-13T10:37:43Z</time>
      </trkpt>
      <trkpt lat="44.00996" lon="4.30411">
        <ele>240.5</ele>
        <time>2011-11-13T10:37:46Z</time>
      </trkpt>
      <trkpt lat="44.00994" lon="4.30418">
        <ele>240.4</ele>
        <time>2011-11-13T10:37:48Z</time>
      </trkpt>
      <trkpt lat="44.00992" lon="4.30424">
        <ele>240.3</ele>
        <time>2011-11-13T10:37:50Z</time>
      </trkpt>
      <trkpt lat="44.0099" lon="4.3043">
        <ele>240.4</ele>
        <time>2011-11-13T10:37:52Z</time>
      </trkpt>
      <trkpt lat="44.00988" lon="4.30437">
        <ele>240.3</ele>
        <time>2011-11-13T10:37:55Z</time>
      </trkpt>
      <trkpt lat="44.00985" lon="4.30444">
        <ele>240</ele>
        <time>2011-11-13T10:37:58Z</time>
      </trkpt>
      <trkpt lat="44.00984" lon="4.30451">
        <ele>240</ele>
        <time>2011-11-13T10:38:00Z</time>
      </trkpt>
      <trkpt lat="44.00984" lon="4.30458">
        <ele>240.2</ele>
        <time>2011-11-13T10:38:02Z</time>
      </trkpt>
      <trkpt lat="44.00985" lon="4.30466">
        <ele>240.3</ele>
        <time>2011-11-13T10:38:04Z</time>
      </trkpt>
      <trkpt lat="44.00986" lon="4.30475">
        <ele>240.2</ele>
        <time>2011-11-13T10:38:06Z</time>
      </trkpt>
      <trkpt lat="44.00987" lon="4.30483">
        <ele>239.7</ele>
        <time>2011-11-13T10:38:08Z</time>
      </trkpt>
      <trkpt lat="44.00987" lon="4.30491">
        <ele>239</ele>
        <time>2011-11-13T10:38:10Z</time>
      </trkpt>
      <trkpt lat="44.00984" lon="4.30524">
        <ele>224.2</ele>
        <time>2011-11-13T10:38:15Z</time>
      </trkpt>
      <trkpt lat="44.00984" lon="4.3053">
        <ele>224.4</ele>
        <time>2011-11-13T10:38:19Z</time>
      </trkpt>
      <trkpt lat="44.00982" lon="4.3054">
        <ele>224</ele>
        <time>2011-11-13T10:38:21Z</time>
      </trkpt>
      <trkpt lat="44.00981" lon="4.3055">
        <ele>223.9</ele>
        <time>2011-11-13T10:38:23Z</time>
      </trkpt>
      <trkpt lat="44.00979" lon="4.30561">
        <ele>223.7</ele>
        <time>2011-11-13T10:38:25Z</time>
      </trkpt>
      <trkpt lat="44.00978" lon="4.30568">
        <ele>223.4</ele>
        <time>2011-11-13T10:38:26Z</time>
      </trkpt>
      <trkpt lat="44.00977" lon="4.30575">
        <ele>222.5</ele>
        <time>2011-11-13T10:38:27Z</time>
      </trkpt>
      <trkpt lat="44.00975" lon="4.30582">
        <ele>222.2</ele>
        <time>2011-11-13T10:38:28Z</time>
      </trkpt>
      <trkpt lat="44.00973" lon="4.30591">
        <ele>222</ele>
        <time>2011-11-13T10:38:30Z</time>
      </trkpt>
      <trkpt lat="44.0097" lon="4.30599">
        <ele>221.8</ele>
        <time>2011-11-13T10:38:32Z</time>
      </trkpt>
      <trkpt lat="44.00964" lon="4.30603">
        <ele>221.4</ele>
        <time>2011-11-13T10:38:34Z</time>
      </trkpt>
      <trkpt lat="44.00956" lon="4.30603">
        <ele>220.7</ele>
        <time>2011-11-13T10:38:36Z</time>
      </trkpt>
      <trkpt lat="44.00948" lon="4.30602">
        <ele>220.9</ele>
        <time>2011-11-13T10:38:38Z</time>
      </trkpt>
      <trkpt lat="44.0094" lon="4.30603">
        <ele>221</ele>
        <time>2011-11-13T10:38:40Z</time>
      </trkpt>
      <trkpt lat="44.00931" lon="4.30603">
        <ele>221.5</ele>
        <time>2011-11-13T10:38:42Z</time>
      </trkpt>
      <trkpt lat="44.00926" lon="4.30603">
        <ele>221.8</ele>
        <time>2011-11-13T10:38:43Z</time>
      </trkpt>
      <trkpt lat="44.00917" lon="4.30602">
        <ele>222.3</ele>
        <time>2011-11-13T10:38:45Z</time>
      </trkpt>
      <trkpt lat="44.00908" lon="4.30601">
        <ele>222.3</ele>
        <time>2011-11-13T10:38:47Z</time>
      </trkpt>
      <trkpt lat="44.00902" lon="4.30601">
        <ele>222.3</ele>
        <time>2011-11-13T10:38:48Z</time>
      </trkpt>
      <trkpt lat="44.00896" lon="4.306">
        <ele>222.4</ele>
        <time>2011-11-13T10:38:49Z</time>
      </trkpt>
      <trkpt lat="44.0089" lon="4.306">
        <ele>222.5</ele>
        <time>2011-11-13T10:38:50Z</time>
      </trkpt>
      <trkpt lat="44.00883" lon="4.30599">
        <ele>222.4</ele>
        <time>2011-11-13T10:38:51Z</time>
      </trkpt>
      <trkpt lat="44.00877" lon="4.30598">
        <ele>222.4</ele>
        <time>2011-11-13T10:38:52Z</time>
      </trkpt>
      <trkpt lat="44.0087" lon="4.30599">
        <ele>222.5</ele>
        <time>2011-11-13T10:38:53Z</time>
      </trkpt>
      <trkpt lat="44.00864" lon="4.306">
        <ele>222.6</ele>
        <time>2011-11-13T10:38:54Z</time>
      </trkpt>
      <trkpt lat="44.00858" lon="4.30602">
        <ele>222.7</ele>
        <time>2011-11-13T10:38:55Z</time>
      </trkpt>
      <trkpt lat="44.00852" lon="4.30606">
        <ele>222.7</ele>
        <time>2011-11-13T10:38:56Z</time>
      </trkpt>
      <trkpt lat="44.00846" lon="4.3061">
        <ele>222.8</ele>
        <time>2011-11-13T10:38:57Z</time>
      </trkpt>
      <trkpt lat="44.0084" lon="4.30613">
        <ele>222.8</ele>
        <time>2011-11-13T10:38:58Z</time>
      </trkpt>
      <trkpt lat="44.00834" lon="4.30615">
        <ele>222.6</ele>
        <time>2011-11-13T10:38:59Z</time>
      </trkpt>
      <trkpt lat="44.00829" lon="4.30617">
        <ele>222.5</ele>
        <time>2011-11-13T10:39:00Z</time>
      </trkpt>
      <trkpt lat="44.00822" lon="4.30618">
        <ele>222.3</ele>
        <time>2011-11-13T10:39:02Z</time>
      </trkpt>
      <trkpt lat="44.00828" lon="4.30615">
        <ele>218.3</ele>
        <time>2011-11-13T10:41:08Z</time>
      </trkpt>
      <trkpt lat="44.00836" lon="4.30618">
        <ele>217.9</ele>
        <time>2011-11-13T10:41:15Z</time>
      </trkpt>
      <trkpt lat="44.00836" lon="4.30618">
        <ele>217.9</ele>
        <time>2011-11-13T10:41:15Z</time>
      </trkpt>
      <trkpt lat="44.00836" lon="4.30618">
        <ele>217.9</ele>
        <time>2011-11-13T10:41:32Z</time>
      </trkpt>
      <trkpt lat="44.00837" lon="4.30625">
        <ele>222.8</ele>
        <time>2011-11-13T10:41:37Z</time>
      </trkpt>
      <trkpt lat="44.00842" lon="4.3063">
        <ele>223.8</ele>
        <time>2011-11-13T10:41:40Z</time>
      </trkpt>
      <trkpt lat="44.00847" lon="4.30633">
        <ele>223.4</ele>
        <time>2011-11-13T10:41:42Z</time>
      </trkpt>
      <trkpt lat="44.00852" lon="4.30636">
        <ele>223.3</ele>
        <time>2011-11-13T10:41:44Z</time>
      </trkpt>
      <trkpt lat="44.00856" lon="4.30638">
        <ele>223.4</ele>
        <time>2011-11-13T10:41:46Z</time>
      </trkpt>
      <trkpt lat="44.00861" lon="4.30641">
        <ele>223.4</ele>
        <time>2011-11-13T10:41:48Z</time>
      </trkpt>
      <trkpt lat="44.00865" lon="4.30645">
        <ele>223.7</ele>
        <time>2011-11-13T10:41:50Z</time>
      </trkpt>
      <trkpt lat="44.00869" lon="4.30649">
        <ele>223.9</ele>
        <time>2011-11-13T10:41:52Z</time>
      </trkpt>
      <trkpt lat="44.00873" lon="4.30653">
        <ele>224.1</ele>
        <time>2011-11-13T10:41:54Z</time>
      </trkpt>
      <trkpt lat="44.00877" lon="4.30656">
        <ele>224.6</ele>
        <time>2011-11-13T10:41:56Z</time>
      </trkpt>
      <trkpt lat="44.00881" lon="4.3066">
        <ele>224.9</ele>
        <time>2011-11-13T10:41:58Z</time>
      </trkpt>
      <trkpt lat="44.00885" lon="4.30664">
        <ele>225.4</ele>
        <time>2011-11-13T10:42:00Z</time>
      </trkpt>
      <trkpt lat="44.0089" lon="4.30667">
        <ele>225.5</ele>
        <time>2011-11-13T10:42:02Z</time>
      </trkpt>
      <trkpt lat="44.00894" lon="4.3067">
        <ele>225.5</ele>
        <time>2011-11-13T10:42:04Z</time>
      </trkpt>
      <trkpt lat="44.00898" lon="4.30675">
        <ele>225.7</ele>
        <time>2011-11-13T10:42:06Z</time>
      </trkpt>
      <trkpt lat="44.00901" lon="4.30681">
        <ele>225.8</ele>
        <time>2011-11-13T10:42:08Z</time>
      </trkpt>
      <trkpt lat="44.00903" lon="4.30688">
        <ele>226.4</ele>
        <time>2011-11-13T10:42:10Z</time>
      </trkpt>
      <trkpt lat="44.00906" lon="4.30698">
        <ele>228.4</ele>
        <time>2011-11-13T10:42:14Z</time>
      </trkpt>
      <trkpt lat="44.00917" lon="4.30708">
        <ele>219.6</ele>
        <time>2011-11-13T10:42:15Z</time>
      </trkpt>
      <trkpt lat="44.00914" lon="4.30704">
        <ele>227.1</ele>
        <time>2011-11-13T10:42:16Z</time>
      </trkpt>
      <trkpt lat="44.00913" lon="4.30712">
        <ele>230.6</ele>
        <time>2011-11-13T10:42:17Z</time>
      </trkpt>
      <trkpt lat="44.0091" lon="4.30718">
        <ele>230.8</ele>
        <time>2011-11-13T10:42:19Z</time>
      </trkpt>
      <trkpt lat="44.00914" lon="4.30727">
        <ele>231.3</ele>
        <time>2011-11-13T10:42:22Z</time>
      </trkpt>
      <trkpt lat="44.00916" lon="4.30735">
        <ele>232</ele>
        <time>2011-11-13T10:42:25Z</time>
      </trkpt>
      <trkpt lat="44.00916" lon="4.30743">
        <ele>232</ele>
        <time>2011-11-13T10:42:27Z</time>
      </trkpt>
      <trkpt lat="44.00916" lon="4.30751">
        <ele>232.5</ele>
        <time>2011-11-13T10:42:29Z</time>
      </trkpt>
      <trkpt lat="44.00917" lon="4.30759">
        <ele>232.5</ele>
        <time>2011-11-13T10:42:31Z</time>
      </trkpt>
      <trkpt lat="44.0092" lon="4.30764">
        <ele>233.3</ele>
        <time>2011-11-13T10:42:34Z</time>
      </trkpt>
      <trkpt lat="44.00924" lon="4.30766">
        <ele>233.1</ele>
        <time>2011-11-13T10:42:38Z</time>
      </trkpt>
      <trkpt lat="44.00929" lon="4.30772">
        <ele>232.1</ele>
        <time>2011-11-13T10:43:21Z</time>
      </trkpt>
      <trkpt lat="44.00935" lon="4.30778">
        <ele>232.3</ele>
        <time>2011-11-13T10:43:23Z</time>
      </trkpt>
      <trkpt lat="44.00941" lon="4.30784">
        <ele>232.2</ele>
        <time>2011-11-13T10:43:25Z</time>
      </trkpt>
      <trkpt lat="44.00946" lon="4.30791">
        <ele>232.2</ele>
        <time>2011-11-13T10:43:27Z</time>
      </trkpt>
      <trkpt lat="44.0095" lon="4.30799">
        <ele>232.5</ele>
        <time>2011-11-13T10:43:29Z</time>
      </trkpt>
      <trkpt lat="44.00954" lon="4.30809">
        <ele>232.4</ele>
        <time>2011-11-13T10:43:31Z</time>
      </trkpt>
      <trkpt lat="44.00958" lon="4.30816">
        <ele>232.1</ele>
        <time>2011-11-13T10:43:33Z</time>
      </trkpt>
      <trkpt lat="44.00962" lon="4.30822">
        <ele>231.1</ele>
        <time>2011-11-13T10:43:35Z</time>
      </trkpt>
      <trkpt lat="44.00967" lon="4.30823">
        <ele>230.1</ele>
        <time>2011-11-13T10:43:39Z</time>
      </trkpt>
      <trkpt lat="44.00971" lon="4.30829">
        <ele>230.5</ele>
        <time>2011-11-13T10:43:45Z</time>
      </trkpt>
      <trkpt lat="44.00974" lon="4.30835">
        <ele>230.6</ele>
        <time>2011-11-13T10:43:47Z</time>
      </trkpt>
      <trkpt lat="44.00976" lon="4.30842">
        <ele>230.8</ele>
        <time>2011-11-13T10:43:49Z</time>
      </trkpt>
      <trkpt lat="44.00978" lon="4.30848">
        <ele>230.9</ele>
        <time>2011-11-13T10:43:51Z</time>
      </trkpt>
      <trkpt lat="44.00981" lon="4.30854">
        <ele>231.2</ele>
        <time>2011-11-13T10:43:54Z</time>
      </trkpt>
      <trkpt lat="44.00982" lon="4.30862">
        <ele>231.6</ele>
        <time>2011-11-13T10:44:00Z</time>
      </trkpt>
      <trkpt lat="44.00982" lon="4.3087">
        <ele>231.7</ele>
        <time>2011-11-13T10:44:02Z</time>
      </trkpt>
      <trkpt lat="44.00982" lon="4.30884">
        <ele>231.9</ele>
        <time>2011-11-13T10:44:04Z</time>
      </trkpt>
      <trkpt lat="44.00982" lon="4.30892">
        <ele>231.9</ele>
        <time>2011-11-13T10:44:05Z</time>
      </trkpt>
      <trkpt lat="44.00983" lon="4.309">
        <ele>232.1</ele>
        <time>2011-11-13T10:44:06Z</time>
      </trkpt>
      <trkpt lat="44.00983" lon="4.30908">
        <ele>232.2</ele>
        <time>2011-11-13T10:44:07Z</time>
      </trkpt>
      <trkpt lat="44.00984" lon="4.30916">
        <ele>232.2</ele>
        <time>2011-11-13T10:44:08Z</time>
      </trkpt>
      <trkpt lat="44.00985" lon="4.30925">
        <ele>232</ele>
        <time>2011-11-13T10:44:09Z</time>
      </trkpt>
      <trkpt lat="44.00987" lon="4.30937">
        <ele>231.6</ele>
        <time>2011-11-13T10:44:10Z</time>
      </trkpt>
      <trkpt lat="44.00992" lon="4.30997">
        <ele>227.6</ele>
        <time>2011-11-13T10:44:15Z</time>
      </trkpt>
      <trkpt lat="44.01005" lon="4.31018">
        <ele>211.6</ele>
        <time>2011-11-13T10:44:16Z</time>
      </trkpt>
      <trkpt lat="44.01006" lon="4.31035">
        <ele>218.5</ele>
        <time>2011-11-13T10:44:18Z</time>
      </trkpt>
      <trkpt lat="44.01009" lon="4.31042">
        <ele>223.5</ele>
        <time>2011-11-13T10:44:20Z</time>
      </trkpt>
      <trkpt lat="44.01014" lon="4.31049">
        <ele>222</ele>
        <time>2011-11-13T10:44:21Z</time>
      </trkpt>
      <trkpt lat="44.01018" lon="4.31054">
        <ele>220.7</ele>
        <time>2011-11-13T10:44:22Z</time>
      </trkpt>
      <trkpt lat="44.01023" lon="4.31059">
        <ele>219.3</ele>
        <time>2011-11-13T10:44:23Z</time>
      </trkpt>
      <trkpt lat="44.01027" lon="4.31064">
        <ele>218.1</ele>
        <time>2011-11-13T10:44:24Z</time>
      </trkpt>
      <trkpt lat="44.01033" lon="4.31071">
        <ele>219.1</ele>
        <time>2011-11-13T10:44:26Z</time>
      </trkpt>
      <trkpt lat="44.01039" lon="4.31077">
        <ele>220.2</ele>
        <time>2011-11-13T10:44:28Z</time>
      </trkpt>
      <trkpt lat="44.01042" lon="4.31081">
        <ele>225.5</ele>
        <time>2011-11-13T10:44:31Z</time>
      </trkpt>
      <trkpt lat="44.01047" lon="4.31087">
        <ele>228.3</ele>
        <time>2011-11-13T10:44:34Z</time>
      </trkpt>
      <trkpt lat="44.01051" lon="4.31094">
        <ele>228.5</ele>
        <time>2011-11-13T10:44:36Z</time>
      </trkpt>
      <trkpt lat="44.01052" lon="4.31101">
        <ele>230.3</ele>
        <time>2011-11-13T10:44:38Z</time>
      </trkpt>
      <trkpt lat="44.01053" lon="4.31109">
        <ele>234.6</ele>
        <time>2011-11-13T10:44:41Z</time>
      </trkpt>
      <trkpt lat="44.01056" lon="4.31115">
        <ele>235.2</ele>
        <time>2011-11-13T10:44:43Z</time>
      </trkpt>
      <trkpt lat="44.01061" lon="4.31121">
        <ele>235.1</ele>
        <time>2011-11-13T10:44:45Z</time>
      </trkpt>
      <trkpt lat="44.01065" lon="4.31126">
        <ele>235.1</ele>
        <time>2011-11-13T10:44:47Z</time>
      </trkpt>
      <trkpt lat="44.0107" lon="4.31129">
        <ele>234.9</ele>
        <time>2011-11-13T10:44:49Z</time>
      </trkpt>
      <trkpt lat="44.01074" lon="4.31133">
        <ele>234.7</ele>
        <time>2011-11-13T10:44:51Z</time>
      </trkpt>
      <trkpt lat="44.01079" lon="4.31138">
        <ele>233.8</ele>
        <time>2011-11-13T10:44:54Z</time>
      </trkpt>
      <trkpt lat="44.01083" lon="4.31142">
        <ele>233.2</ele>
        <time>2011-11-13T10:44:58Z</time>
      </trkpt>
      <trkpt lat="44.01083" lon="4.3115">
        <ele>233</ele>
        <time>2011-11-13T10:45:01Z</time>
      </trkpt>
      <trkpt lat="44.01084" lon="4.31158">
        <ele>232.8</ele>
        <time>2011-11-13T10:45:03Z</time>
      </trkpt>
      <trkpt lat="44.01084" lon="4.31165">
        <ele>233.2</ele>
        <time>2011-11-13T10:45:05Z</time>
      </trkpt>
      <trkpt lat="44.01086" lon="4.31174">
        <ele>233.2</ele>
        <time>2011-11-13T10:45:07Z</time>
      </trkpt>
      <trkpt lat="44.01086" lon="4.31182">
        <ele>233.3</ele>
        <time>2011-11-13T10:45:09Z</time>
      </trkpt>
      <trkpt lat="44.01087" lon="4.31189">
        <ele>233.1</ele>
        <time>2011-11-13T10:45:11Z</time>
      </trkpt>
      <trkpt lat="44.01089" lon="4.31198">
        <ele>232.7</ele>
        <time>2011-11-13T10:45:13Z</time>
      </trkpt>
      <trkpt lat="44.01091" lon="4.31206">
        <ele>232.6</ele>
        <time>2011-11-13T10:45:15Z</time>
      </trkpt>
      <trkpt lat="44.01093" lon="4.31213">
        <ele>232.4</ele>
        <time>2011-11-13T10:45:17Z</time>
      </trkpt>
      <trkpt lat="44.01095" lon="4.3122">
        <ele>232</ele>
        <time>2011-11-13T10:45:19Z</time>
      </trkpt>
      <trkpt lat="44.01099" lon="4.31226">
        <ele>231.7</ele>
        <time>2011-11-13T10:45:21Z</time>
      </trkpt>
      <trkpt lat="44.01107" lon="4.31233">
        <ele>231.8</ele>
        <time>2011-11-13T10:45:23Z</time>
      </trkpt>
      <trkpt lat="44.01111" lon="4.31238">
        <ele>231.8</ele>
        <time>2011-11-13T10:45:24Z</time>
      </trkpt>
      <trkpt lat="44.01114" lon="4.31243">
        <ele>232.1</ele>
        <time>2011-11-13T10:45:25Z</time>
      </trkpt>
      <trkpt lat="44.01117" lon="4.31248">
        <ele>232.6</ele>
        <time>2011-11-13T10:45:26Z</time>
      </trkpt>
      <trkpt lat="44.0112" lon="4.31255">
        <ele>232.5</ele>
        <time>2011-11-13T10:45:27Z</time>
      </trkpt>
      <trkpt lat="44.01123" lon="4.31262">
        <ele>232.6</ele>
        <time>2011-11-13T10:45:28Z</time>
      </trkpt>
      <trkpt lat="44.01124" lon="4.3127">
        <ele>232.7</ele>
        <time>2011-11-13T10:45:29Z</time>
      </trkpt>
      <trkpt lat="44.01125" lon="4.31276">
        <ele>232.8</ele>
        <time>2011-11-13T10:45:30Z</time>
      </trkpt>
      <trkpt lat="44.01127" lon="4.31282">
        <ele>232.9</ele>
        <time>2011-11-13T10:45:31Z</time>
      </trkpt>
      <trkpt lat="44.01128" lon="4.31289">
        <ele>232.9</ele>
        <time>2011-11-13T10:45:32Z</time>
      </trkpt>
      <trkpt lat="44.0113" lon="4.313">
        <ele>233.2</ele>
        <time>2011-11-13T10:45:34Z</time>
      </trkpt>
      <trkpt lat="44.0113" lon="4.31308">
        <ele>233.3</ele>
        <time>2011-11-13T10:45:36Z</time>
      </trkpt>
      <trkpt lat="44.01132" lon="4.31318">
        <ele>233</ele>
        <time>2011-11-13T10:45:38Z</time>
      </trkpt>
      <trkpt lat="44.01131" lon="4.31328">
        <ele>232.9</ele>
        <time>2011-11-13T10:45:40Z</time>
      </trkpt>
      <trkpt lat="44.01131" lon="4.31334">
        <ele>232.7</ele>
        <time>2011-11-13T10:45:41Z</time>
      </trkpt>
      <trkpt lat="44.0113" lon="4.31342">
        <ele>232.8</ele>
        <time>2011-11-13T10:45:42Z</time>
      </trkpt>
      <trkpt lat="44.0113" lon="4.3135">
        <ele>232.9</ele>
        <time>2011-11-13T10:45:43Z</time>
      </trkpt>
      <trkpt lat="44.01129" lon="4.31357">
        <ele>233.1</ele>
        <time>2011-11-13T10:45:44Z</time>
      </trkpt>
      <trkpt lat="44.01127" lon="4.31363">
        <ele>233.2</ele>
        <time>2011-11-13T10:45:45Z</time>
      </trkpt>
      <trkpt lat="44.01125" lon="4.3137">
        <ele>233.1</ele>
        <time>2011-11-13T10:45:46Z</time>
      </trkpt>
      <trkpt lat="44.01119" lon="4.31377">
        <ele>232.3</ele>
        <time>2011-11-13T10:45:47Z</time>
      </trkpt>
      <trkpt lat="44.01112" lon="4.31384">
        <ele>231.9</ele>
        <time>2011-11-13T10:45:48Z</time>
      </trkpt>
      <trkpt lat="44.01108" lon="4.31391">
        <ele>231.6</ele>
        <time>2011-11-13T10:45:49Z</time>
      </trkpt>
      <trkpt lat="44.01102" lon="4.31396">
        <ele>231.4</ele>
        <time>2011-11-13T10:45:50Z</time>
      </trkpt>
      <trkpt lat="44.01097" lon="4.31402">
        <ele>231.6</ele>
        <time>2011-11-13T10:45:51Z</time>
      </trkpt>
      <trkpt lat="44.01094" lon="4.31407">
        <ele>231.4</ele>
        <time>2011-11-13T10:45:52Z</time>
      </trkpt>
      <trkpt lat="44.01089" lon="4.31417">
        <ele>231.7</ele>
        <time>2011-11-13T10:45:54Z</time>
      </trkpt>
      <trkpt lat="44.01084" lon="4.31428">
        <ele>231.7</ele>
        <time>2011-11-13T10:45:56Z</time>
      </trkpt>
      <trkpt lat="44.0108" lon="4.31436">
        <ele>231.6</ele>
        <time>2011-11-13T10:45:58Z</time>
      </trkpt>
      <trkpt lat="44.01075" lon="4.31444">
        <ele>231.6</ele>
        <time>2011-11-13T10:46:00Z</time>
      </trkpt>
      <trkpt lat="44.01071" lon="4.3145">
        <ele>231.3</ele>
        <time>2011-11-13T10:46:02Z</time>
      </trkpt>
      <trkpt lat="44.01066" lon="4.31453">
        <ele>231.1</ele>
        <time>2011-11-13T10:46:04Z</time>
      </trkpt>
      <trkpt lat="44.01061" lon="4.31454">
        <ele>231.1</ele>
        <time>2011-11-13T10:46:06Z</time>
      </trkpt>
      <trkpt lat="44.01053" lon="4.3145">
        <ele>231.2</ele>
        <time>2011-11-13T10:46:08Z</time>
      </trkpt>
      <trkpt lat="44.01048" lon="4.31446">
        <ele>231.1</ele>
        <time>2011-11-13T10:46:09Z</time>
      </trkpt>
      <trkpt lat="44.01041" lon="4.31442">
        <ele>231</ele>
        <time>2011-11-13T10:46:11Z</time>
      </trkpt>
      <trkpt lat="44.01035" lon="4.3144">
        <ele>230.9</ele>
        <time>2011-11-13T10:46:13Z</time>
      </trkpt>
      <trkpt lat="44.0103" lon="4.31438">
        <ele>230.7</ele>
        <time>2011-11-13T10:46:14Z</time>
      </trkpt>
      <trkpt lat="44.01026" lon="4.31435">
        <ele>230.7</ele>
        <time>2011-11-13T10:46:15Z</time>
      </trkpt>
      <trkpt lat="44.01018" lon="4.31431">
        <ele>230.6</ele>
        <time>2011-11-13T10:46:17Z</time>
      </trkpt>
      <trkpt lat="44.01013" lon="4.31429">
        <ele>230.6</ele>
        <time>2011-11-13T10:46:18Z</time>
      </trkpt>
      <trkpt lat="44.01007" lon="4.31428">
        <ele>230.6</ele>
        <time>2011-11-13T10:46:19Z</time>
      </trkpt>
      <trkpt lat="44.01002" lon="4.31428">
        <ele>230.3</ele>
        <time>2011-11-13T10:46:20Z</time>
      </trkpt>
      <trkpt lat="44.00997" lon="4.31429">
        <ele>230.2</ele>
        <time>2011-11-13T10:46:21Z</time>
      </trkpt>
      <trkpt lat="44.00992" lon="4.3143">
        <ele>230.3</ele>
        <time>2011-11-13T10:46:22Z</time>
      </trkpt>
      <trkpt lat="44.00986" lon="4.31432">
        <ele>230.4</ele>
        <time>2011-11-13T10:46:23Z</time>
      </trkpt>
      <trkpt lat="44.00979" lon="4.31434">
        <ele>230.4</ele>
        <time>2011-11-13T10:46:24Z</time>
      </trkpt>
      <trkpt lat="44.00972" lon="4.31436">
        <ele>230.2</ele>
        <time>2011-11-13T10:46:25Z</time>
      </trkpt>
      <trkpt lat="44.00966" lon="4.31439">
        <ele>230</ele>
        <time>2011-11-13T10:46:26Z</time>
      </trkpt>
      <trkpt lat="44.0096" lon="4.31442">
        <ele>229.8</ele>
        <time>2011-11-13T10:46:27Z</time>
      </trkpt>
      <trkpt lat="44.00955" lon="4.31443">
        <ele>229.7</ele>
        <time>2011-11-13T10:46:28Z</time>
      </trkpt>
      <trkpt lat="44.0095" lon="4.31444">
        <ele>229.5</ele>
        <time>2011-11-13T10:46:29Z</time>
      </trkpt>
      <trkpt lat="44.00944" lon="4.31444">
        <ele>229.5</ele>
        <time>2011-11-13T10:46:30Z</time>
      </trkpt>
      <trkpt lat="44.00938" lon="4.31445">
        <ele>229.3</ele>
        <time>2011-11-13T10:46:31Z</time>
      </trkpt>
      <trkpt lat="44.00932" lon="4.31447">
        <ele>229.1</ele>
        <time>2011-11-13T10:46:32Z</time>
      </trkpt>
      <trkpt lat="44.00927" lon="4.31448">
        <ele>228.9</ele>
        <time>2011-11-13T10:46:33Z</time>
      </trkpt>
      <trkpt lat="44.00919" lon="4.3145">
        <ele>228.3</ele>
        <time>2011-11-13T10:46:35Z</time>
      </trkpt>
      <trkpt lat="44.00921" lon="4.31443">
        <ele>225.6</ele>
        <time>2011-11-13T10:46:54Z</time>
      </trkpt>
      <trkpt lat="44.00922" lon="4.31436">
        <ele>225</ele>
        <time>2011-11-13T10:46:56Z</time>
      </trkpt>
      <trkpt lat="44.00921" lon="4.31428">
        <ele>224.6</ele>
        <time>2011-11-13T10:46:58Z</time>
      </trkpt>
      <trkpt lat="44.00917" lon="4.31423">
        <ele>224.4</ele>
        <time>2011-11-13T10:47:00Z</time>
      </trkpt>
      <trkpt lat="44.00913" lon="4.3142">
        <ele>224.4</ele>
        <time>2011-11-13T10:47:02Z</time>
      </trkpt>
      <trkpt lat="44.00905" lon="4.3142">
        <ele>224.4</ele>
        <time>2011-11-13T10:47:04Z</time>
      </trkpt>
      <trkpt lat="44.00898" lon="4.3142">
        <ele>224.4</ele>
        <time>2011-11-13T10:47:05Z</time>
      </trkpt>
      <trkpt lat="44.00891" lon="4.31421">
        <ele>224.5</ele>
        <time>2011-11-13T10:47:06Z</time>
      </trkpt>
      <trkpt lat="44.00883" lon="4.31422">
        <ele>224.7</ele>
        <time>2011-11-13T10:47:07Z</time>
      </trkpt>
      <trkpt lat="44.00876" lon="4.31424">
        <ele>224.9</ele>
        <time>2011-11-13T10:47:08Z</time>
      </trkpt>
      <trkpt lat="44.00869" lon="4.31427">
        <ele>224.9</ele>
        <time>2011-11-13T10:47:09Z</time>
      </trkpt>
      <trkpt lat="44.00863" lon="4.3143">
        <ele>224.8</ele>
        <time>2011-11-13T10:47:10Z</time>
      </trkpt>
      <trkpt lat="44.00839" lon="4.31429">
        <ele>222.3</ele>
        <time>2011-11-13T10:47:14Z</time>
      </trkpt>
      <trkpt lat="44.00827" lon="4.31424">
        <ele>217</ele>
        <time>2011-11-13T10:47:18Z</time>
      </trkpt>
      <trkpt lat="44.00819" lon="4.3142">
        <ele>218</ele>
        <time>2011-11-13T10:47:21Z</time>
      </trkpt>
      <trkpt lat="44.00814" lon="4.31421">
        <ele>224.9</ele>
        <time>2011-11-13T10:47:23Z</time>
      </trkpt>
      <trkpt lat="44.00807" lon="4.31416">
        <ele>226.9</ele>
        <time>2011-11-13T10:47:26Z</time>
      </trkpt>
      <trkpt lat="44.00801" lon="4.31413">
        <ele>224.8</ele>
        <time>2011-11-13T10:47:28Z</time>
      </trkpt>
      <trkpt lat="44.00795" lon="4.31409">
        <ele>222.6</ele>
        <time>2011-11-13T10:47:30Z</time>
      </trkpt>
      <trkpt lat="44.00788" lon="4.31403">
        <ele>223.2</ele>
        <time>2011-11-13T10:47:32Z</time>
      </trkpt>
      <trkpt lat="44.0078" lon="4.31397">
        <ele>222.6</ele>
        <time>2011-11-13T10:47:34Z</time>
      </trkpt>
      <trkpt lat="44.00772" lon="4.31394">
        <ele>221.5</ele>
        <time>2011-11-13T10:47:36Z</time>
      </trkpt>
      <trkpt lat="44.00767" lon="4.31393">
        <ele>220.4</ele>
        <time>2011-11-13T10:47:37Z</time>
      </trkpt>
      <trkpt lat="44.00761" lon="4.31392">
        <ele>218.9</ele>
        <time>2011-11-13T10:47:38Z</time>
      </trkpt>
      <trkpt lat="44.00756" lon="4.31391">
        <ele>214.9</ele>
        <time>2011-11-13T10:47:39Z</time>
      </trkpt>
      <trkpt lat="44.00751" lon="4.31391">
        <ele>212.1</ele>
        <time>2011-11-13T10:47:40Z</time>
      </trkpt>
      <trkpt lat="44.00745" lon="4.3139">
        <ele>211.2</ele>
        <time>2011-11-13T10:47:41Z</time>
      </trkpt>
      <trkpt lat="44.00739" lon="4.3139">
        <ele>210.9</ele>
        <time>2011-11-13T10:47:42Z</time>
      </trkpt>
      <trkpt lat="44.00733" lon="4.31389">
        <ele>210.2</ele>
        <time>2011-11-13T10:47:43Z</time>
      </trkpt>
      <trkpt lat="44.00728" lon="4.31388">
        <ele>210.2</ele>
        <time>2011-11-13T10:47:44Z</time>
      </trkpt>
      <trkpt lat="44.00722" lon="4.31385">
        <ele>210</ele>
        <time>2011-11-13T10:47:45Z</time>
      </trkpt>
      <trkpt lat="44.00717" lon="4.31382">
        <ele>209.8</ele>
        <time>2011-11-13T10:47:46Z</time>
      </trkpt>
      <trkpt lat="44.00712" lon="4.3138">
        <ele>209.7</ele>
        <time>2011-11-13T10:47:47Z</time>
      </trkpt>
      <trkpt lat="44.00708" lon="4.31377">
        <ele>209.6</ele>
        <time>2011-11-13T10:47:48Z</time>
      </trkpt>
      <trkpt lat="44.00703" lon="4.31374">
        <ele>209.5</ele>
        <time>2011-11-13T10:47:49Z</time>
      </trkpt>
      <trkpt lat="44.00699" lon="4.3137">
        <ele>209.3</ele>
        <time>2011-11-13T10:47:50Z</time>
      </trkpt>
      <trkpt lat="44.00695" lon="4.31368">
        <ele>208.9</ele>
        <time>2011-11-13T10:47:51Z</time>
      </trkpt>
      <trkpt lat="44.00691" lon="4.31365">
        <ele>208.8</ele>
        <time>2011-11-13T10:47:52Z</time>
      </trkpt>
      <trkpt lat="44.00686" lon="4.31362">
        <ele>208.8</ele>
        <time>2011-11-13T10:47:53Z</time>
      </trkpt>
      <trkpt lat="44.00682" lon="4.3136">
        <ele>208.9</ele>
        <time>2011-11-13T10:47:54Z</time>
      </trkpt>
      <trkpt lat="44.00677" lon="4.31358">
        <ele>208.7</ele>
        <time>2011-11-13T10:47:55Z</time>
      </trkpt>
      <trkpt lat="44.00672" lon="4.31356">
        <ele>208.5</ele>
        <time>2011-11-13T10:47:56Z</time>
      </trkpt>
      <trkpt lat="44.00667" lon="4.31356">
        <ele>208.3</ele>
        <time>2011-11-13T10:47:57Z</time>
      </trkpt>
      <trkpt lat="44.00662" lon="4.31356">
        <ele>208.2</ele>
        <time>2011-11-13T10:47:58Z</time>
      </trkpt>
      <trkpt lat="44.00657" lon="4.3136">
        <ele>208.1</ele>
        <time>2011-11-13T10:47:59Z</time>
      </trkpt>
      <trkpt lat="44.00652" lon="4.31365">
        <ele>208</ele>
        <time>2011-11-13T10:48:00Z</time>
      </trkpt>
      <trkpt lat="44.00647" lon="4.3137">
        <ele>207.8</ele>
        <time>2011-11-13T10:48:01Z</time>
      </trkpt>
      <trkpt lat="44.00644" lon="4.31375">
        <ele>207.7</ele>
        <time>2011-11-13T10:48:02Z</time>
      </trkpt>
      <trkpt lat="44.00641" lon="4.31381">
        <ele>207.5</ele>
        <time>2011-11-13T10:48:03Z</time>
      </trkpt>
      <trkpt lat="44.0064" lon="4.31387">
        <ele>207.4</ele>
        <time>2011-11-13T10:48:04Z</time>
      </trkpt>
      <trkpt lat="44.00635" lon="4.31397">
        <ele>207.1</ele>
        <time>2011-11-13T10:48:06Z</time>
      </trkpt>
      <trkpt lat="44.00628" lon="4.31405">
        <ele>206.2</ele>
        <time>2011-11-13T10:48:08Z</time>
      </trkpt>
      <trkpt lat="44.00621" lon="4.3141">
        <ele>204.8</ele>
        <time>2011-11-13T10:48:10Z</time>
      </trkpt>
      <trkpt lat="44.00612" lon="4.31428">
        <ele>192.5</ele>
        <time>2011-11-13T10:48:14Z</time>
      </trkpt>
      <trkpt lat="44.00622" lon="4.31455">
        <ele>185.2</ele>
        <time>2011-11-13T10:48:17Z</time>
      </trkpt>
      <trkpt lat="44.00621" lon="4.31463">
        <ele>185</ele>
        <time>2011-11-13T10:48:18Z</time>
      </trkpt>
      <trkpt lat="44.00622" lon="4.31471">
        <ele>184.9</ele>
        <time>2011-11-13T10:48:19Z</time>
      </trkpt>
      <trkpt lat="44.00621" lon="4.31477">
        <ele>186</ele>
        <time>2011-11-13T10:48:20Z</time>
      </trkpt>
      <trkpt lat="44.0062" lon="4.31483">
        <ele>186.1</ele>
        <time>2011-11-13T10:48:21Z</time>
      </trkpt>
      <trkpt lat="44.00618" lon="4.31489">
        <ele>189.8</ele>
        <time>2011-11-13T10:48:47Z</time>
      </trkpt>
      <trkpt lat="44.00615" lon="4.31493">
        <ele>189.9</ele>
        <time>2011-11-13T10:48:53Z</time>
      </trkpt>
      <trkpt lat="44.00614" lon="4.315">
        <ele>189.9</ele>
        <time>2011-11-13T10:48:56Z</time>
      </trkpt>
      <trkpt lat="44.00613" lon="4.31506">
        <ele>189.8</ele>
        <time>2011-11-13T10:48:58Z</time>
      </trkpt>
      <trkpt lat="44.00611" lon="4.31514">
        <ele>189.9</ele>
        <time>2011-11-13T10:49:00Z</time>
      </trkpt>
      <trkpt lat="44.00609" lon="4.31523">
        <ele>189.8</ele>
        <time>2011-11-13T10:49:02Z</time>
      </trkpt>
      <trkpt lat="44.00607" lon="4.31532">
        <ele>189.8</ele>
        <time>2011-11-13T10:49:04Z</time>
      </trkpt>
      <trkpt lat="44.00603" lon="4.31542">
        <ele>189.8</ele>
        <time>2011-11-13T10:49:06Z</time>
      </trkpt>
      <trkpt lat="44.006" lon="4.31551">
        <ele>189.8</ele>
        <time>2011-11-13T10:49:08Z</time>
      </trkpt>
      <trkpt lat="44.00595" lon="4.3156">
        <ele>189.9</ele>
        <time>2011-11-13T10:49:10Z</time>
      </trkpt>
      <trkpt lat="44.00578" lon="4.31585">
        <ele>192.1</ele>
        <time>2011-11-13T10:49:14Z</time>
      </trkpt>
      <trkpt lat="44.00573" lon="4.31598">
        <ele>192.2</ele>
        <time>2011-11-13T10:49:15Z</time>
      </trkpt>
      <trkpt lat="44.0057" lon="4.31602">
        <ele>190.2</ele>
        <time>2011-11-13T10:49:16Z</time>
      </trkpt>
      <trkpt lat="44.00568" lon="4.3161">
        <ele>188.4</ele>
        <time>2011-11-13T10:49:18Z</time>
      </trkpt>
      <trkpt lat="44.00567" lon="4.31619">
        <ele>188.9</ele>
        <time>2011-11-13T10:49:20Z</time>
      </trkpt>
      <trkpt lat="44.00566" lon="4.31626">
        <ele>187.3</ele>
        <time>2011-11-13T10:49:21Z</time>
      </trkpt>
      <trkpt lat="44.00563" lon="4.31632">
        <ele>184.3</ele>
        <time>2011-11-13T10:49:22Z</time>
      </trkpt>
      <trkpt lat="44.00562" lon="4.31639">
        <ele>182.7</ele>
        <time>2011-11-13T10:49:23Z</time>
      </trkpt>
      <trkpt lat="44.00563" lon="4.3165">
        <ele>182.3</ele>
        <time>2011-11-13T10:49:25Z</time>
      </trkpt>
      <trkpt lat="44.00565" lon="4.31658">
        <ele>184.1</ele>
        <time>2011-11-13T10:49:27Z</time>
      </trkpt>
      <trkpt lat="44.00568" lon="4.31668">
        <ele>183.9</ele>
        <time>2011-11-13T10:49:29Z</time>
      </trkpt>
      <trkpt lat="44.00569" lon="4.31675">
        <ele>183.6</ele>
        <time>2011-11-13T10:49:30Z</time>
      </trkpt>
      <trkpt lat="44.00571" lon="4.31687">
        <ele>184.1</ele>
        <time>2011-11-13T10:49:32Z</time>
      </trkpt>
      <trkpt lat="44.00573" lon="4.31693">
        <ele>184.2</ele>
        <time>2011-11-13T10:49:33Z</time>
      </trkpt>
      <trkpt lat="44.00574" lon="4.317">
        <ele>184.4</ele>
        <time>2011-11-13T10:49:34Z</time>
      </trkpt>
      <trkpt lat="44.00575" lon="4.31708">
        <ele>185.2</ele>
        <time>2011-11-13T10:49:35Z</time>
      </trkpt>
      <trkpt lat="44.00575" lon="4.31714">
        <ele>185.6</ele>
        <time>2011-11-13T10:49:36Z</time>
      </trkpt>
      <trkpt lat="44.00578" lon="4.31722">
        <ele>185.8</ele>
        <time>2011-11-13T10:49:38Z</time>
      </trkpt>
      <trkpt lat="44.00583" lon="4.31729">
        <ele>185.8</ele>
        <time>2011-11-13T10:49:40Z</time>
      </trkpt>
      <trkpt lat="44.00589" lon="4.3173">
        <ele>185.5</ele>
        <time>2011-11-13T10:49:42Z</time>
      </trkpt>
      <trkpt lat="44.00593" lon="4.31728">
        <ele>186</ele>
        <time>2011-11-13T10:49:46Z</time>
      </trkpt>
      <trkpt lat="44.00593" lon="4.31728">
        <ele>186</ele>
        <time>2011-11-13T10:49:46Z</time>
      </trkpt>
      <trkpt lat="44.00593" lon="4.31728">
        <ele>186</ele>
        <time>2011-11-13T10:50:20Z</time>
      </trkpt>
      <trkpt lat="44.00595" lon="4.31734">
        <ele>180.6</ele>
        <time>2011-11-13T10:50:33Z</time>
      </trkpt>
    </trkseg>
  </trk>
</gpx>